<?xml version="1.0" encoding="UTF-8" standalone="no" ?>
<gpx xmlns="http://www.topografix.com/GPX/1/1" xmlns:xsi="http://www.w3.org/2001/XMLSchema-instance" xsi:schemaLocation="http://www.topografix.com/GPX/1/1 http://www.topografix.com/GPX/1/1/gpx.xsd" version="1.1" creator="VisuGPX - https://www.visugpx.com">
  <metadata>
    <name>140517ROBMontrieuxEquestreValbelle</name>
    <desc><![CDATA[Sortie ROB]]></desc>
  </metadata>
  <trk>
    <name><![CDATA[140517ROBMontrieuxEquestreValbelle]]></name>
    <trkseg>
      <trkpt lat="43.26286" lon="5.96361">
        <ele>240</ele>
        <time>2014-05-17T12:20:28Z</time>
      </trkpt>
      <trkpt lat="43.26286" lon="5.9636">
        <ele>240</ele>
        <time>2014-05-17T12:20:31Z</time>
      </trkpt>
      <trkpt lat="43.26286" lon="5.96361">
        <ele>240</ele>
        <time>2014-05-17T12:20:33Z</time>
      </trkpt>
      <trkpt lat="43.26286" lon="5.96364">
        <ele>240</ele>
        <time>2014-05-17T12:20:35Z</time>
      </trkpt>
      <trkpt lat="43.26279" lon="5.96365">
        <ele>240</ele>
        <time>2014-05-17T12:20:41Z</time>
      </trkpt>
      <trkpt lat="43.26278" lon="5.96366">
        <ele>240</ele>
        <time>2014-05-17T12:20:43Z</time>
      </trkpt>
      <trkpt lat="43.26271" lon="5.96372">
        <ele>240</ele>
        <time>2014-05-17T12:20:48Z</time>
      </trkpt>
      <trkpt lat="43.2627" lon="5.96374">
        <ele>240</ele>
        <time>2014-05-17T12:20:49Z</time>
      </trkpt>
      <trkpt lat="43.26268" lon="5.96378">
        <ele>240</ele>
        <time>2014-05-17T12:20:51Z</time>
      </trkpt>
      <trkpt lat="43.26264" lon="5.96386">
        <ele>240</ele>
        <time>2014-05-17T12:20:54Z</time>
      </trkpt>
      <trkpt lat="43.26257" lon="5.96404">
        <ele>242.54483032227</ele>
        <time>2014-05-17T12:21:00Z</time>
      </trkpt>
      <trkpt lat="43.26255" lon="5.96406">
        <ele>243.0651550293</ele>
        <time>2014-05-17T12:21:01Z</time>
      </trkpt>
      <trkpt lat="43.26245" lon="5.96416">
        <ele>247.22305297852</ele>
        <time>2014-05-17T12:21:08Z</time>
      </trkpt>
      <trkpt lat="43.26241" lon="5.96418">
        <ele>248.47212219238</ele>
        <time>2014-05-17T12:21:10Z</time>
      </trkpt>
      <trkpt lat="43.26236" lon="5.96423">
        <ele>250.73263549805</ele>
        <time>2014-05-17T12:21:14Z</time>
      </trkpt>
      <trkpt lat="43.26234" lon="5.96427">
        <ele>252.00192260742</ele>
        <time>2014-05-17T12:21:16Z</time>
      </trkpt>
      <trkpt lat="43.26233" lon="5.9643">
        <ele>252.7039642334</ele>
        <time>2014-05-17T12:21:17Z</time>
      </trkpt>
      <trkpt lat="43.26229" lon="5.9644">
        <ele>255.2483215332</ele>
        <time>2014-05-17T12:21:22Z</time>
      </trkpt>
      <trkpt lat="43.26222" lon="5.96447">
        <ele>257.71597290039</ele>
        <time>2014-05-17T12:21:27Z</time>
      </trkpt>
      <trkpt lat="43.26219" lon="5.96451">
        <ele>259.97866821289</ele>
        <time>2014-05-17T12:21:29Z</time>
      </trkpt>
      <trkpt lat="43.26216" lon="5.96455">
        <ele>261.77307128906</ele>
        <time>2014-05-17T12:21:31Z</time>
      </trkpt>
      <trkpt lat="43.26213" lon="5.96462">
        <ele>264.63391113281</ele>
        <time>2014-05-17T12:21:34Z</time>
      </trkpt>
      <trkpt lat="43.26207" lon="5.96475">
        <ele>268.94107055664</ele>
        <time>2014-05-17T12:21:38Z</time>
      </trkpt>
      <trkpt lat="43.26202" lon="5.9649">
        <ele>273.36706542969</ele>
        <time>2014-05-17T12:21:43Z</time>
      </trkpt>
      <trkpt lat="43.262" lon="5.96493">
        <ele>274.16409301758</ele>
        <time>2014-05-17T12:21:45Z</time>
      </trkpt>
      <trkpt lat="43.26198" lon="5.96505">
        <ele>276.77200317383</ele>
        <time>2014-05-17T12:21:50Z</time>
      </trkpt>
      <trkpt lat="43.26198" lon="5.96512">
        <ele>277.86679077148</ele>
        <time>2014-05-17T12:21:53Z</time>
      </trkpt>
      <trkpt lat="43.26198" lon="5.96518">
        <ele>278.71160888672</ele>
        <time>2014-05-17T12:21:55Z</time>
      </trkpt>
      <trkpt lat="43.26197" lon="5.9652">
        <ele>279.04315185547</ele>
        <time>2014-05-17T12:21:57Z</time>
      </trkpt>
      <trkpt lat="43.26193" lon="5.96528">
        <ele>279.99798583984</ele>
        <time>2014-05-17T12:22:02Z</time>
      </trkpt>
      <trkpt lat="43.26186" lon="5.96543">
        <ele>283.9303894043</ele>
        <time>2014-05-17T12:22:08Z</time>
      </trkpt>
      <trkpt lat="43.26183" lon="5.96548">
        <ele>284.71240234375</ele>
        <time>2014-05-17T12:22:10Z</time>
      </trkpt>
      <trkpt lat="43.26174" lon="5.96551">
        <ele>283.28363037109</ele>
        <time>2014-05-17T12:22:16Z</time>
      </trkpt>
      <trkpt lat="43.2617" lon="5.96553">
        <ele>282.48333740234</ele>
        <time>2014-05-17T12:22:18Z</time>
      </trkpt>
      <trkpt lat="43.26166" lon="5.96553">
        <ele>281.5182800293</ele>
        <time>2014-05-17T12:22:20Z</time>
      </trkpt>
      <trkpt lat="43.26151" lon="5.96552">
        <ele>280.53610229492</ele>
        <time>2014-05-17T12:22:29Z</time>
      </trkpt>
      <trkpt lat="43.26136" lon="5.96552">
        <ele>281.18649291992</ele>
        <time>2014-05-17T12:22:37Z</time>
      </trkpt>
      <trkpt lat="43.26134" lon="5.96552">
        <ele>282.02157592773</ele>
        <time>2014-05-17T12:22:38Z</time>
      </trkpt>
      <trkpt lat="43.26131" lon="5.96554">
        <ele>283.47540283203</ele>
        <time>2014-05-17T12:22:41Z</time>
      </trkpt>
      <trkpt lat="43.26126" lon="5.96566">
        <ele>286.12066650391</ele>
        <time>2014-05-17T12:22:46Z</time>
      </trkpt>
      <trkpt lat="43.26124" lon="5.96577">
        <ele>287.57177734375</ele>
        <time>2014-05-17T12:22:50Z</time>
      </trkpt>
      <trkpt lat="43.2612" lon="5.96591">
        <ele>289.81539916992</ele>
        <time>2014-05-17T12:22:56Z</time>
      </trkpt>
      <trkpt lat="43.26117" lon="5.96605">
        <ele>292.14050292969</ele>
        <time>2014-05-17T12:23:01Z</time>
      </trkpt>
      <trkpt lat="43.26114" lon="5.96608">
        <ele>293.22256469727</ele>
        <time>2014-05-17T12:23:04Z</time>
      </trkpt>
      <trkpt lat="43.26113" lon="5.9661">
        <ele>293.55749511719</ele>
        <time>2014-05-17T12:23:05Z</time>
      </trkpt>
      <trkpt lat="43.26108" lon="5.96621">
        <ele>294.54354858398</ele>
        <time>2014-05-17T12:23:09Z</time>
      </trkpt>
      <trkpt lat="43.26103" lon="5.96636">
        <ele>295.21334838867</ele>
        <time>2014-05-17T12:23:16Z</time>
      </trkpt>
      <trkpt lat="43.261" lon="5.96644">
        <ele>295.39428710938</ele>
        <time>2014-05-17T12:23:19Z</time>
      </trkpt>
      <trkpt lat="43.26099" lon="5.96645">
        <ele>295.43548583984</ele>
        <time>2014-05-17T12:23:20Z</time>
      </trkpt>
      <trkpt lat="43.26096" lon="5.96651">
        <ele>295.53161621094</ele>
        <time>2014-05-17T12:23:23Z</time>
      </trkpt>
      <trkpt lat="43.26091" lon="5.96673">
        <ele>296.02026367188</ele>
        <time>2014-05-17T12:23:30Z</time>
      </trkpt>
      <trkpt lat="43.26091" lon="5.96678">
        <ele>296.23947143555</ele>
        <time>2014-05-17T12:23:31Z</time>
      </trkpt>
      <trkpt lat="43.26091" lon="5.96681">
        <ele>296.37023925781</ele>
        <time>2014-05-17T12:23:32Z</time>
      </trkpt>
      <trkpt lat="43.26089" lon="5.96693">
        <ele>296.92562866211</ele>
        <time>2014-05-17T12:23:36Z</time>
      </trkpt>
      <trkpt lat="43.26086" lon="5.96708">
        <ele>297.49356079102</ele>
        <time>2014-05-17T12:23:41Z</time>
      </trkpt>
      <trkpt lat="43.26081" lon="5.96721">
        <ele>297.95877075195</ele>
        <time>2014-05-17T12:23:46Z</time>
      </trkpt>
      <trkpt lat="43.26079" lon="5.9673">
        <ele>298</ele>
        <time>2014-05-17T12:23:49Z</time>
      </trkpt>
      <trkpt lat="43.26076" lon="5.96741">
        <ele>298</ele>
        <time>2014-05-17T12:23:53Z</time>
      </trkpt>
      <trkpt lat="43.26074" lon="5.96751">
        <ele>298.07019042969</ele>
        <time>2014-05-17T12:23:56Z</time>
      </trkpt>
      <trkpt lat="43.26074" lon="5.9677">
        <ele>299.4674987793</ele>
        <time>2014-05-17T12:24:01Z</time>
      </trkpt>
      <trkpt lat="43.26074" lon="5.96777">
        <ele>299.95843505859</ele>
        <time>2014-05-17T12:24:03Z</time>
      </trkpt>
      <trkpt lat="43.26075" lon="5.96784">
        <ele>300</ele>
        <time>2014-05-17T12:24:05Z</time>
      </trkpt>
      <trkpt lat="43.26076" lon="5.96793">
        <ele>300</ele>
        <time>2014-05-17T12:24:08Z</time>
      </trkpt>
      <trkpt lat="43.26077" lon="5.96801">
        <ele>300</ele>
        <time>2014-05-17T12:24:11Z</time>
      </trkpt>
      <trkpt lat="43.26077" lon="5.96806">
        <ele>300</ele>
        <time>2014-05-17T12:24:13Z</time>
      </trkpt>
      <trkpt lat="43.26077" lon="5.96808">
        <ele>300</ele>
        <time>2014-05-17T12:24:14Z</time>
      </trkpt>
      <trkpt lat="43.26077" lon="5.96811">
        <ele>300</ele>
        <time>2014-05-17T12:24:15Z</time>
      </trkpt>
      <trkpt lat="43.26076" lon="5.96817">
        <ele>300</ele>
        <time>2014-05-17T12:24:17Z</time>
      </trkpt>
      <trkpt lat="43.26076" lon="5.96827">
        <ele>300</ele>
        <time>2014-05-17T12:24:23Z</time>
      </trkpt>
      <trkpt lat="43.26075" lon="5.96832">
        <ele>300</ele>
        <time>2014-05-17T12:24:25Z</time>
      </trkpt>
      <trkpt lat="43.26075" lon="5.96838">
        <ele>300</ele>
        <time>2014-05-17T12:24:29Z</time>
      </trkpt>
      <trkpt lat="43.26075" lon="5.96848">
        <ele>300</ele>
        <time>2014-05-17T12:24:33Z</time>
      </trkpt>
      <trkpt lat="43.26073" lon="5.96851">
        <ele>300</ele>
        <time>2014-05-17T12:24:35Z</time>
      </trkpt>
      <trkpt lat="43.26073" lon="5.96852">
        <ele>300</ele>
        <time>2014-05-17T12:24:36Z</time>
      </trkpt>
      <trkpt lat="43.26072" lon="5.96865">
        <ele>300</ele>
        <time>2014-05-17T12:24:41Z</time>
      </trkpt>
      <trkpt lat="43.26072" lon="5.96878">
        <ele>300</ele>
        <time>2014-05-17T12:24:46Z</time>
      </trkpt>
      <trkpt lat="43.26072" lon="5.96882">
        <ele>300</ele>
        <time>2014-05-17T12:24:48Z</time>
      </trkpt>
      <trkpt lat="43.26072" lon="5.96897">
        <ele>300</ele>
        <time>2014-05-17T12:24:55Z</time>
      </trkpt>
      <trkpt lat="43.26068" lon="5.96913">
        <ele>300</ele>
        <time>2014-05-17T12:25:02Z</time>
      </trkpt>
      <trkpt lat="43.26064" lon="5.96922">
        <ele>300.31405639648</ele>
        <time>2014-05-17T12:25:07Z</time>
      </trkpt>
      <trkpt lat="43.26058" lon="5.96926">
        <ele>300.4192199707</ele>
        <time>2014-05-17T12:25:11Z</time>
      </trkpt>
      <trkpt lat="43.2605" lon="5.96924">
        <ele>300.21124267578</ele>
        <time>2014-05-17T12:25:16Z</time>
      </trkpt>
      <trkpt lat="43.26044" lon="5.96922">
        <ele>300.1044921875</ele>
        <time>2014-05-17T12:25:20Z</time>
      </trkpt>
      <trkpt lat="43.26041" lon="5.96921">
        <ele>300.07223510742</ele>
        <time>2014-05-17T12:25:22Z</time>
      </trkpt>
      <trkpt lat="43.2603" lon="5.96915">
        <ele>300</ele>
        <time>2014-05-17T12:25:29Z</time>
      </trkpt>
      <trkpt lat="43.26026" lon="5.96911">
        <ele>300</ele>
        <time>2014-05-17T12:25:32Z</time>
      </trkpt>
      <trkpt lat="43.26011" lon="5.96901">
        <ele>300</ele>
        <time>2014-05-17T12:25:41Z</time>
      </trkpt>
      <trkpt lat="43.26004" lon="5.96897">
        <ele>300</ele>
        <time>2014-05-17T12:25:45Z</time>
      </trkpt>
      <trkpt lat="43.26002" lon="5.96893">
        <ele>300</ele>
        <time>2014-05-17T12:25:47Z</time>
      </trkpt>
      <trkpt lat="43.25994" lon="5.96886">
        <ele>300</ele>
        <time>2014-05-17T12:25:52Z</time>
      </trkpt>
      <trkpt lat="43.2599" lon="5.96882">
        <ele>300</ele>
        <time>2014-05-17T12:25:55Z</time>
      </trkpt>
      <trkpt lat="43.25984" lon="5.96874">
        <ele>300</ele>
        <time>2014-05-17T12:25:59Z</time>
      </trkpt>
      <trkpt lat="43.25978" lon="5.96865">
        <ele>300</ele>
        <time>2014-05-17T12:26:03Z</time>
      </trkpt>
      <trkpt lat="43.25968" lon="5.96857">
        <ele>300</ele>
        <time>2014-05-17T12:26:09Z</time>
      </trkpt>
      <trkpt lat="43.25966" lon="5.96856">
        <ele>300</ele>
        <time>2014-05-17T12:26:10Z</time>
      </trkpt>
      <trkpt lat="43.25964" lon="5.96854">
        <ele>300</ele>
        <time>2014-05-17T12:26:11Z</time>
      </trkpt>
      <trkpt lat="43.25963" lon="5.96852">
        <ele>300</ele>
        <time>2014-05-17T12:26:12Z</time>
      </trkpt>
      <trkpt lat="43.25958" lon="5.96844">
        <ele>300</ele>
        <time>2014-05-17T12:26:15Z</time>
      </trkpt>
      <trkpt lat="43.25946" lon="5.96832">
        <ele>300</ele>
        <time>2014-05-17T12:26:20Z</time>
      </trkpt>
      <trkpt lat="43.25935" lon="5.9682">
        <ele>300</ele>
        <time>2014-05-17T12:26:24Z</time>
      </trkpt>
      <trkpt lat="43.25927" lon="5.9681">
        <ele>300</ele>
        <time>2014-05-17T12:26:27Z</time>
      </trkpt>
      <trkpt lat="43.25914" lon="5.96792">
        <ele>300.62622070312</ele>
        <time>2014-05-17T12:26:32Z</time>
      </trkpt>
      <trkpt lat="43.25901" lon="5.96766">
        <ele>301.32009887695</ele>
        <time>2014-05-17T12:26:38Z</time>
      </trkpt>
      <trkpt lat="43.25887" lon="5.9674">
        <ele>300.50518798828</ele>
        <time>2014-05-17T12:26:44Z</time>
      </trkpt>
      <trkpt lat="43.25865" lon="5.96698">
        <ele>304.68313598633</ele>
        <time>2014-05-17T12:26:56Z</time>
      </trkpt>
      <trkpt lat="43.25851" lon="5.9668">
        <ele>304.74618530273</ele>
        <time>2014-05-17T12:27:02Z</time>
      </trkpt>
      <trkpt lat="43.25836" lon="5.96666">
        <ele>305.45495605469</ele>
        <time>2014-05-17T12:27:08Z</time>
      </trkpt>
      <trkpt lat="43.25829" lon="5.9666">
        <ele>306.22222900391</ele>
        <time>2014-05-17T12:27:11Z</time>
      </trkpt>
      <trkpt lat="43.25819" lon="5.96648">
        <ele>307.27966308594</ele>
        <time>2014-05-17T12:27:16Z</time>
      </trkpt>
      <trkpt lat="43.25806" lon="5.96626">
        <ele>308.919921875</ele>
        <time>2014-05-17T12:27:22Z</time>
      </trkpt>
      <trkpt lat="43.25798" lon="5.96615">
        <ele>310.02807617188</ele>
        <time>2014-05-17T12:27:26Z</time>
      </trkpt>
      <trkpt lat="43.25795" lon="5.9661">
        <ele>310.65966796875</ele>
        <time>2014-05-17T12:27:28Z</time>
      </trkpt>
      <trkpt lat="43.2578" lon="5.96587">
        <ele>313.63790893555</ele>
        <time>2014-05-17T12:27:36Z</time>
      </trkpt>
      <trkpt lat="43.25774" lon="5.96564">
        <ele>314.44897460938</ele>
        <time>2014-05-17T12:27:43Z</time>
      </trkpt>
      <trkpt lat="43.25766" lon="5.96546">
        <ele>315.56610107422</ele>
        <time>2014-05-17T12:27:49Z</time>
      </trkpt>
      <trkpt lat="43.25761" lon="5.9653">
        <ele>316.77285766602</ele>
        <time>2014-05-17T12:27:56Z</time>
      </trkpt>
      <trkpt lat="43.25756" lon="5.96516">
        <ele>317.34411621094</ele>
        <time>2014-05-17T12:28:02Z</time>
      </trkpt>
      <trkpt lat="43.25754" lon="5.96508">
        <ele>317.59130859375</ele>
        <time>2014-05-17T12:28:06Z</time>
      </trkpt>
      <trkpt lat="43.25751" lon="5.96502">
        <ele>317.83850097656</ele>
        <time>2014-05-17T12:28:09Z</time>
      </trkpt>
      <trkpt lat="43.25742" lon="5.96491">
        <ele>318</ele>
        <time>2014-05-17T12:28:16Z</time>
      </trkpt>
      <trkpt lat="43.25717" lon="5.96478">
        <ele>318</ele>
        <time>2014-05-17T12:28:32Z</time>
      </trkpt>
      <trkpt lat="43.2571" lon="5.96469">
        <ele>318</ele>
        <time>2014-05-17T12:28:38Z</time>
      </trkpt>
      <trkpt lat="43.25699" lon="5.9646">
        <ele>318</ele>
        <time>2014-05-17T12:28:45Z</time>
      </trkpt>
      <trkpt lat="43.25694" lon="5.96455">
        <ele>318</ele>
        <time>2014-05-17T12:28:48Z</time>
      </trkpt>
      <trkpt lat="43.25688" lon="5.96449">
        <ele>318</ele>
        <time>2014-05-17T12:28:52Z</time>
      </trkpt>
      <trkpt lat="43.25671" lon="5.96434">
        <ele>318.37524414062</ele>
        <time>2014-05-17T12:29:03Z</time>
      </trkpt>
      <trkpt lat="43.25669" lon="5.96433">
        <ele>318.41815185547</ele>
        <time>2014-05-17T12:29:04Z</time>
      </trkpt>
      <trkpt lat="43.25665" lon="5.9643">
        <ele>318.51773071289</ele>
        <time>2014-05-17T12:29:07Z</time>
      </trkpt>
      <trkpt lat="43.25657" lon="5.96429">
        <ele>318.54861450195</ele>
        <time>2014-05-17T12:29:12Z</time>
      </trkpt>
      <trkpt lat="43.25655" lon="5.9643">
        <ele>318.50570678711</ele>
        <time>2014-05-17T12:29:13Z</time>
      </trkpt>
      <trkpt lat="43.25644" lon="5.96439">
        <ele>318.21215820312</ele>
        <time>2014-05-17T12:29:19Z</time>
      </trkpt>
      <trkpt lat="43.25639" lon="5.96442">
        <ele>318.07653808594</ele>
        <time>2014-05-17T12:29:22Z</time>
      </trkpt>
      <trkpt lat="43.25634" lon="5.96447">
        <ele>318.18963623047</ele>
        <time>2014-05-17T12:29:26Z</time>
      </trkpt>
      <trkpt lat="43.25617" lon="5.96464">
        <ele>318.79388427734</ele>
        <time>2014-05-17T12:29:39Z</time>
      </trkpt>
      <trkpt lat="43.25611" lon="5.96474">
        <ele>318.95034790039</ele>
        <time>2014-05-17T12:29:45Z</time>
      </trkpt>
      <trkpt lat="43.25604" lon="5.9648">
        <ele>318.78820800781</ele>
        <time>2014-05-17T12:29:50Z</time>
      </trkpt>
      <trkpt lat="43.25595" lon="5.9649">
        <ele>318.73266601562</ele>
        <time>2014-05-17T12:29:59Z</time>
      </trkpt>
      <trkpt lat="43.2559" lon="5.96494">
        <ele>318.80801391602</ele>
        <time>2014-05-17T12:30:02Z</time>
      </trkpt>
      <trkpt lat="43.25589" lon="5.96496">
        <ele>318.83935546875</ele>
        <time>2014-05-17T12:30:03Z</time>
      </trkpt>
      <trkpt lat="43.25587" lon="5.96497">
        <ele>318.89120483398</ele>
        <time>2014-05-17T12:30:04Z</time>
      </trkpt>
      <trkpt lat="43.25578" lon="5.96504">
        <ele>320.14300537109</ele>
        <time>2014-05-17T12:30:10Z</time>
      </trkpt>
      <trkpt lat="43.2557" lon="5.96508">
        <ele>321.67535400391</ele>
        <time>2014-05-17T12:30:15Z</time>
      </trkpt>
      <trkpt lat="43.25552" lon="5.96521">
        <ele>324.96206665039</ele>
        <time>2014-05-17T12:30:27Z</time>
      </trkpt>
      <trkpt lat="43.25547" lon="5.96523">
        <ele>325.62295532227</ele>
        <time>2014-05-17T12:30:31Z</time>
      </trkpt>
      <trkpt lat="43.25539" lon="5.96526">
        <ele>326.97564697266</ele>
        <time>2014-05-17T12:30:37Z</time>
      </trkpt>
      <trkpt lat="43.2553" lon="5.9653">
        <ele>328.72601318359</ele>
        <time>2014-05-17T12:30:44Z</time>
      </trkpt>
      <trkpt lat="43.25523" lon="5.96531">
        <ele>330.21859741211</ele>
        <time>2014-05-17T12:30:48Z</time>
      </trkpt>
      <trkpt lat="43.25521" lon="5.96531">
        <ele>330.87390136719</ele>
        <time>2014-05-17T12:30:50Z</time>
      </trkpt>
      <trkpt lat="43.25518" lon="5.9653">
        <ele>331.60977172852</ele>
        <time>2014-05-17T12:30:52Z</time>
      </trkpt>
      <trkpt lat="43.25508" lon="5.96527">
        <ele>333.89636230469</ele>
        <time>2014-05-17T12:30:58Z</time>
      </trkpt>
      <trkpt lat="43.25504" lon="5.96522">
        <ele>335.298828125</ele>
        <time>2014-05-17T12:31:02Z</time>
      </trkpt>
      <trkpt lat="43.25503" lon="5.96521">
        <ele>335.53744506836</ele>
        <time>2014-05-17T12:31:03Z</time>
      </trkpt>
      <trkpt lat="43.255" lon="5.96514">
        <ele>336.45584106445</ele>
        <time>2014-05-17T12:31:07Z</time>
      </trkpt>
      <trkpt lat="43.25495" lon="5.96502">
        <ele>337.98059082031</ele>
        <time>2014-05-17T12:31:14Z</time>
      </trkpt>
      <trkpt lat="43.25494" lon="5.965">
        <ele>338.20031738281</ele>
        <time>2014-05-17T12:31:15Z</time>
      </trkpt>
      <trkpt lat="43.25493" lon="5.96497">
        <ele>338.57464599609</ele>
        <time>2014-05-17T12:31:17Z</time>
      </trkpt>
      <trkpt lat="43.2549" lon="5.96491">
        <ele>339.55987548828</ele>
        <time>2014-05-17T12:31:21Z</time>
      </trkpt>
      <trkpt lat="43.25488" lon="5.96486">
        <ele>340.45159912109</ele>
        <time>2014-05-17T12:31:25Z</time>
      </trkpt>
      <trkpt lat="43.25487" lon="5.96485">
        <ele>340.59136962891</ele>
        <time>2014-05-17T12:31:26Z</time>
      </trkpt>
      <trkpt lat="43.25487" lon="5.96484">
        <ele>340.6164855957</ele>
        <time>2014-05-17T12:31:27Z</time>
      </trkpt>
      <trkpt lat="43.25487" lon="5.96484">
        <ele>340.6164855957</ele>
        <time>2014-05-17T12:31:33Z</time>
      </trkpt>
      <trkpt lat="43.25487" lon="5.96484">
        <ele>340.62905883789</ele>
        <time>2014-05-17T12:31:36Z</time>
      </trkpt>
      <trkpt lat="43.25487" lon="5.96484">
        <ele>340.62905883789</ele>
        <time>2014-05-17T12:31:49Z</time>
      </trkpt>
      <trkpt lat="43.25487" lon="5.96484">
        <ele>340.62905883789</ele>
        <time>2014-05-17T12:31:56Z</time>
      </trkpt>
      <trkpt lat="43.25487" lon="5.96484">
        <ele>340.63909912109</ele>
        <time>2014-05-17T12:32:00Z</time>
      </trkpt>
      <trkpt lat="43.25486" lon="5.96482">
        <ele>340.90447998047</ele>
        <time>2014-05-17T12:32:01Z</time>
      </trkpt>
      <trkpt lat="43.25481" lon="5.96476">
        <ele>342.44033813477</ele>
        <time>2014-05-17T12:32:05Z</time>
      </trkpt>
      <trkpt lat="43.2548" lon="5.96475">
        <ele>342.83135986328</ele>
        <time>2014-05-17T12:32:06Z</time>
      </trkpt>
      <trkpt lat="43.25477" lon="5.96467">
        <ele>344.2057800293</ele>
        <time>2014-05-17T12:32:10Z</time>
      </trkpt>
      <trkpt lat="43.25476" lon="5.96465">
        <ele>344.62155151367</ele>
        <time>2014-05-17T12:32:11Z</time>
      </trkpt>
      <trkpt lat="43.25474" lon="5.96461">
        <ele>345.41400146484</ele>
        <time>2014-05-17T12:32:13Z</time>
      </trkpt>
      <trkpt lat="43.25474" lon="5.96459">
        <ele>345.5608215332</ele>
        <time>2014-05-17T12:32:14Z</time>
      </trkpt>
      <trkpt lat="43.25473" lon="5.96451">
        <ele>346.30120849609</ele>
        <time>2014-05-17T12:32:17Z</time>
      </trkpt>
      <trkpt lat="43.25471" lon="5.96435">
        <ele>347.45761108398</ele>
        <time>2014-05-17T12:32:23Z</time>
      </trkpt>
      <trkpt lat="43.25472" lon="5.9643">
        <ele>347.51385498047</ele>
        <time>2014-05-17T12:32:25Z</time>
      </trkpt>
      <trkpt lat="43.25476" lon="5.96415">
        <ele>347.00018310547</ele>
        <time>2014-05-17T12:32:31Z</time>
      </trkpt>
      <trkpt lat="43.2548" lon="5.96394">
        <ele>347.13040161133</ele>
        <time>2014-05-17T12:32:39Z</time>
      </trkpt>
      <trkpt lat="43.2548" lon="5.96378">
        <ele>347.81793212891</ele>
        <time>2014-05-17T12:32:45Z</time>
      </trkpt>
      <trkpt lat="43.25479" lon="5.9636">
        <ele>349.0549621582</ele>
        <time>2014-05-17T12:32:52Z</time>
      </trkpt>
      <trkpt lat="43.25478" lon="5.9635">
        <ele>349.66802978516</ele>
        <time>2014-05-17T12:32:56Z</time>
      </trkpt>
      <trkpt lat="43.25478" lon="5.96343">
        <ele>350.19857788086</ele>
        <time>2014-05-17T12:32:58Z</time>
      </trkpt>
      <trkpt lat="43.25477" lon="5.96322">
        <ele>351.34991455078</ele>
        <time>2014-05-17T12:33:05Z</time>
      </trkpt>
      <trkpt lat="43.25474" lon="5.96305">
        <ele>353.97354125977</ele>
        <time>2014-05-17T12:33:12Z</time>
      </trkpt>
      <trkpt lat="43.2547" lon="5.96273">
        <ele>356.54077148438</ele>
        <time>2014-05-17T12:33:26Z</time>
      </trkpt>
      <trkpt lat="43.25469" lon="5.96259">
        <ele>357.64755249023</ele>
        <time>2014-05-17T12:33:33Z</time>
      </trkpt>
      <trkpt lat="43.25469" lon="5.96255">
        <ele>357.92153930664</ele>
        <time>2014-05-17T12:33:35Z</time>
      </trkpt>
      <trkpt lat="43.25468" lon="5.96247">
        <ele>358.4323425293</ele>
        <time>2014-05-17T12:33:39Z</time>
      </trkpt>
      <trkpt lat="43.25467" lon="5.96232">
        <ele>359.19055175781</ele>
        <time>2014-05-17T12:33:46Z</time>
      </trkpt>
      <trkpt lat="43.25465" lon="5.96226">
        <ele>359.57342529297</ele>
        <time>2014-05-17T12:33:49Z</time>
      </trkpt>
      <trkpt lat="43.25465" lon="5.96216">
        <ele>360.49566650391</ele>
        <time>2014-05-17T12:33:54Z</time>
      </trkpt>
      <trkpt lat="43.25465" lon="5.96212">
        <ele>361.02386474609</ele>
        <time>2014-05-17T12:33:57Z</time>
      </trkpt>
      <trkpt lat="43.25465" lon="5.9621">
        <ele>361.23178100586</ele>
        <time>2014-05-17T12:33:58Z</time>
      </trkpt>
      <trkpt lat="43.25465" lon="5.96207">
        <ele>361.59701538086</ele>
        <time>2014-05-17T12:34:00Z</time>
      </trkpt>
      <trkpt lat="43.25465" lon="5.96206">
        <ele>361.75994873047</ele>
        <time>2014-05-17T12:34:01Z</time>
      </trkpt>
      <trkpt lat="43.25466" lon="5.9619">
        <ele>363.24676513672</ele>
        <time>2014-05-17T12:34:07Z</time>
      </trkpt>
      <trkpt lat="43.25467" lon="5.96184">
        <ele>363.57635498047</ele>
        <time>2014-05-17T12:34:09Z</time>
      </trkpt>
      <trkpt lat="43.25468" lon="5.96175">
        <ele>364.07418823242</ele>
        <time>2014-05-17T12:34:12Z</time>
      </trkpt>
      <trkpt lat="43.25468" lon="5.96172">
        <ele>364.12567138672</ele>
        <time>2014-05-17T12:34:13Z</time>
      </trkpt>
      <trkpt lat="43.25469" lon="5.96168">
        <ele>364.33166503906</ele>
        <time>2014-05-17T12:34:15Z</time>
      </trkpt>
      <trkpt lat="43.25472" lon="5.96149">
        <ele>366.52954101562</ele>
        <time>2014-05-17T12:34:23Z</time>
      </trkpt>
      <trkpt lat="43.25473" lon="5.96147">
        <ele>366.72152709961</ele>
        <time>2014-05-17T12:34:24Z</time>
      </trkpt>
      <trkpt lat="43.25475" lon="5.96134">
        <ele>367.83038330078</ele>
        <time>2014-05-17T12:34:30Z</time>
      </trkpt>
      <trkpt lat="43.25476" lon="5.96132">
        <ele>367.98489379883</ele>
        <time>2014-05-17T12:34:31Z</time>
      </trkpt>
      <trkpt lat="43.25481" lon="5.96122">
        <ele>367.97973632812</ele>
        <time>2014-05-17T12:34:36Z</time>
      </trkpt>
      <trkpt lat="43.25483" lon="5.96119">
        <ele>367.81494140625</ele>
        <time>2014-05-17T12:34:38Z</time>
      </trkpt>
      <trkpt lat="43.25496" lon="5.96111">
        <ele>366.05780029297</ele>
        <time>2014-05-17T12:34:47Z</time>
      </trkpt>
      <trkpt lat="43.25501" lon="5.9611">
        <ele>365.08020019531</ele>
        <time>2014-05-17T12:34:51Z</time>
      </trkpt>
      <trkpt lat="43.25502" lon="5.96109">
        <ele>365.05960083008</ele>
        <time>2014-05-17T12:34:52Z</time>
      </trkpt>
      <trkpt lat="43.25511" lon="5.96104">
        <ele>365.20037841797</ele>
        <time>2014-05-17T12:34:58Z</time>
      </trkpt>
      <trkpt lat="43.2552" lon="5.96099">
        <ele>365.02526855469</ele>
        <time>2014-05-17T12:35:04Z</time>
      </trkpt>
      <trkpt lat="43.25523" lon="5.96097">
        <ele>365.109375</ele>
        <time>2014-05-17T12:35:07Z</time>
      </trkpt>
      <trkpt lat="43.25525" lon="5.96096">
        <ele>364.98751831055</ele>
        <time>2014-05-17T12:35:08Z</time>
      </trkpt>
      <trkpt lat="43.25527" lon="5.96096">
        <ele>364.85360717773</ele>
        <time>2014-05-17T12:35:10Z</time>
      </trkpt>
      <trkpt lat="43.25533" lon="5.96093">
        <ele>364.82220458984</ele>
        <time>2014-05-17T12:35:15Z</time>
      </trkpt>
      <trkpt lat="43.25538" lon="5.96091">
        <ele>364.89599609375</ele>
        <time>2014-05-17T12:35:18Z</time>
      </trkpt>
      <trkpt lat="43.25541" lon="5.96089">
        <ele>365.14147949219</ele>
        <time>2014-05-17T12:35:20Z</time>
      </trkpt>
      <trkpt lat="43.25544" lon="5.96087">
        <ele>365.15008544922</ele>
        <time>2014-05-17T12:35:22Z</time>
      </trkpt>
      <trkpt lat="43.25556" lon="5.9608">
        <ele>365.63784790039</ele>
        <time>2014-05-17T12:35:28Z</time>
      </trkpt>
      <trkpt lat="43.25562" lon="5.96075">
        <ele>365.65777587891</ele>
        <time>2014-05-17T12:35:32Z</time>
      </trkpt>
      <trkpt lat="43.25566" lon="5.96072">
        <ele>365.66583251953</ele>
        <time>2014-05-17T12:35:35Z</time>
      </trkpt>
      <trkpt lat="43.2557" lon="5.96064">
        <ele>366.55133056641</ele>
        <time>2014-05-17T12:35:40Z</time>
      </trkpt>
      <trkpt lat="43.2557" lon="5.96059">
        <ele>367.30950927734</ele>
        <time>2014-05-17T12:35:43Z</time>
      </trkpt>
      <trkpt lat="43.25571" lon="5.96053">
        <ele>368.01971435547</ele>
        <time>2014-05-17T12:35:47Z</time>
      </trkpt>
      <trkpt lat="43.25571" lon="5.96051">
        <ele>368.34756469727</ele>
        <time>2014-05-17T12:35:49Z</time>
      </trkpt>
      <trkpt lat="43.25566" lon="5.96035">
        <ele>370.68731689453</ele>
        <time>2014-05-17T12:35:59Z</time>
      </trkpt>
      <trkpt lat="43.25564" lon="5.96026">
        <ele>372.03393554688</ele>
        <time>2014-05-17T12:36:06Z</time>
      </trkpt>
      <trkpt lat="43.25563" lon="5.9602">
        <ele>373.08450317383</ele>
        <time>2014-05-17T12:36:09Z</time>
      </trkpt>
      <trkpt lat="43.25563" lon="5.96016">
        <ele>373.64068603516</ele>
        <time>2014-05-17T12:36:11Z</time>
      </trkpt>
      <trkpt lat="43.25563" lon="5.96015">
        <ele>373.88101196289</ele>
        <time>2014-05-17T12:36:12Z</time>
      </trkpt>
      <trkpt lat="43.25563" lon="5.96014">
        <ele>374.01834106445</ele>
        <time>2014-05-17T12:36:13Z</time>
      </trkpt>
      <trkpt lat="43.25563" lon="5.96014">
        <ele>374.01834106445</ele>
        <time>2014-05-17T12:36:17Z</time>
      </trkpt>
      <trkpt lat="43.25562" lon="5.96013">
        <ele>374.27926635742</ele>
        <time>2014-05-17T12:36:20Z</time>
      </trkpt>
      <trkpt lat="43.25562" lon="5.96013">
        <ele>374.27926635742</ele>
        <time>2014-05-17T12:36:33Z</time>
      </trkpt>
      <trkpt lat="43.25562" lon="5.96013">
        <ele>374.27926635742</ele>
        <time>2014-05-17T12:36:39Z</time>
      </trkpt>
      <trkpt lat="43.25563" lon="5.9601">
        <ele>374.43719482422</ele>
        <time>2014-05-17T12:36:43Z</time>
      </trkpt>
      <trkpt lat="43.25571" lon="5.95998">
        <ele>375.25073242188</ele>
        <time>2014-05-17T12:36:47Z</time>
      </trkpt>
      <trkpt lat="43.25577" lon="5.9599">
        <ele>375.70733642578</ele>
        <time>2014-05-17T12:36:49Z</time>
      </trkpt>
      <trkpt lat="43.25587" lon="5.95977">
        <ele>376.67434692383</ele>
        <time>2014-05-17T12:36:52Z</time>
      </trkpt>
      <trkpt lat="43.25601" lon="5.95966">
        <ele>376.6396484375</ele>
        <time>2014-05-17T12:36:56Z</time>
      </trkpt>
      <trkpt lat="43.25605" lon="5.95964">
        <ele>376.48068237305</ele>
        <time>2014-05-17T12:36:57Z</time>
      </trkpt>
      <trkpt lat="43.25608" lon="5.95963">
        <ele>376.23706054688</ele>
        <time>2014-05-17T12:36:58Z</time>
      </trkpt>
      <trkpt lat="43.25616" lon="5.95961">
        <ele>375.43505859375</ele>
        <time>2014-05-17T12:37:00Z</time>
      </trkpt>
      <trkpt lat="43.25626" lon="5.95956">
        <ele>374.39828491211</ele>
        <time>2014-05-17T12:37:03Z</time>
      </trkpt>
      <trkpt lat="43.25637" lon="5.95947">
        <ele>373.05661010742</ele>
        <time>2014-05-17T12:37:08Z</time>
      </trkpt>
      <trkpt lat="43.25639" lon="5.95946">
        <ele>372.82153320312</ele>
        <time>2014-05-17T12:37:09Z</time>
      </trkpt>
      <trkpt lat="43.25641" lon="5.95945">
        <ele>372.60180664062</ele>
        <time>2014-05-17T12:37:10Z</time>
      </trkpt>
      <trkpt lat="43.25645" lon="5.95942">
        <ele>372.15258789062</ele>
        <time>2014-05-17T12:37:12Z</time>
      </trkpt>
      <trkpt lat="43.25647" lon="5.95941">
        <ele>371.94467163086</ele>
        <time>2014-05-17T12:37:13Z</time>
      </trkpt>
      <trkpt lat="43.25652" lon="5.95934">
        <ele>371.63739013672</ele>
        <time>2014-05-17T12:37:16Z</time>
      </trkpt>
      <trkpt lat="43.25652" lon="5.95932">
        <ele>371.72778320312</ele>
        <time>2014-05-17T12:37:17Z</time>
      </trkpt>
      <trkpt lat="43.25653" lon="5.95925">
        <ele>372.29306030273</ele>
        <time>2014-05-17T12:37:20Z</time>
      </trkpt>
      <trkpt lat="43.25653" lon="5.95922">
        <ele>372.5207824707</ele>
        <time>2014-05-17T12:37:21Z</time>
      </trkpt>
      <trkpt lat="43.25653" lon="5.95919">
        <ele>372.83013916016</ele>
        <time>2014-05-17T12:37:22Z</time>
      </trkpt>
      <trkpt lat="43.2565" lon="5.95908">
        <ele>374.4169921875</ele>
        <time>2014-05-17T12:37:25Z</time>
      </trkpt>
      <trkpt lat="43.25655" lon="5.95895">
        <ele>374.51272583008</ele>
        <time>2014-05-17T12:37:28Z</time>
      </trkpt>
      <trkpt lat="43.25657" lon="5.95891">
        <ele>374.39212036133</ele>
        <time>2014-05-17T12:37:29Z</time>
      </trkpt>
      <trkpt lat="43.25664" lon="5.9588">
        <ele>373.23916625977</ele>
        <time>2014-05-17T12:37:32Z</time>
      </trkpt>
      <trkpt lat="43.25674" lon="5.95865">
        <ele>372.94946289062</ele>
        <time>2014-05-17T12:37:37Z</time>
      </trkpt>
      <trkpt lat="43.25677" lon="5.95845">
        <ele>373.98876953125</ele>
        <time>2014-05-17T12:37:43Z</time>
      </trkpt>
      <trkpt lat="43.25677" lon="5.95842">
        <ele>374.24969482422</ele>
        <time>2014-05-17T12:37:44Z</time>
      </trkpt>
      <trkpt lat="43.25678" lon="5.95827">
        <ele>375.09555053711</ele>
        <time>2014-05-17T12:37:47Z</time>
      </trkpt>
      <trkpt lat="43.25679" lon="5.95823">
        <ele>375.28839111328</ele>
        <time>2014-05-17T12:37:48Z</time>
      </trkpt>
      <trkpt lat="43.25685" lon="5.9581">
        <ele>375.1321105957</ele>
        <time>2014-05-17T12:37:52Z</time>
      </trkpt>
      <trkpt lat="43.2569" lon="5.95805">
        <ele>374.6943359375</ele>
        <time>2014-05-17T12:37:54Z</time>
      </trkpt>
      <trkpt lat="43.257" lon="5.95798">
        <ele>373.90438842773</ele>
        <time>2014-05-17T12:37:57Z</time>
      </trkpt>
      <trkpt lat="43.25713" lon="5.95787">
        <ele>372.95205688477</ele>
        <time>2014-05-17T12:38:01Z</time>
      </trkpt>
      <trkpt lat="43.25729" lon="5.95766">
        <ele>371.7216796875</ele>
        <time>2014-05-17T12:38:07Z</time>
      </trkpt>
      <trkpt lat="43.25732" lon="5.95761">
        <ele>371.57061767578</ele>
        <time>2014-05-17T12:38:08Z</time>
      </trkpt>
      <trkpt lat="43.25734" lon="5.95756">
        <ele>371.57235717773</ele>
        <time>2014-05-17T12:38:09Z</time>
      </trkpt>
      <trkpt lat="43.25735" lon="5.95752">
        <ele>371.59637451172</ele>
        <time>2014-05-17T12:38:10Z</time>
      </trkpt>
      <trkpt lat="43.25735" lon="5.95749">
        <ele>371.68572998047</ele>
        <time>2014-05-17T12:38:11Z</time>
      </trkpt>
      <trkpt lat="43.25735" lon="5.95746">
        <ele>371.87799072266</ele>
        <time>2014-05-17T12:38:14Z</time>
      </trkpt>
      <trkpt lat="43.25735" lon="5.95746">
        <ele>371.87799072266</ele>
        <time>2014-05-17T12:38:16Z</time>
      </trkpt>
      <trkpt lat="43.25735" lon="5.95744">
        <ele>371.97067260742</ele>
        <time>2014-05-17T12:38:20Z</time>
      </trkpt>
      <trkpt lat="43.25736" lon="5.95742">
        <ele>372.04962158203</ele>
        <time>2014-05-17T12:38:23Z</time>
      </trkpt>
      <trkpt lat="43.25737" lon="5.9574">
        <ele>372.18353271484</ele>
        <time>2014-05-17T12:38:29Z</time>
      </trkpt>
      <trkpt lat="43.25737" lon="5.95737">
        <ele>372.37921142578</ele>
        <time>2014-05-17T12:38:30Z</time>
      </trkpt>
      <trkpt lat="43.25737" lon="5.95734">
        <ele>372.5749206543</ele>
        <time>2014-05-17T12:38:32Z</time>
      </trkpt>
      <trkpt lat="43.25737" lon="5.95734">
        <ele>372.5749206543</ele>
        <time>2014-05-17T12:38:37Z</time>
      </trkpt>
      <trkpt lat="43.25737" lon="5.95734">
        <ele>372.5749206543</ele>
        <time>2014-05-17T12:38:44Z</time>
      </trkpt>
      <trkpt lat="43.25737" lon="5.95723">
        <ele>373.29931640625</ele>
        <time>2014-05-17T12:38:48Z</time>
      </trkpt>
      <trkpt lat="43.25741" lon="5.95713">
        <ele>373.27960205078</ele>
        <time>2014-05-17T12:38:51Z</time>
      </trkpt>
      <trkpt lat="43.25751" lon="5.95692">
        <ele>372.65707397461</ele>
        <time>2014-05-17T12:38:56Z</time>
      </trkpt>
      <trkpt lat="43.25753" lon="5.95688">
        <ele>372.28323364258</ele>
        <time>2014-05-17T12:38:57Z</time>
      </trkpt>
      <trkpt lat="43.25761" lon="5.95666">
        <ele>370.67306518555</ele>
        <time>2014-05-17T12:39:01Z</time>
      </trkpt>
      <trkpt lat="43.25764" lon="5.95659">
        <ele>369.97222900391</ele>
        <time>2014-05-17T12:39:02Z</time>
      </trkpt>
      <trkpt lat="43.25772" lon="5.95649">
        <ele>367.26840209961</ele>
        <time>2014-05-17T12:39:04Z</time>
      </trkpt>
      <trkpt lat="43.25777" lon="5.95645">
        <ele>365.83322143555</ele>
        <time>2014-05-17T12:39:05Z</time>
      </trkpt>
      <trkpt lat="43.25782" lon="5.95642">
        <ele>365.10131835938</ele>
        <time>2014-05-17T12:39:06Z</time>
      </trkpt>
      <trkpt lat="43.25788" lon="5.9564">
        <ele>364.4524230957</ele>
        <time>2014-05-17T12:39:07Z</time>
      </trkpt>
      <trkpt lat="43.25793" lon="5.95638">
        <ele>363.88571166992</ele>
        <time>2014-05-17T12:39:08Z</time>
      </trkpt>
      <trkpt lat="43.25799" lon="5.95634">
        <ele>363.48745727539</ele>
        <time>2014-05-17T12:39:09Z</time>
      </trkpt>
      <trkpt lat="43.25805" lon="5.9563">
        <ele>363.09606933594</ele>
        <time>2014-05-17T12:39:10Z</time>
      </trkpt>
      <trkpt lat="43.25817" lon="5.95619">
        <ele>362.88885498047</ele>
        <time>2014-05-17T12:39:13Z</time>
      </trkpt>
      <trkpt lat="43.25821" lon="5.95614">
        <ele>363.04333496094</ele>
        <time>2014-05-17T12:39:14Z</time>
      </trkpt>
      <trkpt lat="43.25827" lon="5.95601">
        <ele>363.77459716797</ele>
        <time>2014-05-17T12:39:16Z</time>
      </trkpt>
      <trkpt lat="43.25834" lon="5.95591">
        <ele>364.06298828125</ele>
        <time>2014-05-17T12:39:18Z</time>
      </trkpt>
      <trkpt lat="43.25844" lon="5.95586">
        <ele>363.60980224609</ele>
        <time>2014-05-17T12:39:20Z</time>
      </trkpt>
      <trkpt lat="43.25858" lon="5.9558">
        <ele>362.59393310547</ele>
        <time>2014-05-17T12:39:23Z</time>
      </trkpt>
      <trkpt lat="43.25869" lon="5.95572">
        <ele>361.94848632812</ele>
        <time>2014-05-17T12:39:26Z</time>
      </trkpt>
      <trkpt lat="43.25876" lon="5.95563">
        <ele>361.90045166016</ele>
        <time>2014-05-17T12:39:28Z</time>
      </trkpt>
      <trkpt lat="43.25882" lon="5.9555">
        <ele>362.38836669922</ele>
        <time>2014-05-17T12:39:30Z</time>
      </trkpt>
      <trkpt lat="43.2589" lon="5.9553">
        <ele>363.59432983398</ele>
        <time>2014-05-17T12:39:34Z</time>
      </trkpt>
      <trkpt lat="43.25891" lon="5.95525">
        <ele>363.99563598633</ele>
        <time>2014-05-17T12:39:36Z</time>
      </trkpt>
      <trkpt lat="43.25891" lon="5.95519">
        <ele>364.39044189453</ele>
        <time>2014-05-17T12:39:39Z</time>
      </trkpt>
      <trkpt lat="43.25891" lon="5.95512">
        <ele>364.88827514648</ele>
        <time>2014-05-17T12:39:42Z</time>
      </trkpt>
      <trkpt lat="43.25891" lon="5.95506">
        <ele>365.2590637207</ele>
        <time>2014-05-17T12:39:45Z</time>
      </trkpt>
      <trkpt lat="43.25893" lon="5.95492">
        <ele>366.11737060547</ele>
        <time>2014-05-17T12:39:51Z</time>
      </trkpt>
      <trkpt lat="43.25893" lon="5.95489">
        <ele>366.37829589844</ele>
        <time>2014-05-17T12:39:53Z</time>
      </trkpt>
      <trkpt lat="43.25893" lon="5.95486">
        <ele>366.60488891602</ele>
        <time>2014-05-17T12:39:55Z</time>
      </trkpt>
      <trkpt lat="43.25893" lon="5.95482">
        <ele>366.79028320312</ele>
        <time>2014-05-17T12:39:57Z</time>
      </trkpt>
      <trkpt lat="43.25894" lon="5.95475">
        <ele>367.29153442383</ele>
        <time>2014-05-17T12:40:02Z</time>
      </trkpt>
      <trkpt lat="43.25893" lon="5.95471">
        <ele>367.72808837891</ele>
        <time>2014-05-17T12:40:05Z</time>
      </trkpt>
      <trkpt lat="43.25893" lon="5.95471">
        <ele>367.72808837891</ele>
        <time>2014-05-17T12:40:06Z</time>
      </trkpt>
      <trkpt lat="43.25893" lon="5.95468">
        <ele>367.93856811523</ele>
        <time>2014-05-17T12:40:09Z</time>
      </trkpt>
      <trkpt lat="43.25893" lon="5.95468">
        <ele>367.93856811523</ele>
        <time>2014-05-17T12:40:15Z</time>
      </trkpt>
      <trkpt lat="43.25893" lon="5.95468">
        <ele>367.93856811523</ele>
        <time>2014-05-17T12:40:18Z</time>
      </trkpt>
      <trkpt lat="43.25893" lon="5.95463">
        <ele>368.42156982422</ele>
        <time>2014-05-17T12:40:24Z</time>
      </trkpt>
      <trkpt lat="43.25896" lon="5.95455">
        <ele>368.93307495117</ele>
        <time>2014-05-17T12:40:31Z</time>
      </trkpt>
      <trkpt lat="43.25896" lon="5.95455">
        <ele>368.93307495117</ele>
        <time>2014-05-17T12:40:34Z</time>
      </trkpt>
      <trkpt lat="43.25896" lon="5.95455">
        <ele>368.95886230469</ele>
        <time>2014-05-17T12:40:35Z</time>
      </trkpt>
      <trkpt lat="43.259" lon="5.95446">
        <ele>369.22885131836</ele>
        <time>2014-05-17T12:40:41Z</time>
      </trkpt>
      <trkpt lat="43.25901" lon="5.95443">
        <ele>369.32037353516</ele>
        <time>2014-05-17T12:40:44Z</time>
      </trkpt>
      <trkpt lat="43.25901" lon="5.95443">
        <ele>369.32037353516</ele>
        <time>2014-05-17T12:40:45Z</time>
      </trkpt>
      <trkpt lat="43.25902" lon="5.95442">
        <ele>369.24487304688</ele>
        <time>2014-05-17T12:40:46Z</time>
      </trkpt>
      <trkpt lat="43.25902" lon="5.95442">
        <ele>369.24487304688</ele>
        <time>2014-05-17T12:40:47Z</time>
      </trkpt>
      <trkpt lat="43.25903" lon="5.9544">
        <ele>369.21395874023</ele>
        <time>2014-05-17T12:40:49Z</time>
      </trkpt>
      <trkpt lat="43.25906" lon="5.95438">
        <ele>369.04916381836</ele>
        <time>2014-05-17T12:40:57Z</time>
      </trkpt>
      <trkpt lat="43.25906" lon="5.95436">
        <ele>369.11437988281</ele>
        <time>2014-05-17T12:41:03Z</time>
      </trkpt>
      <trkpt lat="43.25906" lon="5.95436">
        <ele>369.11437988281</ele>
        <time>2014-05-17T12:41:04Z</time>
      </trkpt>
      <trkpt lat="43.2591" lon="5.95429">
        <ele>369.12127685547</ele>
        <time>2014-05-17T12:41:10Z</time>
      </trkpt>
      <trkpt lat="43.25912" lon="5.95421">
        <ele>369.31695556641</ele>
        <time>2014-05-17T12:41:14Z</time>
      </trkpt>
      <trkpt lat="43.25912" lon="5.95419">
        <ele>369.42340087891</ele>
        <time>2014-05-17T12:41:15Z</time>
      </trkpt>
      <trkpt lat="43.25913" lon="5.95416">
        <ele>369.55825805664</ele>
        <time>2014-05-17T12:41:17Z</time>
      </trkpt>
      <trkpt lat="43.25917" lon="5.95404">
        <ele>368.99890136719</ele>
        <time>2014-05-17T12:41:23Z</time>
      </trkpt>
      <trkpt lat="43.25918" lon="5.95397">
        <ele>368.75170898438</ele>
        <time>2014-05-17T12:41:26Z</time>
      </trkpt>
      <trkpt lat="43.25918" lon="5.95387">
        <ele>368.75170898438</ele>
        <time>2014-05-17T12:41:30Z</time>
      </trkpt>
      <trkpt lat="43.25917" lon="5.95374">
        <ele>368.91650390625</ele>
        <time>2014-05-17T12:41:37Z</time>
      </trkpt>
      <trkpt lat="43.25917" lon="5.95365">
        <ele>368.91650390625</ele>
        <time>2014-05-17T12:41:41Z</time>
      </trkpt>
      <trkpt lat="43.25912" lon="5.95344">
        <ele>371.13766479492</ele>
        <time>2014-05-17T12:41:51Z</time>
      </trkpt>
      <trkpt lat="43.25911" lon="5.9534">
        <ele>371.56024169922</ele>
        <time>2014-05-17T12:41:53Z</time>
      </trkpt>
      <trkpt lat="43.25906" lon="5.95323">
        <ele>373.47979736328</ele>
        <time>2014-05-17T12:42:01Z</time>
      </trkpt>
      <trkpt lat="43.25904" lon="5.95316">
        <ele>374.35223388672</ele>
        <time>2014-05-17T12:42:05Z</time>
      </trkpt>
      <trkpt lat="43.25904" lon="5.95305">
        <ele>374.69345092773</ele>
        <time>2014-05-17T12:42:11Z</time>
      </trkpt>
      <trkpt lat="43.25904" lon="5.95299">
        <ele>374.85269165039</ele>
        <time>2014-05-17T12:42:13Z</time>
      </trkpt>
      <trkpt lat="43.25905" lon="5.95293">
        <ele>374.89007568359</ele>
        <time>2014-05-17T12:42:16Z</time>
      </trkpt>
      <trkpt lat="43.25905" lon="5.95276">
        <ele>375.70999145508</ele>
        <time>2014-05-17T12:42:23Z</time>
      </trkpt>
      <trkpt lat="43.25906" lon="5.95272">
        <ele>375.15161132812</ele>
        <time>2014-05-17T12:42:25Z</time>
      </trkpt>
      <trkpt lat="43.25911" lon="5.95252">
        <ele>373.45816040039</ele>
        <time>2014-05-17T12:42:33Z</time>
      </trkpt>
      <trkpt lat="43.25911" lon="5.95244">
        <ele>373.91564941406</ele>
        <time>2014-05-17T12:42:37Z</time>
      </trkpt>
      <trkpt lat="43.25909" lon="5.95227">
        <ele>375.36849975586</ele>
        <time>2014-05-17T12:42:43Z</time>
      </trkpt>
      <trkpt lat="43.25905" lon="5.95216">
        <ele>377.99798583984</ele>
        <time>2014-05-17T12:42:48Z</time>
      </trkpt>
      <trkpt lat="43.25904" lon="5.95207">
        <ele>378.80822753906</ele>
        <time>2014-05-17T12:42:51Z</time>
      </trkpt>
      <trkpt lat="43.25901" lon="5.95192">
        <ele>381.25875854492</ele>
        <time>2014-05-17T12:42:57Z</time>
      </trkpt>
      <trkpt lat="43.25901" lon="5.95181">
        <ele>382.20486450195</ele>
        <time>2014-05-17T12:43:00Z</time>
      </trkpt>
      <trkpt lat="43.25895" lon="5.95162">
        <ele>385.86712646484</ele>
        <time>2014-05-17T12:43:05Z</time>
      </trkpt>
      <trkpt lat="43.25882" lon="5.95156">
        <ele>389.61437988281</ele>
        <time>2014-05-17T12:43:10Z</time>
      </trkpt>
      <trkpt lat="43.25875" lon="5.95153">
        <ele>390.65493774414</ele>
        <time>2014-05-17T12:43:12Z</time>
      </trkpt>
      <trkpt lat="43.25872" lon="5.95152">
        <ele>391.2287902832</ele>
        <time>2014-05-17T12:43:13Z</time>
      </trkpt>
      <trkpt lat="43.25869" lon="5.95149">
        <ele>391.71771240234</ele>
        <time>2014-05-17T12:43:14Z</time>
      </trkpt>
      <trkpt lat="43.25865" lon="5.95147">
        <ele>392.22305297852</ele>
        <time>2014-05-17T12:43:16Z</time>
      </trkpt>
      <trkpt lat="43.25864" lon="5.95146">
        <ele>392.34622192383</ele>
        <time>2014-05-17T12:43:17Z</time>
      </trkpt>
      <trkpt lat="43.25861" lon="5.95145">
        <ele>392.75695800781</ele>
        <time>2014-05-17T12:43:19Z</time>
      </trkpt>
      <trkpt lat="43.25863" lon="5.9514">
        <ele>392.81561279297</ele>
        <time>2014-05-17T12:43:20Z</time>
      </trkpt>
      <trkpt lat="43.25863" lon="5.95131">
        <ele>393.40966796875</ele>
        <time>2014-05-17T12:43:22Z</time>
      </trkpt>
      <trkpt lat="43.25862" lon="5.95124">
        <ele>394.00704956055</ele>
        <time>2014-05-17T12:43:23Z</time>
      </trkpt>
      <trkpt lat="43.2586" lon="5.95115">
        <ele>394.76782226562</ele>
        <time>2014-05-17T12:43:25Z</time>
      </trkpt>
      <trkpt lat="43.25855" lon="5.95105">
        <ele>395.66638183594</ele>
        <time>2014-05-17T12:43:30Z</time>
      </trkpt>
      <trkpt lat="43.25854" lon="5.95104">
        <ele>395.77624511719</ele>
        <time>2014-05-17T12:43:31Z</time>
      </trkpt>
      <trkpt lat="43.25853" lon="5.95103">
        <ele>395.86206054688</ele>
        <time>2014-05-17T12:43:32Z</time>
      </trkpt>
      <trkpt lat="43.25851" lon="5.95099">
        <ele>396.11441040039</ele>
        <time>2014-05-17T12:43:34Z</time>
      </trkpt>
      <trkpt lat="43.25851" lon="5.95098">
        <ele>396.23971557617</ele>
        <time>2014-05-17T12:43:35Z</time>
      </trkpt>
      <trkpt lat="43.25847" lon="5.95094">
        <ele>396.62939453125</ele>
        <time>2014-05-17T12:43:39Z</time>
      </trkpt>
      <trkpt lat="43.25845" lon="5.95093">
        <ele>396.8525390625</ele>
        <time>2014-05-17T12:43:41Z</time>
      </trkpt>
      <trkpt lat="43.25843" lon="5.95092">
        <ele>396.98815917969</ele>
        <time>2014-05-17T12:43:43Z</time>
      </trkpt>
      <trkpt lat="43.25843" lon="5.95092">
        <ele>397.02764892578</ele>
        <time>2014-05-17T12:43:44Z</time>
      </trkpt>
      <trkpt lat="43.25841" lon="5.95088">
        <ele>397.27484130859</ele>
        <time>2014-05-17T12:43:54Z</time>
      </trkpt>
      <trkpt lat="43.25837" lon="5.95084">
        <ele>397.70568847656</ele>
        <time>2014-05-17T12:44:01Z</time>
      </trkpt>
      <trkpt lat="43.25835" lon="5.95083">
        <ele>397.87390136719</ele>
        <time>2014-05-17T12:44:06Z</time>
      </trkpt>
      <trkpt lat="43.25835" lon="5.95083">
        <ele>397.87390136719</ele>
        <time>2014-05-17T12:44:09Z</time>
      </trkpt>
      <trkpt lat="43.25832" lon="5.95081">
        <ele>398.85382080078</ele>
        <time>2014-05-17T12:44:14Z</time>
      </trkpt>
      <trkpt lat="43.25832" lon="5.95081">
        <ele>398.86462402344</ele>
        <time>2014-05-17T12:44:16Z</time>
      </trkpt>
      <trkpt lat="43.25832" lon="5.95081">
        <ele>398.86462402344</ele>
        <time>2014-05-17T12:44:22Z</time>
      </trkpt>
      <trkpt lat="43.25833" lon="5.95074">
        <ele>398.4700012207</ele>
        <time>2014-05-17T12:44:29Z</time>
      </trkpt>
      <trkpt lat="43.25834" lon="5.95065">
        <ele>398.62170410156</ele>
        <time>2014-05-17T12:44:33Z</time>
      </trkpt>
      <trkpt lat="43.25834" lon="5.95063">
        <ele>398.68658447266</ele>
        <time>2014-05-17T12:44:34Z</time>
      </trkpt>
      <trkpt lat="43.25834" lon="5.95062">
        <ele>398.72384643555</ele>
        <time>2014-05-17T12:44:35Z</time>
      </trkpt>
      <trkpt lat="43.25835" lon="5.95061">
        <ele>398.74459838867</ele>
        <time>2014-05-17T12:44:36Z</time>
      </trkpt>
      <trkpt lat="43.25836" lon="5.95059">
        <ele>398.75885009766</ele>
        <time>2014-05-17T12:44:37Z</time>
      </trkpt>
      <trkpt lat="43.25837" lon="5.95057">
        <ele>398.84057617188</ele>
        <time>2014-05-17T12:44:39Z</time>
      </trkpt>
      <trkpt lat="43.25837" lon="5.95057">
        <ele>398.84057617188</ele>
        <time>2014-05-17T12:44:40Z</time>
      </trkpt>
      <trkpt lat="43.25837" lon="5.95056">
        <ele>398.86898803711</ele>
        <time>2014-05-17T12:44:41Z</time>
      </trkpt>
      <trkpt lat="43.25837" lon="5.95056">
        <ele>398.86898803711</ele>
        <time>2014-05-17T12:44:49Z</time>
      </trkpt>
      <trkpt lat="43.25838" lon="5.95054">
        <ele>399.06951904297</ele>
        <time>2014-05-17T12:44:55Z</time>
      </trkpt>
      <trkpt lat="43.25838" lon="5.95052">
        <ele>399.21472167969</ele>
        <time>2014-05-17T12:44:56Z</time>
      </trkpt>
      <trkpt lat="43.25842" lon="5.95046">
        <ele>399.7112121582</ele>
        <time>2014-05-17T12:45:00Z</time>
      </trkpt>
      <trkpt lat="43.25845" lon="5.95042">
        <ele>399.93615722656</ele>
        <time>2014-05-17T12:45:04Z</time>
      </trkpt>
      <trkpt lat="43.25849" lon="5.9504">
        <ele>399.73568725586</ele>
        <time>2014-05-17T12:45:12Z</time>
      </trkpt>
      <trkpt lat="43.25849" lon="5.9504">
        <ele>399.73568725586</ele>
        <time>2014-05-17T12:45:36Z</time>
      </trkpt>
      <trkpt lat="43.25849" lon="5.9504">
        <ele>399.73568725586</ele>
        <time>2014-05-17T12:45:48Z</time>
      </trkpt>
      <trkpt lat="43.25849" lon="5.9504">
        <ele>399.77172851562</ele>
        <time>2014-05-17T12:45:50Z</time>
      </trkpt>
      <trkpt lat="43.25849" lon="5.95039">
        <ele>399.77783203125</ele>
        <time>2014-05-17T12:46:09Z</time>
      </trkpt>
      <trkpt lat="43.25849" lon="5.95039">
        <ele>399.77783203125</ele>
        <time>2014-05-17T12:46:14Z</time>
      </trkpt>
      <trkpt lat="43.25851" lon="5.95038">
        <ele>399.71362304688</ele>
        <time>2014-05-17T12:46:16Z</time>
      </trkpt>
      <trkpt lat="43.25851" lon="5.95037">
        <ele>399.73840332031</ele>
        <time>2014-05-17T12:46:17Z</time>
      </trkpt>
      <trkpt lat="43.25851" lon="5.95037">
        <ele>399.73608398438</ele>
        <time>2014-05-17T12:46:20Z</time>
      </trkpt>
      <trkpt lat="43.25852" lon="5.95036">
        <ele>399.71157836914</ele>
        <time>2014-05-17T12:46:23Z</time>
      </trkpt>
      <trkpt lat="43.25854" lon="5.95036">
        <ele>399.42309570312</ele>
        <time>2014-05-17T12:46:26Z</time>
      </trkpt>
      <trkpt lat="43.25857" lon="5.95034">
        <ele>399.27822875977</ele>
        <time>2014-05-17T12:46:28Z</time>
      </trkpt>
      <trkpt lat="43.25861" lon="5.95032">
        <ele>398.90014648438</ele>
        <time>2014-05-17T12:46:31Z</time>
      </trkpt>
      <trkpt lat="43.25865" lon="5.95033">
        <ele>398.50866699219</ele>
        <time>2014-05-17T12:46:33Z</time>
      </trkpt>
      <trkpt lat="43.25876" lon="5.95028">
        <ele>397.94525146484</ele>
        <time>2014-05-17T12:46:37Z</time>
      </trkpt>
      <trkpt lat="43.25878" lon="5.95025">
        <ele>397.88171386719</ele>
        <time>2014-05-17T12:46:38Z</time>
      </trkpt>
      <trkpt lat="43.25886" lon="5.95011">
        <ele>397.80621337891</ele>
        <time>2014-05-17T12:46:43Z</time>
      </trkpt>
      <trkpt lat="43.25887" lon="5.95007">
        <ele>397.87829589844</ele>
        <time>2014-05-17T12:46:44Z</time>
      </trkpt>
      <trkpt lat="43.25888" lon="5.94993">
        <ele>398.62545776367</ele>
        <time>2014-05-17T12:46:50Z</time>
      </trkpt>
      <trkpt lat="43.2589" lon="5.94986">
        <ele>398.78311157227</ele>
        <time>2014-05-17T12:46:53Z</time>
      </trkpt>
      <trkpt lat="43.25891" lon="5.94975">
        <ele>399.33276367188</ele>
        <time>2014-05-17T12:46:58Z</time>
      </trkpt>
      <trkpt lat="43.25893" lon="5.94956">
        <ele>402.07821655273</ele>
        <time>2014-05-17T12:47:04Z</time>
      </trkpt>
      <trkpt lat="43.25893" lon="5.94952">
        <ele>402.73608398438</ele>
        <time>2014-05-17T12:47:06Z</time>
      </trkpt>
      <trkpt lat="43.25896" lon="5.94942">
        <ele>403.80361938477</ele>
        <time>2014-05-17T12:47:13Z</time>
      </trkpt>
      <trkpt lat="43.259" lon="5.9493">
        <ele>404.54425048828</ele>
        <time>2014-05-17T12:47:19Z</time>
      </trkpt>
      <trkpt lat="43.25908" lon="5.94912">
        <ele>405.30224609375</ele>
        <time>2014-05-17T12:47:26Z</time>
      </trkpt>
      <trkpt lat="43.25914" lon="5.94897">
        <ele>407.08642578125</ele>
        <time>2014-05-17T12:47:32Z</time>
      </trkpt>
      <trkpt lat="43.25921" lon="5.94884">
        <ele>407.33407592773</ele>
        <time>2014-05-17T12:47:38Z</time>
      </trkpt>
      <trkpt lat="43.2593" lon="5.94871">
        <ele>406.83969116211</ele>
        <time>2014-05-17T12:47:44Z</time>
      </trkpt>
      <trkpt lat="43.25932" lon="5.94867">
        <ele>406.57876586914</ele>
        <time>2014-05-17T12:47:46Z</time>
      </trkpt>
      <trkpt lat="43.25936" lon="5.94864">
        <ele>406.12557983398</ele>
        <time>2014-05-17T12:47:49Z</time>
      </trkpt>
      <trkpt lat="43.25938" lon="5.94857">
        <ele>406.80773925781</ele>
        <time>2014-05-17T12:47:52Z</time>
      </trkpt>
      <trkpt lat="43.25938" lon="5.94854">
        <ele>407.24719238281</ele>
        <time>2014-05-17T12:47:53Z</time>
      </trkpt>
      <trkpt lat="43.2594" lon="5.94852">
        <ele>407.30895996094</ele>
        <time>2014-05-17T12:47:54Z</time>
      </trkpt>
      <trkpt lat="43.2594" lon="5.94851">
        <ele>407.40509033203</ele>
        <time>2014-05-17T12:47:55Z</time>
      </trkpt>
      <trkpt lat="43.25941" lon="5.9485">
        <ele>407.32269287109</ele>
        <time>2014-05-17T12:47:56Z</time>
      </trkpt>
      <trkpt lat="43.25942" lon="5.94849">
        <ele>407.27807617188</ele>
        <time>2014-05-17T12:47:57Z</time>
      </trkpt>
      <trkpt lat="43.25943" lon="5.94846">
        <ele>407.58020019531</ele>
        <time>2014-05-17T12:48:03Z</time>
      </trkpt>
      <trkpt lat="43.25947" lon="5.94842">
        <ele>407.23162841797</ele>
        <time>2014-05-17T12:48:09Z</time>
      </trkpt>
      <trkpt lat="43.25948" lon="5.94838">
        <ele>407.96640014648</ele>
        <time>2014-05-17T12:48:16Z</time>
      </trkpt>
      <trkpt lat="43.25948" lon="5.94834">
        <ele>408.36996459961</ele>
        <time>2014-05-17T12:48:22Z</time>
      </trkpt>
      <trkpt lat="43.25948" lon="5.94834">
        <ele>408.36996459961</ele>
        <time>2014-05-17T12:48:25Z</time>
      </trkpt>
      <trkpt lat="43.25948" lon="5.94833">
        <ele>408.72622680664</ele>
        <time>2014-05-17T12:48:27Z</time>
      </trkpt>
      <trkpt lat="43.25949" lon="5.94829">
        <ele>409.02453613281</ele>
        <time>2014-05-17T12:48:29Z</time>
      </trkpt>
      <trkpt lat="43.25948" lon="5.94824">
        <ele>410.22790527344</ele>
        <time>2014-05-17T12:48:32Z</time>
      </trkpt>
      <trkpt lat="43.25951" lon="5.94815">
        <ele>410.70639038086</ele>
        <time>2014-05-17T12:48:37Z</time>
      </trkpt>
      <trkpt lat="43.25956" lon="5.94809">
        <ele>410.05758666992</ele>
        <time>2014-05-17T12:48:42Z</time>
      </trkpt>
      <trkpt lat="43.25957" lon="5.94806">
        <ele>410.00820922852</ele>
        <time>2014-05-17T12:48:44Z</time>
      </trkpt>
      <trkpt lat="43.25957" lon="5.94806">
        <ele>409.78460693359</ele>
        <time>2014-05-17T12:48:45Z</time>
      </trkpt>
      <trkpt lat="43.25959" lon="5.94805">
        <ele>409.42071533203</ele>
        <time>2014-05-17T12:48:46Z</time>
      </trkpt>
      <trkpt lat="43.25959" lon="5.94805">
        <ele>409.44467163086</ele>
        <time>2014-05-17T12:48:47Z</time>
      </trkpt>
      <trkpt lat="43.25959" lon="5.94805">
        <ele>409.34707641602</ele>
        <time>2014-05-17T12:48:48Z</time>
      </trkpt>
      <trkpt lat="43.25959" lon="5.94804">
        <ele>409.25497436523</ele>
        <time>2014-05-17T12:48:51Z</time>
      </trkpt>
      <trkpt lat="43.2596" lon="5.94804">
        <ele>408.92196655273</ele>
        <time>2014-05-17T12:48:58Z</time>
      </trkpt>
      <trkpt lat="43.25964" lon="5.94804">
        <ele>407.34973144531</ele>
        <time>2014-05-17T12:49:04Z</time>
      </trkpt>
      <trkpt lat="43.25966" lon="5.94802">
        <ele>406.89117431641</ele>
        <time>2014-05-17T12:49:08Z</time>
      </trkpt>
      <trkpt lat="43.25966" lon="5.94802">
        <ele>406.89117431641</ele>
        <time>2014-05-17T12:49:12Z</time>
      </trkpt>
      <trkpt lat="43.25969" lon="5.948">
        <ele>405.92132568359</ele>
        <time>2014-05-17T12:49:17Z</time>
      </trkpt>
      <trkpt lat="43.2597" lon="5.948">
        <ele>405.62435913086</ele>
        <time>2014-05-17T12:49:19Z</time>
      </trkpt>
      <trkpt lat="43.25978" lon="5.94795">
        <ele>403.53073120117</ele>
        <time>2014-05-17T12:49:25Z</time>
      </trkpt>
      <trkpt lat="43.25989" lon="5.94784">
        <ele>401.46051025391</ele>
        <time>2014-05-17T12:49:35Z</time>
      </trkpt>
      <trkpt lat="43.25993" lon="5.9478">
        <ele>400.6330871582</ele>
        <time>2014-05-17T12:49:38Z</time>
      </trkpt>
      <trkpt lat="43.25995" lon="5.94779">
        <ele>400.32238769531</ele>
        <time>2014-05-17T12:49:39Z</time>
      </trkpt>
      <trkpt lat="43.26004" lon="5.94771">
        <ele>399.48767089844</ele>
        <time>2014-05-17T12:49:44Z</time>
      </trkpt>
      <trkpt lat="43.2601" lon="5.94764">
        <ele>399.66937255859</ele>
        <time>2014-05-17T12:49:49Z</time>
      </trkpt>
      <trkpt lat="43.26013" lon="5.94761">
        <ele>399.89074707031</ele>
        <time>2014-05-17T12:49:51Z</time>
      </trkpt>
      <trkpt lat="43.26014" lon="5.9476">
        <ele>399.91348266602</ele>
        <time>2014-05-17T12:49:52Z</time>
      </trkpt>
      <trkpt lat="43.26015" lon="5.94758">
        <ele>400.09518432617</ele>
        <time>2014-05-17T12:49:53Z</time>
      </trkpt>
      <trkpt lat="43.26018" lon="5.94753">
        <ele>400.60540771484</ele>
        <time>2014-05-17T12:49:57Z</time>
      </trkpt>
      <trkpt lat="43.26019" lon="5.94747">
        <ele>401.45303344727</ele>
        <time>2014-05-17T12:50:01Z</time>
      </trkpt>
      <trkpt lat="43.2602" lon="5.94746">
        <ele>401.53588867188</ele>
        <time>2014-05-17T12:50:02Z</time>
      </trkpt>
      <trkpt lat="43.2602" lon="5.94746">
        <ele>401.53588867188</ele>
        <time>2014-05-17T12:50:03Z</time>
      </trkpt>
      <trkpt lat="43.26022" lon="5.94745">
        <ele>401.37515258789</ele>
        <time>2014-05-17T12:50:05Z</time>
      </trkpt>
      <trkpt lat="43.26027" lon="5.94742">
        <ele>401.60723876953</ele>
        <time>2014-05-17T12:50:09Z</time>
      </trkpt>
      <trkpt lat="43.26029" lon="5.94737">
        <ele>402.31063842773</ele>
        <time>2014-05-17T12:50:11Z</time>
      </trkpt>
      <trkpt lat="43.26033" lon="5.94728">
        <ele>403.85858154297</ele>
        <time>2014-05-17T12:50:16Z</time>
      </trkpt>
      <trkpt lat="43.26038" lon="5.94716">
        <ele>405.86502075195</ele>
        <time>2014-05-17T12:50:21Z</time>
      </trkpt>
      <trkpt lat="43.26044" lon="5.94702">
        <ele>407.92495727539</ele>
        <time>2014-05-17T12:50:26Z</time>
      </trkpt>
      <trkpt lat="43.26048" lon="5.94693">
        <ele>409.28036499023</ele>
        <time>2014-05-17T12:50:29Z</time>
      </trkpt>
      <trkpt lat="43.2605" lon="5.94684">
        <ele>411.37908935547</ele>
        <time>2014-05-17T12:50:31Z</time>
      </trkpt>
      <trkpt lat="43.2605" lon="5.94679">
        <ele>412.67922973633</ele>
        <time>2014-05-17T12:50:32Z</time>
      </trkpt>
      <trkpt lat="43.26052" lon="5.94664">
        <ele>416.14465332031</ele>
        <time>2014-05-17T12:50:35Z</time>
      </trkpt>
      <trkpt lat="43.26054" lon="5.94656">
        <ele>417.7737121582</ele>
        <time>2014-05-17T12:50:37Z</time>
      </trkpt>
      <trkpt lat="43.26058" lon="5.94637">
        <ele>420.89318847656</ele>
        <time>2014-05-17T12:50:42Z</time>
      </trkpt>
      <trkpt lat="43.26061" lon="5.94615">
        <ele>421.62231445312</ele>
        <time>2014-05-17T12:50:47Z</time>
      </trkpt>
      <trkpt lat="43.26061" lon="5.946">
        <ele>422.19296264648</ele>
        <time>2014-05-17T12:50:51Z</time>
      </trkpt>
      <trkpt lat="43.26067" lon="5.94589">
        <ele>422.39895629883</ele>
        <time>2014-05-17T12:50:55Z</time>
      </trkpt>
      <trkpt lat="43.26073" lon="5.94574">
        <ele>423.03283691406</ele>
        <time>2014-05-17T12:51:01Z</time>
      </trkpt>
      <trkpt lat="43.2608" lon="5.94556">
        <ele>424.07998657227</ele>
        <time>2014-05-17T12:51:08Z</time>
      </trkpt>
      <trkpt lat="43.2608" lon="5.94554">
        <ele>424.12857055664</ele>
        <time>2014-05-17T12:51:10Z</time>
      </trkpt>
      <trkpt lat="43.26081" lon="5.94549">
        <ele>424.08389282227</ele>
        <time>2014-05-17T12:51:12Z</time>
      </trkpt>
      <trkpt lat="43.26082" lon="5.94547">
        <ele>424.05255126953</ele>
        <time>2014-05-17T12:51:14Z</time>
      </trkpt>
      <trkpt lat="43.26083" lon="5.94542">
        <ele>424.01824951172</ele>
        <time>2014-05-17T12:51:16Z</time>
      </trkpt>
      <trkpt lat="43.26084" lon="5.94531">
        <ele>423.87783813477</ele>
        <time>2014-05-17T12:51:22Z</time>
      </trkpt>
      <trkpt lat="43.26083" lon="5.94524">
        <ele>424.28790283203</ele>
        <time>2014-05-17T12:51:25Z</time>
      </trkpt>
      <trkpt lat="43.2608" lon="5.94515">
        <ele>425.09588623047</ele>
        <time>2014-05-17T12:51:30Z</time>
      </trkpt>
      <trkpt lat="43.2608" lon="5.94506">
        <ele>425.68902587891</ele>
        <time>2014-05-17T12:51:35Z</time>
      </trkpt>
      <trkpt lat="43.26078" lon="5.94499">
        <ele>426.21270751953</ele>
        <time>2014-05-17T12:51:39Z</time>
      </trkpt>
      <trkpt lat="43.26078" lon="5.94498">
        <ele>426.25717163086</ele>
        <time>2014-05-17T12:51:41Z</time>
      </trkpt>
      <trkpt lat="43.26077" lon="5.94494">
        <ele>426.47055053711</ele>
        <time>2014-05-17T12:51:43Z</time>
      </trkpt>
      <trkpt lat="43.26076" lon="5.94489">
        <ele>426.7624206543</ele>
        <time>2014-05-17T12:51:46Z</time>
      </trkpt>
      <trkpt lat="43.26075" lon="5.94485">
        <ele>426.97537231445</ele>
        <time>2014-05-17T12:51:49Z</time>
      </trkpt>
      <trkpt lat="43.26075" lon="5.94483">
        <ele>427.07684326172</ele>
        <time>2014-05-17T12:51:50Z</time>
      </trkpt>
      <trkpt lat="43.26074" lon="5.94478">
        <ele>427.39138793945</ele>
        <time>2014-05-17T12:51:52Z</time>
      </trkpt>
      <trkpt lat="43.26075" lon="5.94466">
        <ele>427.86068725586</ele>
        <time>2014-05-17T12:52:00Z</time>
      </trkpt>
      <trkpt lat="43.26077" lon="5.94461">
        <ele>427.87271118164</ele>
        <time>2014-05-17T12:52:04Z</time>
      </trkpt>
      <trkpt lat="43.26079" lon="5.94456">
        <ele>427.91561889648</ele>
        <time>2014-05-17T12:52:08Z</time>
      </trkpt>
      <trkpt lat="43.26083" lon="5.94448">
        <ele>427.92077636719</ele>
        <time>2014-05-17T12:52:15Z</time>
      </trkpt>
      <trkpt lat="43.26083" lon="5.94446">
        <ele>427.93869018555</ele>
        <time>2014-05-17T12:52:17Z</time>
      </trkpt>
      <trkpt lat="43.26089" lon="5.94444">
        <ele>426.99908447266</ele>
        <time>2014-05-17T12:52:22Z</time>
      </trkpt>
      <trkpt lat="43.26089" lon="5.94443">
        <ele>426.95599365234</ele>
        <time>2014-05-17T12:52:28Z</time>
      </trkpt>
      <trkpt lat="43.26089" lon="5.94443">
        <ele>426.95599365234</ele>
        <time>2014-05-17T12:52:46Z</time>
      </trkpt>
      <trkpt lat="43.26089" lon="5.94443">
        <ele>426.95599365234</ele>
        <time>2014-05-17T12:53:00Z</time>
      </trkpt>
      <trkpt lat="43.26092" lon="5.94443">
        <ele>426.57055664062</ele>
        <time>2014-05-17T12:53:06Z</time>
      </trkpt>
      <trkpt lat="43.26094" lon="5.94442">
        <ele>426.23663330078</ele>
        <time>2014-05-17T12:53:07Z</time>
      </trkpt>
      <trkpt lat="43.26102" lon="5.94437">
        <ele>425.09820556641</ele>
        <time>2014-05-17T12:53:13Z</time>
      </trkpt>
      <trkpt lat="43.26112" lon="5.94432">
        <ele>423.79278564453</ele>
        <time>2014-05-17T12:53:17Z</time>
      </trkpt>
      <trkpt lat="43.26114" lon="5.9443">
        <ele>423.41851806641</ele>
        <time>2014-05-17T12:53:18Z</time>
      </trkpt>
      <trkpt lat="43.26126" lon="5.94418">
        <ele>422.18460083008</ele>
        <time>2014-05-17T12:53:24Z</time>
      </trkpt>
      <trkpt lat="43.26134" lon="5.94406">
        <ele>420.92764282227</ele>
        <time>2014-05-17T12:53:28Z</time>
      </trkpt>
      <trkpt lat="43.26137" lon="5.94387">
        <ele>420.47451782227</ele>
        <time>2014-05-17T12:53:33Z</time>
      </trkpt>
      <trkpt lat="43.26138" lon="5.94381">
        <ele>420.65753173828</ele>
        <time>2014-05-17T12:53:35Z</time>
      </trkpt>
      <trkpt lat="43.2614" lon="5.94376">
        <ele>420.73123168945</ele>
        <time>2014-05-17T12:53:38Z</time>
      </trkpt>
      <trkpt lat="43.26141" lon="5.94364">
        <ele>421.38363647461</ele>
        <time>2014-05-17T12:53:42Z</time>
      </trkpt>
      <trkpt lat="43.26141" lon="5.94355">
        <ele>421.71533203125</ele>
        <time>2014-05-17T12:53:44Z</time>
      </trkpt>
      <trkpt lat="43.26141" lon="5.94343">
        <ele>422.29345703125</ele>
        <time>2014-05-17T12:53:48Z</time>
      </trkpt>
      <trkpt lat="43.26135" lon="5.94326">
        <ele>423.76177978516</ele>
        <time>2014-05-17T12:53:53Z</time>
      </trkpt>
      <trkpt lat="43.26135" lon="5.94322">
        <ele>423.70761108398</ele>
        <time>2014-05-17T12:53:56Z</time>
      </trkpt>
      <trkpt lat="43.26135" lon="5.94321">
        <ele>423.71075439453</ele>
        <time>2014-05-17T12:53:57Z</time>
      </trkpt>
      <trkpt lat="43.26135" lon="5.94321">
        <ele>423.71075439453</ele>
        <time>2014-05-17T12:54:13Z</time>
      </trkpt>
      <trkpt lat="43.26135" lon="5.94321">
        <ele>423.71075439453</ele>
        <time>2014-05-17T12:54:27Z</time>
      </trkpt>
      <trkpt lat="43.26136" lon="5.94317">
        <ele>423.50085449219</ele>
        <time>2014-05-17T12:54:31Z</time>
      </trkpt>
      <trkpt lat="43.26138" lon="5.94315">
        <ele>423.19708251953</ele>
        <time>2014-05-17T12:54:33Z</time>
      </trkpt>
      <trkpt lat="43.2614" lon="5.94308">
        <ele>422.89474487305</ele>
        <time>2014-05-17T12:54:36Z</time>
      </trkpt>
      <trkpt lat="43.2614" lon="5.94302">
        <ele>422.99920654297</ele>
        <time>2014-05-17T12:54:38Z</time>
      </trkpt>
      <trkpt lat="43.26143" lon="5.9428">
        <ele>423.54336547852</ele>
        <time>2014-05-17T12:54:44Z</time>
      </trkpt>
      <trkpt lat="43.26143" lon="5.94258">
        <ele>424.31585693359</ele>
        <time>2014-05-17T12:54:53Z</time>
      </trkpt>
      <trkpt lat="43.26143" lon="5.94254">
        <ele>424.39138793945</ele>
        <time>2014-05-17T12:54:54Z</time>
      </trkpt>
      <trkpt lat="43.26151" lon="5.94243">
        <ele>423.89813232422</ele>
        <time>2014-05-17T12:54:58Z</time>
      </trkpt>
      <trkpt lat="43.26152" lon="5.94235">
        <ele>423.82278442383</ele>
        <time>2014-05-17T12:55:00Z</time>
      </trkpt>
      <trkpt lat="43.26155" lon="5.94225">
        <ele>423.57485961914</ele>
        <time>2014-05-17T12:55:03Z</time>
      </trkpt>
      <trkpt lat="43.26166" lon="5.94205">
        <ele>422.68374633789</ele>
        <time>2014-05-17T12:55:10Z</time>
      </trkpt>
      <trkpt lat="43.26172" lon="5.94188">
        <ele>422.61138916016</ele>
        <time>2014-05-17T12:55:15Z</time>
      </trkpt>
      <trkpt lat="43.26175" lon="5.94168">
        <ele>422.72384643555</ele>
        <time>2014-05-17T12:55:20Z</time>
      </trkpt>
      <trkpt lat="43.26184" lon="5.94129">
        <ele>422.8639831543</ele>
        <time>2014-05-17T12:55:28Z</time>
      </trkpt>
      <trkpt lat="43.26186" lon="5.94125">
        <ele>422.77816772461</ele>
        <time>2014-05-17T12:55:29Z</time>
      </trkpt>
      <trkpt lat="43.26189" lon="5.94117">
        <ele>422.5481262207</ele>
        <time>2014-05-17T12:55:31Z</time>
      </trkpt>
      <trkpt lat="43.26192" lon="5.94113">
        <ele>422.32498168945</ele>
        <time>2014-05-17T12:55:32Z</time>
      </trkpt>
      <trkpt lat="43.26196" lon="5.94106">
        <ele>421.5471496582</ele>
        <time>2014-05-17T12:55:34Z</time>
      </trkpt>
      <trkpt lat="43.26197" lon="5.94101">
        <ele>420.94348144531</ele>
        <time>2014-05-17T12:55:35Z</time>
      </trkpt>
      <trkpt lat="43.26199" lon="5.94096">
        <ele>420.38092041016</ele>
        <time>2014-05-17T12:55:36Z</time>
      </trkpt>
      <trkpt lat="43.262" lon="5.94091">
        <ele>419.71295166016</ele>
        <time>2014-05-17T12:55:37Z</time>
      </trkpt>
      <trkpt lat="43.26202" lon="5.94086">
        <ele>419.08709716797</ele>
        <time>2014-05-17T12:55:38Z</time>
      </trkpt>
      <trkpt lat="43.26204" lon="5.94076">
        <ele>418.83569335938</ele>
        <time>2014-05-17T12:55:40Z</time>
      </trkpt>
      <trkpt lat="43.26203" lon="5.9407">
        <ele>419.47772216797</ele>
        <time>2014-05-17T12:55:44Z</time>
      </trkpt>
      <trkpt lat="43.26203" lon="5.9407">
        <ele>419.47772216797</ele>
        <time>2014-05-17T12:55:49Z</time>
      </trkpt>
      <trkpt lat="43.26204" lon="5.94068">
        <ele>419.1549987793</ele>
        <time>2014-05-17T12:55:50Z</time>
      </trkpt>
      <trkpt lat="43.26204" lon="5.94065">
        <ele>419.09832763672</ele>
        <time>2014-05-17T12:55:55Z</time>
      </trkpt>
      <trkpt lat="43.26205" lon="5.94063">
        <ele>419.04339599609</ele>
        <time>2014-05-17T12:55:58Z</time>
      </trkpt>
      <trkpt lat="43.26207" lon="5.94057">
        <ele>418.58508300781</ele>
        <time>2014-05-17T12:56:00Z</time>
      </trkpt>
      <trkpt lat="43.26209" lon="5.94046">
        <ele>418.1930847168</ele>
        <time>2014-05-17T12:56:03Z</time>
      </trkpt>
      <trkpt lat="43.26211" lon="5.94037">
        <ele>418.16702270508</ele>
        <time>2014-05-17T12:56:05Z</time>
      </trkpt>
      <trkpt lat="43.26212" lon="5.94032">
        <ele>418.20449829102</ele>
        <time>2014-05-17T12:56:06Z</time>
      </trkpt>
      <trkpt lat="43.26213" lon="5.94027">
        <ele>418.11572265625</ele>
        <time>2014-05-17T12:56:07Z</time>
      </trkpt>
      <trkpt lat="43.26214" lon="5.94022">
        <ele>418.02233886719</ele>
        <time>2014-05-17T12:56:08Z</time>
      </trkpt>
      <trkpt lat="43.26217" lon="5.94009">
        <ele>417.6975402832</ele>
        <time>2014-05-17T12:56:10Z</time>
      </trkpt>
      <trkpt lat="43.2622" lon="5.94004">
        <ele>417.32574462891</ele>
        <time>2014-05-17T12:56:11Z</time>
      </trkpt>
      <trkpt lat="43.26222" lon="5.93998">
        <ele>417.24404907227</ele>
        <time>2014-05-17T12:56:12Z</time>
      </trkpt>
      <trkpt lat="43.26223" lon="5.93992">
        <ele>417.20541381836</ele>
        <time>2014-05-17T12:56:13Z</time>
      </trkpt>
      <trkpt lat="43.26226" lon="5.93987">
        <ele>416.77105712891</ele>
        <time>2014-05-17T12:56:14Z</time>
      </trkpt>
      <trkpt lat="43.26228" lon="5.93982">
        <ele>416.25177001953</ele>
        <time>2014-05-17T12:56:15Z</time>
      </trkpt>
      <trkpt lat="43.26236" lon="5.93958">
        <ele>415.44024658203</ele>
        <time>2014-05-17T12:56:19Z</time>
      </trkpt>
      <trkpt lat="43.26237" lon="5.93954">
        <ele>415.55145263672</ele>
        <time>2014-05-17T12:56:20Z</time>
      </trkpt>
      <trkpt lat="43.26237" lon="5.9395">
        <ele>415.9270324707</ele>
        <time>2014-05-17T12:56:22Z</time>
      </trkpt>
      <trkpt lat="43.26236" lon="5.93948">
        <ele>416.25347900391</ele>
        <time>2014-05-17T12:56:23Z</time>
      </trkpt>
      <trkpt lat="43.26234" lon="5.93944">
        <ele>417.01824951172</ele>
        <time>2014-05-17T12:56:28Z</time>
      </trkpt>
      <trkpt lat="43.26234" lon="5.93931">
        <ele>417.11437988281</ele>
        <time>2014-05-17T12:56:36Z</time>
      </trkpt>
      <trkpt lat="43.26229" lon="5.93916">
        <ele>418.13317871094</ele>
        <time>2014-05-17T12:56:40Z</time>
      </trkpt>
      <trkpt lat="43.26228" lon="5.93893">
        <ele>416.88006591797</ele>
        <time>2014-05-17T12:56:46Z</time>
      </trkpt>
      <trkpt lat="43.26226" lon="5.93872">
        <ele>415.25518798828</ele>
        <time>2014-05-17T12:56:51Z</time>
      </trkpt>
      <trkpt lat="43.26223" lon="5.93843">
        <ele>413.48327636719</ele>
        <time>2014-05-17T12:56:58Z</time>
      </trkpt>
      <trkpt lat="43.26221" lon="5.93828">
        <ele>412.83135986328</ele>
        <time>2014-05-17T12:57:02Z</time>
      </trkpt>
      <trkpt lat="43.26221" lon="5.93825">
        <ele>412.78671264648</ele>
        <time>2014-05-17T12:57:03Z</time>
      </trkpt>
      <trkpt lat="43.2622" lon="5.93821">
        <ele>412.66998291016</ele>
        <time>2014-05-17T12:57:05Z</time>
      </trkpt>
      <trkpt lat="43.26222" lon="5.93819">
        <ele>411.93920898438</ele>
        <time>2014-05-17T12:57:07Z</time>
      </trkpt>
      <trkpt lat="43.26231" lon="5.93814">
        <ele>410.03717041016</ele>
        <time>2014-05-17T12:57:13Z</time>
      </trkpt>
      <trkpt lat="43.26234" lon="5.93814">
        <ele>409.48785400391</ele>
        <time>2014-05-17T12:57:14Z</time>
      </trkpt>
      <trkpt lat="43.26243" lon="5.93814">
        <ele>407.87768554688</ele>
        <time>2014-05-17T12:57:17Z</time>
      </trkpt>
      <trkpt lat="43.26246" lon="5.93814">
        <ele>407.29403686523</ele>
        <time>2014-05-17T12:57:18Z</time>
      </trkpt>
      <trkpt lat="43.26271" lon="5.93812">
        <ele>402.25067138672</ele>
        <time>2014-05-17T12:57:24Z</time>
      </trkpt>
      <trkpt lat="43.26276" lon="5.93813">
        <ele>401.35189819336</ele>
        <time>2014-05-17T12:57:25Z</time>
      </trkpt>
      <trkpt lat="43.26289" lon="5.93813">
        <ele>396.49185180664</ele>
        <time>2014-05-17T12:57:29Z</time>
      </trkpt>
      <trkpt lat="43.2629" lon="5.93811">
        <ele>396.08633422852</ele>
        <time>2014-05-17T12:57:30Z</time>
      </trkpt>
      <trkpt lat="43.26291" lon="5.93807">
        <ele>395.89596557617</ele>
        <time>2014-05-17T12:57:31Z</time>
      </trkpt>
      <trkpt lat="43.26291" lon="5.93803">
        <ele>395.69366455078</ele>
        <time>2014-05-17T12:57:32Z</time>
      </trkpt>
      <trkpt lat="43.26292" lon="5.93799">
        <ele>395.61972045898</ele>
        <time>2014-05-17T12:57:33Z</time>
      </trkpt>
      <trkpt lat="43.26291" lon="5.93795">
        <ele>395.82409667969</ele>
        <time>2014-05-17T12:57:34Z</time>
      </trkpt>
      <trkpt lat="43.26286" lon="5.93787">
        <ele>397.81314086914</ele>
        <time>2014-05-17T12:57:38Z</time>
      </trkpt>
      <trkpt lat="43.26279" lon="5.93783">
        <ele>399.7783203125</ele>
        <time>2014-05-17T12:57:40Z</time>
      </trkpt>
      <trkpt lat="43.26275" lon="5.93779">
        <ele>400.42431640625</ele>
        <time>2014-05-17T12:57:41Z</time>
      </trkpt>
      <trkpt lat="43.26266" lon="5.93773">
        <ele>401.55465698242</ele>
        <time>2014-05-17T12:57:43Z</time>
      </trkpt>
      <trkpt lat="43.26257" lon="5.93765">
        <ele>402.71618652344</ele>
        <time>2014-05-17T12:57:45Z</time>
      </trkpt>
      <trkpt lat="43.26251" lon="5.93762">
        <ele>403.31390380859</ele>
        <time>2014-05-17T12:57:46Z</time>
      </trkpt>
      <trkpt lat="43.26245" lon="5.93757">
        <ele>403.84017944336</ele>
        <time>2014-05-17T12:57:47Z</time>
      </trkpt>
      <trkpt lat="43.26239" lon="5.93753">
        <ele>404.27102661133</ele>
        <time>2014-05-17T12:57:48Z</time>
      </trkpt>
      <trkpt lat="43.26234" lon="5.93747">
        <ele>404.52297973633</ele>
        <time>2014-05-17T12:57:49Z</time>
      </trkpt>
      <trkpt lat="43.26229" lon="5.93742">
        <ele>404.66375732422</ele>
        <time>2014-05-17T12:57:50Z</time>
      </trkpt>
      <trkpt lat="43.26226" lon="5.93737">
        <ele>404.67404174805</ele>
        <time>2014-05-17T12:57:51Z</time>
      </trkpt>
      <trkpt lat="43.26222" lon="5.93731">
        <ele>404.63970947266</ele>
        <time>2014-05-17T12:57:52Z</time>
      </trkpt>
      <trkpt lat="43.26214" lon="5.93713">
        <ele>404.42419433594</ele>
        <time>2014-05-17T12:57:55Z</time>
      </trkpt>
      <trkpt lat="43.26199" lon="5.93682">
        <ele>403.55209350586</ele>
        <time>2014-05-17T12:58:00Z</time>
      </trkpt>
      <trkpt lat="43.26192" lon="5.9367">
        <ele>403.72750854492</ele>
        <time>2014-05-17T12:58:02Z</time>
      </trkpt>
      <trkpt lat="43.26184" lon="5.93661">
        <ele>404.03091430664</ele>
        <time>2014-05-17T12:58:04Z</time>
      </trkpt>
      <trkpt lat="43.26176" lon="5.93654">
        <ele>403.9358215332</ele>
        <time>2014-05-17T12:58:06Z</time>
      </trkpt>
      <trkpt lat="43.26164" lon="5.93648">
        <ele>404.44076538086</ele>
        <time>2014-05-17T12:58:09Z</time>
      </trkpt>
      <trkpt lat="43.26152" lon="5.93641">
        <ele>405.09707641602</ele>
        <time>2014-05-17T12:58:12Z</time>
      </trkpt>
      <trkpt lat="43.26143" lon="5.93631">
        <ele>405.01351928711</ele>
        <time>2014-05-17T12:58:15Z</time>
      </trkpt>
      <trkpt lat="43.26137" lon="5.93624">
        <ele>404.8125</ele>
        <time>2014-05-17T12:58:17Z</time>
      </trkpt>
      <trkpt lat="43.26134" lon="5.93621">
        <ele>404.84097290039</ele>
        <time>2014-05-17T12:58:18Z</time>
      </trkpt>
      <trkpt lat="43.26122" lon="5.93609">
        <ele>405.32470703125</ele>
        <time>2014-05-17T12:58:23Z</time>
      </trkpt>
      <trkpt lat="43.26114" lon="5.936">
        <ele>404.13775634766</ele>
        <time>2014-05-17T12:58:26Z</time>
      </trkpt>
      <trkpt lat="43.26105" lon="5.93591">
        <ele>403.08807373047</ele>
        <time>2014-05-17T12:58:30Z</time>
      </trkpt>
      <trkpt lat="43.26096" lon="5.93587">
        <ele>402.82788085938</ele>
        <time>2014-05-17T12:58:33Z</time>
      </trkpt>
      <trkpt lat="43.26086" lon="5.93585">
        <ele>403.25903320312</ele>
        <time>2014-05-17T12:58:37Z</time>
      </trkpt>
      <trkpt lat="43.26077" lon="5.93578">
        <ele>402.31970214844</ele>
        <time>2014-05-17T12:58:41Z</time>
      </trkpt>
      <trkpt lat="43.26073" lon="5.93577">
        <ele>402.36544799805</ele>
        <time>2014-05-17T12:58:43Z</time>
      </trkpt>
      <trkpt lat="43.26064" lon="5.93571">
        <ele>401.62884521484</ele>
        <time>2014-05-17T12:58:47Z</time>
      </trkpt>
      <trkpt lat="43.26056" lon="5.93566">
        <ele>401.14572143555</ele>
        <time>2014-05-17T12:58:51Z</time>
      </trkpt>
      <trkpt lat="43.26049" lon="5.93562">
        <ele>400.64947509766</ele>
        <time>2014-05-17T12:58:53Z</time>
      </trkpt>
      <trkpt lat="43.26028" lon="5.93551">
        <ele>399.65612792969</ele>
        <time>2014-05-17T12:59:00Z</time>
      </trkpt>
      <trkpt lat="43.2602" lon="5.93546">
        <ele>399.28518676758</ele>
        <time>2014-05-17T12:59:04Z</time>
      </trkpt>
      <trkpt lat="43.26014" lon="5.93543">
        <ele>399.09292602539</ele>
        <time>2014-05-17T12:59:07Z</time>
      </trkpt>
      <trkpt lat="43.26002" lon="5.93546">
        <ele>399.33666992188</ele>
        <time>2014-05-17T12:59:11Z</time>
      </trkpt>
      <trkpt lat="43.2599" lon="5.93554">
        <ele>401.54150390625</ele>
        <time>2014-05-17T12:59:16Z</time>
      </trkpt>
      <trkpt lat="43.25977" lon="5.93568">
        <ele>410.83959960938</ele>
        <time>2014-05-17T12:59:22Z</time>
      </trkpt>
      <trkpt lat="43.2597" lon="5.93576">
        <ele>416.04040527344</ele>
        <time>2014-05-17T12:59:27Z</time>
      </trkpt>
      <trkpt lat="43.25969" lon="5.93577">
        <ele>416.71151733398</ele>
        <time>2014-05-17T12:59:28Z</time>
      </trkpt>
      <trkpt lat="43.25967" lon="5.9358">
        <ele>418.67782592773</ele>
        <time>2014-05-17T12:59:30Z</time>
      </trkpt>
      <trkpt lat="43.25966" lon="5.93581">
        <ele>419.30780029297</ele>
        <time>2014-05-17T12:59:31Z</time>
      </trkpt>
      <trkpt lat="43.25964" lon="5.93582">
        <ele>419.79525756836</ele>
        <time>2014-05-17T12:59:33Z</time>
      </trkpt>
      <trkpt lat="43.25964" lon="5.93582">
        <ele>419.79525756836</ele>
        <time>2014-05-17T12:59:48Z</time>
      </trkpt>
      <trkpt lat="43.25964" lon="5.93582">
        <ele>419.79525756836</ele>
        <time>2014-05-17T12:59:53Z</time>
      </trkpt>
      <trkpt lat="43.25962" lon="5.93584">
        <ele>420.96182250977</ele>
        <time>2014-05-17T12:59:59Z</time>
      </trkpt>
      <trkpt lat="43.25959" lon="5.93585">
        <ele>421.48455810547</ele>
        <time>2014-05-17T13:00:01Z</time>
      </trkpt>
      <trkpt lat="43.25959" lon="5.93588">
        <ele>422.29666137695</ele>
        <time>2014-05-17T13:00:02Z</time>
      </trkpt>
      <trkpt lat="43.25952" lon="5.93594">
        <ele>424.81237792969</ele>
        <time>2014-05-17T13:00:06Z</time>
      </trkpt>
      <trkpt lat="43.25947" lon="5.93596">
        <ele>425.78018188477</ele>
        <time>2014-05-17T13:00:10Z</time>
      </trkpt>
      <trkpt lat="43.25924" lon="5.93608">
        <ele>432.19253540039</ele>
        <time>2014-05-17T13:00:18Z</time>
      </trkpt>
      <trkpt lat="43.25919" lon="5.93609">
        <ele>432.99078369141</ele>
        <time>2014-05-17T13:00:20Z</time>
      </trkpt>
      <trkpt lat="43.25914" lon="5.93609">
        <ele>433.67568969727</ele>
        <time>2014-05-17T13:00:22Z</time>
      </trkpt>
      <trkpt lat="43.25904" lon="5.93606">
        <ele>433.79928588867</ele>
        <time>2014-05-17T13:00:26Z</time>
      </trkpt>
      <trkpt lat="43.25894" lon="5.93597">
        <ele>431.94018554688</ele>
        <time>2014-05-17T13:00:31Z</time>
      </trkpt>
      <trkpt lat="43.25885" lon="5.93584">
        <ele>428.71640014648</ele>
        <time>2014-05-17T13:00:36Z</time>
      </trkpt>
      <trkpt lat="43.25873" lon="5.93563">
        <ele>423.3642578125</ele>
        <time>2014-05-17T13:00:43Z</time>
      </trkpt>
      <trkpt lat="43.2587" lon="5.93556">
        <ele>421.56878662109</ele>
        <time>2014-05-17T13:00:45Z</time>
      </trkpt>
      <trkpt lat="43.25865" lon="5.93545">
        <ele>419.60202026367</ele>
        <time>2014-05-17T13:00:48Z</time>
      </trkpt>
      <trkpt lat="43.2585" lon="5.93534">
        <ele>420.04824829102</ele>
        <time>2014-05-17T13:00:53Z</time>
      </trkpt>
      <trkpt lat="43.25845" lon="5.93527">
        <ele>419.73852539062</ele>
        <time>2014-05-17T13:00:55Z</time>
      </trkpt>
      <trkpt lat="43.25842" lon="5.9352">
        <ele>418.69927978516</ele>
        <time>2014-05-17T13:00:56Z</time>
      </trkpt>
      <trkpt lat="43.25841" lon="5.93512">
        <ele>417.18118286133</ele>
        <time>2014-05-17T13:00:57Z</time>
      </trkpt>
      <trkpt lat="43.25827" lon="5.93471">
        <ele>411.57897949219</ele>
        <time>2014-05-17T13:01:04Z</time>
      </trkpt>
      <trkpt lat="43.25813" lon="5.93453">
        <ele>413.02093505859</ele>
        <time>2014-05-17T13:01:10Z</time>
      </trkpt>
      <trkpt lat="43.25797" lon="5.93437">
        <ele>414.67877197266</ele>
        <time>2014-05-17T13:01:17Z</time>
      </trkpt>
      <trkpt lat="43.25777" lon="5.93418">
        <ele>415.34228515625</ele>
        <time>2014-05-17T13:01:24Z</time>
      </trkpt>
      <trkpt lat="43.25758" lon="5.93407">
        <ele>413.88061523438</ele>
        <time>2014-05-17T13:01:29Z</time>
      </trkpt>
      <trkpt lat="43.25751" lon="5.93401">
        <ele>413.04119873047</ele>
        <time>2014-05-17T13:01:31Z</time>
      </trkpt>
      <trkpt lat="43.25748" lon="5.93397">
        <ele>412.38214111328</ele>
        <time>2014-05-17T13:01:32Z</time>
      </trkpt>
      <trkpt lat="43.25744" lon="5.93395">
        <ele>412.1923828125</ele>
        <time>2014-05-17T13:01:33Z</time>
      </trkpt>
      <trkpt lat="43.25739" lon="5.93392">
        <ele>411.72308349609</ele>
        <time>2014-05-17T13:01:34Z</time>
      </trkpt>
      <trkpt lat="43.25734" lon="5.93389">
        <ele>411.14477539062</ele>
        <time>2014-05-17T13:01:35Z</time>
      </trkpt>
      <trkpt lat="43.25715" lon="5.93378">
        <ele>409.33822631836</ele>
        <time>2014-05-17T13:01:39Z</time>
      </trkpt>
      <trkpt lat="43.25711" lon="5.93375">
        <ele>408.67782592773</ele>
        <time>2014-05-17T13:01:40Z</time>
      </trkpt>
      <trkpt lat="43.25705" lon="5.93369">
        <ele>407.36770629883</ele>
        <time>2014-05-17T13:01:41Z</time>
      </trkpt>
      <trkpt lat="43.25701" lon="5.93364">
        <ele>406.37042236328</ele>
        <time>2014-05-17T13:01:42Z</time>
      </trkpt>
      <trkpt lat="43.25699" lon="5.93363">
        <ele>406.09335327148</ele>
        <time>2014-05-17T13:01:43Z</time>
      </trkpt>
      <trkpt lat="43.25697" lon="5.93361">
        <ele>405.77606201172</ele>
        <time>2014-05-17T13:01:44Z</time>
      </trkpt>
      <trkpt lat="43.25695" lon="5.9336">
        <ele>405.60375976562</ele>
        <time>2014-05-17T13:01:45Z</time>
      </trkpt>
      <trkpt lat="43.25689" lon="5.93356">
        <ele>404.94589233398</ele>
        <time>2014-05-17T13:01:47Z</time>
      </trkpt>
      <trkpt lat="43.25683" lon="5.93352">
        <ele>404.46481323242</ele>
        <time>2014-05-17T13:01:49Z</time>
      </trkpt>
      <trkpt lat="43.25668" lon="5.93351">
        <ele>405.07550048828</ele>
        <time>2014-05-17T13:01:54Z</time>
      </trkpt>
      <trkpt lat="43.25666" lon="5.93351">
        <ele>405.16778564453</ele>
        <time>2014-05-17T13:01:55Z</time>
      </trkpt>
      <trkpt lat="43.25666" lon="5.93347">
        <ele>404.0598449707</ele>
        <time>2014-05-17T13:01:59Z</time>
      </trkpt>
      <trkpt lat="43.25668" lon="5.93344">
        <ele>402.90979003906</ele>
        <time>2014-05-17T13:02:01Z</time>
      </trkpt>
      <trkpt lat="43.25667" lon="5.9334">
        <ele>401.98669433594</ele>
        <time>2014-05-17T13:02:03Z</time>
      </trkpt>
      <trkpt lat="43.25667" lon="5.9334">
        <ele>401.79144287109</ele>
        <time>2014-05-17T13:02:04Z</time>
      </trkpt>
      <trkpt lat="43.25667" lon="5.93338">
        <ele>401.42401123047</ele>
        <time>2014-05-17T13:02:05Z</time>
      </trkpt>
      <trkpt lat="43.25666" lon="5.93336">
        <ele>400.7731628418</ele>
        <time>2014-05-17T13:02:06Z</time>
      </trkpt>
      <trkpt lat="43.25665" lon="5.93335">
        <ele>400.54058837891</ele>
        <time>2014-05-17T13:02:08Z</time>
      </trkpt>
      <trkpt lat="43.25665" lon="5.93335">
        <ele>400.54058837891</ele>
        <time>2014-05-17T13:02:11Z</time>
      </trkpt>
      <trkpt lat="43.25666" lon="5.93332">
        <ele>400.00909423828</ele>
        <time>2014-05-17T13:02:12Z</time>
      </trkpt>
      <trkpt lat="43.25665" lon="5.93332">
        <ele>400.01293945312</ele>
        <time>2014-05-17T13:02:13Z</time>
      </trkpt>
      <trkpt lat="43.25665" lon="5.93332">
        <ele>400.01293945312</ele>
        <time>2014-05-17T13:02:30Z</time>
      </trkpt>
      <trkpt lat="43.25666" lon="5.93331">
        <ele>399.93084716797</ele>
        <time>2014-05-17T13:02:54Z</time>
      </trkpt>
      <trkpt lat="43.25666" lon="5.93331">
        <ele>399.93084716797</ele>
        <time>2014-05-17T13:03:20Z</time>
      </trkpt>
      <trkpt lat="43.25666" lon="5.93331">
        <ele>399.93084716797</ele>
        <time>2014-05-17T13:03:27Z</time>
      </trkpt>
      <trkpt lat="43.25666" lon="5.93331">
        <ele>399.89199829102</ele>
        <time>2014-05-17T13:03:33Z</time>
      </trkpt>
      <trkpt lat="43.25666" lon="5.93331">
        <ele>399.89199829102</ele>
        <time>2014-05-17T13:03:57Z</time>
      </trkpt>
      <trkpt lat="43.25666" lon="5.9333">
        <ele>399.79428100586</ele>
        <time>2014-05-17T13:04:56Z</time>
      </trkpt>
      <trkpt lat="43.25666" lon="5.9333">
        <ele>399.79428100586</ele>
        <time>2014-05-17T13:05:11Z</time>
      </trkpt>
      <trkpt lat="43.25666" lon="5.93331">
        <ele>399.90603637695</ele>
        <time>2014-05-17T13:05:15Z</time>
      </trkpt>
      <trkpt lat="43.25666" lon="5.93332">
        <ele>400.00198364258</ele>
        <time>2014-05-17T13:05:27Z</time>
      </trkpt>
      <trkpt lat="43.25667" lon="5.93335">
        <ele>400.47705078125</ele>
        <time>2014-05-17T13:05:34Z</time>
      </trkpt>
      <trkpt lat="43.25667" lon="5.93337">
        <ele>401.14752197266</ele>
        <time>2014-05-17T13:05:43Z</time>
      </trkpt>
      <trkpt lat="43.25667" lon="5.9334">
        <ele>402.02435302734</ele>
        <time>2014-05-17T13:05:46Z</time>
      </trkpt>
      <trkpt lat="43.25663" lon="5.93346">
        <ele>404.07287597656</ele>
        <time>2014-05-17T13:05:51Z</time>
      </trkpt>
      <trkpt lat="43.25663" lon="5.93345">
        <ele>403.962890625</ele>
        <time>2014-05-17T13:05:53Z</time>
      </trkpt>
      <trkpt lat="43.25665" lon="5.93342">
        <ele>402.82083129883</ele>
        <time>2014-05-17T13:06:00Z</time>
      </trkpt>
      <trkpt lat="43.25666" lon="5.93341">
        <ele>402.36126708984</ele>
        <time>2014-05-17T13:06:01Z</time>
      </trkpt>
      <trkpt lat="43.25666" lon="5.93334">
        <ele>400.31665039062</ele>
        <time>2014-05-17T13:06:05Z</time>
      </trkpt>
      <trkpt lat="43.25662" lon="5.93327">
        <ele>400.0212097168</ele>
        <time>2014-05-17T13:06:08Z</time>
      </trkpt>
      <trkpt lat="43.25659" lon="5.93322">
        <ele>399.80670166016</ele>
        <time>2014-05-17T13:06:10Z</time>
      </trkpt>
      <trkpt lat="43.25653" lon="5.93318">
        <ele>399.77578735352</ele>
        <time>2014-05-17T13:06:12Z</time>
      </trkpt>
      <trkpt lat="43.25652" lon="5.93316">
        <ele>399.69186401367</ele>
        <time>2014-05-17T13:06:13Z</time>
      </trkpt>
      <trkpt lat="43.25652" lon="5.93316">
        <ele>399.67105102539</ele>
        <time>2014-05-17T13:06:14Z</time>
      </trkpt>
      <trkpt lat="43.25652" lon="5.93316">
        <ele>399.67105102539</ele>
        <time>2014-05-17T13:06:19Z</time>
      </trkpt>
      <trkpt lat="43.25652" lon="5.93316">
        <ele>399.71624755859</ele>
        <time>2014-05-17T13:06:21Z</time>
      </trkpt>
      <trkpt lat="43.25649" lon="5.93314">
        <ele>399.66348266602</ele>
        <time>2014-05-17T13:06:31Z</time>
      </trkpt>
      <trkpt lat="43.25649" lon="5.93313">
        <ele>399.57333374023</ele>
        <time>2014-05-17T13:06:34Z</time>
      </trkpt>
      <trkpt lat="43.25646" lon="5.93311">
        <ele>399.42721557617</ele>
        <time>2014-05-17T13:06:36Z</time>
      </trkpt>
      <trkpt lat="43.25635" lon="5.93304">
        <ele>399.06378173828</ele>
        <time>2014-05-17T13:06:41Z</time>
      </trkpt>
      <trkpt lat="43.25632" lon="5.93303">
        <ele>399.13244628906</ele>
        <time>2014-05-17T13:06:42Z</time>
      </trkpt>
      <trkpt lat="43.2563" lon="5.93301">
        <ele>399.17535400391</ele>
        <time>2014-05-17T13:06:43Z</time>
      </trkpt>
      <trkpt lat="43.25623" lon="5.93301">
        <ele>399.40710449219</ele>
        <time>2014-05-17T13:06:45Z</time>
      </trkpt>
      <trkpt lat="43.2562" lon="5.93301">
        <ele>399.51181030273</ele>
        <time>2014-05-17T13:06:46Z</time>
      </trkpt>
      <trkpt lat="43.25615" lon="5.93299">
        <ele>399.63024902344</ele>
        <time>2014-05-17T13:06:47Z</time>
      </trkpt>
      <trkpt lat="43.25592" lon="5.93288">
        <ele>400.14608764648</ele>
        <time>2014-05-17T13:06:52Z</time>
      </trkpt>
      <trkpt lat="43.25581" lon="5.93278">
        <ele>399.58926391602</ele>
        <time>2014-05-17T13:06:55Z</time>
      </trkpt>
      <trkpt lat="43.25573" lon="5.9327">
        <ele>400.58358764648</ele>
        <time>2014-05-17T13:06:57Z</time>
      </trkpt>
      <trkpt lat="43.2556" lon="5.93267">
        <ele>402.04943847656</ele>
        <time>2014-05-17T13:07:00Z</time>
      </trkpt>
      <trkpt lat="43.25555" lon="5.93265">
        <ele>402.27642822266</ele>
        <time>2014-05-17T13:07:01Z</time>
      </trkpt>
      <trkpt lat="43.25546" lon="5.93259">
        <ele>402.22158813477</ele>
        <time>2014-05-17T13:07:03Z</time>
      </trkpt>
      <trkpt lat="43.25539" lon="5.93249">
        <ele>400.71798706055</ele>
        <time>2014-05-17T13:07:05Z</time>
      </trkpt>
      <trkpt lat="43.25528" lon="5.93232">
        <ele>400.07641601562</ele>
        <time>2014-05-17T13:07:08Z</time>
      </trkpt>
      <trkpt lat="43.25525" lon="5.93229">
        <ele>399.82452392578</ele>
        <time>2014-05-17T13:07:09Z</time>
      </trkpt>
      <trkpt lat="43.2552" lon="5.93222">
        <ele>399.00869750977</ele>
        <time>2014-05-17T13:07:11Z</time>
      </trkpt>
      <trkpt lat="43.25511" lon="5.93216">
        <ele>399</ele>
        <time>2014-05-17T13:07:15Z</time>
      </trkpt>
      <trkpt lat="43.25491" lon="5.93211">
        <ele>399.18844604492</ele>
        <time>2014-05-17T13:07:21Z</time>
      </trkpt>
      <trkpt lat="43.2547" lon="5.93212">
        <ele>399.73278808594</ele>
        <time>2014-05-17T13:07:27Z</time>
      </trkpt>
      <trkpt lat="43.25466" lon="5.93211">
        <ele>399.86929321289</ele>
        <time>2014-05-17T13:07:28Z</time>
      </trkpt>
      <trkpt lat="43.25449" lon="5.93212">
        <ele>400.68649291992</ele>
        <time>2014-05-17T13:07:33Z</time>
      </trkpt>
      <trkpt lat="43.25442" lon="5.93211">
        <ele>400.73983764648</ele>
        <time>2014-05-17T13:07:35Z</time>
      </trkpt>
      <trkpt lat="43.25419" lon="5.93203">
        <ele>399.94677734375</ele>
        <time>2014-05-17T13:07:43Z</time>
      </trkpt>
      <trkpt lat="43.2541" lon="5.932">
        <ele>399.89309692383</ele>
        <time>2014-05-17T13:07:46Z</time>
      </trkpt>
      <trkpt lat="43.25397" lon="5.93198">
        <ele>400.20983886719</ele>
        <time>2014-05-17T13:07:51Z</time>
      </trkpt>
      <trkpt lat="43.25386" lon="5.93202">
        <ele>401.34051513672</ele>
        <time>2014-05-17T13:07:56Z</time>
      </trkpt>
      <trkpt lat="43.25384" lon="5.93203">
        <ele>401.38208007812</ele>
        <time>2014-05-17T13:07:57Z</time>
      </trkpt>
      <trkpt lat="43.25382" lon="5.93204">
        <ele>401.47973632812</ele>
        <time>2014-05-17T13:07:58Z</time>
      </trkpt>
      <trkpt lat="43.2538" lon="5.93204">
        <ele>401.47189331055</ele>
        <time>2014-05-17T13:07:59Z</time>
      </trkpt>
      <trkpt lat="43.25374" lon="5.93204">
        <ele>401.39065551758</ele>
        <time>2014-05-17T13:08:02Z</time>
      </trkpt>
      <trkpt lat="43.2537" lon="5.93207">
        <ele>401.65570068359</ele>
        <time>2014-05-17T13:08:04Z</time>
      </trkpt>
      <trkpt lat="43.25356" lon="5.93212">
        <ele>401.55297851562</ele>
        <time>2014-05-17T13:08:10Z</time>
      </trkpt>
      <trkpt lat="43.25349" lon="5.93216">
        <ele>401.29574584961</ele>
        <time>2014-05-17T13:08:13Z</time>
      </trkpt>
      <trkpt lat="43.25338" lon="5.93217">
        <ele>400.38119506836</ele>
        <time>2014-05-17T13:08:17Z</time>
      </trkpt>
      <trkpt lat="43.25325" lon="5.93217">
        <ele>400</ele>
        <time>2014-05-17T13:08:22Z</time>
      </trkpt>
      <trkpt lat="43.25314" lon="5.93217">
        <ele>400</ele>
        <time>2014-05-17T13:08:28Z</time>
      </trkpt>
      <trkpt lat="43.25303" lon="5.93222">
        <ele>400</ele>
        <time>2014-05-17T13:08:35Z</time>
      </trkpt>
      <trkpt lat="43.25297" lon="5.93232">
        <ele>400.95043945312</ele>
        <time>2014-05-17T13:08:40Z</time>
      </trkpt>
      <trkpt lat="43.25284" lon="5.93236">
        <ele>400.42864990234</ele>
        <time>2014-05-17T13:08:48Z</time>
      </trkpt>
      <trkpt lat="43.25278" lon="5.93236">
        <ele>400.05023193359</ele>
        <time>2014-05-17T13:08:51Z</time>
      </trkpt>
      <trkpt lat="43.25262" lon="5.93244">
        <ele>400</ele>
        <time>2014-05-17T13:09:02Z</time>
      </trkpt>
      <trkpt lat="43.25255" lon="5.93248">
        <ele>400</ele>
        <time>2014-05-17T13:09:06Z</time>
      </trkpt>
      <trkpt lat="43.25251" lon="5.9325">
        <ele>400.04000854492</ele>
        <time>2014-05-17T13:09:08Z</time>
      </trkpt>
      <trkpt lat="43.25246" lon="5.93254">
        <ele>400.7727355957</ele>
        <time>2014-05-17T13:09:12Z</time>
      </trkpt>
      <trkpt lat="43.25243" lon="5.93256">
        <ele>401.09753417969</ele>
        <time>2014-05-17T13:09:14Z</time>
      </trkpt>
      <trkpt lat="43.25233" lon="5.93263">
        <ele>402.15255737305</ele>
        <time>2014-05-17T13:09:20Z</time>
      </trkpt>
      <trkpt lat="43.25229" lon="5.93262">
        <ele>401.8974609375</ele>
        <time>2014-05-17T13:09:22Z</time>
      </trkpt>
      <trkpt lat="43.25229" lon="5.93262">
        <ele>401.93231201172</ele>
        <time>2014-05-17T13:09:23Z</time>
      </trkpt>
      <trkpt lat="43.25229" lon="5.93262">
        <ele>401.98205566406</ele>
        <time>2014-05-17T13:09:24Z</time>
      </trkpt>
      <trkpt lat="43.25229" lon="5.93262">
        <ele>401.98205566406</ele>
        <time>2014-05-17T13:09:32Z</time>
      </trkpt>
      <trkpt lat="43.25226" lon="5.9326">
        <ele>401.46801757812</ele>
        <time>2014-05-17T13:09:35Z</time>
      </trkpt>
      <trkpt lat="43.25221" lon="5.9326">
        <ele>401.52731323242</ele>
        <time>2014-05-17T13:09:39Z</time>
      </trkpt>
      <trkpt lat="43.2522" lon="5.9326">
        <ele>401.48086547852</ele>
        <time>2014-05-17T13:09:43Z</time>
      </trkpt>
      <trkpt lat="43.2522" lon="5.93259">
        <ele>401.47122192383</ele>
        <time>2014-05-17T13:09:47Z</time>
      </trkpt>
      <trkpt lat="43.25218" lon="5.93259">
        <ele>401.54879760742</ele>
        <time>2014-05-17T13:09:49Z</time>
      </trkpt>
      <trkpt lat="43.25208" lon="5.93262">
        <ele>402.4670715332</ele>
        <time>2014-05-17T13:09:55Z</time>
      </trkpt>
      <trkpt lat="43.25198" lon="5.9327">
        <ele>404.38366699219</ele>
        <time>2014-05-17T13:10:03Z</time>
      </trkpt>
      <trkpt lat="43.25195" lon="5.9327">
        <ele>404.61346435547</ele>
        <time>2014-05-17T13:10:06Z</time>
      </trkpt>
      <trkpt lat="43.25193" lon="5.93269">
        <ele>404.52291870117</ele>
        <time>2014-05-17T13:10:07Z</time>
      </trkpt>
      <trkpt lat="43.25188" lon="5.93267">
        <ele>404.38638305664</ele>
        <time>2014-05-17T13:10:10Z</time>
      </trkpt>
      <trkpt lat="43.2518" lon="5.93268">
        <ele>404.88537597656</ele>
        <time>2014-05-17T13:10:14Z</time>
      </trkpt>
      <trkpt lat="43.25164" lon="5.93269">
        <ele>405.76800537109</ele>
        <time>2014-05-17T13:10:22Z</time>
      </trkpt>
      <trkpt lat="43.25161" lon="5.93267">
        <ele>405.4833984375</ele>
        <time>2014-05-17T13:10:24Z</time>
      </trkpt>
      <trkpt lat="43.25156" lon="5.93265">
        <ele>405.29998779297</ele>
        <time>2014-05-17T13:10:27Z</time>
      </trkpt>
      <trkpt lat="43.25154" lon="5.93265">
        <ele>405.35046386719</ele>
        <time>2014-05-17T13:10:28Z</time>
      </trkpt>
      <trkpt lat="43.25146" lon="5.93264">
        <ele>405.40646362305</ele>
        <time>2014-05-17T13:10:34Z</time>
      </trkpt>
      <trkpt lat="43.25138" lon="5.93266">
        <ele>405.73544311523</ele>
        <time>2014-05-17T13:10:38Z</time>
      </trkpt>
      <trkpt lat="43.25134" lon="5.93266">
        <ele>405.76052856445</ele>
        <time>2014-05-17T13:10:40Z</time>
      </trkpt>
      <trkpt lat="43.25127" lon="5.93264">
        <ele>405.75762939453</ele>
        <time>2014-05-17T13:10:47Z</time>
      </trkpt>
      <trkpt lat="43.2512" lon="5.93267">
        <ele>406.07211303711</ele>
        <time>2014-05-17T13:10:51Z</time>
      </trkpt>
      <trkpt lat="43.25119" lon="5.93268">
        <ele>406.22897338867</ele>
        <time>2014-05-17T13:10:52Z</time>
      </trkpt>
      <trkpt lat="43.25116" lon="5.93275">
        <ele>406.79922485352</ele>
        <time>2014-05-17T13:10:55Z</time>
      </trkpt>
      <trkpt lat="43.25112" lon="5.93286">
        <ele>407.58441162109</ele>
        <time>2014-05-17T13:11:00Z</time>
      </trkpt>
      <trkpt lat="43.25107" lon="5.93295">
        <ele>408.43789672852</ele>
        <time>2014-05-17T13:11:05Z</time>
      </trkpt>
      <trkpt lat="43.25106" lon="5.93296">
        <ele>408.56015014648</ele>
        <time>2014-05-17T13:11:06Z</time>
      </trkpt>
      <trkpt lat="43.25087" lon="5.93301">
        <ele>409.69934082031</ele>
        <time>2014-05-17T13:11:14Z</time>
      </trkpt>
      <trkpt lat="43.25083" lon="5.93304">
        <ele>409.94836425781</ele>
        <time>2014-05-17T13:11:16Z</time>
      </trkpt>
      <trkpt lat="43.25082" lon="5.93304">
        <ele>410.083984375</ele>
        <time>2014-05-17T13:11:17Z</time>
      </trkpt>
      <trkpt lat="43.25079" lon="5.93305">
        <ele>410.26596069336</ele>
        <time>2014-05-17T13:11:18Z</time>
      </trkpt>
      <trkpt lat="43.25067" lon="5.93302">
        <ele>411.07962036133</ele>
        <time>2014-05-17T13:11:26Z</time>
      </trkpt>
      <trkpt lat="43.25061" lon="5.93299">
        <ele>411.38348388672</ele>
        <time>2014-05-17T13:11:30Z</time>
      </trkpt>
      <trkpt lat="43.25056" lon="5.93297">
        <ele>411.61178588867</ele>
        <time>2014-05-17T13:11:32Z</time>
      </trkpt>
      <trkpt lat="43.25051" lon="5.93293">
        <ele>411.88299560547</ele>
        <time>2014-05-17T13:11:34Z</time>
      </trkpt>
      <trkpt lat="43.25042" lon="5.9329">
        <ele>412.38082885742</ele>
        <time>2014-05-17T13:11:37Z</time>
      </trkpt>
      <trkpt lat="43.25035" lon="5.93291">
        <ele>412.93701171875</ele>
        <time>2014-05-17T13:11:39Z</time>
      </trkpt>
      <trkpt lat="43.25032" lon="5.93292">
        <ele>413.23742675781</ele>
        <time>2014-05-17T13:11:40Z</time>
      </trkpt>
      <trkpt lat="43.25029" lon="5.93294">
        <ele>413.51721191406</ele>
        <time>2014-05-17T13:11:41Z</time>
      </trkpt>
      <trkpt lat="43.25026" lon="5.93295">
        <ele>413.74896240234</ele>
        <time>2014-05-17T13:11:42Z</time>
      </trkpt>
      <trkpt lat="43.25024" lon="5.93296">
        <ele>413.96697998047</ele>
        <time>2014-05-17T13:11:43Z</time>
      </trkpt>
      <trkpt lat="43.25019" lon="5.933">
        <ele>414.4167175293</ele>
        <time>2014-05-17T13:11:46Z</time>
      </trkpt>
      <trkpt lat="43.25018" lon="5.93301">
        <ele>414.5403137207</ele>
        <time>2014-05-17T13:11:48Z</time>
      </trkpt>
      <trkpt lat="43.25018" lon="5.93303">
        <ele>414.57293701172</ele>
        <time>2014-05-17T13:11:51Z</time>
      </trkpt>
      <trkpt lat="43.25018" lon="5.93303">
        <ele>414.57293701172</ele>
        <time>2014-05-17T13:12:04Z</time>
      </trkpt>
      <trkpt lat="43.25018" lon="5.93303">
        <ele>414.5849609375</ele>
        <time>2014-05-17T13:12:43Z</time>
      </trkpt>
      <trkpt lat="43.25018" lon="5.93303">
        <ele>414.5849609375</ele>
        <time>2014-05-17T13:13:00Z</time>
      </trkpt>
      <trkpt lat="43.25021" lon="5.933">
        <ele>414.29141235352</ele>
        <time>2014-05-17T13:13:14Z</time>
      </trkpt>
      <trkpt lat="43.25021" lon="5.93299">
        <ele>414.26910400391</ele>
        <time>2014-05-17T13:13:19Z</time>
      </trkpt>
      <trkpt lat="43.2502" lon="5.93299">
        <ele>414.33605957031</ele>
        <time>2014-05-17T13:13:22Z</time>
      </trkpt>
      <trkpt lat="43.25014" lon="5.933">
        <ele>414.77035522461</ele>
        <time>2014-05-17T13:13:25Z</time>
      </trkpt>
      <trkpt lat="43.25001" lon="5.93299">
        <ele>415.66815185547</ele>
        <time>2014-05-17T13:13:31Z</time>
      </trkpt>
      <trkpt lat="43.24992" lon="5.93294">
        <ele>415.88787841797</ele>
        <time>2014-05-17T13:13:38Z</time>
      </trkpt>
      <trkpt lat="43.24984" lon="5.93293">
        <ele>416.12475585938</ele>
        <time>2014-05-17T13:13:41Z</time>
      </trkpt>
      <trkpt lat="43.24977" lon="5.93294">
        <ele>416.41143798828</ele>
        <time>2014-05-17T13:13:43Z</time>
      </trkpt>
      <trkpt lat="43.2496" lon="5.93294">
        <ele>417.19528198242</ele>
        <time>2014-05-17T13:13:49Z</time>
      </trkpt>
      <trkpt lat="43.24947" lon="5.93299">
        <ele>417.88879394531</ele>
        <time>2014-05-17T13:13:54Z</time>
      </trkpt>
      <trkpt lat="43.24937" lon="5.93303">
        <ele>418.26593017578</ele>
        <time>2014-05-17T13:13:59Z</time>
      </trkpt>
      <trkpt lat="43.24934" lon="5.93303">
        <ele>418.37579345703</ele>
        <time>2014-05-17T13:14:01Z</time>
      </trkpt>
      <trkpt lat="43.24928" lon="5.93304">
        <ele>418.59552001953</ele>
        <time>2014-05-17T13:14:05Z</time>
      </trkpt>
      <trkpt lat="43.24926" lon="5.93303">
        <ele>418.65045166016</ele>
        <time>2014-05-17T13:14:06Z</time>
      </trkpt>
      <trkpt lat="43.24921" lon="5.93302">
        <ele>418.82897949219</ele>
        <time>2014-05-17T13:14:09Z</time>
      </trkpt>
      <trkpt lat="43.24913" lon="5.93301">
        <ele>419</ele>
        <time>2014-05-17T13:14:13Z</time>
      </trkpt>
      <trkpt lat="43.24905" lon="5.93305">
        <ele>419</ele>
        <time>2014-05-17T13:14:17Z</time>
      </trkpt>
      <trkpt lat="43.24903" lon="5.93305">
        <ele>419</ele>
        <time>2014-05-17T13:14:18Z</time>
      </trkpt>
      <trkpt lat="43.24896" lon="5.93309">
        <ele>419.46276855469</ele>
        <time>2014-05-17T13:14:21Z</time>
      </trkpt>
      <trkpt lat="43.2489" lon="5.93311">
        <ele>419.74810791016</ele>
        <time>2014-05-17T13:14:24Z</time>
      </trkpt>
      <trkpt lat="43.24879" lon="5.93315">
        <ele>421.90115356445</ele>
        <time>2014-05-17T13:14:30Z</time>
      </trkpt>
      <trkpt lat="43.24875" lon="5.93319">
        <ele>422.92721557617</ele>
        <time>2014-05-17T13:14:34Z</time>
      </trkpt>
      <trkpt lat="43.24873" lon="5.9332">
        <ele>423.32833862305</ele>
        <time>2014-05-17T13:14:36Z</time>
      </trkpt>
      <trkpt lat="43.24871" lon="5.93323">
        <ele>423.94680786133</ele>
        <time>2014-05-17T13:14:38Z</time>
      </trkpt>
      <trkpt lat="43.24869" lon="5.93323">
        <ele>424.1975402832</ele>
        <time>2014-05-17T13:14:39Z</time>
      </trkpt>
      <trkpt lat="43.24858" lon="5.93329">
        <ele>426.07827758789</ele>
        <time>2014-05-17T13:14:44Z</time>
      </trkpt>
      <trkpt lat="43.24847" lon="5.93332">
        <ele>427.47183227539</ele>
        <time>2014-05-17T13:14:49Z</time>
      </trkpt>
      <trkpt lat="43.24844" lon="5.93332">
        <ele>427.77517700195</ele>
        <time>2014-05-17T13:14:51Z</time>
      </trkpt>
      <trkpt lat="43.24842" lon="5.93332">
        <ele>428.02185058594</ele>
        <time>2014-05-17T13:14:53Z</time>
      </trkpt>
      <trkpt lat="43.24839" lon="5.93333">
        <ele>428.42123413086</ele>
        <time>2014-05-17T13:14:55Z</time>
      </trkpt>
      <trkpt lat="43.24835" lon="5.93335">
        <ele>428.94924926758</ele>
        <time>2014-05-17T13:14:58Z</time>
      </trkpt>
      <trkpt lat="43.24832" lon="5.93336">
        <ele>429.50061035156</ele>
        <time>2014-05-17T13:15:00Z</time>
      </trkpt>
      <trkpt lat="43.24827" lon="5.93336">
        <ele>430.18643188477</ele>
        <time>2014-05-17T13:15:04Z</time>
      </trkpt>
      <trkpt lat="43.24821" lon="5.93329">
        <ele>430.7080078125</ele>
        <time>2014-05-17T13:15:10Z</time>
      </trkpt>
      <trkpt lat="43.24818" lon="5.93327">
        <ele>431.1474609375</ele>
        <time>2014-05-17T13:15:12Z</time>
      </trkpt>
      <trkpt lat="43.24811" lon="5.93322">
        <ele>432.19116210938</ele>
        <time>2014-05-17T13:15:18Z</time>
      </trkpt>
      <trkpt lat="43.2481" lon="5.93321">
        <ele>432.35595703125</ele>
        <time>2014-05-17T13:15:19Z</time>
      </trkpt>
      <trkpt lat="43.24809" lon="5.93319">
        <ele>432.57568359375</ele>
        <time>2014-05-17T13:15:21Z</time>
      </trkpt>
      <trkpt lat="43.24806" lon="5.93315">
        <ele>432.9052734375</ele>
        <time>2014-05-17T13:15:24Z</time>
      </trkpt>
      <trkpt lat="43.24804" lon="5.93313">
        <ele>433.24432373047</ele>
        <time>2014-05-17T13:15:30Z</time>
      </trkpt>
      <trkpt lat="43.24804" lon="5.93313">
        <ele>433.24432373047</ele>
        <time>2014-05-17T13:15:38Z</time>
      </trkpt>
      <trkpt lat="43.24803" lon="5.93314">
        <ele>433.46450805664</ele>
        <time>2014-05-17T13:15:41Z</time>
      </trkpt>
      <trkpt lat="43.24801" lon="5.93315">
        <ele>433.82345581055</ele>
        <time>2014-05-17T13:15:44Z</time>
      </trkpt>
      <trkpt lat="43.248" lon="5.93315">
        <ele>433.97265625</ele>
        <time>2014-05-17T13:15:45Z</time>
      </trkpt>
      <trkpt lat="43.248" lon="5.93315">
        <ele>433.97265625</ele>
        <time>2014-05-17T13:15:46Z</time>
      </trkpt>
      <trkpt lat="43.248" lon="5.93315">
        <ele>434.11630249023</ele>
        <time>2014-05-17T13:15:47Z</time>
      </trkpt>
      <trkpt lat="43.24799" lon="5.93314">
        <ele>434.20166015625</ele>
        <time>2014-05-17T13:15:48Z</time>
      </trkpt>
      <trkpt lat="43.24798" lon="5.93312">
        <ele>434.54000854492</ele>
        <time>2014-05-17T13:15:51Z</time>
      </trkpt>
      <trkpt lat="43.24796" lon="5.93311">
        <ele>434.86557006836</ele>
        <time>2014-05-17T13:15:54Z</time>
      </trkpt>
      <trkpt lat="43.24795" lon="5.93309">
        <ele>435.23428344727</ele>
        <time>2014-05-17T13:15:57Z</time>
      </trkpt>
      <trkpt lat="43.24795" lon="5.93308">
        <ele>435.18228149414</ele>
        <time>2014-05-17T13:15:59Z</time>
      </trkpt>
      <trkpt lat="43.24796" lon="5.93304">
        <ele>435.09652709961</ele>
        <time>2014-05-17T13:16:10Z</time>
      </trkpt>
      <trkpt lat="43.24796" lon="5.93304">
        <ele>435.09652709961</ele>
        <time>2014-05-17T13:16:18Z</time>
      </trkpt>
      <trkpt lat="43.24796" lon="5.93304">
        <ele>435.09652709961</ele>
        <time>2014-05-17T13:16:27Z</time>
      </trkpt>
      <trkpt lat="43.24796" lon="5.93304">
        <ele>435.09713745117</ele>
        <time>2014-05-17T13:16:28Z</time>
      </trkpt>
      <trkpt lat="43.24796" lon="5.93302">
        <ele>435.12155151367</ele>
        <time>2014-05-17T13:16:29Z</time>
      </trkpt>
      <trkpt lat="43.24797" lon="5.93295">
        <ele>434.86004638672</ele>
        <time>2014-05-17T13:16:32Z</time>
      </trkpt>
      <trkpt lat="43.24798" lon="5.9329">
        <ele>434.8251953125</ele>
        <time>2014-05-17T13:16:34Z</time>
      </trkpt>
      <trkpt lat="43.24798" lon="5.93287">
        <ele>434.76062011719</ele>
        <time>2014-05-17T13:16:35Z</time>
      </trkpt>
      <trkpt lat="43.24798" lon="5.93282">
        <ele>434.80834960938</ele>
        <time>2014-05-17T13:16:37Z</time>
      </trkpt>
      <trkpt lat="43.24798" lon="5.93273">
        <ele>434.85296630859</ele>
        <time>2014-05-17T13:16:41Z</time>
      </trkpt>
      <trkpt lat="43.24797" lon="5.93251">
        <ele>435.04522705078</ele>
        <time>2014-05-17T13:16:50Z</time>
      </trkpt>
      <trkpt lat="43.24799" lon="5.93234">
        <ele>435.78137207031</ele>
        <time>2014-05-17T13:16:56Z</time>
      </trkpt>
      <trkpt lat="43.24799" lon="5.93227">
        <ele>436.09875488281</ele>
        <time>2014-05-17T13:16:58Z</time>
      </trkpt>
      <trkpt lat="43.24801" lon="5.93207">
        <ele>436.40161132812</ele>
        <time>2014-05-17T13:17:05Z</time>
      </trkpt>
      <trkpt lat="43.24802" lon="5.9319">
        <ele>436.72644042969</ele>
        <time>2014-05-17T13:17:10Z</time>
      </trkpt>
      <trkpt lat="43.24803" lon="5.93184">
        <ele>436.81225585938</ele>
        <time>2014-05-17T13:17:12Z</time>
      </trkpt>
      <trkpt lat="43.24803" lon="5.93181">
        <ele>436.99938964844</ele>
        <time>2014-05-17T13:17:13Z</time>
      </trkpt>
      <trkpt lat="43.24802" lon="5.93161">
        <ele>437.87896728516</ele>
        <time>2014-05-17T13:17:20Z</time>
      </trkpt>
      <trkpt lat="43.24794" lon="5.93149">
        <ele>439.40087890625</ele>
        <time>2014-05-17T13:17:26Z</time>
      </trkpt>
      <trkpt lat="43.24792" lon="5.93149">
        <ele>439.69662475586</ele>
        <time>2014-05-17T13:17:27Z</time>
      </trkpt>
      <trkpt lat="43.2479" lon="5.9315">
        <ele>440.03753662109</ele>
        <time>2014-05-17T13:17:28Z</time>
      </trkpt>
      <trkpt lat="43.24785" lon="5.93173">
        <ele>440.42572021484</ele>
        <time>2014-05-17T13:17:37Z</time>
      </trkpt>
      <trkpt lat="43.24784" lon="5.93186">
        <ele>440.24893188477</ele>
        <time>2014-05-17T13:17:42Z</time>
      </trkpt>
      <trkpt lat="43.24778" lon="5.93208">
        <ele>440.95922851562</ele>
        <time>2014-05-17T13:17:50Z</time>
      </trkpt>
      <trkpt lat="43.24771" lon="5.93222">
        <ele>441.958984375</ele>
        <time>2014-05-17T13:17:56Z</time>
      </trkpt>
      <trkpt lat="43.24767" lon="5.9323">
        <ele>442.21081542969</ele>
        <time>2014-05-17T13:18:00Z</time>
      </trkpt>
      <trkpt lat="43.24764" lon="5.93236">
        <ele>442.52322387695</ele>
        <time>2014-05-17T13:18:03Z</time>
      </trkpt>
      <trkpt lat="43.24749" lon="5.93263">
        <ele>444.11260986328</ele>
        <time>2014-05-17T13:18:15Z</time>
      </trkpt>
      <trkpt lat="43.24748" lon="5.93269">
        <ele>444.31860351562</ele>
        <time>2014-05-17T13:18:17Z</time>
      </trkpt>
      <trkpt lat="43.24748" lon="5.93276">
        <ele>444.38726806641</ele>
        <time>2014-05-17T13:18:19Z</time>
      </trkpt>
      <trkpt lat="43.24747" lon="5.93293">
        <ele>443.9626159668</ele>
        <time>2014-05-17T13:18:25Z</time>
      </trkpt>
      <trkpt lat="43.24745" lon="5.93312">
        <ele>443.82403564453</ele>
        <time>2014-05-17T13:18:32Z</time>
      </trkpt>
      <trkpt lat="43.24744" lon="5.93317">
        <ele>443.79144287109</ele>
        <time>2014-05-17T13:18:34Z</time>
      </trkpt>
      <trkpt lat="43.24741" lon="5.93334">
        <ele>444.04205322266</ele>
        <time>2014-05-17T13:18:40Z</time>
      </trkpt>
      <trkpt lat="43.24735" lon="5.93353">
        <ele>446.21578979492</ele>
        <time>2014-05-17T13:18:47Z</time>
      </trkpt>
      <trkpt lat="43.24732" lon="5.93366">
        <ele>447.60278320312</ele>
        <time>2014-05-17T13:18:52Z</time>
      </trkpt>
      <trkpt lat="43.24721" lon="5.93404">
        <ele>451.86846923828</ele>
        <time>2014-05-17T13:19:08Z</time>
      </trkpt>
      <trkpt lat="43.24718" lon="5.93409">
        <ele>452.56356811523</ele>
        <time>2014-05-17T13:19:10Z</time>
      </trkpt>
      <trkpt lat="43.24713" lon="5.9342">
        <ele>454.12115478516</ele>
        <time>2014-05-17T13:19:16Z</time>
      </trkpt>
      <trkpt lat="43.24709" lon="5.93433">
        <ele>455.40924072266</ele>
        <time>2014-05-17T13:19:23Z</time>
      </trkpt>
      <trkpt lat="43.24708" lon="5.93435">
        <ele>455.69338989258</ele>
        <time>2014-05-17T13:19:25Z</time>
      </trkpt>
      <trkpt lat="43.24707" lon="5.93438">
        <ele>455.93054199219</ele>
        <time>2014-05-17T13:19:27Z</time>
      </trkpt>
      <trkpt lat="43.24707" lon="5.9344">
        <ele>456.11416625977</ele>
        <time>2014-05-17T13:19:28Z</time>
      </trkpt>
      <trkpt lat="43.24706" lon="5.93443">
        <ele>456.32113647461</ele>
        <time>2014-05-17T13:19:29Z</time>
      </trkpt>
      <trkpt lat="43.24703" lon="5.93451">
        <ele>456.97708129883</ele>
        <time>2014-05-17T13:19:31Z</time>
      </trkpt>
      <trkpt lat="43.24695" lon="5.93473">
        <ele>458.89172363281</ele>
        <time>2014-05-17T13:19:38Z</time>
      </trkpt>
      <trkpt lat="43.24689" lon="5.93491">
        <ele>459.47937011719</ele>
        <time>2014-05-17T13:19:45Z</time>
      </trkpt>
      <trkpt lat="43.24684" lon="5.93499">
        <ele>459.77981567383</ele>
        <time>2014-05-17T13:19:49Z</time>
      </trkpt>
      <trkpt lat="43.24682" lon="5.93501">
        <ele>459.84149169922</ele>
        <time>2014-05-17T13:19:50Z</time>
      </trkpt>
      <trkpt lat="43.24678" lon="5.93508">
        <ele>459.84280395508</ele>
        <time>2014-05-17T13:19:53Z</time>
      </trkpt>
      <trkpt lat="43.2467" lon="5.93523">
        <ele>459.32690429688</ele>
        <time>2014-05-17T13:19:59Z</time>
      </trkpt>
      <trkpt lat="43.24659" lon="5.93544">
        <ele>460.00415039062</ele>
        <time>2014-05-17T13:20:08Z</time>
      </trkpt>
      <trkpt lat="43.24656" lon="5.9355">
        <ele>460.26644897461</ele>
        <time>2014-05-17T13:20:10Z</time>
      </trkpt>
      <trkpt lat="43.24652" lon="5.93559">
        <ele>460.5397644043</ele>
        <time>2014-05-17T13:20:13Z</time>
      </trkpt>
      <trkpt lat="43.24645" lon="5.9358">
        <ele>460.16644287109</ele>
        <time>2014-05-17T13:20:21Z</time>
      </trkpt>
      <trkpt lat="43.24641" lon="5.93595">
        <ele>460</ele>
        <time>2014-05-17T13:20:26Z</time>
      </trkpt>
      <trkpt lat="43.24637" lon="5.93604">
        <ele>461.20104980469</ele>
        <time>2014-05-17T13:20:30Z</time>
      </trkpt>
      <trkpt lat="43.24628" lon="5.9362">
        <ele>466.0498046875</ele>
        <time>2014-05-17T13:20:38Z</time>
      </trkpt>
      <trkpt lat="43.24625" lon="5.93629">
        <ele>467.69775390625</ele>
        <time>2014-05-17T13:20:42Z</time>
      </trkpt>
      <trkpt lat="43.24623" lon="5.93636">
        <ele>468.52172851562</ele>
        <time>2014-05-17T13:20:45Z</time>
      </trkpt>
      <trkpt lat="43.2462" lon="5.93652">
        <ele>470.91528320312</ele>
        <time>2014-05-17T13:20:52Z</time>
      </trkpt>
      <trkpt lat="43.2462" lon="5.93671">
        <ele>472.47543334961</ele>
        <time>2014-05-17T13:20:59Z</time>
      </trkpt>
      <trkpt lat="43.2462" lon="5.93673">
        <ele>472.58764648438</ele>
        <time>2014-05-17T13:21:00Z</time>
      </trkpt>
      <trkpt lat="43.24617" lon="5.93697">
        <ele>474.62725830078</ele>
        <time>2014-05-17T13:21:10Z</time>
      </trkpt>
      <trkpt lat="43.24613" lon="5.93708">
        <ele>476.12289428711</ele>
        <time>2014-05-17T13:21:15Z</time>
      </trkpt>
      <trkpt lat="43.24603" lon="5.93731">
        <ele>477.47842407227</ele>
        <time>2014-05-17T13:21:25Z</time>
      </trkpt>
      <trkpt lat="43.24601" lon="5.93739">
        <ele>477.49124145508</ele>
        <time>2014-05-17T13:21:29Z</time>
      </trkpt>
      <trkpt lat="43.24601" lon="5.93742">
        <ele>477.47540283203</ele>
        <time>2014-05-17T13:21:30Z</time>
      </trkpt>
      <trkpt lat="43.24599" lon="5.93757">
        <ele>477.67016601562</ele>
        <time>2014-05-17T13:21:36Z</time>
      </trkpt>
      <trkpt lat="43.24599" lon="5.93769">
        <ele>478.13882446289</ele>
        <time>2014-05-17T13:21:41Z</time>
      </trkpt>
      <trkpt lat="43.24599" lon="5.93774">
        <ele>478.32421875</ele>
        <time>2014-05-17T13:21:43Z</time>
      </trkpt>
      <trkpt lat="43.24598" lon="5.93784">
        <ele>478.46075439453</ele>
        <time>2014-05-17T13:21:47Z</time>
      </trkpt>
      <trkpt lat="43.24598" lon="5.93787">
        <ele>478.47448730469</ele>
        <time>2014-05-17T13:21:49Z</time>
      </trkpt>
      <trkpt lat="43.24598" lon="5.93801">
        <ele>478.47448730469</ele>
        <time>2014-05-17T13:21:58Z</time>
      </trkpt>
      <trkpt lat="43.24598" lon="5.93805">
        <ele>478.48822021484</ele>
        <time>2014-05-17T13:22:04Z</time>
      </trkpt>
      <trkpt lat="43.24598" lon="5.93805">
        <ele>478.48822021484</ele>
        <time>2014-05-17T13:22:29Z</time>
      </trkpt>
      <trkpt lat="43.24598" lon="5.93805">
        <ele>478.48822021484</ele>
        <time>2014-05-17T13:22:59Z</time>
      </trkpt>
      <trkpt lat="43.24598" lon="5.93805">
        <ele>478.48822021484</ele>
        <time>2014-05-17T13:24:52Z</time>
      </trkpt>
      <trkpt lat="43.24598" lon="5.93805">
        <ele>478.48822021484</ele>
        <time>2014-05-17T13:24:53Z</time>
      </trkpt>
      <trkpt lat="43.24596" lon="5.93807">
        <ele>478.54711914062</ele>
        <time>2014-05-17T13:25:02Z</time>
      </trkpt>
      <trkpt lat="43.2459" lon="5.93821">
        <ele>478.88647460938</ele>
        <time>2014-05-17T13:25:07Z</time>
      </trkpt>
      <trkpt lat="43.2459" lon="5.93831">
        <ele>478.98364257812</ele>
        <time>2014-05-17T13:25:11Z</time>
      </trkpt>
      <trkpt lat="43.2459" lon="5.93836">
        <ele>479.07775878906</ele>
        <time>2014-05-17T13:25:13Z</time>
      </trkpt>
      <trkpt lat="43.24591" lon="5.93841">
        <ele>479.20114135742</ele>
        <time>2014-05-17T13:25:15Z</time>
      </trkpt>
      <trkpt lat="43.24591" lon="5.93853">
        <ele>479.50357055664</ele>
        <time>2014-05-17T13:25:19Z</time>
      </trkpt>
      <trkpt lat="43.24591" lon="5.93867">
        <ele>480.23394775391</ele>
        <time>2014-05-17T13:25:24Z</time>
      </trkpt>
      <trkpt lat="43.2459" lon="5.9387">
        <ele>480.55895996094</ele>
        <time>2014-05-17T13:25:25Z</time>
      </trkpt>
      <trkpt lat="43.24586" lon="5.93885">
        <ele>482.32574462891</ele>
        <time>2014-05-17T13:25:31Z</time>
      </trkpt>
      <trkpt lat="43.24583" lon="5.93894">
        <ele>483.57244873047</ele>
        <time>2014-05-17T13:25:34Z</time>
      </trkpt>
      <trkpt lat="43.24583" lon="5.93904">
        <ele>484.81307983398</ele>
        <time>2014-05-17T13:25:37Z</time>
      </trkpt>
      <trkpt lat="43.24582" lon="5.9392">
        <ele>486.58416748047</ele>
        <time>2014-05-17T13:25:43Z</time>
      </trkpt>
      <trkpt lat="43.24582" lon="5.93923">
        <ele>486.92404174805</ele>
        <time>2014-05-17T13:25:44Z</time>
      </trkpt>
      <trkpt lat="43.24585" lon="5.93941">
        <ele>487.56399536133</ele>
        <time>2014-05-17T13:25:50Z</time>
      </trkpt>
      <trkpt lat="43.2459" lon="5.93961">
        <ele>489.03549194336</ele>
        <time>2014-05-17T13:25:57Z</time>
      </trkpt>
      <trkpt lat="43.2459" lon="5.93971">
        <ele>490.19934082031</ele>
        <time>2014-05-17T13:26:00Z</time>
      </trkpt>
      <trkpt lat="43.24591" lon="5.93978">
        <ele>490.76614379883</ele>
        <time>2014-05-17T13:26:02Z</time>
      </trkpt>
      <trkpt lat="43.24592" lon="5.93981">
        <ele>490.97830200195</ele>
        <time>2014-05-17T13:26:03Z</time>
      </trkpt>
      <trkpt lat="43.24594" lon="5.93984">
        <ele>490.97723388672</ele>
        <time>2014-05-17T13:26:04Z</time>
      </trkpt>
      <trkpt lat="43.24599" lon="5.93994">
        <ele>491.16558837891</ele>
        <time>2014-05-17T13:26:08Z</time>
      </trkpt>
      <trkpt lat="43.24606" lon="5.94005">
        <ele>491.03662109375</ele>
        <time>2014-05-17T13:26:14Z</time>
      </trkpt>
      <trkpt lat="43.24609" lon="5.94011">
        <ele>491.0846862793</ele>
        <time>2014-05-17T13:26:17Z</time>
      </trkpt>
      <trkpt lat="43.24613" lon="5.94018">
        <ele>491.59423828125</ele>
        <time>2014-05-17T13:26:21Z</time>
      </trkpt>
      <trkpt lat="43.2462" lon="5.94028">
        <ele>492.95343017578</ele>
        <time>2014-05-17T13:26:27Z</time>
      </trkpt>
      <trkpt lat="43.24624" lon="5.94035">
        <ele>494.05941772461</ele>
        <time>2014-05-17T13:26:32Z</time>
      </trkpt>
      <trkpt lat="43.24627" lon="5.94038">
        <ele>494.60595703125</ele>
        <time>2014-05-17T13:26:34Z</time>
      </trkpt>
      <trkpt lat="43.24631" lon="5.94041">
        <ele>495.24002075195</ele>
        <time>2014-05-17T13:26:36Z</time>
      </trkpt>
      <trkpt lat="43.24638" lon="5.94046">
        <ele>496.27212524414</ele>
        <time>2014-05-17T13:26:40Z</time>
      </trkpt>
      <trkpt lat="43.24652" lon="5.94054">
        <ele>498.33944702148</ele>
        <time>2014-05-17T13:26:48Z</time>
      </trkpt>
      <trkpt lat="43.24653" lon="5.94055">
        <ele>498.50408935547</ele>
        <time>2014-05-17T13:26:49Z</time>
      </trkpt>
      <trkpt lat="43.24659" lon="5.94065">
        <ele>499.20953369141</ele>
        <time>2014-05-17T13:26:55Z</time>
      </trkpt>
      <trkpt lat="43.24664" lon="5.94079">
        <ele>499.7451171875</ele>
        <time>2014-05-17T13:27:01Z</time>
      </trkpt>
      <trkpt lat="43.24666" lon="5.94083">
        <ele>499.95111083984</ele>
        <time>2014-05-17T13:27:03Z</time>
      </trkpt>
      <trkpt lat="43.24672" lon="5.94091">
        <ele>500.89947509766</ele>
        <time>2014-05-17T13:27:07Z</time>
      </trkpt>
      <trkpt lat="43.24676" lon="5.94098">
        <ele>501.46588134766</ele>
        <time>2014-05-17T13:27:11Z</time>
      </trkpt>
      <trkpt lat="43.24677" lon="5.94105">
        <ele>501.50076293945</ele>
        <time>2014-05-17T13:27:15Z</time>
      </trkpt>
      <trkpt lat="43.24676" lon="5.94115">
        <ele>501.44955444336</ele>
        <time>2014-05-17T13:27:20Z</time>
      </trkpt>
      <trkpt lat="43.24679" lon="5.94122">
        <ele>502.15670776367</ele>
        <time>2014-05-17T13:27:24Z</time>
      </trkpt>
      <trkpt lat="43.24681" lon="5.9413">
        <ele>502.85299682617</ele>
        <time>2014-05-17T13:27:28Z</time>
      </trkpt>
      <trkpt lat="43.24682" lon="5.94133">
        <ele>503.11163330078</ele>
        <time>2014-05-17T13:27:30Z</time>
      </trkpt>
      <trkpt lat="43.24688" lon="5.94131">
        <ele>504.18154907227</ele>
        <time>2014-05-17T13:27:33Z</time>
      </trkpt>
      <trkpt lat="43.24692" lon="5.94125">
        <ele>504.51495361328</ele>
        <time>2014-05-17T13:27:37Z</time>
      </trkpt>
      <trkpt lat="43.24693" lon="5.94123">
        <ele>504.63464355469</ele>
        <time>2014-05-17T13:27:39Z</time>
      </trkpt>
      <trkpt lat="43.24694" lon="5.94118">
        <ele>504.51452636719</ele>
        <time>2014-05-17T13:27:42Z</time>
      </trkpt>
      <trkpt lat="43.24696" lon="5.94114">
        <ele>504.67514038086</ele>
        <time>2014-05-17T13:27:45Z</time>
      </trkpt>
      <trkpt lat="43.24701" lon="5.94103">
        <ele>505.94793701172</ele>
        <time>2014-05-17T13:27:52Z</time>
      </trkpt>
      <trkpt lat="43.24707" lon="5.94095">
        <ele>508.38018798828</ele>
        <time>2014-05-17T13:27:58Z</time>
      </trkpt>
      <trkpt lat="43.24716" lon="5.94083">
        <ele>511.93887329102</ele>
        <time>2014-05-17T13:28:06Z</time>
      </trkpt>
      <trkpt lat="43.24719" lon="5.94068">
        <ele>513.45123291016</ele>
        <time>2014-05-17T13:28:13Z</time>
      </trkpt>
      <trkpt lat="43.24717" lon="5.94055">
        <ele>513.44598388672</ele>
        <time>2014-05-17T13:28:19Z</time>
      </trkpt>
      <trkpt lat="43.24716" lon="5.94047">
        <ele>513.52496337891</ele>
        <time>2014-05-17T13:28:23Z</time>
      </trkpt>
      <trkpt lat="43.24714" lon="5.94042">
        <ele>513.4013671875</ele>
        <time>2014-05-17T13:28:25Z</time>
      </trkpt>
      <trkpt lat="43.24709" lon="5.94021">
        <ele>512.93341064453</ele>
        <time>2014-05-17T13:28:32Z</time>
      </trkpt>
      <trkpt lat="43.24706" lon="5.94014">
        <ele>512.27600097656</ele>
        <time>2014-05-17T13:28:35Z</time>
      </trkpt>
      <trkpt lat="43.24703" lon="5.94007">
        <ele>511.68731689453</ele>
        <time>2014-05-17T13:28:38Z</time>
      </trkpt>
      <trkpt lat="43.24698" lon="5.93995">
        <ele>510.56988525391</ele>
        <time>2014-05-17T13:28:43Z</time>
      </trkpt>
      <trkpt lat="43.247" lon="5.9399">
        <ele>511.28570556641</ele>
        <time>2014-05-17T13:28:45Z</time>
      </trkpt>
      <trkpt lat="43.24703" lon="5.93989">
        <ele>512.43243408203</ele>
        <time>2014-05-17T13:28:47Z</time>
      </trkpt>
      <trkpt lat="43.24706" lon="5.93991">
        <ele>513.43322753906</ele>
        <time>2014-05-17T13:28:50Z</time>
      </trkpt>
      <trkpt lat="43.24709" lon="5.93995">
        <ele>514.24688720703</ele>
        <time>2014-05-17T13:28:53Z</time>
      </trkpt>
      <trkpt lat="43.24713" lon="5.94008">
        <ele>515.12945556641</ele>
        <time>2014-05-17T13:28:59Z</time>
      </trkpt>
      <trkpt lat="43.24718" lon="5.94021">
        <ele>516.24517822266</ele>
        <time>2014-05-17T13:29:06Z</time>
      </trkpt>
      <trkpt lat="43.24723" lon="5.94034">
        <ele>516.79956054688</ele>
        <time>2014-05-17T13:29:12Z</time>
      </trkpt>
      <trkpt lat="43.24724" lon="5.94035">
        <ele>516.86022949219</ele>
        <time>2014-05-17T13:29:13Z</time>
      </trkpt>
      <trkpt lat="43.24725" lon="5.94037">
        <ele>517.02178955078</ele>
        <time>2014-05-17T13:29:14Z</time>
      </trkpt>
      <trkpt lat="43.24728" lon="5.94044">
        <ele>517.24127197266</ele>
        <time>2014-05-17T13:29:18Z</time>
      </trkpt>
      <trkpt lat="43.24731" lon="5.94051">
        <ele>517.02783203125</ele>
        <time>2014-05-17T13:29:22Z</time>
      </trkpt>
      <trkpt lat="43.24734" lon="5.94059">
        <ele>517.08068847656</ele>
        <time>2014-05-17T13:29:29Z</time>
      </trkpt>
      <trkpt lat="43.24739" lon="5.94062">
        <ele>517.85827636719</ele>
        <time>2014-05-17T13:29:35Z</time>
      </trkpt>
      <trkpt lat="43.24738" lon="5.94063">
        <ele>517.54412841797</ele>
        <time>2014-05-17T13:29:38Z</time>
      </trkpt>
      <trkpt lat="43.24736" lon="5.94061">
        <ele>517.28149414062</ele>
        <time>2014-05-17T13:29:40Z</time>
      </trkpt>
      <trkpt lat="43.24735" lon="5.94054">
        <ele>517.45709228516</ele>
        <time>2014-05-17T13:29:45Z</time>
      </trkpt>
      <trkpt lat="43.24735" lon="5.94056">
        <ele>517.2763671875</ele>
        <time>2014-05-17T13:29:50Z</time>
      </trkpt>
      <trkpt lat="43.24736" lon="5.94058">
        <ele>517.44970703125</ele>
        <time>2014-05-17T13:29:52Z</time>
      </trkpt>
      <trkpt lat="43.2474" lon="5.94064">
        <ele>517.86169433594</ele>
        <time>2014-05-17T13:29:56Z</time>
      </trkpt>
      <trkpt lat="43.24745" lon="5.94074">
        <ele>518.40588378906</ele>
        <time>2014-05-17T13:30:01Z</time>
      </trkpt>
      <trkpt lat="43.24746" lon="5.94078">
        <ele>518.52087402344</ele>
        <time>2014-05-17T13:30:03Z</time>
      </trkpt>
      <trkpt lat="43.24748" lon="5.94082">
        <ele>518.71832275391</ele>
        <time>2014-05-17T13:30:05Z</time>
      </trkpt>
      <trkpt lat="43.24752" lon="5.94092">
        <ele>518.85980224609</ele>
        <time>2014-05-17T13:30:10Z</time>
      </trkpt>
      <trkpt lat="43.24756" lon="5.94111">
        <ele>518.31555175781</ele>
        <time>2014-05-17T13:30:19Z</time>
      </trkpt>
      <trkpt lat="43.24756" lon="5.94115">
        <ele>518.08758544922</ele>
        <time>2014-05-17T13:30:21Z</time>
      </trkpt>
      <trkpt lat="43.24756" lon="5.94123">
        <ele>517.64086914062</ele>
        <time>2014-05-17T13:30:25Z</time>
      </trkpt>
      <trkpt lat="43.24757" lon="5.9415">
        <ele>517.30688476562</ele>
        <time>2014-05-17T13:30:37Z</time>
      </trkpt>
      <trkpt lat="43.24756" lon="5.94161">
        <ele>517.47277832031</ele>
        <time>2014-05-17T13:30:42Z</time>
      </trkpt>
      <trkpt lat="43.24752" lon="5.94177">
        <ele>517.89782714844</ele>
        <time>2014-05-17T13:30:49Z</time>
      </trkpt>
      <trkpt lat="43.24752" lon="5.94179">
        <ele>518.03143310547</ele>
        <time>2014-05-17T13:30:50Z</time>
      </trkpt>
      <trkpt lat="43.24754" lon="5.94186">
        <ele>518.64697265625</ele>
        <time>2014-05-17T13:30:54Z</time>
      </trkpt>
      <trkpt lat="43.24758" lon="5.94196">
        <ele>519.40875244141</ele>
        <time>2014-05-17T13:30:59Z</time>
      </trkpt>
      <trkpt lat="43.24766" lon="5.94205">
        <ele>520.53601074219</ele>
        <time>2014-05-17T13:31:06Z</time>
      </trkpt>
      <trkpt lat="43.24789" lon="5.94216">
        <ele>523.96765136719</ele>
        <time>2014-05-17T13:31:22Z</time>
      </trkpt>
      <trkpt lat="43.24793" lon="5.94219">
        <ele>524.83972167969</ele>
        <time>2014-05-17T13:31:25Z</time>
      </trkpt>
      <trkpt lat="43.24804" lon="5.94226">
        <ele>526.95666503906</ele>
        <time>2014-05-17T13:31:34Z</time>
      </trkpt>
      <trkpt lat="43.24806" lon="5.94228">
        <ele>527.43041992188</ele>
        <time>2014-05-17T13:31:36Z</time>
      </trkpt>
      <trkpt lat="43.24811" lon="5.94229">
        <ele>528.31622314453</ele>
        <time>2014-05-17T13:31:40Z</time>
      </trkpt>
      <trkpt lat="43.2482" lon="5.94229">
        <ele>529.53845214844</ele>
        <time>2014-05-17T13:31:47Z</time>
      </trkpt>
      <trkpt lat="43.24823" lon="5.94228">
        <ele>529.95385742188</ele>
        <time>2014-05-17T13:31:49Z</time>
      </trkpt>
      <trkpt lat="43.24826" lon="5.94226">
        <ele>530.24224853516</ele>
        <time>2014-05-17T13:31:51Z</time>
      </trkpt>
      <trkpt lat="43.24832" lon="5.94224">
        <ele>530.88427734375</ele>
        <time>2014-05-17T13:31:55Z</time>
      </trkpt>
      <trkpt lat="43.24839" lon="5.94221">
        <ele>531.6923828125</ele>
        <time>2014-05-17T13:32:01Z</time>
      </trkpt>
      <trkpt lat="43.24842" lon="5.94219">
        <ele>531.84692382812</ele>
        <time>2014-05-17T13:32:03Z</time>
      </trkpt>
      <trkpt lat="43.24844" lon="5.94218">
        <ele>532.00830078125</ele>
        <time>2014-05-17T13:32:05Z</time>
      </trkpt>
      <trkpt lat="43.24851" lon="5.94219">
        <ele>533.25622558594</ele>
        <time>2014-05-17T13:32:11Z</time>
      </trkpt>
      <trkpt lat="43.24859" lon="5.9422">
        <ele>534.46301269531</ele>
        <time>2014-05-17T13:32:16Z</time>
      </trkpt>
      <trkpt lat="43.24862" lon="5.94222">
        <ele>535.0625</ele>
        <time>2014-05-17T13:32:18Z</time>
      </trkpt>
      <trkpt lat="43.24863" lon="5.94228">
        <ele>535.74145507812</ele>
        <time>2014-05-17T13:32:21Z</time>
      </trkpt>
      <trkpt lat="43.24865" lon="5.94233">
        <ele>536.30456542969</ele>
        <time>2014-05-17T13:32:24Z</time>
      </trkpt>
      <trkpt lat="43.24865" lon="5.94234">
        <ele>536.51348876953</ele>
        <time>2014-05-17T13:32:27Z</time>
      </trkpt>
      <trkpt lat="43.24865" lon="5.94234">
        <ele>536.51348876953</ele>
        <time>2014-05-17T13:32:28Z</time>
      </trkpt>
      <trkpt lat="43.24865" lon="5.94234">
        <ele>536.55047607422</ele>
        <time>2014-05-17T13:32:29Z</time>
      </trkpt>
      <trkpt lat="43.24865" lon="5.94238">
        <ele>536.78686523438</ele>
        <time>2014-05-17T13:32:36Z</time>
      </trkpt>
      <trkpt lat="43.24865" lon="5.94248">
        <ele>537.62188720703</ele>
        <time>2014-05-17T13:32:42Z</time>
      </trkpt>
      <trkpt lat="43.24862" lon="5.94262">
        <ele>538.34094238281</ele>
        <time>2014-05-17T13:32:49Z</time>
      </trkpt>
      <trkpt lat="43.24859" lon="5.94267">
        <ele>538.46868896484</ele>
        <time>2014-05-17T13:32:52Z</time>
      </trkpt>
      <trkpt lat="43.24857" lon="5.9427">
        <ele>538.45324707031</ele>
        <time>2014-05-17T13:32:54Z</time>
      </trkpt>
      <trkpt lat="43.24854" lon="5.94274">
        <ele>538.61285400391</ele>
        <time>2014-05-17T13:32:57Z</time>
      </trkpt>
      <trkpt lat="43.24852" lon="5.9428">
        <ele>539.15740966797</ele>
        <time>2014-05-17T13:33:02Z</time>
      </trkpt>
      <trkpt lat="43.24851" lon="5.94281">
        <ele>539.12371826172</ele>
        <time>2014-05-17T13:33:04Z</time>
      </trkpt>
      <trkpt lat="43.24851" lon="5.94281">
        <ele>539.12371826172</ele>
        <time>2014-05-17T13:33:27Z</time>
      </trkpt>
      <trkpt lat="43.24851" lon="5.94281">
        <ele>539.12371826172</ele>
        <time>2014-05-17T13:33:31Z</time>
      </trkpt>
      <trkpt lat="43.24849" lon="5.94284">
        <ele>539.25</ele>
        <time>2014-05-17T13:33:41Z</time>
      </trkpt>
      <trkpt lat="43.24845" lon="5.94288">
        <ele>539.32403564453</ele>
        <time>2014-05-17T13:33:45Z</time>
      </trkpt>
      <trkpt lat="43.24843" lon="5.94291">
        <ele>539.26666259766</ele>
        <time>2014-05-17T13:33:47Z</time>
      </trkpt>
      <trkpt lat="43.2483" lon="5.94302">
        <ele>538.18029785156</ele>
        <time>2014-05-17T13:33:53Z</time>
      </trkpt>
      <trkpt lat="43.2482" lon="5.94306">
        <ele>537.06958007812</ele>
        <time>2014-05-17T13:33:57Z</time>
      </trkpt>
      <trkpt lat="43.24813" lon="5.94306">
        <ele>536.20568847656</ele>
        <time>2014-05-17T13:33:59Z</time>
      </trkpt>
      <trkpt lat="43.2481" lon="5.94306">
        <ele>535.75927734375</ele>
        <time>2014-05-17T13:34:00Z</time>
      </trkpt>
      <trkpt lat="43.24808" lon="5.94307">
        <ele>535.39349365234</ele>
        <time>2014-05-17T13:34:01Z</time>
      </trkpt>
      <trkpt lat="43.24805" lon="5.94307">
        <ele>535.07611083984</ele>
        <time>2014-05-17T13:34:02Z</time>
      </trkpt>
      <trkpt lat="43.24795" lon="5.9431">
        <ele>534.1923828125</ele>
        <time>2014-05-17T13:34:06Z</time>
      </trkpt>
      <trkpt lat="43.24788" lon="5.94312">
        <ele>533.64874267578</ele>
        <time>2014-05-17T13:34:09Z</time>
      </trkpt>
      <trkpt lat="43.24786" lon="5.94313">
        <ele>533.53289794922</ele>
        <time>2014-05-17T13:34:10Z</time>
      </trkpt>
      <trkpt lat="43.2478" lon="5.94316">
        <ele>533.34271240234</ele>
        <time>2014-05-17T13:34:13Z</time>
      </trkpt>
      <trkpt lat="43.24776" lon="5.94319">
        <ele>533.30096435547</ele>
        <time>2014-05-17T13:34:15Z</time>
      </trkpt>
      <trkpt lat="43.2476" lon="5.94346">
        <ele>534.72601318359</ele>
        <time>2014-05-17T13:34:25Z</time>
      </trkpt>
      <trkpt lat="43.24758" lon="5.94355">
        <ele>535.77410888672</ele>
        <time>2014-05-17T13:34:28Z</time>
      </trkpt>
      <trkpt lat="43.24752" lon="5.94391">
        <ele>540.65515136719</ele>
        <time>2014-05-17T13:34:40Z</time>
      </trkpt>
      <trkpt lat="43.24746" lon="5.94409">
        <ele>542.53350830078</ele>
        <time>2014-05-17T13:34:47Z</time>
      </trkpt>
      <trkpt lat="43.24739" lon="5.94414">
        <ele>542.84252929688</ele>
        <time>2014-05-17T13:34:51Z</time>
      </trkpt>
      <trkpt lat="43.24734" lon="5.94415">
        <ele>542.53350830078</ele>
        <time>2014-05-17T13:34:54Z</time>
      </trkpt>
      <trkpt lat="43.24723" lon="5.94408">
        <ele>540.81689453125</ele>
        <time>2014-05-17T13:34:59Z</time>
      </trkpt>
      <trkpt lat="43.24713" lon="5.94407">
        <ele>540.05944824219</ele>
        <time>2014-05-17T13:35:04Z</time>
      </trkpt>
      <trkpt lat="43.24705" lon="5.94408">
        <ele>539.68829345703</ele>
        <time>2014-05-17T13:35:08Z</time>
      </trkpt>
      <trkpt lat="43.24693" lon="5.94412">
        <ele>539.52447509766</ele>
        <time>2014-05-17T13:35:14Z</time>
      </trkpt>
      <trkpt lat="43.24674" lon="5.94414">
        <ele>540.48406982422</ele>
        <time>2014-05-17T13:35:23Z</time>
      </trkpt>
      <trkpt lat="43.24669" lon="5.94415">
        <ele>540.69006347656</ele>
        <time>2014-05-17T13:35:25Z</time>
      </trkpt>
      <trkpt lat="43.24665" lon="5.94415">
        <ele>540.75170898438</ele>
        <time>2014-05-17T13:35:27Z</time>
      </trkpt>
      <trkpt lat="43.24648" lon="5.94418">
        <ele>540.39398193359</ele>
        <time>2014-05-17T13:35:35Z</time>
      </trkpt>
      <trkpt lat="43.24641" lon="5.94425">
        <ele>540.17736816406</ele>
        <time>2014-05-17T13:35:40Z</time>
      </trkpt>
      <trkpt lat="43.24636" lon="5.94444">
        <ele>540.22985839844</ele>
        <time>2014-05-17T13:35:48Z</time>
      </trkpt>
      <trkpt lat="43.24635" lon="5.94453">
        <ele>540.31225585938</ele>
        <time>2014-05-17T13:35:52Z</time>
      </trkpt>
      <trkpt lat="43.24635" lon="5.94456">
        <ele>540.31225585938</ele>
        <time>2014-05-17T13:35:54Z</time>
      </trkpt>
      <trkpt lat="43.24633" lon="5.94466">
        <ele>540.39465332031</ele>
        <time>2014-05-17T13:35:59Z</time>
      </trkpt>
      <trkpt lat="43.24633" lon="5.94471">
        <ele>540.42211914062</ele>
        <time>2014-05-17T13:36:02Z</time>
      </trkpt>
      <trkpt lat="43.24633" lon="5.94473">
        <ele>540.44958496094</ele>
        <time>2014-05-17T13:36:03Z</time>
      </trkpt>
      <trkpt lat="43.24632" lon="5.94481">
        <ele>540.47705078125</ele>
        <time>2014-05-17T13:36:07Z</time>
      </trkpt>
      <trkpt lat="43.24632" lon="5.94504">
        <ele>540.50451660156</ele>
        <time>2014-05-17T13:36:17Z</time>
      </trkpt>
      <trkpt lat="43.24632" lon="5.94509">
        <ele>540.47705078125</ele>
        <time>2014-05-17T13:36:19Z</time>
      </trkpt>
      <trkpt lat="43.24631" lon="5.94518">
        <ele>540.5869140625</ele>
        <time>2014-05-17T13:36:22Z</time>
      </trkpt>
      <trkpt lat="43.24629" lon="5.94533">
        <ele>540.72424316406</ele>
        <time>2014-05-17T13:36:28Z</time>
      </trkpt>
      <trkpt lat="43.24623" lon="5.94544">
        <ele>541.10876464844</ele>
        <time>2014-05-17T13:36:33Z</time>
      </trkpt>
      <trkpt lat="43.24619" lon="5.94548">
        <ele>541.43835449219</ele>
        <time>2014-05-17T13:36:36Z</time>
      </trkpt>
      <trkpt lat="43.24617" lon="5.94552">
        <ele>541.57568359375</ele>
        <time>2014-05-17T13:36:38Z</time>
      </trkpt>
      <trkpt lat="43.24616" lon="5.94556">
        <ele>541.65808105469</ele>
        <time>2014-05-17T13:36:40Z</time>
      </trkpt>
      <trkpt lat="43.24612" lon="5.94563">
        <ele>541.96020507812</ele>
        <time>2014-05-17T13:36:44Z</time>
      </trkpt>
      <trkpt lat="43.24609" lon="5.94567">
        <ele>542.17993164062</ele>
        <time>2014-05-17T13:36:46Z</time>
      </trkpt>
      <trkpt lat="43.24603" lon="5.94578">
        <ele>542.61938476562</ele>
        <time>2014-05-17T13:36:49Z</time>
      </trkpt>
      <trkpt lat="43.24598" lon="5.94588">
        <ele>542.75030517578</ele>
        <time>2014-05-17T13:36:51Z</time>
      </trkpt>
      <trkpt lat="43.2459" lon="5.94604">
        <ele>542.76916503906</ele>
        <time>2014-05-17T13:36:54Z</time>
      </trkpt>
      <trkpt lat="43.24587" lon="5.94609">
        <ele>542.80694580078</ele>
        <time>2014-05-17T13:36:55Z</time>
      </trkpt>
      <trkpt lat="43.24585" lon="5.94613">
        <ele>542.8828125</ele>
        <time>2014-05-17T13:36:56Z</time>
      </trkpt>
      <trkpt lat="43.24582" lon="5.94617">
        <ele>543.3076171875</ele>
        <time>2014-05-17T13:36:57Z</time>
      </trkpt>
      <trkpt lat="43.24579" lon="5.9462">
        <ele>543.88439941406</ele>
        <time>2014-05-17T13:36:58Z</time>
      </trkpt>
      <trkpt lat="43.24577" lon="5.94622">
        <ele>544.29638671875</ele>
        <time>2014-05-17T13:36:59Z</time>
      </trkpt>
      <trkpt lat="43.24576" lon="5.94623">
        <ele>544.54357910156</ele>
        <time>2014-05-17T13:37:00Z</time>
      </trkpt>
      <trkpt lat="43.24574" lon="5.94625">
        <ele>545.12036132812</ele>
        <time>2014-05-17T13:37:03Z</time>
      </trkpt>
      <trkpt lat="43.24573" lon="5.94625">
        <ele>545.20275878906</ele>
        <time>2014-05-17T13:37:06Z</time>
      </trkpt>
      <trkpt lat="43.24573" lon="5.94625">
        <ele>545.20275878906</ele>
        <time>2014-05-17T13:37:31Z</time>
      </trkpt>
      <trkpt lat="43.24573" lon="5.94625">
        <ele>545.20275878906</ele>
        <time>2014-05-17T13:37:46Z</time>
      </trkpt>
      <trkpt lat="43.24573" lon="5.94625">
        <ele>545.20275878906</ele>
        <time>2014-05-17T13:38:00Z</time>
      </trkpt>
      <trkpt lat="43.24573" lon="5.94625">
        <ele>545.28515625</ele>
        <time>2014-05-17T13:38:04Z</time>
      </trkpt>
      <trkpt lat="43.24568" lon="5.94624">
        <ele>546.27392578125</ele>
        <time>2014-05-17T13:38:07Z</time>
      </trkpt>
      <trkpt lat="43.24556" lon="5.94626">
        <ele>548.91064453125</ele>
        <time>2014-05-17T13:38:13Z</time>
      </trkpt>
      <trkpt lat="43.24543" lon="5.94634">
        <ele>552.14056396484</ele>
        <time>2014-05-17T13:38:19Z</time>
      </trkpt>
      <trkpt lat="43.24541" lon="5.94636">
        <ele>552.6064453125</ele>
        <time>2014-05-17T13:38:20Z</time>
      </trkpt>
      <trkpt lat="43.24528" lon="5.9465">
        <ele>555.61016845703</ele>
        <time>2014-05-17T13:38:27Z</time>
      </trkpt>
      <trkpt lat="43.24516" lon="5.94664">
        <ele>555.95178222656</ele>
        <time>2014-05-17T13:38:33Z</time>
      </trkpt>
      <trkpt lat="43.24512" lon="5.94671">
        <ele>555.98785400391</ele>
        <time>2014-05-17T13:38:36Z</time>
      </trkpt>
      <trkpt lat="43.24501" lon="5.94687">
        <ele>556.16119384766</ele>
        <time>2014-05-17T13:38:43Z</time>
      </trkpt>
      <trkpt lat="43.24489" lon="5.94704">
        <ele>556.47021484375</ele>
        <time>2014-05-17T13:38:51Z</time>
      </trkpt>
      <trkpt lat="43.24482" lon="5.94707">
        <ele>556.86505126953</ele>
        <time>2014-05-17T13:38:55Z</time>
      </trkpt>
      <trkpt lat="43.24476" lon="5.94707">
        <ele>557.27526855469</ele>
        <time>2014-05-17T13:38:58Z</time>
      </trkpt>
      <trkpt lat="43.24471" lon="5.94704">
        <ele>557.76715087891</ele>
        <time>2014-05-17T13:39:03Z</time>
      </trkpt>
      <trkpt lat="43.24464" lon="5.947">
        <ele>558.42309570312</ele>
        <time>2014-05-17T13:39:09Z</time>
      </trkpt>
      <trkpt lat="43.24454" lon="5.94696">
        <ele>559.28295898438</ele>
        <time>2014-05-17T13:39:13Z</time>
      </trkpt>
      <trkpt lat="43.2445" lon="5.94693">
        <ele>559.68444824219</ele>
        <time>2014-05-17T13:39:15Z</time>
      </trkpt>
      <trkpt lat="43.24448" lon="5.94692">
        <ele>559.92077636719</ele>
        <time>2014-05-17T13:39:16Z</time>
      </trkpt>
      <trkpt lat="43.24437" lon="5.94687">
        <ele>561.63677978516</ele>
        <time>2014-05-17T13:39:22Z</time>
      </trkpt>
      <trkpt lat="43.24434" lon="5.94685">
        <ele>562.19641113281</ele>
        <time>2014-05-17T13:39:24Z</time>
      </trkpt>
      <trkpt lat="43.24433" lon="5.94684">
        <ele>562.40924072266</ele>
        <time>2014-05-17T13:39:25Z</time>
      </trkpt>
      <trkpt lat="43.24429" lon="5.94683">
        <ele>563.07531738281</ele>
        <time>2014-05-17T13:39:27Z</time>
      </trkpt>
      <trkpt lat="43.24427" lon="5.94682">
        <ele>563.47357177734</ele>
        <time>2014-05-17T13:39:29Z</time>
      </trkpt>
      <trkpt lat="43.2442" lon="5.9468">
        <ele>564.53100585938</ele>
        <time>2014-05-17T13:39:33Z</time>
      </trkpt>
      <trkpt lat="43.24419" lon="5.9468">
        <ele>564.6923828125</ele>
        <time>2014-05-17T13:39:34Z</time>
      </trkpt>
      <trkpt lat="43.24416" lon="5.94679">
        <ele>565.19482421875</ele>
        <time>2014-05-17T13:39:37Z</time>
      </trkpt>
      <trkpt lat="43.24411" lon="5.94679">
        <ele>566.10711669922</ele>
        <time>2014-05-17T13:39:41Z</time>
      </trkpt>
      <trkpt lat="43.2441" lon="5.94679">
        <ele>566.14056396484</ele>
        <time>2014-05-17T13:39:43Z</time>
      </trkpt>
      <trkpt lat="43.24409" lon="5.94679">
        <ele>566.31469726562</ele>
        <time>2014-05-17T13:39:46Z</time>
      </trkpt>
      <trkpt lat="43.24409" lon="5.94679">
        <ele>566.31469726562</ele>
        <time>2014-05-17T13:40:03Z</time>
      </trkpt>
      <trkpt lat="43.24409" lon="5.94679">
        <ele>566.38171386719</ele>
        <time>2014-05-17T13:42:28Z</time>
      </trkpt>
      <trkpt lat="43.24409" lon="5.94679">
        <ele>566.38171386719</ele>
        <time>2014-05-17T13:42:55Z</time>
      </trkpt>
      <trkpt lat="43.24409" lon="5.94679">
        <ele>566.40228271484</ele>
        <time>2014-05-17T13:46:11Z</time>
      </trkpt>
      <trkpt lat="43.24409" lon="5.94679">
        <ele>566.40228271484</ele>
        <time>2014-05-17T13:46:21Z</time>
      </trkpt>
      <trkpt lat="43.24409" lon="5.94678">
        <ele>566.42584228516</ele>
        <time>2014-05-17T13:46:24Z</time>
      </trkpt>
      <trkpt lat="43.24409" lon="5.94678">
        <ele>566.42584228516</ele>
        <time>2014-05-17T13:46:42Z</time>
      </trkpt>
      <trkpt lat="43.24408" lon="5.94679">
        <ele>566.46606445312</ele>
        <time>2014-05-17T13:47:04Z</time>
      </trkpt>
      <trkpt lat="43.24408" lon="5.94678">
        <ele>566.61651611328</ele>
        <time>2014-05-17T13:47:14Z</time>
      </trkpt>
      <trkpt lat="43.24408" lon="5.94678">
        <ele>566.61651611328</ele>
        <time>2014-05-17T13:47:30Z</time>
      </trkpt>
      <trkpt lat="43.24407" lon="5.94678">
        <ele>566.65716552734</ele>
        <time>2014-05-17T13:48:02Z</time>
      </trkpt>
      <trkpt lat="43.24407" lon="5.94678">
        <ele>566.65716552734</ele>
        <time>2014-05-17T13:48:14Z</time>
      </trkpt>
      <trkpt lat="43.24407" lon="5.94679">
        <ele>566.64862060547</ele>
        <time>2014-05-17T13:48:36Z</time>
      </trkpt>
      <trkpt lat="43.24405" lon="5.94678">
        <ele>567.03540039062</ele>
        <time>2014-05-17T13:48:40Z</time>
      </trkpt>
      <trkpt lat="43.24403" lon="5.94678">
        <ele>567.32574462891</ele>
        <time>2014-05-17T13:48:42Z</time>
      </trkpt>
      <trkpt lat="43.24401" lon="5.94678">
        <ele>567.62963867188</ele>
        <time>2014-05-17T13:48:44Z</time>
      </trkpt>
      <trkpt lat="43.244" lon="5.94678">
        <ele>567.91082763672</ele>
        <time>2014-05-17T13:48:46Z</time>
      </trkpt>
      <trkpt lat="43.24398" lon="5.94678">
        <ele>568.18572998047</ele>
        <time>2014-05-17T13:48:47Z</time>
      </trkpt>
      <trkpt lat="43.24395" lon="5.94679">
        <ele>568.57495117188</ele>
        <time>2014-05-17T13:48:49Z</time>
      </trkpt>
      <trkpt lat="43.24393" lon="5.9468">
        <ele>568.84478759766</ele>
        <time>2014-05-17T13:48:50Z</time>
      </trkpt>
      <trkpt lat="43.24387" lon="5.94682">
        <ele>569.85620117188</ele>
        <time>2014-05-17T13:48:53Z</time>
      </trkpt>
      <trkpt lat="43.2438" lon="5.94683">
        <ele>571.06127929688</ele>
        <time>2014-05-17T13:48:56Z</time>
      </trkpt>
      <trkpt lat="43.2437" lon="5.94681">
        <ele>572.85687255859</ele>
        <time>2014-05-17T13:49:00Z</time>
      </trkpt>
      <trkpt lat="43.24368" lon="5.9468">
        <ele>573.23449707031</ele>
        <time>2014-05-17T13:49:01Z</time>
      </trkpt>
      <trkpt lat="43.24366" lon="5.94677">
        <ele>573.81127929688</ele>
        <time>2014-05-17T13:49:03Z</time>
      </trkpt>
      <trkpt lat="43.24359" lon="5.94665">
        <ele>575.36755371094</ele>
        <time>2014-05-17T13:49:08Z</time>
      </trkpt>
      <trkpt lat="43.24354" lon="5.94653">
        <ele>576.85217285156</ele>
        <time>2014-05-17T13:49:13Z</time>
      </trkpt>
      <trkpt lat="43.24353" lon="5.94648">
        <ele>577.31665039062</ele>
        <time>2014-05-17T13:49:15Z</time>
      </trkpt>
      <trkpt lat="43.24354" lon="5.94624">
        <ele>578.15942382812</ele>
        <time>2014-05-17T13:49:24Z</time>
      </trkpt>
      <trkpt lat="43.24354" lon="5.94622">
        <ele>578.24365234375</ele>
        <time>2014-05-17T13:49:25Z</time>
      </trkpt>
      <trkpt lat="43.24356" lon="5.94611">
        <ele>578.43408203125</ele>
        <time>2014-05-17T13:49:30Z</time>
      </trkpt>
      <trkpt lat="43.24356" lon="5.94606">
        <ele>578.73089599609</ele>
        <time>2014-05-17T13:49:32Z</time>
      </trkpt>
      <trkpt lat="43.24357" lon="5.94604">
        <ele>578.82318115234</ele>
        <time>2014-05-17T13:49:33Z</time>
      </trkpt>
      <trkpt lat="43.24359" lon="5.94593">
        <ele>579.54321289062</ele>
        <time>2014-05-17T13:49:39Z</time>
      </trkpt>
      <trkpt lat="43.2436" lon="5.94591">
        <ele>579.65386962891</ele>
        <time>2014-05-17T13:49:40Z</time>
      </trkpt>
      <trkpt lat="43.2436" lon="5.94586">
        <ele>579.98272705078</ele>
        <time>2014-05-17T13:49:42Z</time>
      </trkpt>
      <trkpt lat="43.2436" lon="5.94574">
        <ele>580.80383300781</ele>
        <time>2014-05-17T13:49:48Z</time>
      </trkpt>
      <trkpt lat="43.24361" lon="5.9456">
        <ele>581.68090820312</ele>
        <time>2014-05-17T13:49:55Z</time>
      </trkpt>
      <trkpt lat="43.24361" lon="5.94551">
        <ele>582.52886962891</ele>
        <time>2014-05-17T13:50:00Z</time>
      </trkpt>
      <trkpt lat="43.24364" lon="5.94512">
        <ele>586.6669921875</ele>
        <time>2014-05-17T13:50:23Z</time>
      </trkpt>
      <trkpt lat="43.24366" lon="5.9448">
        <ele>590.16229248047</ele>
        <time>2014-05-17T13:50:42Z</time>
      </trkpt>
      <trkpt lat="43.24368" lon="5.94461">
        <ele>591.22985839844</ele>
        <time>2014-05-17T13:50:53Z</time>
      </trkpt>
      <trkpt lat="43.2437" lon="5.94444">
        <ele>592.19555664062</ele>
        <time>2014-05-17T13:51:03Z</time>
      </trkpt>
      <trkpt lat="43.2437" lon="5.9444">
        <ele>592.60754394531</ele>
        <time>2014-05-17T13:51:05Z</time>
      </trkpt>
      <trkpt lat="43.24371" lon="5.94433">
        <ele>593.03497314453</ele>
        <time>2014-05-17T13:51:09Z</time>
      </trkpt>
      <trkpt lat="43.24377" lon="5.94416">
        <ele>593.66827392578</ele>
        <time>2014-05-17T13:51:18Z</time>
      </trkpt>
      <trkpt lat="43.24378" lon="5.94403">
        <ele>593.91424560547</ele>
        <time>2014-05-17T13:51:25Z</time>
      </trkpt>
      <trkpt lat="43.24381" lon="5.94383">
        <ele>594.65093994141</ele>
        <time>2014-05-17T13:51:37Z</time>
      </trkpt>
      <trkpt lat="43.2438" lon="5.94376">
        <ele>595.35412597656</ele>
        <time>2014-05-17T13:51:41Z</time>
      </trkpt>
      <trkpt lat="43.2438" lon="5.94366">
        <ele>596.26135253906</ele>
        <time>2014-05-17T13:51:46Z</time>
      </trkpt>
      <trkpt lat="43.24379" lon="5.94353">
        <ele>597.35754394531</ele>
        <time>2014-05-17T13:51:53Z</time>
      </trkpt>
      <trkpt lat="43.24379" lon="5.94348">
        <ele>597.77264404297</ele>
        <time>2014-05-17T13:51:56Z</time>
      </trkpt>
      <trkpt lat="43.24378" lon="5.94344">
        <ele>598.15521240234</ele>
        <time>2014-05-17T13:51:59Z</time>
      </trkpt>
      <trkpt lat="43.24378" lon="5.9434">
        <ele>598.48455810547</ele>
        <time>2014-05-17T13:52:02Z</time>
      </trkpt>
      <trkpt lat="43.24378" lon="5.94337">
        <ele>598.70648193359</ele>
        <time>2014-05-17T13:52:05Z</time>
      </trkpt>
      <trkpt lat="43.24378" lon="5.94337">
        <ele>598.72534179688</ele>
        <time>2014-05-17T13:52:06Z</time>
      </trkpt>
      <trkpt lat="43.24377" lon="5.94336">
        <ele>598.79229736328</ele>
        <time>2014-05-17T13:52:09Z</time>
      </trkpt>
      <trkpt lat="43.24377" lon="5.94336">
        <ele>598.79229736328</ele>
        <time>2014-05-17T13:52:18Z</time>
      </trkpt>
      <trkpt lat="43.24377" lon="5.94336">
        <ele>598.82073974609</ele>
        <time>2014-05-17T13:52:21Z</time>
      </trkpt>
      <trkpt lat="43.24377" lon="5.94336">
        <ele>598.82073974609</ele>
        <time>2014-05-17T13:52:29Z</time>
      </trkpt>
      <trkpt lat="43.24375" lon="5.94326">
        <ele>599.25299072266</ele>
        <time>2014-05-17T13:52:33Z</time>
      </trkpt>
      <trkpt lat="43.24375" lon="5.94321">
        <ele>599.43322753906</ele>
        <time>2014-05-17T13:52:35Z</time>
      </trkpt>
      <trkpt lat="43.24375" lon="5.94319">
        <ele>599.53112792969</ele>
        <time>2014-05-17T13:52:36Z</time>
      </trkpt>
      <trkpt lat="43.24374" lon="5.94313">
        <ele>599.73706054688</ele>
        <time>2014-05-17T13:52:38Z</time>
      </trkpt>
      <trkpt lat="43.24373" lon="5.94307">
        <ele>599.95166015625</ele>
        <time>2014-05-17T13:52:40Z</time>
      </trkpt>
      <trkpt lat="43.24373" lon="5.943">
        <ele>600</ele>
        <time>2014-05-17T13:52:42Z</time>
      </trkpt>
      <trkpt lat="43.24373" lon="5.94283">
        <ele>600</ele>
        <time>2014-05-17T13:52:47Z</time>
      </trkpt>
      <trkpt lat="43.24373" lon="5.94272">
        <ele>600</ele>
        <time>2014-05-17T13:52:50Z</time>
      </trkpt>
      <trkpt lat="43.24374" lon="5.94264">
        <ele>600</ele>
        <time>2014-05-17T13:52:52Z</time>
      </trkpt>
      <trkpt lat="43.24374" lon="5.94261">
        <ele>600</ele>
        <time>2014-05-17T13:52:53Z</time>
      </trkpt>
      <trkpt lat="43.24373" lon="5.94257">
        <ele>600</ele>
        <time>2014-05-17T13:52:54Z</time>
      </trkpt>
      <trkpt lat="43.24371" lon="5.94247">
        <ele>599.79901123047</ele>
        <time>2014-05-17T13:52:57Z</time>
      </trkpt>
      <trkpt lat="43.24367" lon="5.94228">
        <ele>598.55920410156</ele>
        <time>2014-05-17T13:53:03Z</time>
      </trkpt>
      <trkpt lat="43.24364" lon="5.9422">
        <ele>597.92199707031</ele>
        <time>2014-05-17T13:53:06Z</time>
      </trkpt>
      <trkpt lat="43.24358" lon="5.94209">
        <ele>596.93231201172</ele>
        <time>2014-05-17T13:53:10Z</time>
      </trkpt>
      <trkpt lat="43.24345" lon="5.94188">
        <ele>594.99597167969</ele>
        <time>2014-05-17T13:53:18Z</time>
      </trkpt>
      <trkpt lat="43.24333" lon="5.94171">
        <ele>593.37274169922</ele>
        <time>2014-05-17T13:53:25Z</time>
      </trkpt>
      <trkpt lat="43.24331" lon="5.94167">
        <ele>593.60021972656</ele>
        <time>2014-05-17T13:53:27Z</time>
      </trkpt>
      <trkpt lat="43.24318" lon="5.94139">
        <ele>594.25256347656</ele>
        <time>2014-05-17T13:53:36Z</time>
      </trkpt>
      <trkpt lat="43.24315" lon="5.94134">
        <ele>594.39569091797</ele>
        <time>2014-05-17T13:53:38Z</time>
      </trkpt>
      <trkpt lat="43.24304" lon="5.94113">
        <ele>594.40447998047</ele>
        <time>2014-05-17T13:53:46Z</time>
      </trkpt>
      <trkpt lat="43.24303" lon="5.9411">
        <ele>594.27575683594</ele>
        <time>2014-05-17T13:53:47Z</time>
      </trkpt>
      <trkpt lat="43.24282" lon="5.94075">
        <ele>593.7822265625</ele>
        <time>2014-05-17T13:54:02Z</time>
      </trkpt>
      <trkpt lat="43.24268" lon="5.94051">
        <ele>594.98669433594</ele>
        <time>2014-05-17T13:54:13Z</time>
      </trkpt>
      <trkpt lat="43.24265" lon="5.94046">
        <ele>594.90374755859</ele>
        <time>2014-05-17T13:54:15Z</time>
      </trkpt>
      <trkpt lat="43.24263" lon="5.9404">
        <ele>594.80212402344</ele>
        <time>2014-05-17T13:54:17Z</time>
      </trkpt>
      <trkpt lat="43.24257" lon="5.94026">
        <ele>594.28253173828</ele>
        <time>2014-05-17T13:54:23Z</time>
      </trkpt>
      <trkpt lat="43.24253" lon="5.94014">
        <ele>594.17431640625</ele>
        <time>2014-05-17T13:54:27Z</time>
      </trkpt>
      <trkpt lat="43.24249" lon="5.94005">
        <ele>594.59088134766</ele>
        <time>2014-05-17T13:54:30Z</time>
      </trkpt>
      <trkpt lat="43.24244" lon="5.93996">
        <ele>595.19421386719</ele>
        <time>2014-05-17T13:54:33Z</time>
      </trkpt>
      <trkpt lat="43.24239" lon="5.93986">
        <ele>595.44598388672</ele>
        <time>2014-05-17T13:54:36Z</time>
      </trkpt>
      <trkpt lat="43.24236" lon="5.9398">
        <ele>595.58001708984</ele>
        <time>2014-05-17T13:54:38Z</time>
      </trkpt>
      <trkpt lat="43.24219" lon="5.93956">
        <ele>597.44744873047</ele>
        <time>2014-05-17T13:54:46Z</time>
      </trkpt>
      <trkpt lat="43.2421" lon="5.93943">
        <ele>597.75518798828</ele>
        <time>2014-05-17T13:54:51Z</time>
      </trkpt>
      <trkpt lat="43.24201" lon="5.93928">
        <ele>598.42810058594</ele>
        <time>2014-05-17T13:54:56Z</time>
      </trkpt>
      <trkpt lat="43.24191" lon="5.93905">
        <ele>600.25103759766</ele>
        <time>2014-05-17T13:55:03Z</time>
      </trkpt>
      <trkpt lat="43.24179" lon="5.93884">
        <ele>604.85302734375</ele>
        <time>2014-05-17T13:55:10Z</time>
      </trkpt>
      <trkpt lat="43.24173" lon="5.93874">
        <ele>606.68603515625</ele>
        <time>2014-05-17T13:55:14Z</time>
      </trkpt>
      <trkpt lat="43.24168" lon="5.93866">
        <ele>607.98864746094</ele>
        <time>2014-05-17T13:55:17Z</time>
      </trkpt>
      <trkpt lat="43.24158" lon="5.93852">
        <ele>608.89495849609</ele>
        <time>2014-05-17T13:55:22Z</time>
      </trkpt>
      <trkpt lat="43.24154" lon="5.93847">
        <ele>609.4921875</ele>
        <time>2014-05-17T13:55:24Z</time>
      </trkpt>
      <trkpt lat="43.24147" lon="5.93841">
        <ele>610.68292236328</ele>
        <time>2014-05-17T13:55:27Z</time>
      </trkpt>
      <trkpt lat="43.24141" lon="5.93838">
        <ele>611.74908447266</ele>
        <time>2014-05-17T13:55:29Z</time>
      </trkpt>
      <trkpt lat="43.24136" lon="5.93836">
        <ele>612.53686523438</ele>
        <time>2014-05-17T13:55:31Z</time>
      </trkpt>
      <trkpt lat="43.24125" lon="5.93834">
        <ele>614.11236572266</ele>
        <time>2014-05-17T13:55:36Z</time>
      </trkpt>
      <trkpt lat="43.24106" lon="5.93832">
        <ele>616.93493652344</ele>
        <time>2014-05-17T13:55:44Z</time>
      </trkpt>
      <trkpt lat="43.24101" lon="5.9383">
        <ele>617.92028808594</ele>
        <time>2014-05-17T13:55:46Z</time>
      </trkpt>
      <trkpt lat="43.24097" lon="5.9383">
        <ele>618.77514648438</ele>
        <time>2014-05-17T13:55:48Z</time>
      </trkpt>
      <trkpt lat="43.24093" lon="5.93827">
        <ele>619.43774414062</ele>
        <time>2014-05-17T13:55:50Z</time>
      </trkpt>
      <trkpt lat="43.24084" lon="5.93813">
        <ele>620.32006835938</ele>
        <time>2014-05-17T13:55:56Z</time>
      </trkpt>
      <trkpt lat="43.24083" lon="5.93808">
        <ele>620.25109863281</ele>
        <time>2014-05-17T13:55:58Z</time>
      </trkpt>
      <trkpt lat="43.24084" lon="5.93801">
        <ele>620.19708251953</ele>
        <time>2014-05-17T13:56:01Z</time>
      </trkpt>
      <trkpt lat="43.2409" lon="5.93787">
        <ele>619.86059570312</ele>
        <time>2014-05-17T13:56:08Z</time>
      </trkpt>
      <trkpt lat="43.24097" lon="5.93773">
        <ele>619.23333740234</ele>
        <time>2014-05-17T13:56:15Z</time>
      </trkpt>
      <trkpt lat="43.24099" lon="5.93757">
        <ele>619.71643066406</ele>
        <time>2014-05-17T13:56:22Z</time>
      </trkpt>
      <trkpt lat="43.24098" lon="5.93755">
        <ele>620.09649658203</ele>
        <time>2014-05-17T13:56:23Z</time>
      </trkpt>
      <trkpt lat="43.24096" lon="5.93754">
        <ele>620.57635498047</ele>
        <time>2014-05-17T13:56:25Z</time>
      </trkpt>
      <trkpt lat="43.24093" lon="5.93756">
        <ele>621.01684570312</ele>
        <time>2014-05-17T13:56:27Z</time>
      </trkpt>
      <trkpt lat="43.24091" lon="5.93757">
        <ele>621.32135009766</ele>
        <time>2014-05-17T13:56:29Z</time>
      </trkpt>
      <trkpt lat="43.24088" lon="5.9376">
        <ele>621.68347167969</ele>
        <time>2014-05-17T13:56:33Z</time>
      </trkpt>
      <trkpt lat="43.24086" lon="5.93763">
        <ele>621.99914550781</ele>
        <time>2014-05-17T13:56:37Z</time>
      </trkpt>
      <trkpt lat="43.24086" lon="5.93763">
        <ele>622.00103759766</ele>
        <time>2014-05-17T13:56:39Z</time>
      </trkpt>
      <trkpt lat="43.24086" lon="5.93763">
        <ele>622.00103759766</ele>
        <time>2014-05-17T13:56:44Z</time>
      </trkpt>
      <trkpt lat="43.24086" lon="5.93763">
        <ele>622.00103759766</ele>
        <time>2014-05-17T13:56:52Z</time>
      </trkpt>
      <trkpt lat="43.24086" lon="5.93764">
        <ele>621.95587158203</ele>
        <time>2014-05-17T13:56:54Z</time>
      </trkpt>
      <trkpt lat="43.24084" lon="5.93769">
        <ele>622.17584228516</ele>
        <time>2014-05-17T13:56:56Z</time>
      </trkpt>
      <trkpt lat="43.24075" lon="5.93778">
        <ele>622.90557861328</ele>
        <time>2014-05-17T13:57:01Z</time>
      </trkpt>
      <trkpt lat="43.2407" lon="5.93782">
        <ele>623.27319335938</ele>
        <time>2014-05-17T13:57:03Z</time>
      </trkpt>
      <trkpt lat="43.24065" lon="5.93786">
        <ele>623.60418701172</ele>
        <time>2014-05-17T13:57:05Z</time>
      </trkpt>
      <trkpt lat="43.2406" lon="5.93789">
        <ele>624.0419921875</ele>
        <time>2014-05-17T13:57:07Z</time>
      </trkpt>
      <trkpt lat="43.24057" lon="5.9379">
        <ele>624.34375</ele>
        <time>2014-05-17T13:57:08Z</time>
      </trkpt>
      <trkpt lat="43.24047" lon="5.93795">
        <ele>625.23559570312</ele>
        <time>2014-05-17T13:57:12Z</time>
      </trkpt>
      <trkpt lat="43.24045" lon="5.93797">
        <ele>625.45703125</ele>
        <time>2014-05-17T13:57:13Z</time>
      </trkpt>
      <trkpt lat="43.24043" lon="5.938">
        <ele>625.62353515625</ele>
        <time>2014-05-17T13:57:14Z</time>
      </trkpt>
      <trkpt lat="43.24033" lon="5.93809">
        <ele>626.45062255859</ele>
        <time>2014-05-17T13:57:19Z</time>
      </trkpt>
      <trkpt lat="43.24031" lon="5.9381">
        <ele>626.68536376953</ele>
        <time>2014-05-17T13:57:20Z</time>
      </trkpt>
      <trkpt lat="43.24029" lon="5.93811">
        <ele>626.90643310547</ele>
        <time>2014-05-17T13:57:21Z</time>
      </trkpt>
      <trkpt lat="43.24025" lon="5.93812">
        <ele>627.32885742188</ele>
        <time>2014-05-17T13:57:22Z</time>
      </trkpt>
      <trkpt lat="43.24009" lon="5.93816">
        <ele>629.46105957031</ele>
        <time>2014-05-17T13:57:28Z</time>
      </trkpt>
      <trkpt lat="43.23996" lon="5.93813">
        <ele>631.20184326172</ele>
        <time>2014-05-17T13:57:35Z</time>
      </trkpt>
      <trkpt lat="43.2398" lon="5.93813">
        <ele>633.13537597656</ele>
        <time>2014-05-17T13:57:42Z</time>
      </trkpt>
      <trkpt lat="43.23977" lon="5.93813">
        <ele>633.44763183594</ele>
        <time>2014-05-17T13:57:43Z</time>
      </trkpt>
      <trkpt lat="43.23971" lon="5.93815">
        <ele>634.07531738281</ele>
        <time>2014-05-17T13:57:45Z</time>
      </trkpt>
      <trkpt lat="43.23961" lon="5.93816">
        <ele>634.78942871094</ele>
        <time>2014-05-17T13:57:49Z</time>
      </trkpt>
      <trkpt lat="43.23943" lon="5.93817">
        <ele>636.2705078125</ele>
        <time>2014-05-17T13:57:55Z</time>
      </trkpt>
      <trkpt lat="43.23929" lon="5.93819">
        <ele>638.248046875</ele>
        <time>2014-05-17T13:57:59Z</time>
      </trkpt>
      <trkpt lat="43.23919" lon="5.93817">
        <ele>639.73120117188</ele>
        <time>2014-05-17T13:58:02Z</time>
      </trkpt>
      <trkpt lat="43.23907" lon="5.93812">
        <ele>639.65521240234</ele>
        <time>2014-05-17T13:58:05Z</time>
      </trkpt>
      <trkpt lat="43.23897" lon="5.93807">
        <ele>639.29815673828</ele>
        <time>2014-05-17T13:58:07Z</time>
      </trkpt>
      <trkpt lat="43.23892" lon="5.93805">
        <ele>639.10589599609</ele>
        <time>2014-05-17T13:58:08Z</time>
      </trkpt>
      <trkpt lat="43.23882" lon="5.93807">
        <ele>638.744140625</ele>
        <time>2014-05-17T13:58:10Z</time>
      </trkpt>
      <trkpt lat="43.23876" lon="5.93809">
        <ele>638.60009765625</ele>
        <time>2014-05-17T13:58:11Z</time>
      </trkpt>
      <trkpt lat="43.2387" lon="5.93812">
        <ele>638.48590087891</ele>
        <time>2014-05-17T13:58:12Z</time>
      </trkpt>
      <trkpt lat="43.23865" lon="5.93814">
        <ele>638.4052734375</ele>
        <time>2014-05-17T13:58:13Z</time>
      </trkpt>
      <trkpt lat="43.23859" lon="5.93817">
        <ele>638.36761474609</ele>
        <time>2014-05-17T13:58:14Z</time>
      </trkpt>
      <trkpt lat="43.23854" lon="5.93821">
        <ele>638.27319335938</ele>
        <time>2014-05-17T13:58:15Z</time>
      </trkpt>
      <trkpt lat="43.23843" lon="5.93826">
        <ele>638.08776855469</ele>
        <time>2014-05-17T13:58:17Z</time>
      </trkpt>
      <trkpt lat="43.23827" lon="5.93834">
        <ele>637.78503417969</ele>
        <time>2014-05-17T13:58:20Z</time>
      </trkpt>
      <trkpt lat="43.23813" lon="5.93843">
        <ele>637.26318359375</ele>
        <time>2014-05-17T13:58:23Z</time>
      </trkpt>
      <trkpt lat="43.23793" lon="5.93854">
        <ele>636.56280517578</ele>
        <time>2014-05-17T13:58:27Z</time>
      </trkpt>
      <trkpt lat="43.2378" lon="5.93863">
        <ele>636.12994384766</ele>
        <time>2014-05-17T13:58:30Z</time>
      </trkpt>
      <trkpt lat="43.23767" lon="5.93872">
        <ele>636.02349853516</ele>
        <time>2014-05-17T13:58:33Z</time>
      </trkpt>
      <trkpt lat="43.23755" lon="5.93881">
        <ele>635.92053222656</ele>
        <time>2014-05-17T13:58:36Z</time>
      </trkpt>
      <trkpt lat="43.2374" lon="5.93899">
        <ele>635.98229980469</ele>
        <time>2014-05-17T13:58:40Z</time>
      </trkpt>
      <trkpt lat="43.23733" lon="5.93906">
        <ele>636.00463867188</ele>
        <time>2014-05-17T13:58:42Z</time>
      </trkpt>
      <trkpt lat="43.23717" lon="5.93922">
        <ele>636.16223144531</ele>
        <time>2014-05-17T13:58:47Z</time>
      </trkpt>
      <trkpt lat="43.23712" lon="5.9393">
        <ele>636.29431152344</ele>
        <time>2014-05-17T13:58:49Z</time>
      </trkpt>
      <trkpt lat="43.23711" lon="5.93933">
        <ele>636.33587646484</ele>
        <time>2014-05-17T13:58:50Z</time>
      </trkpt>
      <trkpt lat="43.23701" lon="5.93972">
        <ele>637.23132324219</ele>
        <time>2014-05-17T13:59:01Z</time>
      </trkpt>
      <trkpt lat="43.23696" lon="5.93991">
        <ele>637.77099609375</ele>
        <time>2014-05-17T13:59:07Z</time>
      </trkpt>
      <trkpt lat="43.2369" lon="5.94009">
        <ele>638.26287841797</ele>
        <time>2014-05-17T13:59:13Z</time>
      </trkpt>
      <trkpt lat="43.23687" lon="5.94017">
        <ele>638.45098876953</ele>
        <time>2014-05-17T13:59:17Z</time>
      </trkpt>
      <trkpt lat="43.23686" lon="5.94022">
        <ele>638.54510498047</ele>
        <time>2014-05-17T13:59:19Z</time>
      </trkpt>
      <trkpt lat="43.23682" lon="5.94026">
        <ele>638.52136230469</ele>
        <time>2014-05-17T13:59:23Z</time>
      </trkpt>
      <trkpt lat="43.23681" lon="5.94026">
        <ele>638.47607421875</ele>
        <time>2014-05-17T13:59:24Z</time>
      </trkpt>
      <trkpt lat="43.23672" lon="5.94033">
        <ele>638.61920166016</ele>
        <time>2014-05-17T13:59:29Z</time>
      </trkpt>
      <trkpt lat="43.23666" lon="5.94039">
        <ele>638.39971923828</ele>
        <time>2014-05-17T13:59:32Z</time>
      </trkpt>
      <trkpt lat="43.23654" lon="5.94051">
        <ele>638.44909667969</ele>
        <time>2014-05-17T13:59:37Z</time>
      </trkpt>
      <trkpt lat="43.23643" lon="5.94062">
        <ele>638.47668457031</ele>
        <time>2014-05-17T13:59:41Z</time>
      </trkpt>
      <trkpt lat="43.23633" lon="5.94075">
        <ele>638.53381347656</ele>
        <time>2014-05-17T13:59:45Z</time>
      </trkpt>
      <trkpt lat="43.23621" lon="5.94086">
        <ele>638.52294921875</ele>
        <time>2014-05-17T13:59:49Z</time>
      </trkpt>
      <trkpt lat="43.23597" lon="5.94113">
        <ele>639.10784912109</ele>
        <time>2014-05-17T13:59:58Z</time>
      </trkpt>
      <trkpt lat="43.23574" lon="5.94132">
        <ele>639</ele>
        <time>2014-05-17T14:00:05Z</time>
      </trkpt>
      <trkpt lat="43.23561" lon="5.94147">
        <ele>639.27709960938</ele>
        <time>2014-05-17T14:00:10Z</time>
      </trkpt>
      <trkpt lat="43.23541" lon="5.94166">
        <ele>639.97399902344</ele>
        <time>2014-05-17T14:00:17Z</time>
      </trkpt>
      <trkpt lat="43.23526" lon="5.94186">
        <ele>640.74346923828</ele>
        <time>2014-05-17T14:00:24Z</time>
      </trkpt>
      <trkpt lat="43.23509" lon="5.94204">
        <ele>642.86541748047</ele>
        <time>2014-05-17T14:00:31Z</time>
      </trkpt>
      <trkpt lat="43.23491" lon="5.94218">
        <ele>644.96228027344</ele>
        <time>2014-05-17T14:00:37Z</time>
      </trkpt>
      <trkpt lat="43.23488" lon="5.9422">
        <ele>645.26495361328</ele>
        <time>2014-05-17T14:00:38Z</time>
      </trkpt>
      <trkpt lat="43.23483" lon="5.94225">
        <ele>645.72186279297</ele>
        <time>2014-05-17T14:00:40Z</time>
      </trkpt>
      <trkpt lat="43.23465" lon="5.94239">
        <ele>646.69848632812</ele>
        <time>2014-05-17T14:00:46Z</time>
      </trkpt>
      <trkpt lat="43.23446" lon="5.94255">
        <ele>647.19097900391</ele>
        <time>2014-05-17T14:00:53Z</time>
      </trkpt>
      <trkpt lat="43.23443" lon="5.94257">
        <ele>647.31207275391</ele>
        <time>2014-05-17T14:00:54Z</time>
      </trkpt>
      <trkpt lat="43.23438" lon="5.94262">
        <ele>647.57745361328</ele>
        <time>2014-05-17T14:00:56Z</time>
      </trkpt>
      <trkpt lat="43.23435" lon="5.94264">
        <ele>647.65930175781</ele>
        <time>2014-05-17T14:00:57Z</time>
      </trkpt>
      <trkpt lat="43.23431" lon="5.94263">
        <ele>647.74078369141</ele>
        <time>2014-05-17T14:00:59Z</time>
      </trkpt>
      <trkpt lat="43.23429" lon="5.94263">
        <ele>647.767578125</ele>
        <time>2014-05-17T14:01:00Z</time>
      </trkpt>
      <trkpt lat="43.23428" lon="5.94266">
        <ele>647.82641601562</ele>
        <time>2014-05-17T14:01:01Z</time>
      </trkpt>
      <trkpt lat="43.23423" lon="5.94273">
        <ele>647.96160888672</ele>
        <time>2014-05-17T14:01:04Z</time>
      </trkpt>
      <trkpt lat="43.23421" lon="5.94273">
        <ele>647.97119140625</ele>
        <time>2014-05-17T14:01:05Z</time>
      </trkpt>
      <trkpt lat="43.23415" lon="5.94278">
        <ele>647.86083984375</ele>
        <time>2014-05-17T14:01:08Z</time>
      </trkpt>
      <trkpt lat="43.23404" lon="5.94286">
        <ele>646.35552978516</ele>
        <time>2014-05-17T14:01:14Z</time>
      </trkpt>
      <trkpt lat="43.23396" lon="5.9429">
        <ele>645.35131835938</ele>
        <time>2014-05-17T14:01:19Z</time>
      </trkpt>
      <trkpt lat="43.23394" lon="5.94289">
        <ele>645.11956787109</ele>
        <time>2014-05-17T14:01:21Z</time>
      </trkpt>
      <trkpt lat="43.23388" lon="5.94289">
        <ele>644.48425292969</ele>
        <time>2014-05-17T14:01:26Z</time>
      </trkpt>
      <trkpt lat="43.23388" lon="5.9429">
        <ele>644.33148193359</ele>
        <time>2014-05-17T14:01:27Z</time>
      </trkpt>
      <trkpt lat="43.23388" lon="5.94289">
        <ele>644.33660888672</ele>
        <time>2014-05-17T14:01:32Z</time>
      </trkpt>
      <trkpt lat="43.23388" lon="5.94289">
        <ele>644.33660888672</ele>
        <time>2014-05-17T14:01:52Z</time>
      </trkpt>
      <trkpt lat="43.23388" lon="5.94289">
        <ele>644.34350585938</ele>
        <time>2014-05-17T14:02:14Z</time>
      </trkpt>
      <trkpt lat="43.23388" lon="5.94289">
        <ele>644.34350585938</ele>
        <time>2014-05-17T14:02:32Z</time>
      </trkpt>
      <trkpt lat="43.23388" lon="5.94289">
        <ele>644.34350585938</ele>
        <time>2014-05-17T14:02:46Z</time>
      </trkpt>
      <trkpt lat="43.23388" lon="5.9429">
        <ele>644.31085205078</ele>
        <time>2014-05-17T14:02:49Z</time>
      </trkpt>
      <trkpt lat="43.23388" lon="5.9429">
        <ele>644.31085205078</ele>
        <time>2014-05-17T14:02:51Z</time>
      </trkpt>
      <trkpt lat="43.23383" lon="5.94292">
        <ele>643.50231933594</ele>
        <time>2014-05-17T14:02:56Z</time>
      </trkpt>
      <trkpt lat="43.23379" lon="5.94293">
        <ele>642.62341308594</ele>
        <time>2014-05-17T14:02:59Z</time>
      </trkpt>
      <trkpt lat="43.23377" lon="5.94293">
        <ele>642.34020996094</ele>
        <time>2014-05-17T14:03:00Z</time>
      </trkpt>
      <trkpt lat="43.23372" lon="5.94295">
        <ele>641.31365966797</ele>
        <time>2014-05-17T14:03:02Z</time>
      </trkpt>
      <trkpt lat="43.23357" lon="5.94292">
        <ele>638.96270751953</ele>
        <time>2014-05-17T14:03:06Z</time>
      </trkpt>
      <trkpt lat="43.23347" lon="5.94289">
        <ele>637.90594482422</ele>
        <time>2014-05-17T14:03:08Z</time>
      </trkpt>
      <trkpt lat="43.23337" lon="5.94287">
        <ele>636.73059082031</ele>
        <time>2014-05-17T14:03:10Z</time>
      </trkpt>
      <trkpt lat="43.23328" lon="5.94288">
        <ele>635.61834716797</ele>
        <time>2014-05-17T14:03:12Z</time>
      </trkpt>
      <trkpt lat="43.23324" lon="5.9429">
        <ele>634.94860839844</ele>
        <time>2014-05-17T14:03:13Z</time>
      </trkpt>
      <trkpt lat="43.23321" lon="5.94294">
        <ele>634.24566650391</ele>
        <time>2014-05-17T14:03:14Z</time>
      </trkpt>
      <trkpt lat="43.23318" lon="5.94298">
        <ele>633.45751953125</ele>
        <time>2014-05-17T14:03:15Z</time>
      </trkpt>
      <trkpt lat="43.23316" lon="5.94313">
        <ele>632.26879882812</ele>
        <time>2014-05-17T14:03:17Z</time>
      </trkpt>
      <trkpt lat="43.23315" lon="5.9432">
        <ele>631.90319824219</ele>
        <time>2014-05-17T14:03:18Z</time>
      </trkpt>
      <trkpt lat="43.23314" lon="5.94326">
        <ele>631.45684814453</ele>
        <time>2014-05-17T14:03:19Z</time>
      </trkpt>
      <trkpt lat="43.2331" lon="5.9433">
        <ele>630.83715820312</ele>
        <time>2014-05-17T14:03:20Z</time>
      </trkpt>
      <trkpt lat="43.23305" lon="5.94332">
        <ele>630.00390625</ele>
        <time>2014-05-17T14:03:21Z</time>
      </trkpt>
      <trkpt lat="43.233" lon="5.94331">
        <ele>629.25756835938</ele>
        <time>2014-05-17T14:03:22Z</time>
      </trkpt>
      <trkpt lat="43.23295" lon="5.9433">
        <ele>628.62780761719</ele>
        <time>2014-05-17T14:03:23Z</time>
      </trkpt>
      <trkpt lat="43.2329" lon="5.94327">
        <ele>628.07287597656</ele>
        <time>2014-05-17T14:03:24Z</time>
      </trkpt>
      <trkpt lat="43.23278" lon="5.94316">
        <ele>627.31634521484</ele>
        <time>2014-05-17T14:03:26Z</time>
      </trkpt>
      <trkpt lat="43.23274" lon="5.94308">
        <ele>627.02734375</ele>
        <time>2014-05-17T14:03:27Z</time>
      </trkpt>
      <trkpt lat="43.23271" lon="5.943">
        <ele>627.21801757812</ele>
        <time>2014-05-17T14:03:28Z</time>
      </trkpt>
      <trkpt lat="43.23269" lon="5.94291">
        <ele>627.89819335938</ele>
        <time>2014-05-17T14:03:29Z</time>
      </trkpt>
      <trkpt lat="43.23262" lon="5.94266">
        <ele>630.1845703125</ele>
        <time>2014-05-17T14:03:32Z</time>
      </trkpt>
      <trkpt lat="43.23258" lon="5.9426">
        <ele>630.49243164062</ele>
        <time>2014-05-17T14:03:33Z</time>
      </trkpt>
      <trkpt lat="43.23252" lon="5.94257">
        <ele>630.29620361328</ele>
        <time>2014-05-17T14:03:34Z</time>
      </trkpt>
      <trkpt lat="43.23238" lon="5.94256">
        <ele>628.68225097656</ele>
        <time>2014-05-17T14:03:36Z</time>
      </trkpt>
      <trkpt lat="43.2323" lon="5.94256">
        <ele>627.583984375</ele>
        <time>2014-05-17T14:03:37Z</time>
      </trkpt>
      <trkpt lat="43.23214" lon="5.94258">
        <ele>625.44293212891</ele>
        <time>2014-05-17T14:03:39Z</time>
      </trkpt>
      <trkpt lat="43.23206" lon="5.94259">
        <ele>624.46441650391</ele>
        <time>2014-05-17T14:03:40Z</time>
      </trkpt>
      <trkpt lat="43.23191" lon="5.94265">
        <ele>622.60290527344</ele>
        <time>2014-05-17T14:03:42Z</time>
      </trkpt>
      <trkpt lat="43.23184" lon="5.94269">
        <ele>622.53942871094</ele>
        <time>2014-05-17T14:03:43Z</time>
      </trkpt>
      <trkpt lat="43.23178" lon="5.94274">
        <ele>622.47296142578</ele>
        <time>2014-05-17T14:03:44Z</time>
      </trkpt>
      <trkpt lat="43.23171" lon="5.94279">
        <ele>622.47052001953</ele>
        <time>2014-05-17T14:03:45Z</time>
      </trkpt>
      <trkpt lat="43.23157" lon="5.94291">
        <ele>621.39916992188</ele>
        <time>2014-05-17T14:03:47Z</time>
      </trkpt>
      <trkpt lat="43.2313" lon="5.94317">
        <ele>620</ele>
        <time>2014-05-17T14:03:51Z</time>
      </trkpt>
      <trkpt lat="43.23108" lon="5.94335">
        <ele>619.99212646484</ele>
        <time>2014-05-17T14:03:54Z</time>
      </trkpt>
      <trkpt lat="43.231" lon="5.9434">
        <ele>619.89984130859</ele>
        <time>2014-05-17T14:03:55Z</time>
      </trkpt>
      <trkpt lat="43.23087" lon="5.94351">
        <ele>619.42834472656</ele>
        <time>2014-05-17T14:03:57Z</time>
      </trkpt>
      <trkpt lat="43.23074" lon="5.94362">
        <ele>618.60534667969</ele>
        <time>2014-05-17T14:03:59Z</time>
      </trkpt>
      <trkpt lat="43.23022" lon="5.94416">
        <ele>613.27728271484</ele>
        <time>2014-05-17T14:04:08Z</time>
      </trkpt>
      <trkpt lat="43.22998" lon="5.94451">
        <ele>610.71337890625</ele>
        <time>2014-05-17T14:04:13Z</time>
      </trkpt>
      <trkpt lat="43.22993" lon="5.94459">
        <ele>610.42156982422</ele>
        <time>2014-05-17T14:04:14Z</time>
      </trkpt>
      <trkpt lat="43.2299" lon="5.94467">
        <ele>610.08850097656</ele>
        <time>2014-05-17T14:04:15Z</time>
      </trkpt>
      <trkpt lat="43.22979" lon="5.94491">
        <ele>606.58331298828</ele>
        <time>2014-05-17T14:04:19Z</time>
      </trkpt>
      <trkpt lat="43.22975" lon="5.94502">
        <ele>604.57641601562</ele>
        <time>2014-05-17T14:04:21Z</time>
      </trkpt>
      <trkpt lat="43.22971" lon="5.94507">
        <ele>603.77105712891</ele>
        <time>2014-05-17T14:04:22Z</time>
      </trkpt>
      <trkpt lat="43.22968" lon="5.94514">
        <ele>602.82818603516</ele>
        <time>2014-05-17T14:04:23Z</time>
      </trkpt>
      <trkpt lat="43.22964" lon="5.94521">
        <ele>601.42449951172</ele>
        <time>2014-05-17T14:04:24Z</time>
      </trkpt>
      <trkpt lat="43.22962" lon="5.94528">
        <ele>600</ele>
        <time>2014-05-17T14:04:25Z</time>
      </trkpt>
      <trkpt lat="43.22955" lon="5.94546">
        <ele>600</ele>
        <time>2014-05-17T14:04:28Z</time>
      </trkpt>
      <trkpt lat="43.22952" lon="5.94553">
        <ele>600</ele>
        <time>2014-05-17T14:04:29Z</time>
      </trkpt>
      <trkpt lat="43.22945" lon="5.94567">
        <ele>600</ele>
        <time>2014-05-17T14:04:31Z</time>
      </trkpt>
      <trkpt lat="43.22942" lon="5.94576">
        <ele>600</ele>
        <time>2014-05-17T14:04:32Z</time>
      </trkpt>
      <trkpt lat="43.22929" lon="5.94601">
        <ele>600</ele>
        <time>2014-05-17T14:04:36Z</time>
      </trkpt>
      <trkpt lat="43.22926" lon="5.94608">
        <ele>600</ele>
        <time>2014-05-17T14:04:37Z</time>
      </trkpt>
      <trkpt lat="43.22914" lon="5.94625">
        <ele>600</ele>
        <time>2014-05-17T14:04:40Z</time>
      </trkpt>
      <trkpt lat="43.22906" lon="5.94637">
        <ele>600</ele>
        <time>2014-05-17T14:04:42Z</time>
      </trkpt>
      <trkpt lat="43.22903" lon="5.94642">
        <ele>600</ele>
        <time>2014-05-17T14:04:43Z</time>
      </trkpt>
      <trkpt lat="43.22892" lon="5.94655">
        <ele>600</ele>
        <time>2014-05-17T14:04:46Z</time>
      </trkpt>
      <trkpt lat="43.22877" lon="5.94669">
        <ele>600</ele>
        <time>2014-05-17T14:04:49Z</time>
      </trkpt>
      <trkpt lat="43.22857" lon="5.94686">
        <ele>600</ele>
        <time>2014-05-17T14:04:53Z</time>
      </trkpt>
      <trkpt lat="43.22838" lon="5.94705">
        <ele>600</ele>
        <time>2014-05-17T14:04:57Z</time>
      </trkpt>
      <trkpt lat="43.22784" lon="5.94748">
        <ele>600</ele>
        <time>2014-05-17T14:05:06Z</time>
      </trkpt>
      <trkpt lat="43.22763" lon="5.94774">
        <ele>600</ele>
        <time>2014-05-17T14:05:10Z</time>
      </trkpt>
      <trkpt lat="43.22757" lon="5.94781">
        <ele>600</ele>
        <time>2014-05-17T14:05:11Z</time>
      </trkpt>
      <trkpt lat="43.22744" lon="5.94793">
        <ele>600</ele>
        <time>2014-05-17T14:05:13Z</time>
      </trkpt>
      <trkpt lat="43.22738" lon="5.94798">
        <ele>600</ele>
        <time>2014-05-17T14:05:14Z</time>
      </trkpt>
      <trkpt lat="43.22716" lon="5.94812">
        <ele>600</ele>
        <time>2014-05-17T14:05:18Z</time>
      </trkpt>
      <trkpt lat="43.22695" lon="5.94816">
        <ele>600</ele>
        <time>2014-05-17T14:05:22Z</time>
      </trkpt>
      <trkpt lat="43.2269" lon="5.94817">
        <ele>600</ele>
        <time>2014-05-17T14:05:23Z</time>
      </trkpt>
      <trkpt lat="43.22679" lon="5.94823">
        <ele>600</ele>
        <time>2014-05-17T14:05:25Z</time>
      </trkpt>
      <trkpt lat="43.2267" lon="5.94831">
        <ele>600</ele>
        <time>2014-05-17T14:05:27Z</time>
      </trkpt>
      <trkpt lat="43.22665" lon="5.94836">
        <ele>600</ele>
        <time>2014-05-17T14:05:28Z</time>
      </trkpt>
      <trkpt lat="43.22637" lon="5.9487">
        <ele>600</ele>
        <time>2014-05-17T14:05:35Z</time>
      </trkpt>
      <trkpt lat="43.22614" lon="5.94892">
        <ele>600</ele>
        <time>2014-05-17T14:05:40Z</time>
      </trkpt>
      <trkpt lat="43.22608" lon="5.94895">
        <ele>600</ele>
        <time>2014-05-17T14:05:41Z</time>
      </trkpt>
      <trkpt lat="43.22576" lon="5.94918">
        <ele>600</ele>
        <time>2014-05-17T14:05:46Z</time>
      </trkpt>
      <trkpt lat="43.2257" lon="5.94924">
        <ele>600</ele>
        <time>2014-05-17T14:05:47Z</time>
      </trkpt>
      <trkpt lat="43.22565" lon="5.9493">
        <ele>600</ele>
        <time>2014-05-17T14:05:48Z</time>
      </trkpt>
      <trkpt lat="43.2256" lon="5.94935">
        <ele>600</ele>
        <time>2014-05-17T14:05:49Z</time>
      </trkpt>
      <trkpt lat="43.22555" lon="5.94941">
        <ele>600</ele>
        <time>2014-05-17T14:05:50Z</time>
      </trkpt>
      <trkpt lat="43.22551" lon="5.94946">
        <ele>600</ele>
        <time>2014-05-17T14:05:51Z</time>
      </trkpt>
      <trkpt lat="43.22536" lon="5.94964">
        <ele>600</ele>
        <time>2014-05-17T14:05:55Z</time>
      </trkpt>
      <trkpt lat="43.22514" lon="5.9499">
        <ele>600</ele>
        <time>2014-05-17T14:06:01Z</time>
      </trkpt>
      <trkpt lat="43.22496" lon="5.95012">
        <ele>600</ele>
        <time>2014-05-17T14:06:07Z</time>
      </trkpt>
      <trkpt lat="43.22488" lon="5.9502">
        <ele>600</ele>
        <time>2014-05-17T14:06:11Z</time>
      </trkpt>
      <trkpt lat="43.22481" lon="5.95027">
        <ele>600</ele>
        <time>2014-05-17T14:06:15Z</time>
      </trkpt>
      <trkpt lat="43.22477" lon="5.95032">
        <ele>600</ele>
        <time>2014-05-17T14:06:18Z</time>
      </trkpt>
      <trkpt lat="43.22474" lon="5.95035">
        <ele>600</ele>
        <time>2014-05-17T14:06:20Z</time>
      </trkpt>
      <trkpt lat="43.22469" lon="5.95038">
        <ele>600</ele>
        <time>2014-05-17T14:06:22Z</time>
      </trkpt>
      <trkpt lat="43.22465" lon="5.9504">
        <ele>600</ele>
        <time>2014-05-17T14:06:24Z</time>
      </trkpt>
      <trkpt lat="43.22441" lon="5.95056">
        <ele>600</ele>
        <time>2014-05-17T14:06:35Z</time>
      </trkpt>
      <trkpt lat="43.22422" lon="5.95069">
        <ele>600</ele>
        <time>2014-05-17T14:06:42Z</time>
      </trkpt>
      <trkpt lat="43.22404" lon="5.95081">
        <ele>600</ele>
        <time>2014-05-17T14:06:49Z</time>
      </trkpt>
      <trkpt lat="43.22382" lon="5.95092">
        <ele>600</ele>
        <time>2014-05-17T14:06:57Z</time>
      </trkpt>
      <trkpt lat="43.22365" lon="5.95101">
        <ele>600</ele>
        <time>2014-05-17T14:07:02Z</time>
      </trkpt>
      <trkpt lat="43.22356" lon="5.95106">
        <ele>600</ele>
        <time>2014-05-17T14:07:04Z</time>
      </trkpt>
      <trkpt lat="43.22345" lon="5.95116">
        <ele>600</ele>
        <time>2014-05-17T14:07:07Z</time>
      </trkpt>
      <trkpt lat="43.22335" lon="5.95125">
        <ele>600</ele>
        <time>2014-05-17T14:07:10Z</time>
      </trkpt>
      <trkpt lat="43.2233" lon="5.95131">
        <ele>600</ele>
        <time>2014-05-17T14:07:12Z</time>
      </trkpt>
      <trkpt lat="43.22326" lon="5.95134">
        <ele>600</ele>
        <time>2014-05-17T14:07:13Z</time>
      </trkpt>
      <trkpt lat="43.22303" lon="5.95146">
        <ele>600</ele>
        <time>2014-05-17T14:07:19Z</time>
      </trkpt>
      <trkpt lat="43.22259" lon="5.95163">
        <ele>600</ele>
        <time>2014-05-17T14:07:32Z</time>
      </trkpt>
      <trkpt lat="43.22253" lon="5.95166">
        <ele>600</ele>
        <time>2014-05-17T14:07:34Z</time>
      </trkpt>
      <trkpt lat="43.22205" lon="5.95179">
        <ele>600</ele>
        <time>2014-05-17T14:07:49Z</time>
      </trkpt>
      <trkpt lat="43.22184" lon="5.95188">
        <ele>600.28143310547</ele>
        <time>2014-05-17T14:07:56Z</time>
      </trkpt>
      <trkpt lat="43.2217" lon="5.9519">
        <ele>600.373046875</ele>
        <time>2014-05-17T14:08:01Z</time>
      </trkpt>
      <trkpt lat="43.22168" lon="5.9519">
        <ele>600.40838623047</ele>
        <time>2014-05-17T14:08:02Z</time>
      </trkpt>
      <trkpt lat="43.22163" lon="5.9519">
        <ele>601.05780029297</ele>
        <time>2014-05-17T14:08:05Z</time>
      </trkpt>
      <trkpt lat="43.22154" lon="5.95187">
        <ele>602.56927490234</ele>
        <time>2014-05-17T14:08:10Z</time>
      </trkpt>
      <trkpt lat="43.2215" lon="5.95183">
        <ele>603.40093994141</ele>
        <time>2014-05-17T14:08:13Z</time>
      </trkpt>
      <trkpt lat="43.22145" lon="5.95177">
        <ele>604.54827880859</ele>
        <time>2014-05-17T14:08:17Z</time>
      </trkpt>
      <trkpt lat="43.22141" lon="5.95164">
        <ele>606.17346191406</ele>
        <time>2014-05-17T14:08:23Z</time>
      </trkpt>
      <trkpt lat="43.2214" lon="5.95152">
        <ele>608.04803466797</ele>
        <time>2014-05-17T14:08:30Z</time>
      </trkpt>
      <trkpt lat="43.22139" lon="5.95148">
        <ele>608.70721435547</ele>
        <time>2014-05-17T14:08:34Z</time>
      </trkpt>
      <trkpt lat="43.22139" lon="5.95146">
        <ele>609.02990722656</ele>
        <time>2014-05-17T14:08:35Z</time>
      </trkpt>
      <trkpt lat="43.22138" lon="5.95137">
        <ele>610.34320068359</ele>
        <time>2014-05-17T14:08:39Z</time>
      </trkpt>
      <trkpt lat="43.22142" lon="5.95134">
        <ele>610.16778564453</ele>
        <time>2014-05-17T14:08:45Z</time>
      </trkpt>
      <trkpt lat="43.22149" lon="5.9513">
        <ele>610.03900146484</ele>
        <time>2014-05-17T14:08:50Z</time>
      </trkpt>
      <trkpt lat="43.22154" lon="5.95119">
        <ele>610.87396240234</ele>
        <time>2014-05-17T14:08:56Z</time>
      </trkpt>
      <trkpt lat="43.22157" lon="5.95116">
        <ele>611.02990722656</ele>
        <time>2014-05-17T14:08:58Z</time>
      </trkpt>
      <trkpt lat="43.22178" lon="5.951">
        <ele>610.62316894531</ele>
        <time>2014-05-17T14:09:10Z</time>
      </trkpt>
      <trkpt lat="43.22195" lon="5.9509">
        <ele>609.21215820312</ele>
        <time>2014-05-17T14:09:17Z</time>
      </trkpt>
      <trkpt lat="43.22206" lon="5.95083">
        <ele>608.33331298828</ele>
        <time>2014-05-17T14:09:22Z</time>
      </trkpt>
      <trkpt lat="43.22209" lon="5.95082">
        <ele>608.19769287109</ele>
        <time>2014-05-17T14:09:23Z</time>
      </trkpt>
      <trkpt lat="43.22217" lon="5.95078">
        <ele>607.62774658203</ele>
        <time>2014-05-17T14:09:26Z</time>
      </trkpt>
      <trkpt lat="43.22241" lon="5.95066">
        <ele>608.20330810547</ele>
        <time>2014-05-17T14:09:36Z</time>
      </trkpt>
      <trkpt lat="43.22257" lon="5.95054">
        <ele>609.59899902344</ele>
        <time>2014-05-17T14:09:43Z</time>
      </trkpt>
      <trkpt lat="43.22273" lon="5.95045">
        <ele>609.34661865234</ele>
        <time>2014-05-17T14:09:49Z</time>
      </trkpt>
      <trkpt lat="43.22279" lon="5.95041">
        <ele>609.43597412109</ele>
        <time>2014-05-17T14:09:51Z</time>
      </trkpt>
      <trkpt lat="43.22282" lon="5.95039">
        <ele>609.61846923828</ele>
        <time>2014-05-17T14:09:52Z</time>
      </trkpt>
      <trkpt lat="43.22284" lon="5.95037">
        <ele>609.78839111328</ele>
        <time>2014-05-17T14:09:53Z</time>
      </trkpt>
      <trkpt lat="43.22293" lon="5.95027">
        <ele>610.39739990234</ele>
        <time>2014-05-17T14:09:56Z</time>
      </trkpt>
      <trkpt lat="43.22317" lon="5.95002">
        <ele>610.93914794922</ele>
        <time>2014-05-17T14:10:03Z</time>
      </trkpt>
      <trkpt lat="43.22321" lon="5.95">
        <ele>610.94323730469</ele>
        <time>2014-05-17T14:10:04Z</time>
      </trkpt>
      <trkpt lat="43.22336" lon="5.94988">
        <ele>611.25598144531</ele>
        <time>2014-05-17T14:10:08Z</time>
      </trkpt>
      <trkpt lat="43.22343" lon="5.9498">
        <ele>611.14916992188</ele>
        <time>2014-05-17T14:10:10Z</time>
      </trkpt>
      <trkpt lat="43.22361" lon="5.94953">
        <ele>611.83563232422</ele>
        <time>2014-05-17T14:10:16Z</time>
      </trkpt>
      <trkpt lat="43.22367" lon="5.94945">
        <ele>612.23681640625</ele>
        <time>2014-05-17T14:10:18Z</time>
      </trkpt>
      <trkpt lat="43.2238" lon="5.94937">
        <ele>611.44494628906</ele>
        <time>2014-05-17T14:10:21Z</time>
      </trkpt>
      <trkpt lat="43.22398" lon="5.94915">
        <ele>611.26257324219</ele>
        <time>2014-05-17T14:10:26Z</time>
      </trkpt>
      <trkpt lat="43.22409" lon="5.94894">
        <ele>612.30285644531</ele>
        <time>2014-05-17T14:10:30Z</time>
      </trkpt>
      <trkpt lat="43.22419" lon="5.94879">
        <ele>612.42919921875</ele>
        <time>2014-05-17T14:10:33Z</time>
      </trkpt>
      <trkpt lat="43.22441" lon="5.94857">
        <ele>610.84771728516</ele>
        <time>2014-05-17T14:10:38Z</time>
      </trkpt>
      <trkpt lat="43.22446" lon="5.94852">
        <ele>610.49731445312</ele>
        <time>2014-05-17T14:10:39Z</time>
      </trkpt>
      <trkpt lat="43.22462" lon="5.94836">
        <ele>609.86907958984</ele>
        <time>2014-05-17T14:10:42Z</time>
      </trkpt>
      <trkpt lat="43.22468" lon="5.94831">
        <ele>609.64935302734</ele>
        <time>2014-05-17T14:10:43Z</time>
      </trkpt>
      <trkpt lat="43.22473" lon="5.94826">
        <ele>609.52117919922</ele>
        <time>2014-05-17T14:10:44Z</time>
      </trkpt>
      <trkpt lat="43.22478" lon="5.9482">
        <ele>609.54174804688</ele>
        <time>2014-05-17T14:10:45Z</time>
      </trkpt>
      <trkpt lat="43.22483" lon="5.94815">
        <ele>609.4765625</ele>
        <time>2014-05-17T14:10:46Z</time>
      </trkpt>
      <trkpt lat="43.22499" lon="5.94803">
        <ele>609.13049316406</ele>
        <time>2014-05-17T14:10:49Z</time>
      </trkpt>
      <trkpt lat="43.22504" lon="5.94798">
        <ele>608.84582519531</ele>
        <time>2014-05-17T14:10:50Z</time>
      </trkpt>
      <trkpt lat="43.22512" lon="5.94783">
        <ele>608.54370117188</ele>
        <time>2014-05-17T14:10:52Z</time>
      </trkpt>
      <trkpt lat="43.22516" lon="5.94761">
        <ele>609.49829101562</ele>
        <time>2014-05-17T14:10:55Z</time>
      </trkpt>
      <trkpt lat="43.22516" lon="5.94754">
        <ele>610.0029296875</ele>
        <time>2014-05-17T14:10:56Z</time>
      </trkpt>
      <trkpt lat="43.22511" lon="5.94734">
        <ele>611.63824462891</ele>
        <time>2014-05-17T14:10:59Z</time>
      </trkpt>
      <trkpt lat="43.2251" lon="5.94713">
        <ele>612.59893798828</ele>
        <time>2014-05-17T14:11:02Z</time>
      </trkpt>
      <trkpt lat="43.22522" lon="5.94697">
        <ele>612.37066650391</ele>
        <time>2014-05-17T14:11:05Z</time>
      </trkpt>
      <trkpt lat="43.2253" lon="5.94686">
        <ele>612.47436523438</ele>
        <time>2014-05-17T14:11:07Z</time>
      </trkpt>
      <trkpt lat="43.22543" lon="5.94671">
        <ele>612.60144042969</ele>
        <time>2014-05-17T14:11:10Z</time>
      </trkpt>
      <trkpt lat="43.22556" lon="5.94659">
        <ele>612.53277587891</ele>
        <time>2014-05-17T14:11:13Z</time>
      </trkpt>
      <trkpt lat="43.22564" lon="5.94651">
        <ele>612.55676269531</ele>
        <time>2014-05-17T14:11:15Z</time>
      </trkpt>
      <trkpt lat="43.22577" lon="5.94635">
        <ele>612.63171386719</ele>
        <time>2014-05-17T14:11:19Z</time>
      </trkpt>
      <trkpt lat="43.22585" lon="5.94623">
        <ele>612.42572021484</ele>
        <time>2014-05-17T14:11:22Z</time>
      </trkpt>
      <trkpt lat="43.22598" lon="5.94612">
        <ele>611.92962646484</ele>
        <time>2014-05-17T14:11:26Z</time>
      </trkpt>
      <trkpt lat="43.2261" lon="5.94599">
        <ele>611.98254394531</ele>
        <time>2014-05-17T14:11:31Z</time>
      </trkpt>
      <trkpt lat="43.2262" lon="5.94589">
        <ele>611.9619140625</ele>
        <time>2014-05-17T14:11:36Z</time>
      </trkpt>
      <trkpt lat="43.22625" lon="5.94585">
        <ele>611.93103027344</ele>
        <time>2014-05-17T14:11:39Z</time>
      </trkpt>
      <trkpt lat="43.22628" lon="5.94582">
        <ele>611.86187744141</ele>
        <time>2014-05-17T14:11:41Z</time>
      </trkpt>
      <trkpt lat="43.22637" lon="5.94577">
        <ele>611.36236572266</ele>
        <time>2014-05-17T14:11:48Z</time>
      </trkpt>
      <trkpt lat="43.22651" lon="5.94568">
        <ele>610.92468261719</ele>
        <time>2014-05-17T14:11:54Z</time>
      </trkpt>
      <trkpt lat="43.22654" lon="5.94564">
        <ele>610.966796875</ele>
        <time>2014-05-17T14:11:55Z</time>
      </trkpt>
      <trkpt lat="43.22659" lon="5.94553">
        <ele>611.35565185547</ele>
        <time>2014-05-17T14:11:58Z</time>
      </trkpt>
      <trkpt lat="43.22662" lon="5.94544">
        <ele>611.57196044922</ele>
        <time>2014-05-17T14:12:01Z</time>
      </trkpt>
      <trkpt lat="43.22662" lon="5.94542">
        <ele>611.65948486328</ele>
        <time>2014-05-17T14:12:02Z</time>
      </trkpt>
      <trkpt lat="43.2266" lon="5.94529">
        <ele>612.2001953125</ele>
        <time>2014-05-17T14:12:06Z</time>
      </trkpt>
      <trkpt lat="43.22659" lon="5.94526">
        <ele>612.36541748047</ele>
        <time>2014-05-17T14:12:07Z</time>
      </trkpt>
      <trkpt lat="43.22659" lon="5.94522">
        <ele>612.53265380859</ele>
        <time>2014-05-17T14:12:08Z</time>
      </trkpt>
      <trkpt lat="43.2266" lon="5.94514">
        <ele>612.83721923828</ele>
        <time>2014-05-17T14:12:10Z</time>
      </trkpt>
      <trkpt lat="43.22659" lon="5.94506">
        <ele>613.23846435547</ele>
        <time>2014-05-17T14:12:12Z</time>
      </trkpt>
      <trkpt lat="43.22655" lon="5.94496">
        <ele>614.00170898438</ele>
        <time>2014-05-17T14:12:15Z</time>
      </trkpt>
      <trkpt lat="43.22649" lon="5.94485">
        <ele>614.78448486328</ele>
        <time>2014-05-17T14:12:19Z</time>
      </trkpt>
      <trkpt lat="43.22651" lon="5.94477">
        <ele>614.98193359375</ele>
        <time>2014-05-17T14:12:21Z</time>
      </trkpt>
      <trkpt lat="43.22662" lon="5.94468">
        <ele>614.45489501953</ele>
        <time>2014-05-17T14:12:25Z</time>
      </trkpt>
      <trkpt lat="43.22679" lon="5.94461">
        <ele>613.79461669922</ele>
        <time>2014-05-17T14:12:30Z</time>
      </trkpt>
      <trkpt lat="43.227" lon="5.94452">
        <ele>612.73944091797</ele>
        <time>2014-05-17T14:12:36Z</time>
      </trkpt>
      <trkpt lat="43.22719" lon="5.94441">
        <ele>612.22503662109</ele>
        <time>2014-05-17T14:12:41Z</time>
      </trkpt>
      <trkpt lat="43.22747" lon="5.94434">
        <ele>611.47833251953</ele>
        <time>2014-05-17T14:12:47Z</time>
      </trkpt>
      <trkpt lat="43.22763" lon="5.94434">
        <ele>610.91009521484</ele>
        <time>2014-05-17T14:12:51Z</time>
      </trkpt>
      <trkpt lat="43.22767" lon="5.94433">
        <ele>610.78991699219</ele>
        <time>2014-05-17T14:12:52Z</time>
      </trkpt>
      <trkpt lat="43.22776" lon="5.94433">
        <ele>610.50500488281</ele>
        <time>2014-05-17T14:12:54Z</time>
      </trkpt>
      <trkpt lat="43.22785" lon="5.9443">
        <ele>610.52966308594</ele>
        <time>2014-05-17T14:12:56Z</time>
      </trkpt>
      <trkpt lat="43.22789" lon="5.94427">
        <ele>610.63952636719</ele>
        <time>2014-05-17T14:12:57Z</time>
      </trkpt>
      <trkpt lat="43.228" lon="5.94405">
        <ele>611.07989501953</ele>
        <time>2014-05-17T14:13:02Z</time>
      </trkpt>
      <trkpt lat="43.22811" lon="5.94395">
        <ele>611.35650634766</ele>
        <time>2014-05-17T14:13:06Z</time>
      </trkpt>
      <trkpt lat="43.22823" lon="5.94387">
        <ele>612.24603271484</ele>
        <time>2014-05-17T14:13:10Z</time>
      </trkpt>
      <trkpt lat="43.22841" lon="5.94372">
        <ele>613.11059570312</ele>
        <time>2014-05-17T14:13:15Z</time>
      </trkpt>
      <trkpt lat="43.22845" lon="5.9437">
        <ele>613.12432861328</ele>
        <time>2014-05-17T14:13:16Z</time>
      </trkpt>
      <trkpt lat="43.22858" lon="5.94357">
        <ele>613</ele>
        <time>2014-05-17T14:13:20Z</time>
      </trkpt>
      <trkpt lat="43.2287" lon="5.94336">
        <ele>613.3154296875</ele>
        <time>2014-05-17T14:13:26Z</time>
      </trkpt>
      <trkpt lat="43.22877" lon="5.94321">
        <ele>613.32861328125</ele>
        <time>2014-05-17T14:13:30Z</time>
      </trkpt>
      <trkpt lat="43.22884" lon="5.94301">
        <ele>612.86590576172</ele>
        <time>2014-05-17T14:13:35Z</time>
      </trkpt>
      <trkpt lat="43.22887" lon="5.94294">
        <ele>612.61004638672</ele>
        <time>2014-05-17T14:13:38Z</time>
      </trkpt>
      <trkpt lat="43.22889" lon="5.94292">
        <ele>612.54779052734</ele>
        <time>2014-05-17T14:13:39Z</time>
      </trkpt>
      <trkpt lat="43.22894" lon="5.9428">
        <ele>612.44482421875</ele>
        <time>2014-05-17T14:13:44Z</time>
      </trkpt>
      <trkpt lat="43.22895" lon="5.94276">
        <ele>612.46002197266</ele>
        <time>2014-05-17T14:13:48Z</time>
      </trkpt>
      <trkpt lat="43.22895" lon="5.94276">
        <ele>612.46002197266</ele>
        <time>2014-05-17T14:14:07Z</time>
      </trkpt>
      <trkpt lat="43.22895" lon="5.94276">
        <ele>612.46002197266</ele>
        <time>2014-05-17T14:14:14Z</time>
      </trkpt>
      <trkpt lat="43.22896" lon="5.94276">
        <ele>612.51098632812</ele>
        <time>2014-05-17T14:14:19Z</time>
      </trkpt>
      <trkpt lat="43.22896" lon="5.94276">
        <ele>612.5078125</ele>
        <time>2014-05-17T14:14:25Z</time>
      </trkpt>
      <trkpt lat="43.22896" lon="5.94276">
        <ele>612.5078125</ele>
        <time>2014-05-17T14:14:32Z</time>
      </trkpt>
      <trkpt lat="43.22896" lon="5.94276">
        <ele>612.5078125</ele>
        <time>2014-05-17T14:14:38Z</time>
      </trkpt>
      <trkpt lat="43.22897" lon="5.94275">
        <ele>612.52484130859</ele>
        <time>2014-05-17T14:14:42Z</time>
      </trkpt>
      <trkpt lat="43.22897" lon="5.94275">
        <ele>612.52484130859</ele>
        <time>2014-05-17T14:14:44Z</time>
      </trkpt>
      <trkpt lat="43.22897" lon="5.94274">
        <ele>612.51531982422</ele>
        <time>2014-05-17T14:14:49Z</time>
      </trkpt>
      <trkpt lat="43.22898" lon="5.94269">
        <ele>612.58508300781</ele>
        <time>2014-05-17T14:14:58Z</time>
      </trkpt>
      <trkpt lat="43.22902" lon="5.94264">
        <ele>612.72906494141</ele>
        <time>2014-05-17T14:15:00Z</time>
      </trkpt>
      <trkpt lat="43.2291" lon="5.94248">
        <ele>612.66168212891</ele>
        <time>2014-05-17T14:15:05Z</time>
      </trkpt>
      <trkpt lat="43.22912" lon="5.94241">
        <ele>612.48657226562</ele>
        <time>2014-05-17T14:15:07Z</time>
      </trkpt>
      <trkpt lat="43.22916" lon="5.94229">
        <ele>612.20159912109</ele>
        <time>2014-05-17T14:15:10Z</time>
      </trkpt>
      <trkpt lat="43.2292" lon="5.94222">
        <ele>612.23883056641</ele>
        <time>2014-05-17T14:15:12Z</time>
      </trkpt>
      <trkpt lat="43.22922" lon="5.94218">
        <ele>612.24224853516</ele>
        <time>2014-05-17T14:15:13Z</time>
      </trkpt>
      <trkpt lat="43.22924" lon="5.94214">
        <ele>612.28002929688</ele>
        <time>2014-05-17T14:15:14Z</time>
      </trkpt>
      <trkpt lat="43.22927" lon="5.94211">
        <ele>612.38470458984</ele>
        <time>2014-05-17T14:15:15Z</time>
      </trkpt>
      <trkpt lat="43.22945" lon="5.94192">
        <ele>612.97888183594</ele>
        <time>2014-05-17T14:15:21Z</time>
      </trkpt>
      <trkpt lat="43.22962" lon="5.9418">
        <ele>614.41223144531</ele>
        <time>2014-05-17T14:15:27Z</time>
      </trkpt>
      <trkpt lat="43.22965" lon="5.94178">
        <ele>614.61999511719</ele>
        <time>2014-05-17T14:15:28Z</time>
      </trkpt>
      <trkpt lat="43.22971" lon="5.94173">
        <ele>615.06286621094</ele>
        <time>2014-05-17T14:15:30Z</time>
      </trkpt>
      <trkpt lat="43.22976" lon="5.94167">
        <ele>615.43041992188</ele>
        <time>2014-05-17T14:15:32Z</time>
      </trkpt>
      <trkpt lat="43.22978" lon="5.94165">
        <ele>615.57098388672</ele>
        <time>2014-05-17T14:15:33Z</time>
      </trkpt>
      <trkpt lat="43.2298" lon="5.94162">
        <ele>615.71343994141</ele>
        <time>2014-05-17T14:15:34Z</time>
      </trkpt>
      <trkpt lat="43.22982" lon="5.94158">
        <ele>615.78723144531</ele>
        <time>2014-05-17T14:15:35Z</time>
      </trkpt>
      <trkpt lat="43.22985" lon="5.94151">
        <ele>615.83361816406</ele>
        <time>2014-05-17T14:15:37Z</time>
      </trkpt>
      <trkpt lat="43.22986" lon="5.94149">
        <ele>615.88165283203</ele>
        <time>2014-05-17T14:15:38Z</time>
      </trkpt>
      <trkpt lat="43.22988" lon="5.94146">
        <ele>615.99151611328</ele>
        <time>2014-05-17T14:15:42Z</time>
      </trkpt>
      <trkpt lat="43.22988" lon="5.94145">
        <ele>615.89025878906</ele>
        <time>2014-05-17T14:15:44Z</time>
      </trkpt>
      <trkpt lat="43.22987" lon="5.94143">
        <ele>615.78210449219</ele>
        <time>2014-05-17T14:15:46Z</time>
      </trkpt>
      <trkpt lat="43.22988" lon="5.94141">
        <ele>615.74432373047</ele>
        <time>2014-05-17T14:15:48Z</time>
      </trkpt>
      <trkpt lat="43.22988" lon="5.94137">
        <ele>615.59228515625</ele>
        <time>2014-05-17T14:15:51Z</time>
      </trkpt>
      <trkpt lat="43.22991" lon="5.94129">
        <ele>615.30389404297</ele>
        <time>2014-05-17T14:15:55Z</time>
      </trkpt>
      <trkpt lat="43.22993" lon="5.94125">
        <ele>615.26611328125</ele>
        <time>2014-05-17T14:15:57Z</time>
      </trkpt>
      <trkpt lat="43.22998" lon="5.94116">
        <ele>615.21801757812</ele>
        <time>2014-05-17T14:16:01Z</time>
      </trkpt>
      <trkpt lat="43.23" lon="5.94113">
        <ele>615.15625</ele>
        <time>2014-05-17T14:16:02Z</time>
      </trkpt>
      <trkpt lat="43.23002" lon="5.94104">
        <ele>614.97436523438</ele>
        <time>2014-05-17T14:16:04Z</time>
      </trkpt>
      <trkpt lat="43.23003" lon="5.94099">
        <ele>614.85766601562</ele>
        <time>2014-05-17T14:16:05Z</time>
      </trkpt>
      <trkpt lat="43.23006" lon="5.94088">
        <ele>614.78900146484</ele>
        <time>2014-05-17T14:16:08Z</time>
      </trkpt>
      <trkpt lat="43.23015" lon="5.94066">
        <ele>614.71429443359</ele>
        <time>2014-05-17T14:16:15Z</time>
      </trkpt>
      <trkpt lat="43.23022" lon="5.94057">
        <ele>615.31420898438</ele>
        <time>2014-05-17T14:16:19Z</time>
      </trkpt>
      <trkpt lat="43.23022" lon="5.94048">
        <ele>614.6650390625</ele>
        <time>2014-05-17T14:16:22Z</time>
      </trkpt>
      <trkpt lat="43.23022" lon="5.94039">
        <ele>614.13232421875</ele>
        <time>2014-05-17T14:16:24Z</time>
      </trkpt>
      <trkpt lat="43.23024" lon="5.94031">
        <ele>613.76715087891</ele>
        <time>2014-05-17T14:16:27Z</time>
      </trkpt>
      <trkpt lat="43.23024" lon="5.94027">
        <ele>613.61218261719</ele>
        <time>2014-05-17T14:16:32Z</time>
      </trkpt>
      <trkpt lat="43.23024" lon="5.94023">
        <ele>613.43365478516</ele>
        <time>2014-05-17T14:16:38Z</time>
      </trkpt>
      <trkpt lat="43.23023" lon="5.94018">
        <ele>613.17272949219</ele>
        <time>2014-05-17T14:16:43Z</time>
      </trkpt>
      <trkpt lat="43.23025" lon="5.94008">
        <ele>612.97875976562</ele>
        <time>2014-05-17T14:16:50Z</time>
      </trkpt>
      <trkpt lat="43.23024" lon="5.94002">
        <ele>612.65087890625</ele>
        <time>2014-05-17T14:16:55Z</time>
      </trkpt>
      <trkpt lat="43.23024" lon="5.93999">
        <ele>612.57293701172</ele>
        <time>2014-05-17T14:16:57Z</time>
      </trkpt>
      <trkpt lat="43.23024" lon="5.93998">
        <ele>612.51812744141</ele>
        <time>2014-05-17T14:17:00Z</time>
      </trkpt>
      <trkpt lat="43.23027" lon="5.93989">
        <ele>612.57012939453</ele>
        <time>2014-05-17T14:17:05Z</time>
      </trkpt>
      <trkpt lat="43.23031" lon="5.93975">
        <ele>612.48950195312</ele>
        <time>2014-05-17T14:17:09Z</time>
      </trkpt>
      <trkpt lat="43.2304" lon="5.93958">
        <ele>612.50341796875</ele>
        <time>2014-05-17T14:17:13Z</time>
      </trkpt>
      <trkpt lat="43.23044" lon="5.93948">
        <ele>612.50634765625</ele>
        <time>2014-05-17T14:17:15Z</time>
      </trkpt>
      <trkpt lat="43.23047" lon="5.93945">
        <ele>612.75946044922</ele>
        <time>2014-05-17T14:17:16Z</time>
      </trkpt>
      <trkpt lat="43.2305" lon="5.93941">
        <ele>613.02716064453</ele>
        <time>2014-05-17T14:17:17Z</time>
      </trkpt>
      <trkpt lat="43.23051" lon="5.93936">
        <ele>613.09973144531</ele>
        <time>2014-05-17T14:17:18Z</time>
      </trkpt>
      <trkpt lat="43.23053" lon="5.93921">
        <ele>612.91900634766</ele>
        <time>2014-05-17T14:17:21Z</time>
      </trkpt>
      <trkpt lat="43.23053" lon="5.9391">
        <ele>613.00708007812</ele>
        <time>2014-05-17T14:17:23Z</time>
      </trkpt>
      <trkpt lat="43.2305" lon="5.93887">
        <ele>613.44940185547</ele>
        <time>2014-05-17T14:17:28Z</time>
      </trkpt>
      <trkpt lat="43.23048" lon="5.93856">
        <ele>613.58520507812</ele>
        <time>2014-05-17T14:17:34Z</time>
      </trkpt>
      <trkpt lat="43.23046" lon="5.93843">
        <ele>613.71551513672</ele>
        <time>2014-05-17T14:17:37Z</time>
      </trkpt>
      <trkpt lat="43.23044" lon="5.93835">
        <ele>613.70281982422</ele>
        <time>2014-05-17T14:17:39Z</time>
      </trkpt>
      <trkpt lat="43.23042" lon="5.93811">
        <ele>613.91351318359</ele>
        <time>2014-05-17T14:17:45Z</time>
      </trkpt>
      <trkpt lat="43.23046" lon="5.93791">
        <ele>614.80084228516</ele>
        <time>2014-05-17T14:17:51Z</time>
      </trkpt>
      <trkpt lat="43.23051" lon="5.93764">
        <ele>615.77825927734</ele>
        <time>2014-05-17T14:17:58Z</time>
      </trkpt>
      <trkpt lat="43.23055" lon="5.93743">
        <ele>616.21105957031</ele>
        <time>2014-05-17T14:18:03Z</time>
      </trkpt>
      <trkpt lat="43.2306" lon="5.93729">
        <ele>616.8046875</ele>
        <time>2014-05-17T14:18:07Z</time>
      </trkpt>
      <trkpt lat="43.23063" lon="5.93716">
        <ele>617.05181884766</ele>
        <time>2014-05-17T14:18:10Z</time>
      </trkpt>
      <trkpt lat="43.23067" lon="5.93705">
        <ele>617.25402832031</ele>
        <time>2014-05-17T14:18:13Z</time>
      </trkpt>
      <trkpt lat="43.2307" lon="5.93684">
        <ele>617.52520751953</ele>
        <time>2014-05-17T14:18:18Z</time>
      </trkpt>
      <trkpt lat="43.23073" lon="5.93664">
        <ele>617.65667724609</ele>
        <time>2014-05-17T14:18:23Z</time>
      </trkpt>
      <trkpt lat="43.23071" lon="5.93648">
        <ele>617.86437988281</ele>
        <time>2014-05-17T14:18:27Z</time>
      </trkpt>
      <trkpt lat="43.23069" lon="5.93627">
        <ele>618</ele>
        <time>2014-05-17T14:18:31Z</time>
      </trkpt>
      <trkpt lat="43.23071" lon="5.93611">
        <ele>618</ele>
        <time>2014-05-17T14:18:34Z</time>
      </trkpt>
      <trkpt lat="43.23071" lon="5.93587">
        <ele>618.39031982422</ele>
        <time>2014-05-17T14:18:38Z</time>
      </trkpt>
      <trkpt lat="43.23072" lon="5.93577">
        <ele>618.54553222656</ele>
        <time>2014-05-17T14:18:40Z</time>
      </trkpt>
      <trkpt lat="43.23079" lon="5.93556">
        <ele>618.99298095703</ele>
        <time>2014-05-17T14:18:45Z</time>
      </trkpt>
      <trkpt lat="43.23091" lon="5.93535">
        <ele>619</ele>
        <time>2014-05-17T14:18:50Z</time>
      </trkpt>
      <trkpt lat="43.23098" lon="5.93519">
        <ele>619</ele>
        <time>2014-05-17T14:18:53Z</time>
      </trkpt>
      <trkpt lat="43.23103" lon="5.93509">
        <ele>619</ele>
        <time>2014-05-17T14:18:55Z</time>
      </trkpt>
      <trkpt lat="43.23113" lon="5.9349">
        <ele>619.41467285156</ele>
        <time>2014-05-17T14:19:00Z</time>
      </trkpt>
      <trkpt lat="43.23114" lon="5.93487">
        <ele>619.52862548828</ele>
        <time>2014-05-17T14:19:01Z</time>
      </trkpt>
      <trkpt lat="43.2312" lon="5.93475">
        <ele>619.9345703125</ele>
        <time>2014-05-17T14:19:05Z</time>
      </trkpt>
      <trkpt lat="43.2312" lon="5.93465">
        <ele>620</ele>
        <time>2014-05-17T14:19:09Z</time>
      </trkpt>
      <trkpt lat="43.2312" lon="5.93461">
        <ele>620</ele>
        <time>2014-05-17T14:19:14Z</time>
      </trkpt>
      <trkpt lat="43.2312" lon="5.93458">
        <ele>620</ele>
        <time>2014-05-17T14:19:20Z</time>
      </trkpt>
      <trkpt lat="43.2312" lon="5.93457">
        <ele>620</ele>
        <time>2014-05-17T14:19:27Z</time>
      </trkpt>
      <trkpt lat="43.2312" lon="5.93453">
        <ele>620</ele>
        <time>2014-05-17T14:19:31Z</time>
      </trkpt>
      <trkpt lat="43.23119" lon="5.93449">
        <ele>620</ele>
        <time>2014-05-17T14:19:33Z</time>
      </trkpt>
      <trkpt lat="43.23121" lon="5.93443">
        <ele>620</ele>
        <time>2014-05-17T14:19:38Z</time>
      </trkpt>
      <trkpt lat="43.23123" lon="5.9343">
        <ele>620</ele>
        <time>2014-05-17T14:19:43Z</time>
      </trkpt>
      <trkpt lat="43.2312" lon="5.93414">
        <ele>620</ele>
        <time>2014-05-17T14:19:48Z</time>
      </trkpt>
      <trkpt lat="43.23119" lon="5.93404">
        <ele>620</ele>
        <time>2014-05-17T14:19:50Z</time>
      </trkpt>
      <trkpt lat="43.23118" lon="5.93398">
        <ele>620</ele>
        <time>2014-05-17T14:19:51Z</time>
      </trkpt>
      <trkpt lat="43.23118" lon="5.93392">
        <ele>620</ele>
        <time>2014-05-17T14:19:52Z</time>
      </trkpt>
      <trkpt lat="43.23117" lon="5.93385">
        <ele>620</ele>
        <time>2014-05-17T14:19:53Z</time>
      </trkpt>
      <trkpt lat="43.23114" lon="5.93366">
        <ele>620</ele>
        <time>2014-05-17T14:19:57Z</time>
      </trkpt>
      <trkpt lat="43.23115" lon="5.93339">
        <ele>620</ele>
        <time>2014-05-17T14:20:02Z</time>
      </trkpt>
      <trkpt lat="43.2312" lon="5.93315">
        <ele>620</ele>
        <time>2014-05-17T14:20:06Z</time>
      </trkpt>
      <trkpt lat="43.23122" lon="5.9331">
        <ele>620</ele>
        <time>2014-05-17T14:20:07Z</time>
      </trkpt>
      <trkpt lat="43.23127" lon="5.93298">
        <ele>620</ele>
        <time>2014-05-17T14:20:09Z</time>
      </trkpt>
      <trkpt lat="43.23131" lon="5.93278">
        <ele>620</ele>
        <time>2014-05-17T14:20:12Z</time>
      </trkpt>
      <trkpt lat="43.23129" lon="5.9327">
        <ele>620.29248046875</ele>
        <time>2014-05-17T14:20:13Z</time>
      </trkpt>
      <trkpt lat="43.23132" lon="5.93257">
        <ele>620.54132080078</ele>
        <time>2014-05-17T14:20:16Z</time>
      </trkpt>
      <trkpt lat="43.23145" lon="5.93239">
        <ele>620</ele>
        <time>2014-05-17T14:20:21Z</time>
      </trkpt>
      <trkpt lat="43.23152" lon="5.93223">
        <ele>620</ele>
        <time>2014-05-17T14:20:24Z</time>
      </trkpt>
      <trkpt lat="43.23154" lon="5.93217">
        <ele>620</ele>
        <time>2014-05-17T14:20:25Z</time>
      </trkpt>
      <trkpt lat="43.23166" lon="5.93198">
        <ele>620</ele>
        <time>2014-05-17T14:20:29Z</time>
      </trkpt>
      <trkpt lat="43.2317" lon="5.93194">
        <ele>620</ele>
        <time>2014-05-17T14:20:30Z</time>
      </trkpt>
      <trkpt lat="43.23177" lon="5.93186">
        <ele>620</ele>
        <time>2014-05-17T14:20:32Z</time>
      </trkpt>
      <trkpt lat="43.23192" lon="5.93164">
        <ele>620</ele>
        <time>2014-05-17T14:20:38Z</time>
      </trkpt>
      <trkpt lat="43.23194" lon="5.9316">
        <ele>620</ele>
        <time>2014-05-17T14:20:39Z</time>
      </trkpt>
      <trkpt lat="43.23205" lon="5.93138">
        <ele>620</ele>
        <time>2014-05-17T14:20:44Z</time>
      </trkpt>
      <trkpt lat="43.23212" lon="5.93121">
        <ele>620</ele>
        <time>2014-05-17T14:20:48Z</time>
      </trkpt>
      <trkpt lat="43.23216" lon="5.93097">
        <ele>620</ele>
        <time>2014-05-17T14:20:52Z</time>
      </trkpt>
      <trkpt lat="43.23221" lon="5.93087">
        <ele>620</ele>
        <time>2014-05-17T14:20:54Z</time>
      </trkpt>
      <trkpt lat="43.23224" lon="5.93083">
        <ele>620</ele>
        <time>2014-05-17T14:20:55Z</time>
      </trkpt>
      <trkpt lat="43.23227" lon="5.93079">
        <ele>620</ele>
        <time>2014-05-17T14:20:56Z</time>
      </trkpt>
      <trkpt lat="43.2323" lon="5.93077">
        <ele>620</ele>
        <time>2014-05-17T14:20:57Z</time>
      </trkpt>
      <trkpt lat="43.23239" lon="5.93066">
        <ele>620</ele>
        <time>2014-05-17T14:21:00Z</time>
      </trkpt>
      <trkpt lat="43.23246" lon="5.9306">
        <ele>620</ele>
        <time>2014-05-17T14:21:02Z</time>
      </trkpt>
      <trkpt lat="43.23249" lon="5.9306">
        <ele>620</ele>
        <time>2014-05-17T14:21:03Z</time>
      </trkpt>
      <trkpt lat="43.23252" lon="5.9306">
        <ele>620</ele>
        <time>2014-05-17T14:21:06Z</time>
      </trkpt>
      <trkpt lat="43.23252" lon="5.93059">
        <ele>620</ele>
        <time>2014-05-17T14:21:10Z</time>
      </trkpt>
      <trkpt lat="43.23252" lon="5.93059">
        <ele>620</ele>
        <time>2014-05-17T14:21:17Z</time>
      </trkpt>
      <trkpt lat="43.23252" lon="5.93059">
        <ele>620</ele>
        <time>2014-05-17T14:21:19Z</time>
      </trkpt>
      <trkpt lat="43.23253" lon="5.93058">
        <ele>620</ele>
        <time>2014-05-17T14:21:24Z</time>
      </trkpt>
      <trkpt lat="43.23254" lon="5.93056">
        <ele>620</ele>
        <time>2014-05-17T14:21:25Z</time>
      </trkpt>
      <trkpt lat="43.23262" lon="5.93047">
        <ele>620</ele>
        <time>2014-05-17T14:21:28Z</time>
      </trkpt>
      <trkpt lat="43.23274" lon="5.93041">
        <ele>620</ele>
        <time>2014-05-17T14:21:32Z</time>
      </trkpt>
      <trkpt lat="43.23285" lon="5.93039">
        <ele>620</ele>
        <time>2014-05-17T14:21:35Z</time>
      </trkpt>
      <trkpt lat="43.23291" lon="5.93036">
        <ele>620</ele>
        <time>2014-05-17T14:21:37Z</time>
      </trkpt>
      <trkpt lat="43.23298" lon="5.93029">
        <ele>620</ele>
        <time>2014-05-17T14:21:40Z</time>
      </trkpt>
      <trkpt lat="43.23299" lon="5.93025">
        <ele>620</ele>
        <time>2014-05-17T14:21:41Z</time>
      </trkpt>
      <trkpt lat="43.23305" lon="5.93007">
        <ele>620</ele>
        <time>2014-05-17T14:21:45Z</time>
      </trkpt>
      <trkpt lat="43.23309" lon="5.93005">
        <ele>620</ele>
        <time>2014-05-17T14:21:46Z</time>
      </trkpt>
      <trkpt lat="43.23313" lon="5.93005">
        <ele>620</ele>
        <time>2014-05-17T14:21:47Z</time>
      </trkpt>
      <trkpt lat="43.23317" lon="5.93005">
        <ele>620</ele>
        <time>2014-05-17T14:21:48Z</time>
      </trkpt>
      <trkpt lat="43.2332" lon="5.93003">
        <ele>620</ele>
        <time>2014-05-17T14:21:49Z</time>
      </trkpt>
      <trkpt lat="43.23323" lon="5.93">
        <ele>620</ele>
        <time>2014-05-17T14:21:50Z</time>
      </trkpt>
      <trkpt lat="43.23325" lon="5.92996">
        <ele>620</ele>
        <time>2014-05-17T14:21:51Z</time>
      </trkpt>
      <trkpt lat="43.23336" lon="5.92986">
        <ele>620</ele>
        <time>2014-05-17T14:21:54Z</time>
      </trkpt>
      <trkpt lat="43.23354" lon="5.92974">
        <ele>620</ele>
        <time>2014-05-17T14:21:58Z</time>
      </trkpt>
      <trkpt lat="43.23366" lon="5.92964">
        <ele>620</ele>
        <time>2014-05-17T14:22:01Z</time>
      </trkpt>
      <trkpt lat="43.2337" lon="5.92953">
        <ele>620</ele>
        <time>2014-05-17T14:22:03Z</time>
      </trkpt>
      <trkpt lat="43.2338" lon="5.92939">
        <ele>620</ele>
        <time>2014-05-17T14:22:06Z</time>
      </trkpt>
      <trkpt lat="43.23394" lon="5.92935">
        <ele>620</ele>
        <time>2014-05-17T14:22:09Z</time>
      </trkpt>
      <trkpt lat="43.23408" lon="5.9293">
        <ele>620</ele>
        <time>2014-05-17T14:22:12Z</time>
      </trkpt>
      <trkpt lat="43.23418" lon="5.92926">
        <ele>620</ele>
        <time>2014-05-17T14:22:14Z</time>
      </trkpt>
      <trkpt lat="43.23426" lon="5.92918">
        <ele>620</ele>
        <time>2014-05-17T14:22:16Z</time>
      </trkpt>
      <trkpt lat="43.2343" lon="5.92913">
        <ele>620</ele>
        <time>2014-05-17T14:22:17Z</time>
      </trkpt>
      <trkpt lat="43.23435" lon="5.9291">
        <ele>620</ele>
        <time>2014-05-17T14:22:18Z</time>
      </trkpt>
      <trkpt lat="43.23438" lon="5.92908">
        <ele>620</ele>
        <time>2014-05-17T14:22:19Z</time>
      </trkpt>
      <trkpt lat="43.23442" lon="5.92907">
        <ele>620</ele>
        <time>2014-05-17T14:22:20Z</time>
      </trkpt>
      <trkpt lat="43.23449" lon="5.92901">
        <ele>620</ele>
        <time>2014-05-17T14:22:22Z</time>
      </trkpt>
      <trkpt lat="43.23452" lon="5.92896">
        <ele>620</ele>
        <time>2014-05-17T14:22:23Z</time>
      </trkpt>
      <trkpt lat="43.23458" lon="5.9289">
        <ele>620</ele>
        <time>2014-05-17T14:22:25Z</time>
      </trkpt>
      <trkpt lat="43.2346" lon="5.92888">
        <ele>620</ele>
        <time>2014-05-17T14:22:26Z</time>
      </trkpt>
      <trkpt lat="43.2346" lon="5.92888">
        <ele>620</ele>
        <time>2014-05-17T14:22:27Z</time>
      </trkpt>
      <trkpt lat="43.23462" lon="5.92886">
        <ele>620</ele>
        <time>2014-05-17T14:22:34Z</time>
      </trkpt>
      <trkpt lat="43.23468" lon="5.92874">
        <ele>620</ele>
        <time>2014-05-17T14:22:38Z</time>
      </trkpt>
      <trkpt lat="43.23483" lon="5.92858">
        <ele>620</ele>
        <time>2014-05-17T14:22:43Z</time>
      </trkpt>
      <trkpt lat="43.23492" lon="5.92847">
        <ele>620</ele>
        <time>2014-05-17T14:22:46Z</time>
      </trkpt>
      <trkpt lat="43.23496" lon="5.92841">
        <ele>620</ele>
        <time>2014-05-17T14:22:48Z</time>
      </trkpt>
      <trkpt lat="43.23502" lon="5.92829">
        <ele>620</ele>
        <time>2014-05-17T14:22:51Z</time>
      </trkpt>
      <trkpt lat="43.23506" lon="5.92819">
        <ele>620</ele>
        <time>2014-05-17T14:22:53Z</time>
      </trkpt>
      <trkpt lat="43.23509" lon="5.92814">
        <ele>620</ele>
        <time>2014-05-17T14:22:54Z</time>
      </trkpt>
      <trkpt lat="43.23512" lon="5.92808">
        <ele>620</ele>
        <time>2014-05-17T14:22:55Z</time>
      </trkpt>
      <trkpt lat="43.23516" lon="5.92802">
        <ele>620</ele>
        <time>2014-05-17T14:22:56Z</time>
      </trkpt>
      <trkpt lat="43.23519" lon="5.92795">
        <ele>620</ele>
        <time>2014-05-17T14:22:57Z</time>
      </trkpt>
      <trkpt lat="43.23523" lon="5.92787">
        <ele>620</ele>
        <time>2014-05-17T14:22:58Z</time>
      </trkpt>
      <trkpt lat="43.23526" lon="5.92779">
        <ele>620</ele>
        <time>2014-05-17T14:22:59Z</time>
      </trkpt>
      <trkpt lat="43.2353" lon="5.92771">
        <ele>620</ele>
        <time>2014-05-17T14:23:00Z</time>
      </trkpt>
      <trkpt lat="43.23534" lon="5.92763">
        <ele>620</ele>
        <time>2014-05-17T14:23:01Z</time>
      </trkpt>
      <trkpt lat="43.23538" lon="5.92757">
        <ele>620</ele>
        <time>2014-05-17T14:23:02Z</time>
      </trkpt>
      <trkpt lat="43.23555" lon="5.9273">
        <ele>620</ele>
        <time>2014-05-17T14:23:07Z</time>
      </trkpt>
      <trkpt lat="43.23567" lon="5.92717">
        <ele>620</ele>
        <time>2014-05-17T14:23:11Z</time>
      </trkpt>
      <trkpt lat="43.23569" lon="5.92715">
        <ele>620</ele>
        <time>2014-05-17T14:23:12Z</time>
      </trkpt>
      <trkpt lat="43.23571" lon="5.92709">
        <ele>620</ele>
        <time>2014-05-17T14:23:14Z</time>
      </trkpt>
      <trkpt lat="43.2357" lon="5.92707">
        <ele>620</ele>
        <time>2014-05-17T14:23:15Z</time>
      </trkpt>
      <trkpt lat="43.23566" lon="5.92702">
        <ele>620</ele>
        <time>2014-05-17T14:23:17Z</time>
      </trkpt>
      <trkpt lat="43.23563" lon="5.927">
        <ele>620</ele>
        <time>2014-05-17T14:23:18Z</time>
      </trkpt>
      <trkpt lat="43.23561" lon="5.92697">
        <ele>620</ele>
        <time>2014-05-17T14:23:19Z</time>
      </trkpt>
      <trkpt lat="43.23559" lon="5.92696">
        <ele>620</ele>
        <time>2014-05-17T14:23:20Z</time>
      </trkpt>
      <trkpt lat="43.23558" lon="5.92694">
        <ele>620</ele>
        <time>2014-05-17T14:23:21Z</time>
      </trkpt>
      <trkpt lat="43.23558" lon="5.92689">
        <ele>620</ele>
        <time>2014-05-17T14:23:23Z</time>
      </trkpt>
      <trkpt lat="43.23568" lon="5.92685">
        <ele>620</ele>
        <time>2014-05-17T14:23:28Z</time>
      </trkpt>
      <trkpt lat="43.23575" lon="5.92676">
        <ele>620</ele>
        <time>2014-05-17T14:23:33Z</time>
      </trkpt>
      <trkpt lat="43.23577" lon="5.92672">
        <ele>620</ele>
        <time>2014-05-17T14:23:35Z</time>
      </trkpt>
      <trkpt lat="43.23582" lon="5.92662">
        <ele>620</ele>
        <time>2014-05-17T14:23:40Z</time>
      </trkpt>
      <trkpt lat="43.23592" lon="5.92647">
        <ele>620</ele>
        <time>2014-05-17T14:23:46Z</time>
      </trkpt>
      <trkpt lat="43.23597" lon="5.92639">
        <ele>620</ele>
        <time>2014-05-17T14:23:50Z</time>
      </trkpt>
      <trkpt lat="43.23599" lon="5.92635">
        <ele>620</ele>
        <time>2014-05-17T14:23:52Z</time>
      </trkpt>
      <trkpt lat="43.23605" lon="5.92628">
        <ele>620</ele>
        <time>2014-05-17T14:23:57Z</time>
      </trkpt>
      <trkpt lat="43.2361" lon="5.92621">
        <ele>620</ele>
        <time>2014-05-17T14:24:01Z</time>
      </trkpt>
      <trkpt lat="43.23613" lon="5.92615">
        <ele>620</ele>
        <time>2014-05-17T14:24:04Z</time>
      </trkpt>
      <trkpt lat="43.23634" lon="5.92585">
        <ele>620</ele>
        <time>2014-05-17T14:24:18Z</time>
      </trkpt>
      <trkpt lat="43.23646" lon="5.92569">
        <ele>620</ele>
        <time>2014-05-17T14:24:25Z</time>
      </trkpt>
      <trkpt lat="43.23649" lon="5.92564">
        <ele>620</ele>
        <time>2014-05-17T14:24:27Z</time>
      </trkpt>
      <trkpt lat="43.23657" lon="5.92554">
        <ele>620</ele>
        <time>2014-05-17T14:24:32Z</time>
      </trkpt>
      <trkpt lat="43.23668" lon="5.92539">
        <ele>620.1787109375</ele>
        <time>2014-05-17T14:24:39Z</time>
      </trkpt>
      <trkpt lat="43.23676" lon="5.92529">
        <ele>621.33227539062</ele>
        <time>2014-05-17T14:24:44Z</time>
      </trkpt>
      <trkpt lat="43.23684" lon="5.92521">
        <ele>622.64495849609</ele>
        <time>2014-05-17T14:24:48Z</time>
      </trkpt>
      <trkpt lat="43.2369" lon="5.92513">
        <ele>623.86749267578</ele>
        <time>2014-05-17T14:24:51Z</time>
      </trkpt>
      <trkpt lat="43.23705" lon="5.925">
        <ele>627.66412353516</ele>
        <time>2014-05-17T14:24:57Z</time>
      </trkpt>
      <trkpt lat="43.23716" lon="5.92488">
        <ele>630.94372558594</ele>
        <time>2014-05-17T14:25:03Z</time>
      </trkpt>
      <trkpt lat="43.2373" lon="5.92478">
        <ele>633.58514404297</ele>
        <time>2014-05-17T14:25:10Z</time>
      </trkpt>
      <trkpt lat="43.23737" lon="5.92471">
        <ele>634.64916992188</ele>
        <time>2014-05-17T14:25:14Z</time>
      </trkpt>
      <trkpt lat="43.23745" lon="5.9246">
        <ele>635.99255371094</ele>
        <time>2014-05-17T14:25:19Z</time>
      </trkpt>
      <trkpt lat="43.23753" lon="5.92451">
        <ele>636.96502685547</ele>
        <time>2014-05-17T14:25:24Z</time>
      </trkpt>
      <trkpt lat="43.23756" lon="5.92447">
        <ele>637.37414550781</ele>
        <time>2014-05-17T14:25:27Z</time>
      </trkpt>
      <trkpt lat="43.23761" lon="5.9244">
        <ele>637.81848144531</ele>
        <time>2014-05-17T14:25:31Z</time>
      </trkpt>
      <trkpt lat="43.23764" lon="5.92437">
        <ele>637.98327636719</ele>
        <time>2014-05-17T14:25:33Z</time>
      </trkpt>
      <trkpt lat="43.23765" lon="5.92436">
        <ele>638.06567382812</ele>
        <time>2014-05-17T14:25:34Z</time>
      </trkpt>
      <trkpt lat="43.23771" lon="5.92421">
        <ele>638.47766113281</ele>
        <time>2014-05-17T14:25:41Z</time>
      </trkpt>
      <trkpt lat="43.23776" lon="5.92406">
        <ele>639.25695800781</ele>
        <time>2014-05-17T14:25:47Z</time>
      </trkpt>
      <trkpt lat="43.23779" lon="5.924">
        <ele>639.48638916016</ele>
        <time>2014-05-17T14:25:50Z</time>
      </trkpt>
      <trkpt lat="43.23789" lon="5.92387">
        <ele>638.00994873047</ele>
        <time>2014-05-17T14:25:59Z</time>
      </trkpt>
      <trkpt lat="43.2379" lon="5.92385">
        <ele>637.87261962891</ele>
        <time>2014-05-17T14:26:00Z</time>
      </trkpt>
      <trkpt lat="43.23795" lon="5.92381">
        <ele>636.84265136719</ele>
        <time>2014-05-17T14:26:05Z</time>
      </trkpt>
      <trkpt lat="43.23802" lon="5.92377">
        <ele>635.60668945312</ele>
        <time>2014-05-17T14:26:10Z</time>
      </trkpt>
      <trkpt lat="43.2381" lon="5.92373">
        <ele>634.40209960938</ele>
        <time>2014-05-17T14:26:17Z</time>
      </trkpt>
      <trkpt lat="43.23822" lon="5.9237">
        <ele>632.87377929688</ele>
        <time>2014-05-17T14:26:24Z</time>
      </trkpt>
      <trkpt lat="43.23828" lon="5.92368">
        <ele>631.96356201172</ele>
        <time>2014-05-17T14:26:28Z</time>
      </trkpt>
      <trkpt lat="43.23835" lon="5.92366">
        <ele>630.90545654297</ele>
        <time>2014-05-17T14:26:31Z</time>
      </trkpt>
      <trkpt lat="43.23844" lon="5.92363">
        <ele>629.14923095703</ele>
        <time>2014-05-17T14:26:34Z</time>
      </trkpt>
      <trkpt lat="43.23852" lon="5.92358">
        <ele>627.57580566406</ele>
        <time>2014-05-17T14:26:37Z</time>
      </trkpt>
      <trkpt lat="43.23855" lon="5.92356">
        <ele>626.86169433594</ele>
        <time>2014-05-17T14:26:40Z</time>
      </trkpt>
      <trkpt lat="43.23856" lon="5.92355">
        <ele>626.78271484375</ele>
        <time>2014-05-17T14:26:41Z</time>
      </trkpt>
      <trkpt lat="43.23856" lon="5.92355">
        <ele>626.78271484375</ele>
        <time>2014-05-17T14:26:59Z</time>
      </trkpt>
      <trkpt lat="43.23856" lon="5.92355">
        <ele>626.78271484375</ele>
        <time>2014-05-17T14:27:19Z</time>
      </trkpt>
      <trkpt lat="43.23855" lon="5.92355">
        <ele>626.8427734375</ele>
        <time>2014-05-17T14:27:26Z</time>
      </trkpt>
      <trkpt lat="43.23855" lon="5.92355">
        <ele>626.8427734375</ele>
        <time>2014-05-17T14:27:39Z</time>
      </trkpt>
      <trkpt lat="43.23856" lon="5.92355">
        <ele>626.78784179688</ele>
        <time>2014-05-17T14:28:23Z</time>
      </trkpt>
      <trkpt lat="43.23856" lon="5.92355">
        <ele>626.78784179688</ele>
        <time>2014-05-17T14:28:32Z</time>
      </trkpt>
      <trkpt lat="43.23859" lon="5.92353">
        <ele>626.13555908203</ele>
        <time>2014-05-17T14:28:35Z</time>
      </trkpt>
      <trkpt lat="43.23862" lon="5.92349">
        <ele>625.40612792969</ele>
        <time>2014-05-17T14:28:37Z</time>
      </trkpt>
      <trkpt lat="43.23874" lon="5.9234">
        <ele>623.79534912109</ele>
        <time>2014-05-17T14:28:41Z</time>
      </trkpt>
      <trkpt lat="43.23876" lon="5.92338">
        <ele>623.44183349609</ele>
        <time>2014-05-17T14:28:42Z</time>
      </trkpt>
      <trkpt lat="43.23879" lon="5.92335">
        <ele>623.06134033203</ele>
        <time>2014-05-17T14:28:43Z</time>
      </trkpt>
      <trkpt lat="43.23882" lon="5.92332">
        <ele>622.89428710938</ele>
        <time>2014-05-17T14:28:44Z</time>
      </trkpt>
      <trkpt lat="43.23884" lon="5.92329">
        <ele>622.98699951172</ele>
        <time>2014-05-17T14:28:45Z</time>
      </trkpt>
      <trkpt lat="43.23889" lon="5.92322">
        <ele>623.19299316406</ele>
        <time>2014-05-17T14:28:47Z</time>
      </trkpt>
      <trkpt lat="43.23895" lon="5.92317">
        <ele>622.97406005859</ele>
        <time>2014-05-17T14:28:50Z</time>
      </trkpt>
      <trkpt lat="43.23898" lon="5.92317">
        <ele>622.47241210938</ele>
        <time>2014-05-17T14:28:52Z</time>
      </trkpt>
      <trkpt lat="43.239" lon="5.92323">
        <ele>621.84350585938</ele>
        <time>2014-05-17T14:28:54Z</time>
      </trkpt>
      <trkpt lat="43.23899" lon="5.92329">
        <ele>621.56817626953</ele>
        <time>2014-05-17T14:28:56Z</time>
      </trkpt>
      <trkpt lat="43.23896" lon="5.92336">
        <ele>621.48986816406</ele>
        <time>2014-05-17T14:28:58Z</time>
      </trkpt>
      <trkpt lat="43.23889" lon="5.92361">
        <ele>622.02996826172</ele>
        <time>2014-05-17T14:29:04Z</time>
      </trkpt>
      <trkpt lat="43.2389" lon="5.92384">
        <ele>623.42834472656</ele>
        <time>2014-05-17T14:29:09Z</time>
      </trkpt>
      <trkpt lat="43.23901" lon="5.92395">
        <ele>621.73236083984</ele>
        <time>2014-05-17T14:29:13Z</time>
      </trkpt>
      <trkpt lat="43.2391" lon="5.92394">
        <ele>619.65240478516</ele>
        <time>2014-05-17T14:29:15Z</time>
      </trkpt>
      <trkpt lat="43.2392" lon="5.9239">
        <ele>617.94750976562</ele>
        <time>2014-05-17T14:29:17Z</time>
      </trkpt>
      <trkpt lat="43.23932" lon="5.92388">
        <ele>617.51293945312</ele>
        <time>2014-05-17T14:29:19Z</time>
      </trkpt>
      <trkpt lat="43.23949" lon="5.92389">
        <ele>617.00610351562</ele>
        <time>2014-05-17T14:29:22Z</time>
      </trkpt>
      <trkpt lat="43.23955" lon="5.92389">
        <ele>617.00415039062</ele>
        <time>2014-05-17T14:29:23Z</time>
      </trkpt>
      <trkpt lat="43.23972" lon="5.92387">
        <ele>617.05224609375</ele>
        <time>2014-05-17T14:29:26Z</time>
      </trkpt>
      <trkpt lat="43.23978" lon="5.92387">
        <ele>617.05737304688</ele>
        <time>2014-05-17T14:29:27Z</time>
      </trkpt>
      <trkpt lat="43.23997" lon="5.92389">
        <ele>617.00006103516</ele>
        <time>2014-05-17T14:29:30Z</time>
      </trkpt>
      <trkpt lat="43.24018" lon="5.92391">
        <ele>616.95446777344</ele>
        <time>2014-05-17T14:29:33Z</time>
      </trkpt>
      <trkpt lat="43.24036" lon="5.92391">
        <ele>616.93896484375</ele>
        <time>2014-05-17T14:29:36Z</time>
      </trkpt>
      <trkpt lat="43.24049" lon="5.92393">
        <ele>616.86511230469</ele>
        <time>2014-05-17T14:29:38Z</time>
      </trkpt>
      <trkpt lat="43.24071" lon="5.92394">
        <ele>616.81536865234</ele>
        <time>2014-05-17T14:29:41Z</time>
      </trkpt>
      <trkpt lat="43.24078" lon="5.92394">
        <ele>616.83251953125</ele>
        <time>2014-05-17T14:29:42Z</time>
      </trkpt>
      <trkpt lat="43.24092" lon="5.92392">
        <ele>616.87713623047</ele>
        <time>2014-05-17T14:29:44Z</time>
      </trkpt>
      <trkpt lat="43.24123" lon="5.92389">
        <ele>616.98358154297</ele>
        <time>2014-05-17T14:29:48Z</time>
      </trkpt>
      <trkpt lat="43.24137" lon="5.92387">
        <ele>617.05053710938</ele>
        <time>2014-05-17T14:29:50Z</time>
      </trkpt>
      <trkpt lat="43.24152" lon="5.92387">
        <ele>617.07629394531</ele>
        <time>2014-05-17T14:29:52Z</time>
      </trkpt>
      <trkpt lat="43.24159" lon="5.92386">
        <ele>617.08825683594</ele>
        <time>2014-05-17T14:29:53Z</time>
      </trkpt>
      <trkpt lat="43.24186" lon="5.92386">
        <ele>617.11749267578</ele>
        <time>2014-05-17T14:29:57Z</time>
      </trkpt>
      <trkpt lat="43.24204" lon="5.92381">
        <ele>617.28051757812</ele>
        <time>2014-05-17T14:30:00Z</time>
      </trkpt>
      <trkpt lat="43.24215" lon="5.92376">
        <ele>617.46765136719</ele>
        <time>2014-05-17T14:30:02Z</time>
      </trkpt>
      <trkpt lat="43.24237" lon="5.92367">
        <ele>616.02484130859</ele>
        <time>2014-05-17T14:30:06Z</time>
      </trkpt>
      <trkpt lat="43.24246" lon="5.92362">
        <ele>615.30517578125</ele>
        <time>2014-05-17T14:30:08Z</time>
      </trkpt>
      <trkpt lat="43.24253" lon="5.92357">
        <ele>614.61895751953</ele>
        <time>2014-05-17T14:30:10Z</time>
      </trkpt>
      <trkpt lat="43.24262" lon="5.9235">
        <ele>613.97497558594</ele>
        <time>2014-05-17T14:30:13Z</time>
      </trkpt>
      <trkpt lat="43.2427" lon="5.92339">
        <ele>614.60028076172</ele>
        <time>2014-05-17T14:30:17Z</time>
      </trkpt>
      <trkpt lat="43.24276" lon="5.92331">
        <ele>615.77819824219</ele>
        <time>2014-05-17T14:30:21Z</time>
      </trkpt>
      <trkpt lat="43.24285" lon="5.92321">
        <ele>617.76800537109</ele>
        <time>2014-05-17T14:30:26Z</time>
      </trkpt>
      <trkpt lat="43.24292" lon="5.92314">
        <ele>618.990234375</ele>
        <time>2014-05-17T14:30:30Z</time>
      </trkpt>
      <trkpt lat="43.24301" lon="5.92305">
        <ele>620.57568359375</ele>
        <time>2014-05-17T14:30:35Z</time>
      </trkpt>
      <trkpt lat="43.24304" lon="5.92303">
        <ele>620.685546875</ele>
        <time>2014-05-17T14:30:37Z</time>
      </trkpt>
      <trkpt lat="43.24316" lon="5.92295">
        <ele>621.86083984375</ele>
        <time>2014-05-17T14:30:43Z</time>
      </trkpt>
      <trkpt lat="43.24328" lon="5.92285">
        <ele>623.75769042969</ele>
        <time>2014-05-17T14:30:51Z</time>
      </trkpt>
      <trkpt lat="43.24333" lon="5.92282">
        <ele>624.18688964844</ele>
        <time>2014-05-17T14:30:54Z</time>
      </trkpt>
      <trkpt lat="43.24347" lon="5.92275">
        <ele>626.82012939453</ele>
        <time>2014-05-17T14:31:03Z</time>
      </trkpt>
      <trkpt lat="43.24352" lon="5.92271">
        <ele>628.1376953125</ele>
        <time>2014-05-17T14:31:06Z</time>
      </trkpt>
      <trkpt lat="43.24359" lon="5.92266">
        <ele>629.98022460938</ele>
        <time>2014-05-17T14:31:11Z</time>
      </trkpt>
      <trkpt lat="43.24377" lon="5.92254">
        <ele>633.107421875</ele>
        <time>2014-05-17T14:31:25Z</time>
      </trkpt>
      <trkpt lat="43.24386" lon="5.92248">
        <ele>634.4296875</ele>
        <time>2014-05-17T14:31:33Z</time>
      </trkpt>
      <trkpt lat="43.2439" lon="5.92246">
        <ele>634.83142089844</ele>
        <time>2014-05-17T14:31:36Z</time>
      </trkpt>
      <trkpt lat="43.24401" lon="5.92242">
        <ele>635.71716308594</ele>
        <time>2014-05-17T14:31:44Z</time>
      </trkpt>
      <trkpt lat="43.24405" lon="5.9224">
        <ele>636.0673828125</ele>
        <time>2014-05-17T14:31:47Z</time>
      </trkpt>
      <trkpt lat="43.2441" lon="5.92239">
        <ele>636.39697265625</ele>
        <time>2014-05-17T14:31:51Z</time>
      </trkpt>
      <trkpt lat="43.24421" lon="5.92235">
        <ele>637.08465576172</ele>
        <time>2014-05-17T14:31:57Z</time>
      </trkpt>
      <trkpt lat="43.24432" lon="5.9223">
        <ele>637.79528808594</ele>
        <time>2014-05-17T14:32:04Z</time>
      </trkpt>
      <trkpt lat="43.24441" lon="5.92225">
        <ele>638.59527587891</ele>
        <time>2014-05-17T14:32:11Z</time>
      </trkpt>
      <trkpt lat="43.24452" lon="5.92219">
        <ele>639.48187255859</ele>
        <time>2014-05-17T14:32:19Z</time>
      </trkpt>
      <trkpt lat="43.24461" lon="5.92215">
        <ele>640.01745605469</ele>
        <time>2014-05-17T14:32:25Z</time>
      </trkpt>
      <trkpt lat="43.24466" lon="5.92212">
        <ele>640.53247070312</ele>
        <time>2014-05-17T14:32:29Z</time>
      </trkpt>
      <trkpt lat="43.24469" lon="5.9221">
        <ele>640.77276611328</ele>
        <time>2014-05-17T14:32:31Z</time>
      </trkpt>
      <trkpt lat="43.2448" lon="5.92202">
        <ele>641.05480957031</ele>
        <time>2014-05-17T14:32:40Z</time>
      </trkpt>
      <trkpt lat="43.2449" lon="5.92196">
        <ele>640.87866210938</ele>
        <time>2014-05-17T14:32:48Z</time>
      </trkpt>
      <trkpt lat="43.24494" lon="5.92193">
        <ele>640.99658203125</ele>
        <time>2014-05-17T14:32:51Z</time>
      </trkpt>
      <trkpt lat="43.24497" lon="5.92191">
        <ele>641.13043212891</ele>
        <time>2014-05-17T14:32:54Z</time>
      </trkpt>
      <trkpt lat="43.24501" lon="5.92186">
        <ele>641.72692871094</ele>
        <time>2014-05-17T14:32:58Z</time>
      </trkpt>
      <trkpt lat="43.24503" lon="5.92184">
        <ele>642.04681396484</ele>
        <time>2014-05-17T14:33:01Z</time>
      </trkpt>
      <trkpt lat="43.2451" lon="5.92179">
        <ele>642.70635986328</ele>
        <time>2014-05-17T14:33:08Z</time>
      </trkpt>
      <trkpt lat="43.24516" lon="5.92178">
        <ele>642.71228027344</ele>
        <time>2014-05-17T14:33:13Z</time>
      </trkpt>
      <trkpt lat="43.24519" lon="5.92176">
        <ele>642.82336425781</ele>
        <time>2014-05-17T14:33:16Z</time>
      </trkpt>
      <trkpt lat="43.24526" lon="5.92174">
        <ele>642.80053710938</ele>
        <time>2014-05-17T14:33:21Z</time>
      </trkpt>
      <trkpt lat="43.24535" lon="5.92172">
        <ele>642.09899902344</ele>
        <time>2014-05-17T14:33:27Z</time>
      </trkpt>
      <trkpt lat="43.24551" lon="5.92166">
        <ele>640.76123046875</ele>
        <time>2014-05-17T14:33:36Z</time>
      </trkpt>
      <trkpt lat="43.24563" lon="5.92161">
        <ele>639.90600585938</ele>
        <time>2014-05-17T14:33:43Z</time>
      </trkpt>
      <trkpt lat="43.24581" lon="5.92155">
        <ele>637.5458984375</ele>
        <time>2014-05-17T14:33:52Z</time>
      </trkpt>
      <trkpt lat="43.24589" lon="5.92151">
        <ele>637.10986328125</ele>
        <time>2014-05-17T14:33:57Z</time>
      </trkpt>
      <trkpt lat="43.24598" lon="5.92148">
        <ele>636.83001708984</ele>
        <time>2014-05-17T14:34:02Z</time>
      </trkpt>
      <trkpt lat="43.24599" lon="5.92147">
        <ele>636.80944824219</ele>
        <time>2014-05-17T14:34:03Z</time>
      </trkpt>
      <trkpt lat="43.24611" lon="5.92145">
        <ele>635.90307617188</ele>
        <time>2014-05-17T14:34:08Z</time>
      </trkpt>
      <trkpt lat="43.24612" lon="5.92145">
        <ele>635.66070556641</ele>
        <time>2014-05-17T14:34:11Z</time>
      </trkpt>
      <trkpt lat="43.24612" lon="5.92145">
        <ele>635.66070556641</ele>
        <time>2014-05-17T14:34:31Z</time>
      </trkpt>
      <trkpt lat="43.24612" lon="5.92145">
        <ele>635.66070556641</ele>
        <time>2014-05-17T14:34:46Z</time>
      </trkpt>
      <trkpt lat="43.24612" lon="5.92145">
        <ele>635.71221923828</ele>
        <time>2014-05-17T14:34:50Z</time>
      </trkpt>
      <trkpt lat="43.24612" lon="5.92145">
        <ele>635.71221923828</ele>
        <time>2014-05-17T14:35:07Z</time>
      </trkpt>
      <trkpt lat="43.24612" lon="5.92145">
        <ele>635.71221923828</ele>
        <time>2014-05-17T14:35:30Z</time>
      </trkpt>
      <trkpt lat="43.24614" lon="5.92147">
        <ele>634.90539550781</ele>
        <time>2014-05-17T14:35:31Z</time>
      </trkpt>
      <trkpt lat="43.2462" lon="5.92152">
        <ele>633.08575439453</ele>
        <time>2014-05-17T14:35:34Z</time>
      </trkpt>
      <trkpt lat="43.24622" lon="5.92152">
        <ele>632.71667480469</ele>
        <time>2014-05-17T14:35:35Z</time>
      </trkpt>
      <trkpt lat="43.24633" lon="5.92155">
        <ele>630.17614746094</ele>
        <time>2014-05-17T14:35:40Z</time>
      </trkpt>
      <trkpt lat="43.2465" lon="5.92149">
        <ele>628.47888183594</ele>
        <time>2014-05-17T14:35:45Z</time>
      </trkpt>
      <trkpt lat="43.24653" lon="5.92145">
        <ele>628.72589111328</ele>
        <time>2014-05-17T14:35:46Z</time>
      </trkpt>
      <trkpt lat="43.2466" lon="5.92138">
        <ele>629.08941650391</ele>
        <time>2014-05-17T14:35:49Z</time>
      </trkpt>
      <trkpt lat="43.24661" lon="5.92137">
        <ele>629.05853271484</ele>
        <time>2014-05-17T14:35:50Z</time>
      </trkpt>
      <trkpt lat="43.24663" lon="5.92136">
        <ele>628.81646728516</ele>
        <time>2014-05-17T14:35:52Z</time>
      </trkpt>
      <trkpt lat="43.24663" lon="5.92136">
        <ele>628.86798095703</ele>
        <time>2014-05-17T14:35:53Z</time>
      </trkpt>
      <trkpt lat="43.24665" lon="5.92132">
        <ele>628.94348144531</ele>
        <time>2014-05-17T14:35:55Z</time>
      </trkpt>
      <trkpt lat="43.2467" lon="5.92128">
        <ele>628.69213867188</ele>
        <time>2014-05-17T14:35:58Z</time>
      </trkpt>
      <trkpt lat="43.24672" lon="5.92127">
        <ele>628.59118652344</ele>
        <time>2014-05-17T14:35:59Z</time>
      </trkpt>
      <trkpt lat="43.24673" lon="5.92127">
        <ele>628.52056884766</ele>
        <time>2014-05-17T14:36:00Z</time>
      </trkpt>
      <trkpt lat="43.24673" lon="5.92127">
        <ele>628.54266357422</ele>
        <time>2014-05-17T14:36:01Z</time>
      </trkpt>
      <trkpt lat="43.24673" lon="5.92126">
        <ele>628.48937988281</ele>
        <time>2014-05-17T14:36:02Z</time>
      </trkpt>
      <trkpt lat="43.24676" lon="5.92126">
        <ele>628.24584960938</ele>
        <time>2014-05-17T14:36:10Z</time>
      </trkpt>
      <trkpt lat="43.24682" lon="5.9212">
        <ele>628.16955566406</ele>
        <time>2014-05-17T14:36:14Z</time>
      </trkpt>
      <trkpt lat="43.24684" lon="5.92118">
        <ele>628.20306396484</ele>
        <time>2014-05-17T14:36:15Z</time>
      </trkpt>
      <trkpt lat="43.2469" lon="5.92115">
        <ele>627.91162109375</ele>
        <time>2014-05-17T14:36:17Z</time>
      </trkpt>
      <trkpt lat="43.24693" lon="5.92113">
        <ele>627.82482910156</ele>
        <time>2014-05-17T14:36:18Z</time>
      </trkpt>
      <trkpt lat="43.24699" lon="5.92108">
        <ele>627.30493164062</ele>
        <time>2014-05-17T14:36:20Z</time>
      </trkpt>
      <trkpt lat="43.24702" lon="5.92106">
        <ele>626.83551025391</ele>
        <time>2014-05-17T14:36:21Z</time>
      </trkpt>
      <trkpt lat="43.24705" lon="5.92103">
        <ele>626.50939941406</ele>
        <time>2014-05-17T14:36:22Z</time>
      </trkpt>
      <trkpt lat="43.24715" lon="5.92096">
        <ele>625.11346435547</ele>
        <time>2014-05-17T14:36:26Z</time>
      </trkpt>
      <trkpt lat="43.24718" lon="5.92093">
        <ele>625.02673339844</ele>
        <time>2014-05-17T14:36:27Z</time>
      </trkpt>
      <trkpt lat="43.24721" lon="5.9209">
        <ele>625.00408935547</ele>
        <time>2014-05-17T14:36:29Z</time>
      </trkpt>
      <trkpt lat="43.24724" lon="5.92085">
        <ele>625.42529296875</ele>
        <time>2014-05-17T14:36:31Z</time>
      </trkpt>
      <trkpt lat="43.24736" lon="5.92071">
        <ele>626.59240722656</ele>
        <time>2014-05-17T14:36:35Z</time>
      </trkpt>
      <trkpt lat="43.24739" lon="5.92069">
        <ele>626.6748046875</ele>
        <time>2014-05-17T14:36:36Z</time>
      </trkpt>
      <trkpt lat="43.24744" lon="5.92066">
        <ele>626.63708496094</ele>
        <time>2014-05-17T14:36:37Z</time>
      </trkpt>
      <trkpt lat="43.2475" lon="5.92062">
        <ele>626.62445068359</ele>
        <time>2014-05-17T14:36:38Z</time>
      </trkpt>
      <trkpt lat="43.24754" lon="5.92059">
        <ele>625.77471923828</ele>
        <time>2014-05-17T14:36:39Z</time>
      </trkpt>
      <trkpt lat="43.24762" lon="5.92055">
        <ele>624.49005126953</ele>
        <time>2014-05-17T14:36:41Z</time>
      </trkpt>
      <trkpt lat="43.24771" lon="5.92053">
        <ele>622.25823974609</ele>
        <time>2014-05-17T14:36:43Z</time>
      </trkpt>
      <trkpt lat="43.24776" lon="5.92051">
        <ele>621.19537353516</ele>
        <time>2014-05-17T14:36:44Z</time>
      </trkpt>
      <trkpt lat="43.24785" lon="5.92046">
        <ele>618.58990478516</ele>
        <time>2014-05-17T14:36:46Z</time>
      </trkpt>
      <trkpt lat="43.24796" lon="5.92042">
        <ele>614.65393066406</ele>
        <time>2014-05-17T14:36:49Z</time>
      </trkpt>
      <trkpt lat="43.24814" lon="5.92028">
        <ele>611.66387939453</ele>
        <time>2014-05-17T14:36:54Z</time>
      </trkpt>
      <trkpt lat="43.2483" lon="5.92015">
        <ele>612.525390625</ele>
        <time>2014-05-17T14:37:00Z</time>
      </trkpt>
      <trkpt lat="43.24842" lon="5.9201">
        <ele>611.57336425781</ele>
        <time>2014-05-17T14:37:04Z</time>
      </trkpt>
      <trkpt lat="43.24846" lon="5.92007">
        <ele>611.62329101562</ele>
        <time>2014-05-17T14:37:05Z</time>
      </trkpt>
      <trkpt lat="43.24849" lon="5.92005">
        <ele>611.50634765625</ele>
        <time>2014-05-17T14:37:06Z</time>
      </trkpt>
      <trkpt lat="43.24852" lon="5.92003">
        <ele>611.33685302734</ele>
        <time>2014-05-17T14:37:07Z</time>
      </trkpt>
      <trkpt lat="43.24869" lon="5.91996">
        <ele>609.07446289062</ele>
        <time>2014-05-17T14:37:12Z</time>
      </trkpt>
      <trkpt lat="43.24897" lon="5.91982">
        <ele>607.64959716797</ele>
        <time>2014-05-17T14:37:19Z</time>
      </trkpt>
      <trkpt lat="43.24904" lon="5.91977">
        <ele>608.97186279297</ele>
        <time>2014-05-17T14:37:21Z</time>
      </trkpt>
      <trkpt lat="43.24928" lon="5.91958">
        <ele>613.65057373047</ele>
        <time>2014-05-17T14:37:27Z</time>
      </trkpt>
      <trkpt lat="43.24936" lon="5.91951">
        <ele>615.42803955078</ele>
        <time>2014-05-17T14:37:29Z</time>
      </trkpt>
      <trkpt lat="43.24945" lon="5.91946">
        <ele>616.98425292969</ele>
        <time>2014-05-17T14:37:31Z</time>
      </trkpt>
      <trkpt lat="43.24949" lon="5.91943">
        <ele>617.29284667969</ele>
        <time>2014-05-17T14:37:32Z</time>
      </trkpt>
      <trkpt lat="43.24954" lon="5.91939">
        <ele>617.70141601562</ele>
        <time>2014-05-17T14:37:33Z</time>
      </trkpt>
      <trkpt lat="43.24958" lon="5.91935">
        <ele>618.17517089844</ele>
        <time>2014-05-17T14:37:34Z</time>
      </trkpt>
      <trkpt lat="43.24962" lon="5.91931">
        <ele>618.57690429688</ele>
        <time>2014-05-17T14:37:35Z</time>
      </trkpt>
      <trkpt lat="43.24972" lon="5.91929">
        <ele>619.13305664062</ele>
        <time>2014-05-17T14:37:37Z</time>
      </trkpt>
      <trkpt lat="43.24977" lon="5.91928">
        <ele>619.61541748047</ele>
        <time>2014-05-17T14:37:38Z</time>
      </trkpt>
      <trkpt lat="43.24981" lon="5.91928">
        <ele>619.97991943359</ele>
        <time>2014-05-17T14:37:39Z</time>
      </trkpt>
      <trkpt lat="43.24984" lon="5.91928">
        <ele>620.24310302734</ele>
        <time>2014-05-17T14:37:40Z</time>
      </trkpt>
      <trkpt lat="43.24986" lon="5.9193">
        <ele>620.3349609375</ele>
        <time>2014-05-17T14:37:41Z</time>
      </trkpt>
      <trkpt lat="43.24986" lon="5.91929">
        <ele>620.36071777344</ele>
        <time>2014-05-17T14:37:44Z</time>
      </trkpt>
      <trkpt lat="43.24986" lon="5.91929">
        <ele>620.36071777344</ele>
        <time>2014-05-17T14:37:49Z</time>
      </trkpt>
      <trkpt lat="43.24986" lon="5.91929">
        <ele>620.36071777344</ele>
        <time>2014-05-17T14:37:52Z</time>
      </trkpt>
      <trkpt lat="43.24986" lon="5.91931">
        <ele>620.26184082031</ele>
        <time>2014-05-17T14:37:53Z</time>
      </trkpt>
      <trkpt lat="43.24986" lon="5.91943">
        <ele>619.07012939453</ele>
        <time>2014-05-17T14:37:57Z</time>
      </trkpt>
      <trkpt lat="43.24973" lon="5.91958">
        <ele>617.54681396484</ele>
        <time>2014-05-17T14:38:01Z</time>
      </trkpt>
      <trkpt lat="43.24969" lon="5.9196">
        <ele>617.30700683594</ele>
        <time>2014-05-17T14:38:02Z</time>
      </trkpt>
      <trkpt lat="43.24966" lon="5.91961">
        <ele>617.16455078125</ele>
        <time>2014-05-17T14:38:03Z</time>
      </trkpt>
      <trkpt lat="43.24963" lon="5.91963">
        <ele>617.02893066406</ele>
        <time>2014-05-17T14:38:04Z</time>
      </trkpt>
      <trkpt lat="43.24961" lon="5.91965">
        <ele>616.86926269531</ele>
        <time>2014-05-17T14:38:05Z</time>
      </trkpt>
      <trkpt lat="43.24959" lon="5.91966">
        <ele>616.72509765625</ele>
        <time>2014-05-17T14:38:06Z</time>
      </trkpt>
      <trkpt lat="43.24957" lon="5.91968">
        <ele>616.61694335938</ele>
        <time>2014-05-17T14:38:07Z</time>
      </trkpt>
      <trkpt lat="43.24953" lon="5.91969">
        <ele>616.44696044922</ele>
        <time>2014-05-17T14:38:08Z</time>
      </trkpt>
      <trkpt lat="43.24947" lon="5.91977">
        <ele>615.75915527344</ele>
        <time>2014-05-17T14:38:10Z</time>
      </trkpt>
      <trkpt lat="43.24944" lon="5.91987">
        <ele>614.67651367188</ele>
        <time>2014-05-17T14:38:12Z</time>
      </trkpt>
      <trkpt lat="43.24942" lon="5.91991">
        <ele>613.90374755859</ele>
        <time>2014-05-17T14:38:13Z</time>
      </trkpt>
      <trkpt lat="43.24937" lon="5.92012">
        <ele>610.08233642578</ele>
        <time>2014-05-17T14:38:19Z</time>
      </trkpt>
      <trkpt lat="43.24935" lon="5.92017">
        <ele>608.88653564453</ele>
        <time>2014-05-17T14:38:20Z</time>
      </trkpt>
      <trkpt lat="43.24928" lon="5.92028">
        <ele>604.98211669922</ele>
        <time>2014-05-17T14:38:23Z</time>
      </trkpt>
      <trkpt lat="43.24927" lon="5.92034">
        <ele>604.04827880859</ele>
        <time>2014-05-17T14:38:24Z</time>
      </trkpt>
      <trkpt lat="43.24926" lon="5.92041">
        <ele>602.90502929688</ele>
        <time>2014-05-17T14:38:25Z</time>
      </trkpt>
      <trkpt lat="43.24921" lon="5.92061">
        <ele>599.48852539062</ele>
        <time>2014-05-17T14:38:28Z</time>
      </trkpt>
      <trkpt lat="43.24913" lon="5.92084">
        <ele>594.84301757812</ele>
        <time>2014-05-17T14:38:32Z</time>
      </trkpt>
      <trkpt lat="43.2491" lon="5.92096">
        <ele>593.84399414062</ele>
        <time>2014-05-17T14:38:34Z</time>
      </trkpt>
      <trkpt lat="43.24901" lon="5.92132">
        <ele>590.90856933594</ele>
        <time>2014-05-17T14:38:40Z</time>
      </trkpt>
      <trkpt lat="43.249" lon="5.92138">
        <ele>590.41760253906</ele>
        <time>2014-05-17T14:38:41Z</time>
      </trkpt>
      <trkpt lat="43.24895" lon="5.92153">
        <ele>588.81524658203</ele>
        <time>2014-05-17T14:38:44Z</time>
      </trkpt>
      <trkpt lat="43.24891" lon="5.9217">
        <ele>586.92810058594</ele>
        <time>2014-05-17T14:38:47Z</time>
      </trkpt>
      <trkpt lat="43.2489" lon="5.92174">
        <ele>586.52575683594</ele>
        <time>2014-05-17T14:38:48Z</time>
      </trkpt>
      <trkpt lat="43.2489" lon="5.92178">
        <ele>586.25030517578</ele>
        <time>2014-05-17T14:38:49Z</time>
      </trkpt>
      <trkpt lat="43.24889" lon="5.92182">
        <ele>585.84191894531</ele>
        <time>2014-05-17T14:38:50Z</time>
      </trkpt>
      <trkpt lat="43.24889" lon="5.92188">
        <ele>585.48400878906</ele>
        <time>2014-05-17T14:38:51Z</time>
      </trkpt>
      <trkpt lat="43.2489" lon="5.92193">
        <ele>585.15197753906</ele>
        <time>2014-05-17T14:38:52Z</time>
      </trkpt>
      <trkpt lat="43.2489" lon="5.92197">
        <ele>584.82379150391</ele>
        <time>2014-05-17T14:38:53Z</time>
      </trkpt>
      <trkpt lat="43.24886" lon="5.92215">
        <ele>582.84130859375</ele>
        <time>2014-05-17T14:38:57Z</time>
      </trkpt>
      <trkpt lat="43.24886" lon="5.9222">
        <ele>582.33312988281</ele>
        <time>2014-05-17T14:38:58Z</time>
      </trkpt>
      <trkpt lat="43.24884" lon="5.92225">
        <ele>581.57989501953</ele>
        <time>2014-05-17T14:38:59Z</time>
      </trkpt>
      <trkpt lat="43.24884" lon="5.92231">
        <ele>580.72845458984</ele>
        <time>2014-05-17T14:39:00Z</time>
      </trkpt>
      <trkpt lat="43.24883" lon="5.92238">
        <ele>579.71392822266</ele>
        <time>2014-05-17T14:39:01Z</time>
      </trkpt>
      <trkpt lat="43.24878" lon="5.92259">
        <ele>576.04821777344</ele>
        <time>2014-05-17T14:39:04Z</time>
      </trkpt>
      <trkpt lat="43.24878" lon="5.92265">
        <ele>575.38806152344</ele>
        <time>2014-05-17T14:39:05Z</time>
      </trkpt>
      <trkpt lat="43.24879" lon="5.92276">
        <ele>574.15710449219</ele>
        <time>2014-05-17T14:39:08Z</time>
      </trkpt>
      <trkpt lat="43.2488" lon="5.92278">
        <ele>574.0322265625</ele>
        <time>2014-05-17T14:39:09Z</time>
      </trkpt>
      <trkpt lat="43.24882" lon="5.92284">
        <ele>573.8779296875</ele>
        <time>2014-05-17T14:39:12Z</time>
      </trkpt>
      <trkpt lat="43.24881" lon="5.92289">
        <ele>573.26062011719</ele>
        <time>2014-05-17T14:39:14Z</time>
      </trkpt>
      <trkpt lat="43.24881" lon="5.92292">
        <ele>572.90887451172</ele>
        <time>2014-05-17T14:39:15Z</time>
      </trkpt>
      <trkpt lat="43.2488" lon="5.92295">
        <ele>572.44427490234</ele>
        <time>2014-05-17T14:39:16Z</time>
      </trkpt>
      <trkpt lat="43.24879" lon="5.92299">
        <ele>571.86853027344</ele>
        <time>2014-05-17T14:39:17Z</time>
      </trkpt>
      <trkpt lat="43.24878" lon="5.92306">
        <ele>570.93896484375</ele>
        <time>2014-05-17T14:39:19Z</time>
      </trkpt>
      <trkpt lat="43.24876" lon="5.92311">
        <ele>570.00183105469</ele>
        <time>2014-05-17T14:39:21Z</time>
      </trkpt>
      <trkpt lat="43.24877" lon="5.92313">
        <ele>569.96752929688</ele>
        <time>2014-05-17T14:39:22Z</time>
      </trkpt>
      <trkpt lat="43.24875" lon="5.92323">
        <ele>568.36474609375</ele>
        <time>2014-05-17T14:39:28Z</time>
      </trkpt>
      <trkpt lat="43.24874" lon="5.92328">
        <ele>567.54516601562</ele>
        <time>2014-05-17T14:39:30Z</time>
      </trkpt>
      <trkpt lat="43.24873" lon="5.92336">
        <ele>566.33258056641</ele>
        <time>2014-05-17T14:39:32Z</time>
      </trkpt>
      <trkpt lat="43.24871" lon="5.92345">
        <ele>565.08923339844</ele>
        <time>2014-05-17T14:39:34Z</time>
      </trkpt>
      <trkpt lat="43.24868" lon="5.92355">
        <ele>563.40264892578</ele>
        <time>2014-05-17T14:39:36Z</time>
      </trkpt>
      <trkpt lat="43.24866" lon="5.92361">
        <ele>562.58776855469</ele>
        <time>2014-05-17T14:39:37Z</time>
      </trkpt>
      <trkpt lat="43.2486" lon="5.92375">
        <ele>560.94000244141</ele>
        <time>2014-05-17T14:39:40Z</time>
      </trkpt>
      <trkpt lat="43.24858" lon="5.92378">
        <ele>560.35968017578</ele>
        <time>2014-05-17T14:39:41Z</time>
      </trkpt>
      <trkpt lat="43.24857" lon="5.92382">
        <ele>559.89697265625</ele>
        <time>2014-05-17T14:39:42Z</time>
      </trkpt>
      <trkpt lat="43.24852" lon="5.92386">
        <ele>559.00939941406</ele>
        <time>2014-05-17T14:39:44Z</time>
      </trkpt>
      <trkpt lat="43.24848" lon="5.92392">
        <ele>557.53668212891</ele>
        <time>2014-05-17T14:39:46Z</time>
      </trkpt>
      <trkpt lat="43.24846" lon="5.92394">
        <ele>556.94787597656</ele>
        <time>2014-05-17T14:39:47Z</time>
      </trkpt>
      <trkpt lat="43.24844" lon="5.92397">
        <ele>556.14617919922</ele>
        <time>2014-05-17T14:39:48Z</time>
      </trkpt>
      <trkpt lat="43.24838" lon="5.92403">
        <ele>554.11199951172</ele>
        <time>2014-05-17T14:39:50Z</time>
      </trkpt>
      <trkpt lat="43.24836" lon="5.92407">
        <ele>553.16442871094</ele>
        <time>2014-05-17T14:39:51Z</time>
      </trkpt>
      <trkpt lat="43.24835" lon="5.92409">
        <ele>552.58764648438</ele>
        <time>2014-05-17T14:39:52Z</time>
      </trkpt>
      <trkpt lat="43.24831" lon="5.92422">
        <ele>550.17687988281</ele>
        <time>2014-05-17T14:39:56Z</time>
      </trkpt>
      <trkpt lat="43.2483" lon="5.92425">
        <ele>549.67755126953</ele>
        <time>2014-05-17T14:39:57Z</time>
      </trkpt>
      <trkpt lat="43.24829" lon="5.92428">
        <ele>549.16802978516</ele>
        <time>2014-05-17T14:39:58Z</time>
      </trkpt>
      <trkpt lat="43.24826" lon="5.92433">
        <ele>548.43310546875</ele>
        <time>2014-05-17T14:39:59Z</time>
      </trkpt>
      <trkpt lat="43.2482" lon="5.92446">
        <ele>546.40631103516</ele>
        <time>2014-05-17T14:40:02Z</time>
      </trkpt>
      <trkpt lat="43.24817" lon="5.92451">
        <ele>545.48754882812</ele>
        <time>2014-05-17T14:40:03Z</time>
      </trkpt>
      <trkpt lat="43.24815" lon="5.92455">
        <ele>544.80218505859</ele>
        <time>2014-05-17T14:40:04Z</time>
      </trkpt>
      <trkpt lat="43.24813" lon="5.92459">
        <ele>544.09753417969</ele>
        <time>2014-05-17T14:40:05Z</time>
      </trkpt>
      <trkpt lat="43.24812" lon="5.92465">
        <ele>543.34454345703</ele>
        <time>2014-05-17T14:40:06Z</time>
      </trkpt>
      <trkpt lat="43.2481" lon="5.92475">
        <ele>542.04290771484</ele>
        <time>2014-05-17T14:40:08Z</time>
      </trkpt>
      <trkpt lat="43.24809" lon="5.92478">
        <ele>541.61151123047</ele>
        <time>2014-05-17T14:40:09Z</time>
      </trkpt>
      <trkpt lat="43.24806" lon="5.92483">
        <ele>540.85382080078</ele>
        <time>2014-05-17T14:40:11Z</time>
      </trkpt>
      <trkpt lat="43.24804" lon="5.92486">
        <ele>540.34350585938</ele>
        <time>2014-05-17T14:40:12Z</time>
      </trkpt>
      <trkpt lat="43.24803" lon="5.92488">
        <ele>539.96051025391</ele>
        <time>2014-05-17T14:40:13Z</time>
      </trkpt>
      <trkpt lat="43.24798" lon="5.92496">
        <ele>538.39288330078</ele>
        <time>2014-05-17T14:40:17Z</time>
      </trkpt>
      <trkpt lat="43.24798" lon="5.92503">
        <ele>537.47479248047</ele>
        <time>2014-05-17T14:40:19Z</time>
      </trkpt>
      <trkpt lat="43.24798" lon="5.92511">
        <ele>536.51513671875</ele>
        <time>2014-05-17T14:40:21Z</time>
      </trkpt>
      <trkpt lat="43.24798" lon="5.92514">
        <ele>536.08551025391</ele>
        <time>2014-05-17T14:40:22Z</time>
      </trkpt>
      <trkpt lat="43.248" lon="5.92529">
        <ele>534.23986816406</ele>
        <time>2014-05-17T14:40:27Z</time>
      </trkpt>
      <trkpt lat="43.24802" lon="5.92535">
        <ele>533.33093261719</ele>
        <time>2014-05-17T14:40:29Z</time>
      </trkpt>
      <trkpt lat="43.24806" lon="5.9254">
        <ele>532.75384521484</ele>
        <time>2014-05-17T14:40:31Z</time>
      </trkpt>
      <trkpt lat="43.24809" lon="5.92543">
        <ele>532.30065917969</ele>
        <time>2014-05-17T14:40:32Z</time>
      </trkpt>
      <trkpt lat="43.24811" lon="5.92545">
        <ele>532.0654296875</ele>
        <time>2014-05-17T14:40:33Z</time>
      </trkpt>
      <trkpt lat="43.24813" lon="5.92547">
        <ele>531.81823730469</ele>
        <time>2014-05-17T14:40:34Z</time>
      </trkpt>
      <trkpt lat="43.24816" lon="5.92551">
        <ele>531.23974609375</ele>
        <time>2014-05-17T14:40:35Z</time>
      </trkpt>
      <trkpt lat="43.24818" lon="5.92554">
        <ele>530.69561767578</ele>
        <time>2014-05-17T14:40:36Z</time>
      </trkpt>
      <trkpt lat="43.24819" lon="5.92557">
        <ele>530.21722412109</ele>
        <time>2014-05-17T14:40:37Z</time>
      </trkpt>
      <trkpt lat="43.24818" lon="5.92561">
        <ele>529.53216552734</ele>
        <time>2014-05-17T14:40:38Z</time>
      </trkpt>
      <trkpt lat="43.24817" lon="5.92564">
        <ele>528.953125</ele>
        <time>2014-05-17T14:40:39Z</time>
      </trkpt>
      <trkpt lat="43.24815" lon="5.92567">
        <ele>528.46173095703</ele>
        <time>2014-05-17T14:40:40Z</time>
      </trkpt>
      <trkpt lat="43.24813" lon="5.92568">
        <ele>528.13702392578</ele>
        <time>2014-05-17T14:40:41Z</time>
      </trkpt>
      <trkpt lat="43.24814" lon="5.92568">
        <ele>528.18927001953</ele>
        <time>2014-05-17T14:40:42Z</time>
      </trkpt>
      <trkpt lat="43.24814" lon="5.92568">
        <ele>528.18927001953</ele>
        <time>2014-05-17T14:41:08Z</time>
      </trkpt>
      <trkpt lat="43.24813" lon="5.92569">
        <ele>527.97088623047</ele>
        <time>2014-05-17T14:41:38Z</time>
      </trkpt>
      <trkpt lat="43.24813" lon="5.92569">
        <ele>527.97088623047</ele>
        <time>2014-05-17T14:41:50Z</time>
      </trkpt>
      <trkpt lat="43.2481" lon="5.92575">
        <ele>526.78753662109</ele>
        <time>2014-05-17T14:41:57Z</time>
      </trkpt>
      <trkpt lat="43.24807" lon="5.92578">
        <ele>526.02172851562</ele>
        <time>2014-05-17T14:41:58Z</time>
      </trkpt>
      <trkpt lat="43.24805" lon="5.92581">
        <ele>525.33508300781</ele>
        <time>2014-05-17T14:41:59Z</time>
      </trkpt>
      <trkpt lat="43.24804" lon="5.92584">
        <ele>524.82318115234</ele>
        <time>2014-05-17T14:42:00Z</time>
      </trkpt>
      <trkpt lat="43.24799" lon="5.9259">
        <ele>524.07525634766</ele>
        <time>2014-05-17T14:42:02Z</time>
      </trkpt>
      <trkpt lat="43.24795" lon="5.92594">
        <ele>523.58154296875</ele>
        <time>2014-05-17T14:42:03Z</time>
      </trkpt>
      <trkpt lat="43.2479" lon="5.92598">
        <ele>523.14154052734</ele>
        <time>2014-05-17T14:42:04Z</time>
      </trkpt>
      <trkpt lat="43.24785" lon="5.92602">
        <ele>522.72674560547</ele>
        <time>2014-05-17T14:42:05Z</time>
      </trkpt>
      <trkpt lat="43.24776" lon="5.92609">
        <ele>521.8115234375</ele>
        <time>2014-05-17T14:42:07Z</time>
      </trkpt>
      <trkpt lat="43.24771" lon="5.9261">
        <ele>520.91687011719</ele>
        <time>2014-05-17T14:42:08Z</time>
      </trkpt>
      <trkpt lat="43.24768" lon="5.92611">
        <ele>520.24041748047</ele>
        <time>2014-05-17T14:42:09Z</time>
      </trkpt>
      <trkpt lat="43.24763" lon="5.9261">
        <ele>519.47479248047</ele>
        <time>2014-05-17T14:42:10Z</time>
      </trkpt>
      <trkpt lat="43.24759" lon="5.92608">
        <ele>518.99749755859</ele>
        <time>2014-05-17T14:42:11Z</time>
      </trkpt>
      <trkpt lat="43.24747" lon="5.92606">
        <ele>517.47955322266</ele>
        <time>2014-05-17T14:42:14Z</time>
      </trkpt>
      <trkpt lat="43.24738" lon="5.92606">
        <ele>516.26763916016</ele>
        <time>2014-05-17T14:42:16Z</time>
      </trkpt>
      <trkpt lat="43.24728" lon="5.92609">
        <ele>514.15447998047</ele>
        <time>2014-05-17T14:42:19Z</time>
      </trkpt>
      <trkpt lat="43.24712" lon="5.92616">
        <ele>509.77008056641</ele>
        <time>2014-05-17T14:42:23Z</time>
      </trkpt>
      <trkpt lat="43.24699" lon="5.92612">
        <ele>508.62789916992</ele>
        <time>2014-05-17T14:42:26Z</time>
      </trkpt>
      <trkpt lat="43.24693" lon="5.92606">
        <ele>508.47540283203</ele>
        <time>2014-05-17T14:42:29Z</time>
      </trkpt>
      <trkpt lat="43.24691" lon="5.92605">
        <ele>508.30825805664</ele>
        <time>2014-05-17T14:42:30Z</time>
      </trkpt>
      <trkpt lat="43.24685" lon="5.92601">
        <ele>508.22717285156</ele>
        <time>2014-05-17T14:42:32Z</time>
      </trkpt>
      <trkpt lat="43.24684" lon="5.926">
        <ele>508.19863891602</ele>
        <time>2014-05-17T14:42:33Z</time>
      </trkpt>
      <trkpt lat="43.24682" lon="5.92599">
        <ele>508.19158935547</ele>
        <time>2014-05-17T14:42:34Z</time>
      </trkpt>
      <trkpt lat="43.2468" lon="5.92598">
        <ele>508.16632080078</ele>
        <time>2014-05-17T14:42:35Z</time>
      </trkpt>
      <trkpt lat="43.24679" lon="5.92597">
        <ele>508.17224121094</ele>
        <time>2014-05-17T14:42:36Z</time>
      </trkpt>
      <trkpt lat="43.24675" lon="5.92596">
        <ele>507.91723632812</ele>
        <time>2014-05-17T14:42:38Z</time>
      </trkpt>
      <trkpt lat="43.24673" lon="5.92595">
        <ele>507.9306640625</ele>
        <time>2014-05-17T14:42:39Z</time>
      </trkpt>
      <trkpt lat="43.24668" lon="5.92596">
        <ele>507.27676391602</ele>
        <time>2014-05-17T14:42:41Z</time>
      </trkpt>
      <trkpt lat="43.24665" lon="5.92598">
        <ele>506.88668823242</ele>
        <time>2014-05-17T14:42:42Z</time>
      </trkpt>
      <trkpt lat="43.24664" lon="5.926">
        <ele>506.56396484375</ele>
        <time>2014-05-17T14:42:43Z</time>
      </trkpt>
      <trkpt lat="43.2466" lon="5.92604">
        <ele>505.99404907227</ele>
        <time>2014-05-17T14:42:44Z</time>
      </trkpt>
      <trkpt lat="43.24652" lon="5.92611">
        <ele>504.9599609375</ele>
        <time>2014-05-17T14:42:46Z</time>
      </trkpt>
      <trkpt lat="43.2465" lon="5.92615">
        <ele>504.17004394531</ele>
        <time>2014-05-17T14:42:47Z</time>
      </trkpt>
      <trkpt lat="43.24646" lon="5.9262">
        <ele>503.16806030273</ele>
        <time>2014-05-17T14:42:48Z</time>
      </trkpt>
      <trkpt lat="43.24644" lon="5.92625">
        <ele>502.1071472168</ele>
        <time>2014-05-17T14:42:49Z</time>
      </trkpt>
      <trkpt lat="43.24642" lon="5.92629">
        <ele>501.29235839844</ele>
        <time>2014-05-17T14:42:50Z</time>
      </trkpt>
      <trkpt lat="43.2464" lon="5.92632">
        <ele>500.53399658203</ele>
        <time>2014-05-17T14:42:51Z</time>
      </trkpt>
      <trkpt lat="43.24637" lon="5.92636">
        <ele>499.79937744141</ele>
        <time>2014-05-17T14:42:52Z</time>
      </trkpt>
      <trkpt lat="43.24635" lon="5.92642">
        <ele>499.1940612793</ele>
        <time>2014-05-17T14:42:53Z</time>
      </trkpt>
      <trkpt lat="43.2463" lon="5.92662">
        <ele>497.01739501953</ele>
        <time>2014-05-17T14:42:56Z</time>
      </trkpt>
      <trkpt lat="43.24629" lon="5.92673">
        <ele>496.03024291992</ele>
        <time>2014-05-17T14:42:58Z</time>
      </trkpt>
      <trkpt lat="43.24629" lon="5.92675">
        <ele>495.8828125</ele>
        <time>2014-05-17T14:43:01Z</time>
      </trkpt>
      <trkpt lat="43.2463" lon="5.92689">
        <ele>494.91128540039</ele>
        <time>2014-05-17T14:43:05Z</time>
      </trkpt>
      <trkpt lat="43.2463" lon="5.92694">
        <ele>494.57489013672</ele>
        <time>2014-05-17T14:43:06Z</time>
      </trkpt>
      <trkpt lat="43.24632" lon="5.92718">
        <ele>491.39141845703</ele>
        <time>2014-05-17T14:43:11Z</time>
      </trkpt>
      <trkpt lat="43.24633" lon="5.92732">
        <ele>489.16784667969</ele>
        <time>2014-05-17T14:43:13Z</time>
      </trkpt>
      <trkpt lat="43.24636" lon="5.92745">
        <ele>486.54623413086</ele>
        <time>2014-05-17T14:43:15Z</time>
      </trkpt>
      <trkpt lat="43.24637" lon="5.92749">
        <ele>485.74609375</ele>
        <time>2014-05-17T14:43:16Z</time>
      </trkpt>
      <trkpt lat="43.24638" lon="5.92753">
        <ele>484.94296264648</ele>
        <time>2014-05-17T14:43:17Z</time>
      </trkpt>
      <trkpt lat="43.2464" lon="5.92757">
        <ele>484.42633056641</ele>
        <time>2014-05-17T14:43:18Z</time>
      </trkpt>
      <trkpt lat="43.24641" lon="5.9276">
        <ele>484.03839111328</ele>
        <time>2014-05-17T14:43:19Z</time>
      </trkpt>
      <trkpt lat="43.24647" lon="5.92773">
        <ele>482.44192504883</ele>
        <time>2014-05-17T14:43:22Z</time>
      </trkpt>
      <trkpt lat="43.24652" lon="5.92782">
        <ele>481.03778076172</ele>
        <time>2014-05-17T14:43:24Z</time>
      </trkpt>
      <trkpt lat="43.24654" lon="5.92786">
        <ele>480.38888549805</ele>
        <time>2014-05-17T14:43:25Z</time>
      </trkpt>
      <trkpt lat="43.2466" lon="5.92795">
        <ele>478.89028930664</ele>
        <time>2014-05-17T14:43:27Z</time>
      </trkpt>
      <trkpt lat="43.24663" lon="5.92803">
        <ele>477.66461181641</ele>
        <time>2014-05-17T14:43:29Z</time>
      </trkpt>
      <trkpt lat="43.24664" lon="5.92808">
        <ele>477.10900878906</ele>
        <time>2014-05-17T14:43:30Z</time>
      </trkpt>
      <trkpt lat="43.24665" lon="5.92812">
        <ele>476.71481323242</ele>
        <time>2014-05-17T14:43:31Z</time>
      </trkpt>
      <trkpt lat="43.24665" lon="5.92818">
        <ele>476.28939819336</ele>
        <time>2014-05-17T14:43:32Z</time>
      </trkpt>
      <trkpt lat="43.24665" lon="5.9283">
        <ele>475.45223999023</ele>
        <time>2014-05-17T14:43:34Z</time>
      </trkpt>
      <trkpt lat="43.24665" lon="5.92835">
        <ele>475.15112304688</ele>
        <time>2014-05-17T14:43:35Z</time>
      </trkpt>
      <trkpt lat="43.24664" lon="5.92841">
        <ele>474.88275146484</ele>
        <time>2014-05-17T14:43:36Z</time>
      </trkpt>
      <trkpt lat="43.24662" lon="5.92852">
        <ele>474.66934204102</ele>
        <time>2014-05-17T14:43:38Z</time>
      </trkpt>
      <trkpt lat="43.24659" lon="5.92866">
        <ele>474.14755249023</ele>
        <time>2014-05-17T14:43:41Z</time>
      </trkpt>
      <trkpt lat="43.24659" lon="5.92871">
        <ele>473.712890625</ele>
        <time>2014-05-17T14:43:42Z</time>
      </trkpt>
      <trkpt lat="43.24663" lon="5.92889">
        <ele>470.96585083008</ele>
        <time>2014-05-17T14:43:46Z</time>
      </trkpt>
      <trkpt lat="43.24663" lon="5.92895">
        <ele>470.66372680664</ele>
        <time>2014-05-17T14:43:47Z</time>
      </trkpt>
      <trkpt lat="43.24662" lon="5.92913">
        <ele>470.30838012695</ele>
        <time>2014-05-17T14:43:50Z</time>
      </trkpt>
      <trkpt lat="43.24664" lon="5.92922">
        <ele>469.09210205078</ele>
        <time>2014-05-17T14:43:52Z</time>
      </trkpt>
      <trkpt lat="43.24666" lon="5.92927">
        <ele>468.06555175781</ele>
        <time>2014-05-17T14:43:53Z</time>
      </trkpt>
      <trkpt lat="43.24669" lon="5.92932">
        <ele>466.86291503906</ele>
        <time>2014-05-17T14:43:54Z</time>
      </trkpt>
      <trkpt lat="43.24679" lon="5.92941">
        <ele>463.16906738281</ele>
        <time>2014-05-17T14:43:57Z</time>
      </trkpt>
      <trkpt lat="43.24682" lon="5.92947">
        <ele>462.06115722656</ele>
        <time>2014-05-17T14:43:58Z</time>
      </trkpt>
      <trkpt lat="43.24684" lon="5.92951">
        <ele>461.34097290039</ele>
        <time>2014-05-17T14:43:59Z</time>
      </trkpt>
      <trkpt lat="43.24707" lon="5.92969">
        <ele>455.51391601562</ele>
        <time>2014-05-17T14:44:06Z</time>
      </trkpt>
      <trkpt lat="43.2471" lon="5.92971">
        <ele>454.75186157227</ele>
        <time>2014-05-17T14:44:07Z</time>
      </trkpt>
      <trkpt lat="43.24718" lon="5.92978">
        <ele>452.44821166992</ele>
        <time>2014-05-17T14:44:10Z</time>
      </trkpt>
      <trkpt lat="43.24726" lon="5.92983">
        <ele>450.68841552734</ele>
        <time>2014-05-17T14:44:12Z</time>
      </trkpt>
      <trkpt lat="43.2473" lon="5.92987">
        <ele>449.88848876953</ele>
        <time>2014-05-17T14:44:13Z</time>
      </trkpt>
      <trkpt lat="43.24732" lon="5.9299">
        <ele>449.32885742188</ele>
        <time>2014-05-17T14:44:14Z</time>
      </trkpt>
      <trkpt lat="43.24739" lon="5.92997">
        <ele>447.7392578125</ele>
        <time>2014-05-17T14:44:18Z</time>
      </trkpt>
      <trkpt lat="43.24746" lon="5.93003">
        <ele>446.42730712891</ele>
        <time>2014-05-17T14:44:21Z</time>
      </trkpt>
      <trkpt lat="43.24749" lon="5.93006">
        <ele>445.89437866211</ele>
        <time>2014-05-17T14:44:22Z</time>
      </trkpt>
      <trkpt lat="43.24754" lon="5.93008">
        <ele>444.90985107422</ele>
        <time>2014-05-17T14:44:23Z</time>
      </trkpt>
      <trkpt lat="43.24761" lon="5.93014">
        <ele>443.28817749023</ele>
        <time>2014-05-17T14:44:25Z</time>
      </trkpt>
      <trkpt lat="43.24764" lon="5.93016">
        <ele>442.7155456543</ele>
        <time>2014-05-17T14:44:26Z</time>
      </trkpt>
      <trkpt lat="43.24768" lon="5.93021">
        <ele>441.8283996582</ele>
        <time>2014-05-17T14:44:28Z</time>
      </trkpt>
      <trkpt lat="43.2477" lon="5.93025">
        <ele>441.36352539062</ele>
        <time>2014-05-17T14:44:29Z</time>
      </trkpt>
      <trkpt lat="43.24773" lon="5.93029">
        <ele>440.85540771484</ele>
        <time>2014-05-17T14:44:30Z</time>
      </trkpt>
      <trkpt lat="43.24776" lon="5.93033">
        <ele>440.30609130859</ele>
        <time>2014-05-17T14:44:31Z</time>
      </trkpt>
      <trkpt lat="43.24779" lon="5.93038">
        <ele>439.98675537109</ele>
        <time>2014-05-17T14:44:32Z</time>
      </trkpt>
      <trkpt lat="43.24782" lon="5.93044">
        <ele>439.91622924805</ele>
        <time>2014-05-17T14:44:33Z</time>
      </trkpt>
      <trkpt lat="43.24785" lon="5.93053">
        <ele>439.75900268555</ele>
        <time>2014-05-17T14:44:35Z</time>
      </trkpt>
      <trkpt lat="43.24789" lon="5.93061">
        <ele>439.59429931641</ele>
        <time>2014-05-17T14:44:37Z</time>
      </trkpt>
      <trkpt lat="43.24791" lon="5.93066">
        <ele>439.52563476562</ele>
        <time>2014-05-17T14:44:38Z</time>
      </trkpt>
      <trkpt lat="43.24793" lon="5.93074">
        <ele>439.45697021484</ele>
        <time>2014-05-17T14:44:40Z</time>
      </trkpt>
      <trkpt lat="43.24795" lon="5.93078">
        <ele>439.38830566406</ele>
        <time>2014-05-17T14:44:41Z</time>
      </trkpt>
      <trkpt lat="43.24797" lon="5.93083">
        <ele>439.30590820312</ele>
        <time>2014-05-17T14:44:42Z</time>
      </trkpt>
      <trkpt lat="43.24799" lon="5.93086">
        <ele>439.25680541992</ele>
        <time>2014-05-17T14:44:43Z</time>
      </trkpt>
      <trkpt lat="43.248" lon="5.93088">
        <ele>439.21078491211</ele>
        <time>2014-05-17T14:44:44Z</time>
      </trkpt>
      <trkpt lat="43.24802" lon="5.93089">
        <ele>439.15319824219</ele>
        <time>2014-05-17T14:44:45Z</time>
      </trkpt>
      <trkpt lat="43.24803" lon="5.93089">
        <ele>439.12203979492</ele>
        <time>2014-05-17T14:44:50Z</time>
      </trkpt>
      <trkpt lat="43.24803" lon="5.93089">
        <ele>439.12203979492</ele>
        <time>2014-05-17T14:44:58Z</time>
      </trkpt>
      <trkpt lat="43.24802" lon="5.9309">
        <ele>439.14154052734</ele>
        <time>2014-05-17T14:45:05Z</time>
      </trkpt>
      <trkpt lat="43.24802" lon="5.9309">
        <ele>439.14154052734</ele>
        <time>2014-05-17T14:45:09Z</time>
      </trkpt>
      <trkpt lat="43.24802" lon="5.93095">
        <ele>439.18292236328</ele>
        <time>2014-05-17T14:45:12Z</time>
      </trkpt>
      <trkpt lat="43.24802" lon="5.93098">
        <ele>439.1755065918</ele>
        <time>2014-05-17T14:45:13Z</time>
      </trkpt>
      <trkpt lat="43.24802" lon="5.931">
        <ele>439.18310546875</ele>
        <time>2014-05-17T14:45:17Z</time>
      </trkpt>
      <trkpt lat="43.24801" lon="5.93104">
        <ele>439.2956237793</ele>
        <time>2014-05-17T14:45:22Z</time>
      </trkpt>
      <trkpt lat="43.24797" lon="5.93122">
        <ele>439.49346923828</ele>
        <time>2014-05-17T14:45:29Z</time>
      </trkpt>
      <trkpt lat="43.24796" lon="5.93124">
        <ele>439.59103393555</ele>
        <time>2014-05-17T14:45:30Z</time>
      </trkpt>
      <trkpt lat="43.24795" lon="5.93137">
        <ele>439.51812744141</ele>
        <time>2014-05-17T14:45:36Z</time>
      </trkpt>
      <trkpt lat="43.24795" lon="5.93137">
        <ele>439.51940917969</ele>
        <time>2014-05-17T14:45:41Z</time>
      </trkpt>
      <trkpt lat="43.24795" lon="5.93137">
        <ele>439.51940917969</ele>
        <time>2014-05-17T14:45:52Z</time>
      </trkpt>
      <trkpt lat="43.24798" lon="5.9314">
        <ele>439.08908081055</ele>
        <time>2014-05-17T14:45:58Z</time>
      </trkpt>
      <trkpt lat="43.24799" lon="5.93142">
        <ele>438.92172241211</ele>
        <time>2014-05-17T14:45:59Z</time>
      </trkpt>
      <trkpt lat="43.24801" lon="5.93159">
        <ele>438.02029418945</ele>
        <time>2014-05-17T14:46:04Z</time>
      </trkpt>
      <trkpt lat="43.24801" lon="5.93184">
        <ele>437.16418457031</ele>
        <time>2014-05-17T14:46:09Z</time>
      </trkpt>
      <trkpt lat="43.248" lon="5.93189">
        <ele>437.12298583984</ele>
        <time>2014-05-17T14:46:10Z</time>
      </trkpt>
      <trkpt lat="43.248" lon="5.93194">
        <ele>436.93756103516</ele>
        <time>2014-05-17T14:46:11Z</time>
      </trkpt>
      <trkpt lat="43.248" lon="5.93199">
        <ele>436.77563476562</ele>
        <time>2014-05-17T14:46:12Z</time>
      </trkpt>
      <trkpt lat="43.248" lon="5.9321">
        <ele>436.54296875</ele>
        <time>2014-05-17T14:46:14Z</time>
      </trkpt>
      <trkpt lat="43.248" lon="5.93215">
        <ele>436.46038818359</ele>
        <time>2014-05-17T14:46:15Z</time>
      </trkpt>
      <trkpt lat="43.24799" lon="5.93232">
        <ele>435.87744140625</ele>
        <time>2014-05-17T14:46:18Z</time>
      </trkpt>
      <trkpt lat="43.24798" lon="5.93261">
        <ele>434.94909667969</ele>
        <time>2014-05-17T14:46:23Z</time>
      </trkpt>
      <trkpt lat="43.24798" lon="5.93268">
        <ele>434.94909667969</ele>
        <time>2014-05-17T14:46:24Z</time>
      </trkpt>
      <trkpt lat="43.24798" lon="5.93274">
        <ele>434.85296630859</ele>
        <time>2014-05-17T14:46:25Z</time>
      </trkpt>
      <trkpt lat="43.24798" lon="5.93281">
        <ele>434.92031860352</ele>
        <time>2014-05-17T14:46:26Z</time>
      </trkpt>
      <trkpt lat="43.24798" lon="5.93287">
        <ele>434.86056518555</ele>
        <time>2014-05-17T14:46:27Z</time>
      </trkpt>
      <trkpt lat="43.24796" lon="5.93299">
        <ele>435.16625976562</ele>
        <time>2014-05-17T14:46:30Z</time>
      </trkpt>
      <trkpt lat="43.24795" lon="5.93301">
        <ele>435.39202880859</ele>
        <time>2014-05-17T14:46:31Z</time>
      </trkpt>
      <trkpt lat="43.24792" lon="5.93309">
        <ele>435.79904174805</ele>
        <time>2014-05-17T14:46:34Z</time>
      </trkpt>
      <trkpt lat="43.24792" lon="5.9331">
        <ele>435.73583984375</ele>
        <time>2014-05-17T14:46:35Z</time>
      </trkpt>
      <trkpt lat="43.24794" lon="5.93312">
        <ele>435.36959838867</ele>
        <time>2014-05-17T14:46:37Z</time>
      </trkpt>
      <trkpt lat="43.24796" lon="5.9331">
        <ele>435.05764770508</ele>
        <time>2014-05-17T14:46:39Z</time>
      </trkpt>
      <trkpt lat="43.248" lon="5.93308">
        <ele>434.13879394531</ele>
        <time>2014-05-17T14:46:42Z</time>
      </trkpt>
      <trkpt lat="43.248" lon="5.9331">
        <ele>434.18759155273</ele>
        <time>2014-05-17T14:46:43Z</time>
      </trkpt>
      <trkpt lat="43.248" lon="5.93312">
        <ele>434.00332641602</ele>
        <time>2014-05-17T14:46:44Z</time>
      </trkpt>
      <trkpt lat="43.24803" lon="5.93316">
        <ele>433.52551269531</ele>
        <time>2014-05-17T14:46:47Z</time>
      </trkpt>
      <trkpt lat="43.24806" lon="5.93321">
        <ele>432.9052734375</ele>
        <time>2014-05-17T14:46:52Z</time>
      </trkpt>
      <trkpt lat="43.2481" lon="5.93325">
        <ele>432.30102539062</ele>
        <time>2014-05-17T14:46:54Z</time>
      </trkpt>
      <trkpt lat="43.24813" lon="5.93327">
        <ele>431.97143554688</ele>
        <time>2014-05-17T14:46:55Z</time>
      </trkpt>
      <trkpt lat="43.24815" lon="5.9333">
        <ele>431.64184570312</ele>
        <time>2014-05-17T14:46:56Z</time>
      </trkpt>
      <trkpt lat="43.24816" lon="5.93333">
        <ele>431.53198242188</ele>
        <time>2014-05-17T14:46:57Z</time>
      </trkpt>
      <trkpt lat="43.24817" lon="5.93337">
        <ele>431.71862792969</ele>
        <time>2014-05-17T14:46:58Z</time>
      </trkpt>
      <trkpt lat="43.24819" lon="5.93338">
        <ele>431.5182800293</ele>
        <time>2014-05-17T14:46:59Z</time>
      </trkpt>
      <trkpt lat="43.24821" lon="5.93336">
        <ele>431.10684204102</ele>
        <time>2014-05-17T14:47:00Z</time>
      </trkpt>
      <trkpt lat="43.24824" lon="5.93336">
        <ele>430.54403686523</ele>
        <time>2014-05-17T14:47:01Z</time>
      </trkpt>
      <trkpt lat="43.24835" lon="5.93332">
        <ele>428.79208374023</ele>
        <time>2014-05-17T14:47:03Z</time>
      </trkpt>
      <trkpt lat="43.24842" lon="5.93332">
        <ele>427.97802734375</ele>
        <time>2014-05-17T14:47:04Z</time>
      </trkpt>
      <trkpt lat="43.24853" lon="5.93329">
        <ele>426.63912963867</ele>
        <time>2014-05-17T14:47:06Z</time>
      </trkpt>
      <trkpt lat="43.24857" lon="5.93326">
        <ele>425.96383666992</ele>
        <time>2014-05-17T14:47:07Z</time>
      </trkpt>
      <trkpt lat="43.24862" lon="5.93321">
        <ele>424.98208618164</ele>
        <time>2014-05-17T14:47:08Z</time>
      </trkpt>
      <trkpt lat="43.24866" lon="5.93318">
        <ele>424.06384277344</ele>
        <time>2014-05-17T14:47:09Z</time>
      </trkpt>
      <trkpt lat="43.24876" lon="5.93312">
        <ele>422.06796264648</ele>
        <time>2014-05-17T14:47:11Z</time>
      </trkpt>
      <trkpt lat="43.24884" lon="5.93307">
        <ele>420.03060913086</ele>
        <time>2014-05-17T14:47:13Z</time>
      </trkpt>
      <trkpt lat="43.24895" lon="5.93303">
        <ele>419</ele>
        <time>2014-05-17T14:47:15Z</time>
      </trkpt>
      <trkpt lat="43.24905" lon="5.93304">
        <ele>419</ele>
        <time>2014-05-17T14:47:17Z</time>
      </trkpt>
      <trkpt lat="43.2492" lon="5.93305">
        <ele>418.88391113281</ele>
        <time>2014-05-17T14:47:21Z</time>
      </trkpt>
      <trkpt lat="43.24922" lon="5.93302">
        <ele>418.80151367188</ele>
        <time>2014-05-17T14:47:22Z</time>
      </trkpt>
      <trkpt lat="43.24925" lon="5.93301">
        <ele>418.69165039062</ele>
        <time>2014-05-17T14:47:23Z</time>
      </trkpt>
      <trkpt lat="43.24929" lon="5.93299">
        <ele>418.54058837891</ele>
        <time>2014-05-17T14:47:24Z</time>
      </trkpt>
      <trkpt lat="43.24932" lon="5.93298">
        <ele>418.44445800781</ele>
        <time>2014-05-17T14:47:25Z</time>
      </trkpt>
      <trkpt lat="43.24945" lon="5.93295">
        <ele>417.96908569336</ele>
        <time>2014-05-17T14:47:28Z</time>
      </trkpt>
      <trkpt lat="43.24952" lon="5.93295">
        <ele>417.60943603516</ele>
        <time>2014-05-17T14:47:30Z</time>
      </trkpt>
      <trkpt lat="43.24955" lon="5.93295">
        <ele>417.45532226562</ele>
        <time>2014-05-17T14:47:31Z</time>
      </trkpt>
      <trkpt lat="43.24961" lon="5.93295">
        <ele>417.19305419922</ele>
        <time>2014-05-17T14:47:32Z</time>
      </trkpt>
      <trkpt lat="43.2497" lon="5.93299">
        <ele>416.83944702148</ele>
        <time>2014-05-17T14:47:34Z</time>
      </trkpt>
      <trkpt lat="43.24976" lon="5.93299">
        <ele>416.65863037109</ele>
        <time>2014-05-17T14:47:35Z</time>
      </trkpt>
      <trkpt lat="43.24994" lon="5.93296">
        <ele>415.88613891602</ele>
        <time>2014-05-17T14:47:38Z</time>
      </trkpt>
      <trkpt lat="43.25" lon="5.93294">
        <ele>415.59603881836</ele>
        <time>2014-05-17T14:47:39Z</time>
      </trkpt>
      <trkpt lat="43.25008" lon="5.93292">
        <ele>414.92657470703</ele>
        <time>2014-05-17T14:47:40Z</time>
      </trkpt>
      <trkpt lat="43.25013" lon="5.93291">
        <ele>414.56262207031</ele>
        <time>2014-05-17T14:47:41Z</time>
      </trkpt>
      <trkpt lat="43.2502" lon="5.93291">
        <ele>414.05108642578</ele>
        <time>2014-05-17T14:47:42Z</time>
      </trkpt>
      <trkpt lat="43.2503" lon="5.93293">
        <ele>413.39706420898</ele>
        <time>2014-05-17T14:47:44Z</time>
      </trkpt>
      <trkpt lat="43.2504" lon="5.93293">
        <ele>412.67779541016</ele>
        <time>2014-05-17T14:47:47Z</time>
      </trkpt>
      <trkpt lat="43.25041" lon="5.93293">
        <ele>412.61254882812</ele>
        <time>2014-05-17T14:47:48Z</time>
      </trkpt>
      <trkpt lat="43.25041" lon="5.93293">
        <ele>412.61254882812</ele>
        <time>2014-05-17T14:48:12Z</time>
      </trkpt>
      <trkpt lat="43.25041" lon="5.93293">
        <ele>412.61254882812</ele>
        <time>2014-05-17T14:48:19Z</time>
      </trkpt>
      <trkpt lat="43.25043" lon="5.93295">
        <ele>412.54046630859</ele>
        <time>2014-05-17T14:48:24Z</time>
      </trkpt>
      <trkpt lat="43.25051" lon="5.93301">
        <ele>412.13879394531</ele>
        <time>2014-05-17T14:48:28Z</time>
      </trkpt>
      <trkpt lat="43.25053" lon="5.93303">
        <ele>412.07696533203</ele>
        <time>2014-05-17T14:48:30Z</time>
      </trkpt>
      <trkpt lat="43.2506" lon="5.93305">
        <ele>411.70446777344</ele>
        <time>2014-05-17T14:48:32Z</time>
      </trkpt>
      <trkpt lat="43.25071" lon="5.93302">
        <ele>410.78094482422</ele>
        <time>2014-05-17T14:48:35Z</time>
      </trkpt>
      <trkpt lat="43.25084" lon="5.93301">
        <ele>409.83453369141</ele>
        <time>2014-05-17T14:48:38Z</time>
      </trkpt>
      <trkpt lat="43.25093" lon="5.93297">
        <ele>409.25817871094</ele>
        <time>2014-05-17T14:48:40Z</time>
      </trkpt>
      <trkpt lat="43.25095" lon="5.93294">
        <ele>408.96319580078</ele>
        <time>2014-05-17T14:48:41Z</time>
      </trkpt>
      <trkpt lat="43.25098" lon="5.93289">
        <ele>408.60675048828</ele>
        <time>2014-05-17T14:48:42Z</time>
      </trkpt>
      <trkpt lat="43.25101" lon="5.93279">
        <ele>407.78268432617</ele>
        <time>2014-05-17T14:48:44Z</time>
      </trkpt>
      <trkpt lat="43.25109" lon="5.93268">
        <ele>406.42456054688</ele>
        <time>2014-05-17T14:48:47Z</time>
      </trkpt>
      <trkpt lat="43.2512" lon="5.93267">
        <ele>406.09591674805</ele>
        <time>2014-05-17T14:48:50Z</time>
      </trkpt>
      <trkpt lat="43.25123" lon="5.93267">
        <ele>406.05596923828</ele>
        <time>2014-05-17T14:48:51Z</time>
      </trkpt>
      <trkpt lat="43.25129" lon="5.93268">
        <ele>406.08041381836</ele>
        <time>2014-05-17T14:48:53Z</time>
      </trkpt>
      <trkpt lat="43.25151" lon="5.93272">
        <ele>406.3376159668</ele>
        <time>2014-05-17T14:49:00Z</time>
      </trkpt>
      <trkpt lat="43.25159" lon="5.93271">
        <ele>406.05172729492</ele>
        <time>2014-05-17T14:49:03Z</time>
      </trkpt>
      <trkpt lat="43.25163" lon="5.9327">
        <ele>405.94393920898</ele>
        <time>2014-05-17T14:49:04Z</time>
      </trkpt>
      <trkpt lat="43.25166" lon="5.9327">
        <ele>405.92681884766</ele>
        <time>2014-05-17T14:49:05Z</time>
      </trkpt>
      <trkpt lat="43.2517" lon="5.93271">
        <ele>405.86004638672</ele>
        <time>2014-05-17T14:49:06Z</time>
      </trkpt>
      <trkpt lat="43.25172" lon="5.93271">
        <ele>405.76422119141</ele>
        <time>2014-05-17T14:49:07Z</time>
      </trkpt>
      <trkpt lat="43.25174" lon="5.93271">
        <ele>405.69561767578</ele>
        <time>2014-05-17T14:49:08Z</time>
      </trkpt>
      <trkpt lat="43.25182" lon="5.93266">
        <ele>404.56851196289</ele>
        <time>2014-05-17T14:49:12Z</time>
      </trkpt>
      <trkpt lat="43.25184" lon="5.93264">
        <ele>404.17013549805</ele>
        <time>2014-05-17T14:49:13Z</time>
      </trkpt>
      <trkpt lat="43.25193" lon="5.93261">
        <ele>402.99468994141</ele>
        <time>2014-05-17T14:49:15Z</time>
      </trkpt>
      <trkpt lat="43.25196" lon="5.93259">
        <ele>402.59188842773</ele>
        <time>2014-05-17T14:49:16Z</time>
      </trkpt>
      <trkpt lat="43.25202" lon="5.9326">
        <ele>402.3671875</ele>
        <time>2014-05-17T14:49:17Z</time>
      </trkpt>
      <trkpt lat="43.2521" lon="5.93259">
        <ele>401.90307617188</ele>
        <time>2014-05-17T14:49:19Z</time>
      </trkpt>
      <trkpt lat="43.25216" lon="5.93263">
        <ele>402.22659301758</ele>
        <time>2014-05-17T14:49:22Z</time>
      </trkpt>
      <trkpt lat="43.25222" lon="5.93263">
        <ele>401.81503295898</ele>
        <time>2014-05-17T14:49:23Z</time>
      </trkpt>
      <trkpt lat="43.2523" lon="5.93257">
        <ele>401.23498535156</ele>
        <time>2014-05-17T14:49:25Z</time>
      </trkpt>
      <trkpt lat="43.25236" lon="5.93254">
        <ele>400.65042114258</ele>
        <time>2014-05-17T14:49:26Z</time>
      </trkpt>
      <trkpt lat="43.25245" lon="5.93249">
        <ele>400</ele>
        <time>2014-05-17T14:49:28Z</time>
      </trkpt>
      <trkpt lat="43.25249" lon="5.93247">
        <ele>400</ele>
        <time>2014-05-17T14:49:29Z</time>
      </trkpt>
      <trkpt lat="43.25253" lon="5.93244">
        <ele>400</ele>
        <time>2014-05-17T14:49:30Z</time>
      </trkpt>
      <trkpt lat="43.25257" lon="5.93242">
        <ele>400</ele>
        <time>2014-05-17T14:49:31Z</time>
      </trkpt>
      <trkpt lat="43.25262" lon="5.9324">
        <ele>400</ele>
        <time>2014-05-17T14:49:32Z</time>
      </trkpt>
      <trkpt lat="43.25274" lon="5.93237">
        <ele>400</ele>
        <time>2014-05-17T14:49:34Z</time>
      </trkpt>
      <trkpt lat="43.25283" lon="5.93234">
        <ele>400.34146118164</ele>
        <time>2014-05-17T14:49:36Z</time>
      </trkpt>
      <trkpt lat="43.25287" lon="5.93231">
        <ele>400.4548034668</ele>
        <time>2014-05-17T14:49:37Z</time>
      </trkpt>
      <trkpt lat="43.25291" lon="5.93228">
        <ele>400.39624023438</ele>
        <time>2014-05-17T14:49:38Z</time>
      </trkpt>
      <trkpt lat="43.25292" lon="5.93224">
        <ele>400.15444946289</ele>
        <time>2014-05-17T14:49:39Z</time>
      </trkpt>
      <trkpt lat="43.253" lon="5.93217">
        <ele>400</ele>
        <time>2014-05-17T14:49:42Z</time>
      </trkpt>
      <trkpt lat="43.25304" lon="5.93218">
        <ele>400</ele>
        <time>2014-05-17T14:49:44Z</time>
      </trkpt>
      <trkpt lat="43.25311" lon="5.93218">
        <ele>400</ele>
        <time>2014-05-17T14:49:46Z</time>
      </trkpt>
      <trkpt lat="43.25315" lon="5.93217">
        <ele>400</ele>
        <time>2014-05-17T14:49:47Z</time>
      </trkpt>
      <trkpt lat="43.25328" lon="5.93216">
        <ele>400</ele>
        <time>2014-05-17T14:49:50Z</time>
      </trkpt>
      <trkpt lat="43.25339" lon="5.93212">
        <ele>400.37106323242</ele>
        <time>2014-05-17T14:49:52Z</time>
      </trkpt>
      <trkpt lat="43.25351" lon="5.93205">
        <ele>400.76702880859</ele>
        <time>2014-05-17T14:49:55Z</time>
      </trkpt>
      <trkpt lat="43.25362" lon="5.93202">
        <ele>400.80944824219</ele>
        <time>2014-05-17T14:49:57Z</time>
      </trkpt>
      <trkpt lat="43.25365" lon="5.932">
        <ele>400.69848632812</ele>
        <time>2014-05-17T14:49:58Z</time>
      </trkpt>
      <trkpt lat="43.25378" lon="5.93196">
        <ele>400.30303955078</ele>
        <time>2014-05-17T14:50:01Z</time>
      </trkpt>
      <trkpt lat="43.25382" lon="5.93196">
        <ele>400.32275390625</ele>
        <time>2014-05-17T14:50:02Z</time>
      </trkpt>
      <trkpt lat="43.25388" lon="5.93197">
        <ele>400.52917480469</ele>
        <time>2014-05-17T14:50:03Z</time>
      </trkpt>
      <trkpt lat="43.25394" lon="5.932">
        <ele>400.69918823242</ele>
        <time>2014-05-17T14:50:04Z</time>
      </trkpt>
      <trkpt lat="43.25407" lon="5.93205">
        <ele>400.76641845703</ele>
        <time>2014-05-17T14:50:06Z</time>
      </trkpt>
      <trkpt lat="43.25413" lon="5.93208">
        <ele>400.72323608398</ele>
        <time>2014-05-17T14:50:07Z</time>
      </trkpt>
      <trkpt lat="43.25426" lon="5.93211">
        <ele>400.80679321289</ele>
        <time>2014-05-17T14:50:09Z</time>
      </trkpt>
      <trkpt lat="43.25433" lon="5.93212">
        <ele>400.88919067383</ele>
        <time>2014-05-17T14:50:10Z</time>
      </trkpt>
      <trkpt lat="43.25447" lon="5.93212">
        <ele>400.74545288086</ele>
        <time>2014-05-17T14:50:12Z</time>
      </trkpt>
      <trkpt lat="43.25462" lon="5.93211">
        <ele>400.01309204102</ele>
        <time>2014-05-17T14:50:14Z</time>
      </trkpt>
      <trkpt lat="43.25484" lon="5.93212">
        <ele>399.36441040039</ele>
        <time>2014-05-17T14:50:17Z</time>
      </trkpt>
      <trkpt lat="43.2549" lon="5.93213">
        <ele>399.2375793457</ele>
        <time>2014-05-17T14:50:18Z</time>
      </trkpt>
      <trkpt lat="43.25496" lon="5.93215">
        <ele>399.10659790039</ele>
        <time>2014-05-17T14:50:19Z</time>
      </trkpt>
      <trkpt lat="43.25502" lon="5.93217">
        <ele>399</ele>
        <time>2014-05-17T14:50:20Z</time>
      </trkpt>
      <trkpt lat="43.25506" lon="5.9322">
        <ele>399</ele>
        <time>2014-05-17T14:50:21Z</time>
      </trkpt>
      <trkpt lat="43.25509" lon="5.93222">
        <ele>399.02835083008</ele>
        <time>2014-05-17T14:50:22Z</time>
      </trkpt>
      <trkpt lat="43.25521" lon="5.93235">
        <ele>400.70809936523</ele>
        <time>2014-05-17T14:50:28Z</time>
      </trkpt>
      <trkpt lat="43.25526" lon="5.93241">
        <ele>401.15084838867</ele>
        <time>2014-05-17T14:50:31Z</time>
      </trkpt>
      <trkpt lat="43.25528" lon="5.93243">
        <ele>401.19680786133</ele>
        <time>2014-05-17T14:50:32Z</time>
      </trkpt>
      <trkpt lat="43.25529" lon="5.93247">
        <ele>401.53735351562</ele>
        <time>2014-05-17T14:50:34Z</time>
      </trkpt>
      <trkpt lat="43.25532" lon="5.9325">
        <ele>401.5641784668</ele>
        <time>2014-05-17T14:50:36Z</time>
      </trkpt>
      <trkpt lat="43.25535" lon="5.93254">
        <ele>402.18811035156</ele>
        <time>2014-05-17T14:50:38Z</time>
      </trkpt>
      <trkpt lat="43.25537" lon="5.93257">
        <ele>402.96417236328</ele>
        <time>2014-05-17T14:50:40Z</time>
      </trkpt>
      <trkpt lat="43.25539" lon="5.93259">
        <ele>403.21588134766</ele>
        <time>2014-05-17T14:50:41Z</time>
      </trkpt>
      <trkpt lat="43.25546" lon="5.93265">
        <ele>403.65133666992</ele>
        <time>2014-05-17T14:50:45Z</time>
      </trkpt>
      <trkpt lat="43.25549" lon="5.93266">
        <ele>403.45910644531</ele>
        <time>2014-05-17T14:50:47Z</time>
      </trkpt>
      <trkpt lat="43.25554" lon="5.93268">
        <ele>403.21737670898</ele>
        <time>2014-05-17T14:50:49Z</time>
      </trkpt>
      <trkpt lat="43.25557" lon="5.93269">
        <ele>402.94802856445</ele>
        <time>2014-05-17T14:50:50Z</time>
      </trkpt>
      <trkpt lat="43.25566" lon="5.93276">
        <ele>402.44744873047</ele>
        <time>2014-05-17T14:50:54Z</time>
      </trkpt>
      <trkpt lat="43.2558" lon="5.93289">
        <ele>401.45080566406</ele>
        <time>2014-05-17T14:50:59Z</time>
      </trkpt>
      <trkpt lat="43.25594" lon="5.93296">
        <ele>400.88870239258</ele>
        <time>2014-05-17T14:51:04Z</time>
      </trkpt>
      <trkpt lat="43.25611" lon="5.93299">
        <ele>399.76586914062</ele>
        <time>2014-05-17T14:51:09Z</time>
      </trkpt>
      <trkpt lat="43.25615" lon="5.93299">
        <ele>399.654296875</ele>
        <time>2014-05-17T14:51:10Z</time>
      </trkpt>
      <trkpt lat="43.25621" lon="5.93302">
        <ele>399.50323486328</ele>
        <time>2014-05-17T14:51:12Z</time>
      </trkpt>
      <trkpt lat="43.25624" lon="5.93304">
        <ele>399.46029663086</ele>
        <time>2014-05-17T14:51:13Z</time>
      </trkpt>
      <trkpt lat="43.25631" lon="5.93307">
        <ele>399.53762817383</ele>
        <time>2014-05-17T14:51:15Z</time>
      </trkpt>
      <trkpt lat="43.25641" lon="5.93311">
        <ele>399.70178222656</ele>
        <time>2014-05-17T14:51:19Z</time>
      </trkpt>
      <trkpt lat="43.25652" lon="5.93317">
        <ele>399.76477050781</ele>
        <time>2014-05-17T14:51:25Z</time>
      </trkpt>
      <trkpt lat="43.25653" lon="5.93317">
        <ele>399.7453918457</ele>
        <time>2014-05-17T14:51:26Z</time>
      </trkpt>
      <trkpt lat="43.25653" lon="5.93317">
        <ele>399.7453918457</ele>
        <time>2014-05-17T14:51:29Z</time>
      </trkpt>
      <trkpt lat="43.25655" lon="5.93318">
        <ele>399.72784423828</ele>
        <time>2014-05-17T14:51:31Z</time>
      </trkpt>
      <trkpt lat="43.25659" lon="5.93319">
        <ele>399.52865600586</ele>
        <time>2014-05-17T14:51:37Z</time>
      </trkpt>
      <trkpt lat="43.25659" lon="5.93319">
        <ele>399.48852539062</ele>
        <time>2014-05-17T14:51:43Z</time>
      </trkpt>
      <trkpt lat="43.25659" lon="5.93319">
        <ele>399.48852539062</ele>
        <time>2014-05-17T14:51:44Z</time>
      </trkpt>
      <trkpt lat="43.25664" lon="5.93321">
        <ele>399.30963134766</ele>
        <time>2014-05-17T14:51:49Z</time>
      </trkpt>
      <trkpt lat="43.2567" lon="5.93323">
        <ele>399.15090942383</ele>
        <time>2014-05-17T14:51:53Z</time>
      </trkpt>
      <trkpt lat="43.25671" lon="5.93323">
        <ele>399.13842773438</ele>
        <time>2014-05-17T14:51:54Z</time>
      </trkpt>
      <trkpt lat="43.25672" lon="5.93323">
        <ele>399.13464355469</ele>
        <time>2014-05-17T14:51:55Z</time>
      </trkpt>
      <trkpt lat="43.25673" lon="5.93324">
        <ele>399.15405273438</ele>
        <time>2014-05-17T14:51:56Z</time>
      </trkpt>
      <trkpt lat="43.25674" lon="5.93325">
        <ele>399.19201660156</ele>
        <time>2014-05-17T14:51:57Z</time>
      </trkpt>
      <trkpt lat="43.25677" lon="5.93326">
        <ele>399.23333740234</ele>
        <time>2014-05-17T14:52:00Z</time>
      </trkpt>
      <trkpt lat="43.25677" lon="5.93326">
        <ele>399.23333740234</ele>
        <time>2014-05-17T14:52:10Z</time>
      </trkpt>
      <trkpt lat="43.25677" lon="5.93326">
        <ele>399.23333740234</ele>
        <time>2014-05-17T14:52:18Z</time>
      </trkpt>
      <trkpt lat="43.2568" lon="5.9333">
        <ele>399.34301757812</ele>
        <time>2014-05-17T14:52:24Z</time>
      </trkpt>
      <trkpt lat="43.25683" lon="5.93333">
        <ele>399.40380859375</ele>
        <time>2014-05-17T14:52:26Z</time>
      </trkpt>
      <trkpt lat="43.25689" lon="5.9334">
        <ele>400.95938110352</ele>
        <time>2014-05-17T14:52:29Z</time>
      </trkpt>
      <trkpt lat="43.2569" lon="5.93342">
        <ele>401.46212768555</ele>
        <time>2014-05-17T14:52:30Z</time>
      </trkpt>
      <trkpt lat="43.2569" lon="5.93344">
        <ele>402.02145385742</ele>
        <time>2014-05-17T14:52:31Z</time>
      </trkpt>
      <trkpt lat="43.25691" lon="5.93346">
        <ele>402.49703979492</ele>
        <time>2014-05-17T14:52:32Z</time>
      </trkpt>
      <trkpt lat="43.25692" lon="5.93348">
        <ele>402.94427490234</ele>
        <time>2014-05-17T14:52:33Z</time>
      </trkpt>
      <trkpt lat="43.25692" lon="5.93354">
        <ele>404.27377319336</ele>
        <time>2014-05-17T14:52:37Z</time>
      </trkpt>
      <trkpt lat="43.25692" lon="5.93354">
        <ele>404.27377319336</ele>
        <time>2014-05-17T14:52:40Z</time>
      </trkpt>
      <trkpt lat="43.25692" lon="5.93355">
        <ele>404.59005737305</ele>
        <time>2014-05-17T14:52:41Z</time>
      </trkpt>
      <trkpt lat="43.25692" lon="5.93355">
        <ele>404.59005737305</ele>
        <time>2014-05-17T14:52:42Z</time>
      </trkpt>
      <trkpt lat="43.25693" lon="5.93356">
        <ele>404.82015991211</ele>
        <time>2014-05-17T14:52:43Z</time>
      </trkpt>
      <trkpt lat="43.25692" lon="5.93358">
        <ele>405.36730957031</ele>
        <time>2014-05-17T14:52:48Z</time>
      </trkpt>
      <trkpt lat="43.25694" lon="5.93361">
        <ele>405.92630004883</ele>
        <time>2014-05-17T14:52:50Z</time>
      </trkpt>
      <trkpt lat="43.257" lon="5.93365">
        <ele>406.52212524414</ele>
        <time>2014-05-17T14:52:55Z</time>
      </trkpt>
      <trkpt lat="43.25701" lon="5.93366">
        <ele>406.74331665039</ele>
        <time>2014-05-17T14:52:56Z</time>
      </trkpt>
      <trkpt lat="43.25708" lon="5.9337">
        <ele>407.29586791992</ele>
        <time>2014-05-17T14:53:01Z</time>
      </trkpt>
      <trkpt lat="43.25718" lon="5.93377">
        <ele>408.71398925781</ele>
        <time>2014-05-17T14:53:08Z</time>
      </trkpt>
      <trkpt lat="43.25726" lon="5.93382">
        <ele>409.79861450195</ele>
        <time>2014-05-17T14:53:14Z</time>
      </trkpt>
      <trkpt lat="43.25734" lon="5.93387">
        <ele>410.74975585938</ele>
        <time>2014-05-17T14:53:20Z</time>
      </trkpt>
      <trkpt lat="43.25736" lon="5.93389">
        <ele>410.92935180664</ele>
        <time>2014-05-17T14:53:21Z</time>
      </trkpt>
      <trkpt lat="43.25741" lon="5.93394">
        <ele>411.99740600586</ele>
        <time>2014-05-17T14:53:25Z</time>
      </trkpt>
      <trkpt lat="43.25742" lon="5.93395">
        <ele>412.21142578125</ele>
        <time>2014-05-17T14:53:26Z</time>
      </trkpt>
      <trkpt lat="43.25753" lon="5.93403">
        <ele>413.40853881836</ele>
        <time>2014-05-17T14:53:33Z</time>
      </trkpt>
      <trkpt lat="43.25759" lon="5.93406">
        <ele>413.71752929688</ele>
        <time>2014-05-17T14:53:37Z</time>
      </trkpt>
      <trkpt lat="43.2576" lon="5.93406">
        <ele>413.7106628418</ele>
        <time>2014-05-17T14:53:38Z</time>
      </trkpt>
      <trkpt lat="43.2576" lon="5.93406">
        <ele>413.7106628418</ele>
        <time>2014-05-17T14:53:39Z</time>
      </trkpt>
      <trkpt lat="43.25764" lon="5.93408">
        <ele>413.95269775391</ele>
        <time>2014-05-17T14:53:43Z</time>
      </trkpt>
      <trkpt lat="43.25771" lon="5.93417">
        <ele>415.64099121094</ele>
        <time>2014-05-17T14:53:49Z</time>
      </trkpt>
      <trkpt lat="43.2578" lon="5.9343">
        <ele>417.21643066406</ele>
        <time>2014-05-17T14:53:55Z</time>
      </trkpt>
      <trkpt lat="43.2579" lon="5.93432">
        <ele>415.24731445312</ele>
        <time>2014-05-17T14:54:00Z</time>
      </trkpt>
      <trkpt lat="43.25794" lon="5.93433">
        <ele>414.72100830078</ele>
        <time>2014-05-17T14:54:02Z</time>
      </trkpt>
      <trkpt lat="43.25796" lon="5.93435">
        <ele>414.61547851562</ele>
        <time>2014-05-17T14:54:03Z</time>
      </trkpt>
      <trkpt lat="43.25801" lon="5.93441">
        <ele>414.52346801758</ele>
        <time>2014-05-17T14:54:06Z</time>
      </trkpt>
      <trkpt lat="43.25804" lon="5.93446">
        <ele>414.63159179688</ele>
        <time>2014-05-17T14:54:08Z</time>
      </trkpt>
      <trkpt lat="43.25812" lon="5.93458">
        <ele>414.13330078125</ele>
        <time>2014-05-17T14:54:11Z</time>
      </trkpt>
      <trkpt lat="43.25819" lon="5.93467">
        <ele>413.39859008789</ele>
        <time>2014-05-17T14:54:13Z</time>
      </trkpt>
      <trkpt lat="43.25829" lon="5.93483">
        <ele>413.60211181641</ele>
        <time>2014-05-17T14:54:16Z</time>
      </trkpt>
      <trkpt lat="43.2583" lon="5.93488">
        <ele>414.28567504883</ele>
        <time>2014-05-17T14:54:17Z</time>
      </trkpt>
      <trkpt lat="43.25847" lon="5.93527">
        <ele>419.37915039062</ele>
        <time>2014-05-17T14:54:28Z</time>
      </trkpt>
      <trkpt lat="43.25857" lon="5.93537">
        <ele>419.40451049805</ele>
        <time>2014-05-17T14:54:33Z</time>
      </trkpt>
      <trkpt lat="43.25859" lon="5.93541">
        <ele>419.80792236328</ele>
        <time>2014-05-17T14:54:34Z</time>
      </trkpt>
      <trkpt lat="43.25869" lon="5.93562">
        <ele>423.3742980957</ele>
        <time>2014-05-17T14:54:40Z</time>
      </trkpt>
      <trkpt lat="43.2588" lon="5.93582">
        <ele>428.48928833008</ele>
        <time>2014-05-17T14:54:46Z</time>
      </trkpt>
      <trkpt lat="43.25893" lon="5.936">
        <ele>433.00622558594</ele>
        <time>2014-05-17T14:54:51Z</time>
      </trkpt>
      <trkpt lat="43.25906" lon="5.93608">
        <ele>434.12371826172</ele>
        <time>2014-05-17T14:54:55Z</time>
      </trkpt>
      <trkpt lat="43.25923" lon="5.93604">
        <ele>431.1162109375</ele>
        <time>2014-05-17T14:54:59Z</time>
      </trkpt>
      <trkpt lat="43.25935" lon="5.936">
        <ele>428.31985473633</ele>
        <time>2014-05-17T14:55:01Z</time>
      </trkpt>
      <trkpt lat="43.25939" lon="5.93596">
        <ele>426.66674804688</ele>
        <time>2014-05-17T14:55:02Z</time>
      </trkpt>
      <trkpt lat="43.25944" lon="5.93593">
        <ele>425.04455566406</ele>
        <time>2014-05-17T14:55:03Z</time>
      </trkpt>
      <trkpt lat="43.25948" lon="5.93589">
        <ele>423.62481689453</ele>
        <time>2014-05-17T14:55:04Z</time>
      </trkpt>
      <trkpt lat="43.25952" lon="5.93586">
        <ele>422.27532958984</ele>
        <time>2014-05-17T14:55:05Z</time>
      </trkpt>
      <trkpt lat="43.25956" lon="5.93582">
        <ele>420.63726806641</ele>
        <time>2014-05-17T14:55:06Z</time>
      </trkpt>
      <trkpt lat="43.25962" lon="5.93578">
        <ele>417.90914916992</ele>
        <time>2014-05-17T14:55:08Z</time>
      </trkpt>
      <trkpt lat="43.25966" lon="5.93577">
        <ele>417.16989135742</ele>
        <time>2014-05-17T14:55:11Z</time>
      </trkpt>
      <trkpt lat="43.25967" lon="5.93577">
        <ele>416.97247314453</ele>
        <time>2014-05-17T14:55:17Z</time>
      </trkpt>
      <trkpt lat="43.25967" lon="5.93577">
        <ele>416.97247314453</ele>
        <time>2014-05-17T14:55:34Z</time>
      </trkpt>
      <trkpt lat="43.25967" lon="5.93577">
        <ele>416.98477172852</ele>
        <time>2014-05-17T14:55:55Z</time>
      </trkpt>
      <trkpt lat="43.25967" lon="5.93577">
        <ele>416.98477172852</ele>
        <time>2014-05-17T14:56:08Z</time>
      </trkpt>
      <trkpt lat="43.25967" lon="5.93577">
        <ele>416.98477172852</ele>
        <time>2014-05-17T14:56:27Z</time>
      </trkpt>
      <trkpt lat="43.25969" lon="5.93576">
        <ele>416.14544677734</ele>
        <time>2014-05-17T14:56:33Z</time>
      </trkpt>
      <trkpt lat="43.2597" lon="5.93574">
        <ele>415.25231933594</ele>
        <time>2014-05-17T14:56:34Z</time>
      </trkpt>
      <trkpt lat="43.2598" lon="5.93566">
        <ele>409.23458862305</ele>
        <time>2014-05-17T14:56:38Z</time>
      </trkpt>
      <trkpt lat="43.25995" lon="5.93556">
        <ele>401.20941162109</ele>
        <time>2014-05-17T14:56:43Z</time>
      </trkpt>
      <trkpt lat="43.26014" lon="5.93559">
        <ele>401.66305541992</ele>
        <time>2014-05-17T14:56:48Z</time>
      </trkpt>
      <trkpt lat="43.26034" lon="5.93571">
        <ele>405.71871948242</ele>
        <time>2014-05-17T14:56:54Z</time>
      </trkpt>
      <trkpt lat="43.26055" lon="5.93583">
        <ele>406.03680419922</ele>
        <time>2014-05-17T14:57:01Z</time>
      </trkpt>
      <trkpt lat="43.26067" lon="5.93592">
        <ele>407.90258789062</ele>
        <time>2014-05-17T14:57:05Z</time>
      </trkpt>
      <trkpt lat="43.26076" lon="5.93598">
        <ele>409.26559448242</ele>
        <time>2014-05-17T14:57:08Z</time>
      </trkpt>
      <trkpt lat="43.26089" lon="5.93613">
        <ele>412.36743164062</ele>
        <time>2014-05-17T14:57:13Z</time>
      </trkpt>
      <trkpt lat="43.26099" lon="5.93625">
        <ele>413.26937866211</ele>
        <time>2014-05-17T14:57:17Z</time>
      </trkpt>
      <trkpt lat="43.26115" lon="5.93648">
        <ele>415.4582824707</ele>
        <time>2014-05-17T14:57:24Z</time>
      </trkpt>
      <trkpt lat="43.26133" lon="5.93673">
        <ele>417.29724121094</ele>
        <time>2014-05-17T14:57:32Z</time>
      </trkpt>
      <trkpt lat="43.26148" lon="5.93688">
        <ele>416.6286315918</ele>
        <time>2014-05-17T14:57:38Z</time>
      </trkpt>
      <trkpt lat="43.26165" lon="5.93703">
        <ele>415.48434448242</ele>
        <time>2014-05-17T14:57:45Z</time>
      </trkpt>
      <trkpt lat="43.26167" lon="5.93706">
        <ele>415.68710327148</ele>
        <time>2014-05-17T14:57:46Z</time>
      </trkpt>
      <trkpt lat="43.26173" lon="5.93714">
        <ele>415.59344482422</ele>
        <time>2014-05-17T14:57:49Z</time>
      </trkpt>
      <trkpt lat="43.26184" lon="5.93731">
        <ele>413.93313598633</ele>
        <time>2014-05-17T14:57:55Z</time>
      </trkpt>
      <trkpt lat="43.26199" lon="5.93759">
        <ele>411.94049072266</ele>
        <time>2014-05-17T14:58:03Z</time>
      </trkpt>
      <trkpt lat="43.26202" lon="5.93773">
        <ele>412.52401733398</ele>
        <time>2014-05-17T14:58:07Z</time>
      </trkpt>
      <trkpt lat="43.26213" lon="5.93806">
        <ele>413.45275878906</ele>
        <time>2014-05-17T14:58:17Z</time>
      </trkpt>
      <trkpt lat="43.26217" lon="5.93819">
        <ele>413.43215942383</ele>
        <time>2014-05-17T14:58:21Z</time>
      </trkpt>
      <trkpt lat="43.26217" lon="5.93822">
        <ele>413.46649169922</ele>
        <time>2014-05-17T14:58:22Z</time>
      </trkpt>
      <trkpt lat="43.26225" lon="5.93852">
        <ele>413.77743530273</ele>
        <time>2014-05-17T14:58:31Z</time>
      </trkpt>
      <trkpt lat="43.26226" lon="5.93856">
        <ele>413.89569091797</ele>
        <time>2014-05-17T14:58:32Z</time>
      </trkpt>
      <trkpt lat="43.26227" lon="5.9386">
        <ele>413.95254516602</ele>
        <time>2014-05-17T14:58:33Z</time>
      </trkpt>
      <trkpt lat="43.26229" lon="5.93886">
        <ele>416.10427856445</ele>
        <time>2014-05-17T14:58:39Z</time>
      </trkpt>
      <trkpt lat="43.26229" lon="5.93898">
        <ele>416.82168579102</ele>
        <time>2014-05-17T14:58:42Z</time>
      </trkpt>
      <trkpt lat="43.2623" lon="5.93909">
        <ele>417.46026611328</ele>
        <time>2014-05-17T14:58:45Z</time>
      </trkpt>
      <trkpt lat="43.26233" lon="5.93927">
        <ele>417.21051025391</ele>
        <time>2014-05-17T14:58:49Z</time>
      </trkpt>
      <trkpt lat="43.26237" lon="5.93944">
        <ele>416.24920654297</ele>
        <time>2014-05-17T14:58:54Z</time>
      </trkpt>
      <trkpt lat="43.26238" lon="5.93952">
        <ele>415.34255981445</ele>
        <time>2014-05-17T14:58:56Z</time>
      </trkpt>
      <trkpt lat="43.26229" lon="5.93976">
        <ele>416.56820678711</ele>
        <time>2014-05-17T14:59:03Z</time>
      </trkpt>
      <trkpt lat="43.26228" lon="5.9398">
        <ele>416.64770507812</ele>
        <time>2014-05-17T14:59:04Z</time>
      </trkpt>
      <trkpt lat="43.26224" lon="5.93994">
        <ele>416.88528442383</ele>
        <time>2014-05-17T14:59:08Z</time>
      </trkpt>
      <trkpt lat="43.26219" lon="5.94011">
        <ele>417.17086791992</ele>
        <time>2014-05-17T14:59:13Z</time>
      </trkpt>
      <trkpt lat="43.26218" lon="5.94015">
        <ele>417.15158081055</ele>
        <time>2014-05-17T14:59:14Z</time>
      </trkpt>
      <trkpt lat="43.26217" lon="5.94022">
        <ele>417.06774902344</ele>
        <time>2014-05-17T14:59:16Z</time>
      </trkpt>
      <trkpt lat="43.26215" lon="5.94031">
        <ele>417.28732299805</ele>
        <time>2014-05-17T14:59:19Z</time>
      </trkpt>
      <trkpt lat="43.26213" lon="5.94039">
        <ele>417.42904663086</ele>
        <time>2014-05-17T14:59:22Z</time>
      </trkpt>
      <trkpt lat="43.26211" lon="5.94046">
        <ele>417.52450561523</ele>
        <time>2014-05-17T14:59:25Z</time>
      </trkpt>
      <trkpt lat="43.2621" lon="5.94053">
        <ele>417.53131103516</ele>
        <time>2014-05-17T14:59:28Z</time>
      </trkpt>
      <trkpt lat="43.26209" lon="5.94058">
        <ele>417.72503662109</ele>
        <time>2014-05-17T14:59:31Z</time>
      </trkpt>
      <trkpt lat="43.26208" lon="5.9406">
        <ele>417.77996826172</ele>
        <time>2014-05-17T14:59:33Z</time>
      </trkpt>
      <trkpt lat="43.26208" lon="5.9406">
        <ele>417.77996826172</ele>
        <time>2014-05-17T14:59:35Z</time>
      </trkpt>
      <trkpt lat="43.26208" lon="5.94061">
        <ele>418.03747558594</ele>
        <time>2014-05-17T14:59:36Z</time>
      </trkpt>
      <trkpt lat="43.26208" lon="5.94062">
        <ele>417.99627685547</ele>
        <time>2014-05-17T14:59:39Z</time>
      </trkpt>
      <trkpt lat="43.26208" lon="5.94068">
        <ele>417.76452636719</ele>
        <time>2014-05-17T14:59:46Z</time>
      </trkpt>
      <trkpt lat="43.26207" lon="5.94072">
        <ele>417.75079345703</ele>
        <time>2014-05-17T14:59:52Z</time>
      </trkpt>
      <trkpt lat="43.26207" lon="5.94085">
        <ele>417.45278930664</ele>
        <time>2014-05-17T14:59:56Z</time>
      </trkpt>
      <trkpt lat="43.26205" lon="5.94091">
        <ele>418.11288452148</ele>
        <time>2014-05-17T14:59:58Z</time>
      </trkpt>
      <trkpt lat="43.26202" lon="5.94102">
        <ele>419.06567382812</ele>
        <time>2014-05-17T15:00:02Z</time>
      </trkpt>
      <trkpt lat="43.26197" lon="5.94109">
        <ele>420.72686767578</ele>
        <time>2014-05-17T15:00:05Z</time>
      </trkpt>
      <trkpt lat="43.26194" lon="5.94115">
        <ele>421.94046020508</ele>
        <time>2014-05-17T15:00:08Z</time>
      </trkpt>
      <trkpt lat="43.26192" lon="5.94118">
        <ele>422.14129638672</ele>
        <time>2014-05-17T15:00:10Z</time>
      </trkpt>
      <trkpt lat="43.26188" lon="5.94125">
        <ele>422.45715332031</ele>
        <time>2014-05-17T15:00:14Z</time>
      </trkpt>
      <trkpt lat="43.26188" lon="5.94138">
        <ele>421.98852539062</ele>
        <time>2014-05-17T15:00:19Z</time>
      </trkpt>
      <trkpt lat="43.26187" lon="5.94141">
        <ele>422.04516601562</ele>
        <time>2014-05-17T15:00:20Z</time>
      </trkpt>
      <trkpt lat="43.26183" lon="5.94154">
        <ele>422.18078613281</ele>
        <time>2014-05-17T15:00:24Z</time>
      </trkpt>
      <trkpt lat="43.26181" lon="5.94169">
        <ele>421.8869934082</ele>
        <time>2014-05-17T15:00:29Z</time>
      </trkpt>
      <trkpt lat="43.26179" lon="5.94186">
        <ele>421.86541748047</ele>
        <time>2014-05-17T15:00:34Z</time>
      </trkpt>
      <trkpt lat="43.26171" lon="5.94201">
        <ele>422.2268371582</ele>
        <time>2014-05-17T15:00:39Z</time>
      </trkpt>
      <trkpt lat="43.26162" lon="5.94215">
        <ele>422.86572265625</ele>
        <time>2014-05-17T15:00:45Z</time>
      </trkpt>
      <trkpt lat="43.26154" lon="5.94232">
        <ele>423.66607666016</ele>
        <time>2014-05-17T15:00:50Z</time>
      </trkpt>
      <trkpt lat="43.26146" lon="5.94246">
        <ele>424.34631347656</ele>
        <time>2014-05-17T15:00:54Z</time>
      </trkpt>
      <trkpt lat="43.26145" lon="5.94263">
        <ele>423.88153076172</ele>
        <time>2014-05-17T15:00:59Z</time>
      </trkpt>
      <trkpt lat="43.26143" lon="5.94278">
        <ele>423.57769775391</ele>
        <time>2014-05-17T15:01:03Z</time>
      </trkpt>
      <trkpt lat="43.26141" lon="5.94296">
        <ele>423.12109375</ele>
        <time>2014-05-17T15:01:07Z</time>
      </trkpt>
      <trkpt lat="43.26139" lon="5.943">
        <ele>423.177734375</ele>
        <time>2014-05-17T15:01:08Z</time>
      </trkpt>
      <trkpt lat="43.26134" lon="5.94312">
        <ele>423.91186523438</ele>
        <time>2014-05-17T15:01:11Z</time>
      </trkpt>
      <trkpt lat="43.26137" lon="5.94333">
        <ele>423.31100463867</ele>
        <time>2014-05-17T15:01:15Z</time>
      </trkpt>
      <trkpt lat="43.26138" lon="5.94339">
        <ele>422.89105224609</ele>
        <time>2014-05-17T15:01:16Z</time>
      </trkpt>
      <trkpt lat="43.26139" lon="5.94365">
        <ele>421.68884277344</ele>
        <time>2014-05-17T15:01:20Z</time>
      </trkpt>
      <trkpt lat="43.26138" lon="5.94375">
        <ele>421.14334106445</ele>
        <time>2014-05-17T15:01:22Z</time>
      </trkpt>
      <trkpt lat="43.26137" lon="5.94393">
        <ele>420.36361694336</ele>
        <time>2014-05-17T15:01:26Z</time>
      </trkpt>
      <trkpt lat="43.26136" lon="5.94401">
        <ele>420.5751953125</ele>
        <time>2014-05-17T15:01:28Z</time>
      </trkpt>
      <trkpt lat="43.26134" lon="5.94404">
        <ele>420.94003295898</ele>
        <time>2014-05-17T15:01:29Z</time>
      </trkpt>
      <trkpt lat="43.26119" lon="5.9442">
        <ele>423.27459716797</ele>
        <time>2014-05-17T15:01:34Z</time>
      </trkpt>
      <trkpt lat="43.261" lon="5.94433">
        <ele>425.62072753906</ele>
        <time>2014-05-17T15:01:39Z</time>
      </trkpt>
      <trkpt lat="43.26089" lon="5.9444">
        <ele>427.23742675781</ele>
        <time>2014-05-17T15:01:43Z</time>
      </trkpt>
      <trkpt lat="43.26078" lon="5.94452">
        <ele>428.11819458008</ele>
        <time>2014-05-17T15:01:47Z</time>
      </trkpt>
      <trkpt lat="43.26075" lon="5.94454">
        <ele>428.24520874023</ele>
        <time>2014-05-17T15:01:48Z</time>
      </trkpt>
      <trkpt lat="43.26072" lon="5.94457">
        <ele>428.36538696289</ele>
        <time>2014-05-17T15:01:49Z</time>
      </trkpt>
      <trkpt lat="43.2607" lon="5.9446">
        <ele>428.44262695312</ele>
        <time>2014-05-17T15:01:50Z</time>
      </trkpt>
      <trkpt lat="43.26068" lon="5.94462">
        <ele>428.42889404297</ele>
        <time>2014-05-17T15:01:51Z</time>
      </trkpt>
      <trkpt lat="43.26068" lon="5.94465">
        <ele>428.3310546875</ele>
        <time>2014-05-17T15:01:52Z</time>
      </trkpt>
      <trkpt lat="43.26069" lon="5.94469">
        <ele>428.13018798828</ele>
        <time>2014-05-17T15:01:53Z</time>
      </trkpt>
      <trkpt lat="43.2607" lon="5.94473">
        <ele>427.90600585938</ele>
        <time>2014-05-17T15:01:54Z</time>
      </trkpt>
      <trkpt lat="43.26073" lon="5.94481">
        <ele>427.33660888672</ele>
        <time>2014-05-17T15:01:56Z</time>
      </trkpt>
      <trkpt lat="43.26074" lon="5.94486">
        <ele>426.99987792969</ele>
        <time>2014-05-17T15:01:57Z</time>
      </trkpt>
      <trkpt lat="43.26076" lon="5.94491">
        <ele>426.64569091797</ele>
        <time>2014-05-17T15:01:58Z</time>
      </trkpt>
      <trkpt lat="43.26077" lon="5.94498">
        <ele>426.31790161133</ele>
        <time>2014-05-17T15:01:59Z</time>
      </trkpt>
      <trkpt lat="43.26079" lon="5.94503">
        <ele>425.99194335938</ele>
        <time>2014-05-17T15:02:00Z</time>
      </trkpt>
      <trkpt lat="43.2608" lon="5.94508">
        <ele>425.61309814453</ele>
        <time>2014-05-17T15:02:01Z</time>
      </trkpt>
      <trkpt lat="43.2608" lon="5.94513">
        <ele>425.2272644043</ele>
        <time>2014-05-17T15:02:02Z</time>
      </trkpt>
      <trkpt lat="43.26081" lon="5.94517">
        <ele>424.92584228516</ele>
        <time>2014-05-17T15:02:03Z</time>
      </trkpt>
      <trkpt lat="43.2608" lon="5.9452">
        <ele>424.72393798828</ele>
        <time>2014-05-17T15:02:04Z</time>
      </trkpt>
      <trkpt lat="43.2608" lon="5.94524">
        <ele>424.5283203125</ele>
        <time>2014-05-17T15:02:05Z</time>
      </trkpt>
      <trkpt lat="43.26079" lon="5.94529">
        <ele>424.32083129883</ele>
        <time>2014-05-17T15:02:06Z</time>
      </trkpt>
      <trkpt lat="43.26078" lon="5.94535">
        <ele>424.35470581055</ele>
        <time>2014-05-17T15:02:07Z</time>
      </trkpt>
      <trkpt lat="43.26074" lon="5.94548">
        <ele>424.43441772461</ele>
        <time>2014-05-17T15:02:09Z</time>
      </trkpt>
      <trkpt lat="43.26072" lon="5.94554">
        <ele>424.45098876953</ele>
        <time>2014-05-17T15:02:10Z</time>
      </trkpt>
      <trkpt lat="43.26063" lon="5.94572">
        <ele>423.56500244141</ele>
        <time>2014-05-17T15:02:13Z</time>
      </trkpt>
      <trkpt lat="43.2606" lon="5.94577">
        <ele>423.31439208984</ele>
        <time>2014-05-17T15:02:14Z</time>
      </trkpt>
      <trkpt lat="43.26058" lon="5.94582">
        <ele>423.02600097656</ele>
        <time>2014-05-17T15:02:15Z</time>
      </trkpt>
      <trkpt lat="43.26057" lon="5.94586">
        <ele>422.83325195312</ele>
        <time>2014-05-17T15:02:16Z</time>
      </trkpt>
      <trkpt lat="43.26059" lon="5.94609">
        <ele>421.95950317383</ele>
        <time>2014-05-17T15:02:21Z</time>
      </trkpt>
      <trkpt lat="43.26057" lon="5.94633">
        <ele>421.07797241211</ele>
        <time>2014-05-17T15:02:26Z</time>
      </trkpt>
      <trkpt lat="43.26057" lon="5.94657">
        <ele>417.54611206055</ele>
        <time>2014-05-17T15:02:31Z</time>
      </trkpt>
      <trkpt lat="43.26056" lon="5.94683">
        <ele>411.99639892578</ele>
        <time>2014-05-17T15:02:36Z</time>
      </trkpt>
      <trkpt lat="43.26055" lon="5.94687">
        <ele>410.8525390625</ele>
        <time>2014-05-17T15:02:37Z</time>
      </trkpt>
      <trkpt lat="43.26049" lon="5.947">
        <ele>408.15841674805</ele>
        <time>2014-05-17T15:02:41Z</time>
      </trkpt>
      <trkpt lat="43.26048" lon="5.94704">
        <ele>407.64343261719</ele>
        <time>2014-05-17T15:02:42Z</time>
      </trkpt>
      <trkpt lat="43.26041" lon="5.94716">
        <ele>405.87188720703</ele>
        <time>2014-05-17T15:02:46Z</time>
      </trkpt>
      <trkpt lat="43.26036" lon="5.94725">
        <ele>404.42611694336</ele>
        <time>2014-05-17T15:02:49Z</time>
      </trkpt>
      <trkpt lat="43.26033" lon="5.94729">
        <ele>403.67303466797</ele>
        <time>2014-05-17T15:02:51Z</time>
      </trkpt>
      <trkpt lat="43.26029" lon="5.94735">
        <ele>402.71716308594</ele>
        <time>2014-05-17T15:02:58Z</time>
      </trkpt>
      <trkpt lat="43.26029" lon="5.94735">
        <ele>402.71716308594</ele>
        <time>2014-05-17T15:03:15Z</time>
      </trkpt>
      <trkpt lat="43.26028" lon="5.94736">
        <ele>402.57958984375</ele>
        <time>2014-05-17T15:03:22Z</time>
      </trkpt>
      <trkpt lat="43.26027" lon="5.94738">
        <ele>402.18725585938</ele>
        <time>2014-05-17T15:03:26Z</time>
      </trkpt>
      <trkpt lat="43.26025" lon="5.94744">
        <ele>401.29132080078</ele>
        <time>2014-05-17T15:03:29Z</time>
      </trkpt>
      <trkpt lat="43.2602" lon="5.94751">
        <ele>400.66757202148</ele>
        <time>2014-05-17T15:03:32Z</time>
      </trkpt>
      <trkpt lat="43.26015" lon="5.94756">
        <ele>400.38375854492</ele>
        <time>2014-05-17T15:03:34Z</time>
      </trkpt>
      <trkpt lat="43.26003" lon="5.94767">
        <ele>400.12057495117</ele>
        <time>2014-05-17T15:03:38Z</time>
      </trkpt>
      <trkpt lat="43.26" lon="5.94771">
        <ele>400.09088134766</ele>
        <time>2014-05-17T15:03:39Z</time>
      </trkpt>
      <trkpt lat="43.25997" lon="5.94775">
        <ele>400.21926879883</ele>
        <time>2014-05-17T15:03:40Z</time>
      </trkpt>
      <trkpt lat="43.25994" lon="5.94779">
        <ele>400.59362792969</ele>
        <time>2014-05-17T15:03:41Z</time>
      </trkpt>
      <trkpt lat="43.25991" lon="5.94782">
        <ele>401.25793457031</ele>
        <time>2014-05-17T15:03:42Z</time>
      </trkpt>
      <trkpt lat="43.25985" lon="5.94785">
        <ele>402.66555786133</ele>
        <time>2014-05-17T15:03:44Z</time>
      </trkpt>
      <trkpt lat="43.25972" lon="5.9479">
        <ele>405.61987304688</ele>
        <time>2014-05-17T15:03:49Z</time>
      </trkpt>
      <trkpt lat="43.25966" lon="5.94789">
        <ele>408.42068481445</ele>
        <time>2014-05-17T15:03:52Z</time>
      </trkpt>
      <trkpt lat="43.25964" lon="5.94788">
        <ele>409.51217651367</ele>
        <time>2014-05-17T15:03:55Z</time>
      </trkpt>
      <trkpt lat="43.25962" lon="5.9479">
        <ele>409.90277099609</ele>
        <time>2014-05-17T15:04:01Z</time>
      </trkpt>
      <trkpt lat="43.2596" lon="5.94793">
        <ele>410.37222290039</ele>
        <time>2014-05-17T15:04:02Z</time>
      </trkpt>
      <trkpt lat="43.25957" lon="5.94805">
        <ele>409.96527099609</ele>
        <time>2014-05-17T15:04:05Z</time>
      </trkpt>
      <trkpt lat="43.25956" lon="5.94808">
        <ele>410.2470703125</ele>
        <time>2014-05-17T15:04:06Z</time>
      </trkpt>
      <trkpt lat="43.25952" lon="5.94826">
        <ele>408.58465576172</ele>
        <time>2014-05-17T15:04:10Z</time>
      </trkpt>
      <trkpt lat="43.2595" lon="5.94833">
        <ele>407.88482666016</ele>
        <time>2014-05-17T15:04:12Z</time>
      </trkpt>
      <trkpt lat="43.25949" lon="5.94836">
        <ele>407.68991088867</ele>
        <time>2014-05-17T15:04:13Z</time>
      </trkpt>
      <trkpt lat="43.25948" lon="5.94839">
        <ele>407.68344116211</ele>
        <time>2014-05-17T15:04:15Z</time>
      </trkpt>
      <trkpt lat="43.25947" lon="5.94842">
        <ele>407.36361694336</ele>
        <time>2014-05-17T15:04:16Z</time>
      </trkpt>
      <trkpt lat="43.25944" lon="5.9485">
        <ele>406.57427978516</ele>
        <time>2014-05-17T15:04:19Z</time>
      </trkpt>
      <trkpt lat="43.25942" lon="5.94852">
        <ele>406.51934814453</ele>
        <time>2014-05-17T15:04:20Z</time>
      </trkpt>
      <trkpt lat="43.2594" lon="5.94854">
        <ele>406.68756103516</ele>
        <time>2014-05-17T15:04:21Z</time>
      </trkpt>
      <trkpt lat="43.25938" lon="5.94856">
        <ele>406.83520507812</ele>
        <time>2014-05-17T15:04:22Z</time>
      </trkpt>
      <trkpt lat="43.25935" lon="5.94861">
        <ele>406.72296142578</ele>
        <time>2014-05-17T15:04:24Z</time>
      </trkpt>
      <trkpt lat="43.25932" lon="5.94866">
        <ele>406.91522216797</ele>
        <time>2014-05-17T15:04:26Z</time>
      </trkpt>
      <trkpt lat="43.25925" lon="5.94873">
        <ele>407.72546386719</ele>
        <time>2014-05-17T15:04:29Z</time>
      </trkpt>
      <trkpt lat="43.25923" lon="5.9488">
        <ele>407.56066894531</ele>
        <time>2014-05-17T15:04:31Z</time>
      </trkpt>
      <trkpt lat="43.25921" lon="5.94889">
        <ele>406.75610351562</ele>
        <time>2014-05-17T15:04:33Z</time>
      </trkpt>
      <trkpt lat="43.25916" lon="5.94897">
        <ele>406.55725097656</ele>
        <time>2014-05-17T15:04:35Z</time>
      </trkpt>
      <trkpt lat="43.25905" lon="5.94914">
        <ele>405.3864440918</ele>
        <time>2014-05-17T15:04:40Z</time>
      </trkpt>
      <trkpt lat="43.25901" lon="5.9494">
        <ele>403.00909423828</ele>
        <time>2014-05-17T15:04:46Z</time>
      </trkpt>
      <trkpt lat="43.25899" lon="5.94961">
        <ele>400.01693725586</ele>
        <time>2014-05-17T15:04:51Z</time>
      </trkpt>
      <trkpt lat="43.25897" lon="5.94982">
        <ele>397.75283813477</ele>
        <time>2014-05-17T15:04:55Z</time>
      </trkpt>
      <trkpt lat="43.25896" lon="5.94992">
        <ele>397.05404663086</ele>
        <time>2014-05-17T15:04:57Z</time>
      </trkpt>
      <trkpt lat="43.25895" lon="5.94996">
        <ele>397.02062988281</ele>
        <time>2014-05-17T15:04:58Z</time>
      </trkpt>
      <trkpt lat="43.25892" lon="5.95">
        <ele>397.35348510742</ele>
        <time>2014-05-17T15:04:59Z</time>
      </trkpt>
      <trkpt lat="43.25879" lon="5.95021">
        <ele>397.97442626953</ele>
        <time>2014-05-17T15:05:05Z</time>
      </trkpt>
      <trkpt lat="43.2587" lon="5.95025">
        <ele>398.44821166992</ele>
        <time>2014-05-17T15:05:09Z</time>
      </trkpt>
      <trkpt lat="43.25867" lon="5.95026">
        <ele>398.63531494141</ele>
        <time>2014-05-17T15:05:10Z</time>
      </trkpt>
      <trkpt lat="43.25858" lon="5.95032">
        <ele>399.27633666992</ele>
        <time>2014-05-17T15:05:14Z</time>
      </trkpt>
      <trkpt lat="43.25844" lon="5.95041">
        <ele>400.09744262695</ele>
        <time>2014-05-17T15:05:21Z</time>
      </trkpt>
      <trkpt lat="43.25841" lon="5.95047">
        <ele>399.72897338867</ele>
        <time>2014-05-17T15:05:23Z</time>
      </trkpt>
      <trkpt lat="43.25839" lon="5.9505">
        <ele>399.42538452148</ele>
        <time>2014-05-17T15:05:24Z</time>
      </trkpt>
      <trkpt lat="43.25836" lon="5.95058">
        <ele>398.8092956543</ele>
        <time>2014-05-17T15:05:26Z</time>
      </trkpt>
      <trkpt lat="43.25834" lon="5.95065">
        <ele>398.65753173828</ele>
        <time>2014-05-17T15:05:28Z</time>
      </trkpt>
      <trkpt lat="43.25834" lon="5.95069">
        <ele>398.51416015625</ele>
        <time>2014-05-17T15:05:29Z</time>
      </trkpt>
      <trkpt lat="43.25834" lon="5.95071">
        <ele>398.42950439453</ele>
        <time>2014-05-17T15:05:30Z</time>
      </trkpt>
      <trkpt lat="43.25834" lon="5.95072">
        <ele>398.36602783203</ele>
        <time>2014-05-17T15:05:31Z</time>
      </trkpt>
      <trkpt lat="43.25835" lon="5.95074">
        <ele>398.27349853516</ele>
        <time>2014-05-17T15:05:32Z</time>
      </trkpt>
      <trkpt lat="43.25835" lon="5.95074">
        <ele>398.27349853516</ele>
        <time>2014-05-17T15:05:51Z</time>
      </trkpt>
      <trkpt lat="43.25835" lon="5.95074">
        <ele>398.27529907227</ele>
        <time>2014-05-17T15:06:15Z</time>
      </trkpt>
      <trkpt lat="43.25835" lon="5.95074">
        <ele>398.27529907227</ele>
        <time>2014-05-17T15:06:19Z</time>
      </trkpt>
      <trkpt lat="43.25836" lon="5.95079">
        <ele>397.97570800781</ele>
        <time>2014-05-17T15:06:23Z</time>
      </trkpt>
      <trkpt lat="43.25838" lon="5.95082">
        <ele>397.69384765625</ele>
        <time>2014-05-17T15:06:25Z</time>
      </trkpt>
      <trkpt lat="43.2584" lon="5.95085">
        <ele>397.48596191406</ele>
        <time>2014-05-17T15:06:26Z</time>
      </trkpt>
      <trkpt lat="43.25842" lon="5.95088">
        <ele>397.23193359375</ele>
        <time>2014-05-17T15:06:27Z</time>
      </trkpt>
      <trkpt lat="43.25844" lon="5.95091">
        <ele>396.97442626953</ele>
        <time>2014-05-17T15:06:28Z</time>
      </trkpt>
      <trkpt lat="43.25846" lon="5.95093">
        <ele>396.72036743164</ele>
        <time>2014-05-17T15:06:29Z</time>
      </trkpt>
      <trkpt lat="43.2585" lon="5.95096">
        <ele>396.36846923828</ele>
        <time>2014-05-17T15:06:30Z</time>
      </trkpt>
      <trkpt lat="43.25853" lon="5.95099">
        <ele>396.0182800293</ele>
        <time>2014-05-17T15:06:31Z</time>
      </trkpt>
      <trkpt lat="43.25856" lon="5.95102">
        <ele>395.66122436523</ele>
        <time>2014-05-17T15:06:32Z</time>
      </trkpt>
      <trkpt lat="43.25861" lon="5.95105">
        <ele>395.2629699707</ele>
        <time>2014-05-17T15:06:33Z</time>
      </trkpt>
      <trkpt lat="43.25864" lon="5.95107">
        <ele>394.78540039062</ele>
        <time>2014-05-17T15:06:34Z</time>
      </trkpt>
      <trkpt lat="43.25866" lon="5.95114">
        <ele>394.28515625</ele>
        <time>2014-05-17T15:06:35Z</time>
      </trkpt>
      <trkpt lat="43.25866" lon="5.9512">
        <ele>393.86627197266</ele>
        <time>2014-05-17T15:06:36Z</time>
      </trkpt>
      <trkpt lat="43.25863" lon="5.95135">
        <ele>393.11096191406</ele>
        <time>2014-05-17T15:06:40Z</time>
      </trkpt>
      <trkpt lat="43.25863" lon="5.95138">
        <ele>392.86376953125</ele>
        <time>2014-05-17T15:06:41Z</time>
      </trkpt>
      <trkpt lat="43.25863" lon="5.9514">
        <ele>392.71014404297</ele>
        <time>2014-05-17T15:06:42Z</time>
      </trkpt>
      <trkpt lat="43.25866" lon="5.95145">
        <ele>392.19738769531</ele>
        <time>2014-05-17T15:06:45Z</time>
      </trkpt>
      <trkpt lat="43.25872" lon="5.95146">
        <ele>391.52249145508</ele>
        <time>2014-05-17T15:06:49Z</time>
      </trkpt>
      <trkpt lat="43.25873" lon="5.95146">
        <ele>391.39852905273</ele>
        <time>2014-05-17T15:06:50Z</time>
      </trkpt>
      <trkpt lat="43.25877" lon="5.95146">
        <ele>390.90298461914</ele>
        <time>2014-05-17T15:06:53Z</time>
      </trkpt>
      <trkpt lat="43.25879" lon="5.95148">
        <ele>390.54614257812</ele>
        <time>2014-05-17T15:06:56Z</time>
      </trkpt>
      <trkpt lat="43.25879" lon="5.95148">
        <ele>390.49765014648</ele>
        <time>2014-05-17T15:06:57Z</time>
      </trkpt>
      <trkpt lat="43.25879" lon="5.95148">
        <ele>390.49765014648</ele>
        <time>2014-05-17T15:07:04Z</time>
      </trkpt>
      <trkpt lat="43.25883" lon="5.95149">
        <ele>389.96710205078</ele>
        <time>2014-05-17T15:07:11Z</time>
      </trkpt>
      <trkpt lat="43.25887" lon="5.95151">
        <ele>389.41940307617</ele>
        <time>2014-05-17T15:07:20Z</time>
      </trkpt>
      <trkpt lat="43.25887" lon="5.95151">
        <ele>389.41940307617</ele>
        <time>2014-05-17T15:07:24Z</time>
      </trkpt>
      <trkpt lat="43.25887" lon="5.95151">
        <ele>389.29504394531</ele>
        <time>2014-05-17T15:07:30Z</time>
      </trkpt>
      <trkpt lat="43.25891" lon="5.95154">
        <ele>388.10217285156</ele>
        <time>2014-05-17T15:07:35Z</time>
      </trkpt>
      <trkpt lat="43.25891" lon="5.95154">
        <ele>387.92364501953</ele>
        <time>2014-05-17T15:07:40Z</time>
      </trkpt>
      <trkpt lat="43.25891" lon="5.95154">
        <ele>387.92364501953</ele>
        <time>2014-05-17T15:07:51Z</time>
      </trkpt>
      <trkpt lat="43.25891" lon="5.95155">
        <ele>387.86871337891</ele>
        <time>2014-05-17T15:07:58Z</time>
      </trkpt>
      <trkpt lat="43.25893" lon="5.95159">
        <ele>386.92456054688</ele>
        <time>2014-05-17T15:08:02Z</time>
      </trkpt>
      <trkpt lat="43.25893" lon="5.9516">
        <ele>386.49542236328</ele>
        <time>2014-05-17T15:08:03Z</time>
      </trkpt>
      <trkpt lat="43.25899" lon="5.95172">
        <ele>383.33795166016</ele>
        <time>2014-05-17T15:08:08Z</time>
      </trkpt>
      <trkpt lat="43.25901" lon="5.9518">
        <ele>381.91128540039</ele>
        <time>2014-05-17T15:08:12Z</time>
      </trkpt>
      <trkpt lat="43.25903" lon="5.95184">
        <ele>381.15689086914</ele>
        <time>2014-05-17T15:08:14Z</time>
      </trkpt>
      <trkpt lat="43.25904" lon="5.95206">
        <ele>379.26486206055</ele>
        <time>2014-05-17T15:08:19Z</time>
      </trkpt>
      <trkpt lat="43.25905" lon="5.95232">
        <ele>377.01501464844</ele>
        <time>2014-05-17T15:08:23Z</time>
      </trkpt>
      <trkpt lat="43.25905" lon="5.95239">
        <ele>376.66995239258</ele>
        <time>2014-05-17T15:08:24Z</time>
      </trkpt>
      <trkpt lat="43.25904" lon="5.95246">
        <ele>376.50170898438</ele>
        <time>2014-05-17T15:08:25Z</time>
      </trkpt>
      <trkpt lat="43.25901" lon="5.95264">
        <ele>377.46575927734</ele>
        <time>2014-05-17T15:08:28Z</time>
      </trkpt>
      <trkpt lat="43.25901" lon="5.95306">
        <ele>375.75347900391</ele>
        <time>2014-05-17T15:08:34Z</time>
      </trkpt>
      <trkpt lat="43.25903" lon="5.95326">
        <ele>374.44290161133</ele>
        <time>2014-05-17T15:08:37Z</time>
      </trkpt>
      <trkpt lat="43.25904" lon="5.95341">
        <ele>373.69018554688</ele>
        <time>2014-05-17T15:08:39Z</time>
      </trkpt>
      <trkpt lat="43.25909" lon="5.9536">
        <ele>371.36193847656</ele>
        <time>2014-05-17T15:08:42Z</time>
      </trkpt>
      <trkpt lat="43.2591" lon="5.95367">
        <ele>370.75924682617</ele>
        <time>2014-05-17T15:08:43Z</time>
      </trkpt>
      <trkpt lat="43.25911" lon="5.95375">
        <ele>370.34765625</ele>
        <time>2014-05-17T15:08:44Z</time>
      </trkpt>
      <trkpt lat="43.25912" lon="5.95382">
        <ele>369.98141479492</ele>
        <time>2014-05-17T15:08:45Z</time>
      </trkpt>
      <trkpt lat="43.25913" lon="5.95389">
        <ele>369.81817626953</ele>
        <time>2014-05-17T15:08:46Z</time>
      </trkpt>
      <trkpt lat="43.25909" lon="5.95413">
        <ele>370.17474365234</ele>
        <time>2014-05-17T15:08:49Z</time>
      </trkpt>
      <trkpt lat="43.25907" lon="5.9542">
        <ele>370.15808105469</ele>
        <time>2014-05-17T15:08:50Z</time>
      </trkpt>
      <trkpt lat="43.25904" lon="5.95427">
        <ele>370.08941650391</ele>
        <time>2014-05-17T15:08:51Z</time>
      </trkpt>
      <trkpt lat="43.25901" lon="5.95432">
        <ele>370.19927978516</ele>
        <time>2014-05-17T15:08:52Z</time>
      </trkpt>
      <trkpt lat="43.25898" lon="5.95436">
        <ele>370.36407470703</ele>
        <time>2014-05-17T15:08:53Z</time>
      </trkpt>
      <trkpt lat="43.25895" lon="5.95438">
        <ele>370.63531494141</ele>
        <time>2014-05-17T15:08:54Z</time>
      </trkpt>
      <trkpt lat="43.2589" lon="5.95442">
        <ele>371.09191894531</ele>
        <time>2014-05-17T15:08:57Z</time>
      </trkpt>
      <trkpt lat="43.25889" lon="5.95443">
        <ele>371.11264038086</ele>
        <time>2014-05-17T15:08:59Z</time>
      </trkpt>
      <trkpt lat="43.25889" lon="5.95443">
        <ele>371.11264038086</ele>
        <time>2014-05-17T15:09:00Z</time>
      </trkpt>
      <trkpt lat="43.25888" lon="5.95446">
        <ele>370.94442749023</ele>
        <time>2014-05-17T15:09:01Z</time>
      </trkpt>
      <trkpt lat="43.25889" lon="5.95449">
        <ele>370.46893310547</ele>
        <time>2014-05-17T15:09:02Z</time>
      </trkpt>
      <trkpt lat="43.2589" lon="5.95455">
        <ele>369.74182128906</ele>
        <time>2014-05-17T15:09:03Z</time>
      </trkpt>
      <trkpt lat="43.25891" lon="5.95459">
        <ele>369.15371704102</ele>
        <time>2014-05-17T15:09:04Z</time>
      </trkpt>
      <trkpt lat="43.25891" lon="5.95464">
        <ele>368.67529296875</ele>
        <time>2014-05-17T15:09:05Z</time>
      </trkpt>
      <trkpt lat="43.2589" lon="5.95468">
        <ele>368.25509643555</ele>
        <time>2014-05-17T15:09:06Z</time>
      </trkpt>
      <trkpt lat="43.2589" lon="5.95473">
        <ele>367.79278564453</ele>
        <time>2014-05-17T15:09:07Z</time>
      </trkpt>
      <trkpt lat="43.25889" lon="5.95479">
        <ele>367.45977783203</ele>
        <time>2014-05-17T15:09:08Z</time>
      </trkpt>
      <trkpt lat="43.25888" lon="5.95485">
        <ele>367.16680908203</ele>
        <time>2014-05-17T15:09:09Z</time>
      </trkpt>
      <trkpt lat="43.25888" lon="5.9549">
        <ele>366.82348632812</ele>
        <time>2014-05-17T15:09:10Z</time>
      </trkpt>
      <trkpt lat="43.25887" lon="5.95496">
        <ele>366.54541015625</ele>
        <time>2014-05-17T15:09:11Z</time>
      </trkpt>
      <trkpt lat="43.25887" lon="5.95501">
        <ele>366.13067626953</ele>
        <time>2014-05-17T15:09:12Z</time>
      </trkpt>
      <trkpt lat="43.25888" lon="5.95507">
        <ele>365.63537597656</ele>
        <time>2014-05-17T15:09:13Z</time>
      </trkpt>
      <trkpt lat="43.2589" lon="5.95516">
        <ele>364.70629882812</ele>
        <time>2014-05-17T15:09:15Z</time>
      </trkpt>
      <trkpt lat="43.25891" lon="5.95519">
        <ele>364.37670898438</ele>
        <time>2014-05-17T15:09:16Z</time>
      </trkpt>
      <trkpt lat="43.2589" lon="5.95523">
        <ele>364.19134521484</ele>
        <time>2014-05-17T15:09:17Z</time>
      </trkpt>
      <trkpt lat="43.25885" lon="5.95539">
        <ele>363.20721435547</ele>
        <time>2014-05-17T15:09:21Z</time>
      </trkpt>
      <trkpt lat="43.25882" lon="5.95547">
        <ele>362.69219970703</ele>
        <time>2014-05-17T15:09:23Z</time>
      </trkpt>
      <trkpt lat="43.2588" lon="5.9555">
        <ele>362.55316162109</ele>
        <time>2014-05-17T15:09:24Z</time>
      </trkpt>
      <trkpt lat="43.25875" lon="5.95558">
        <ele>362.36392211914</ele>
        <time>2014-05-17T15:09:27Z</time>
      </trkpt>
      <trkpt lat="43.25859" lon="5.95565">
        <ele>363.57241821289</ele>
        <time>2014-05-17T15:09:33Z</time>
      </trkpt>
      <trkpt lat="43.25842" lon="5.95572">
        <ele>364.95944213867</ele>
        <time>2014-05-17T15:09:39Z</time>
      </trkpt>
      <trkpt lat="43.2584" lon="5.95574">
        <ele>364.98004150391</ele>
        <time>2014-05-17T15:09:40Z</time>
      </trkpt>
      <trkpt lat="43.25836" lon="5.95583">
        <ele>364.72216796875</ele>
        <time>2014-05-17T15:09:43Z</time>
      </trkpt>
      <trkpt lat="43.25834" lon="5.9559">
        <ele>364.29989624023</ele>
        <time>2014-05-17T15:09:45Z</time>
      </trkpt>
      <trkpt lat="43.25827" lon="5.95599">
        <ele>363.93939208984</ele>
        <time>2014-05-17T15:09:49Z</time>
      </trkpt>
      <trkpt lat="43.25819" lon="5.95608">
        <ele>363.90335083008</ele>
        <time>2014-05-17T15:09:54Z</time>
      </trkpt>
      <trkpt lat="43.25815" lon="5.95611">
        <ele>363.97030639648</ele>
        <time>2014-05-17T15:09:56Z</time>
      </trkpt>
      <trkpt lat="43.25811" lon="5.95615">
        <ele>364.05270385742</ele>
        <time>2014-05-17T15:09:59Z</time>
      </trkpt>
      <trkpt lat="43.25806" lon="5.95616">
        <ele>364.3359375</ele>
        <time>2014-05-17T15:10:01Z</time>
      </trkpt>
      <trkpt lat="43.25792" lon="5.95624">
        <ele>365.55426025391</ele>
        <time>2014-05-17T15:10:08Z</time>
      </trkpt>
      <trkpt lat="43.25783" lon="5.95627">
        <ele>366.46578979492</ele>
        <time>2014-05-17T15:10:13Z</time>
      </trkpt>
      <trkpt lat="43.25779" lon="5.9563">
        <ele>366.81768798828</ele>
        <time>2014-05-17T15:10:16Z</time>
      </trkpt>
      <trkpt lat="43.25776" lon="5.95632">
        <ele>367.48159790039</ele>
        <time>2014-05-17T15:10:18Z</time>
      </trkpt>
      <trkpt lat="43.25769" lon="5.95642">
        <ele>369.0920715332</ele>
        <time>2014-05-17T15:10:24Z</time>
      </trkpt>
      <trkpt lat="43.25766" lon="5.95652">
        <ele>369.64279174805</ele>
        <time>2014-05-17T15:10:29Z</time>
      </trkpt>
      <trkpt lat="43.25761" lon="5.95664">
        <ele>370.77618408203</ele>
        <time>2014-05-17T15:10:35Z</time>
      </trkpt>
      <trkpt lat="43.25755" lon="5.9568">
        <ele>371.91403198242</ele>
        <time>2014-05-17T15:10:43Z</time>
      </trkpt>
      <trkpt lat="43.2575" lon="5.95688">
        <ele>373.49038696289</ele>
        <time>2014-05-17T15:10:48Z</time>
      </trkpt>
      <trkpt lat="43.2575" lon="5.95688">
        <ele>373.43548583984</ele>
        <time>2014-05-17T15:10:50Z</time>
      </trkpt>
      <trkpt lat="43.2575" lon="5.95688">
        <ele>373.43548583984</ele>
        <time>2014-05-17T15:11:06Z</time>
      </trkpt>
      <trkpt lat="43.2575" lon="5.95688">
        <ele>373.43548583984</ele>
        <time>2014-05-17T15:11:25Z</time>
      </trkpt>
      <trkpt lat="43.25748" lon="5.95691">
        <ele>373.50366210938</ele>
        <time>2014-05-17T15:11:35Z</time>
      </trkpt>
      <trkpt lat="43.25745" lon="5.95699">
        <ele>373.42205810547</ele>
        <time>2014-05-17T15:11:38Z</time>
      </trkpt>
      <trkpt lat="43.25744" lon="5.95702">
        <ele>373.3740234375</ele>
        <time>2014-05-17T15:11:39Z</time>
      </trkpt>
      <trkpt lat="43.25743" lon="5.95714">
        <ele>372.98434448242</ele>
        <time>2014-05-17T15:11:44Z</time>
      </trkpt>
      <trkpt lat="43.25743" lon="5.95715">
        <ele>372.99807739258</ele>
        <time>2014-05-17T15:11:46Z</time>
      </trkpt>
      <trkpt lat="43.25743" lon="5.95717">
        <ele>372.87963867188</ele>
        <time>2014-05-17T15:11:52Z</time>
      </trkpt>
      <trkpt lat="43.25743" lon="5.95718">
        <ele>372.86074829102</ele>
        <time>2014-05-17T15:11:57Z</time>
      </trkpt>
      <trkpt lat="43.25744" lon="5.95718">
        <ele>372.80923461914</ele>
        <time>2014-05-17T15:12:00Z</time>
      </trkpt>
      <trkpt lat="43.25744" lon="5.95721">
        <ele>372.7216796875</ele>
        <time>2014-05-17T15:12:07Z</time>
      </trkpt>
      <trkpt lat="43.25744" lon="5.95721">
        <ele>372.70111083984</ele>
        <time>2014-05-17T15:12:09Z</time>
      </trkpt>
      <trkpt lat="43.25742" lon="5.95724">
        <ele>372.75344848633</ele>
        <time>2014-05-17T15:12:14Z</time>
      </trkpt>
      <trkpt lat="43.25742" lon="5.95725">
        <ele>372.68478393555</ele>
        <time>2014-05-17T15:12:18Z</time>
      </trkpt>
      <trkpt lat="43.25742" lon="5.95727">
        <ele>372.55432128906</ele>
        <time>2014-05-17T15:12:19Z</time>
      </trkpt>
      <trkpt lat="43.25742" lon="5.95729">
        <ele>372.40667724609</ele>
        <time>2014-05-17T15:12:20Z</time>
      </trkpt>
      <trkpt lat="43.2574" lon="5.9574">
        <ele>371.85052490234</ele>
        <time>2014-05-17T15:12:24Z</time>
      </trkpt>
      <trkpt lat="43.25736" lon="5.95749">
        <ele>371.63079833984</ele>
        <time>2014-05-17T15:12:29Z</time>
      </trkpt>
      <trkpt lat="43.25733" lon="5.95754">
        <ele>371.70111083984</ele>
        <time>2014-05-17T15:12:32Z</time>
      </trkpt>
      <trkpt lat="43.25729" lon="5.95761">
        <ele>371.91052246094</ele>
        <time>2014-05-17T15:12:35Z</time>
      </trkpt>
      <trkpt lat="43.25726" lon="5.95766">
        <ele>372.03753662109</ele>
        <time>2014-05-17T15:12:37Z</time>
      </trkpt>
      <trkpt lat="43.2572" lon="5.9577">
        <ele>372.55615234375</ele>
        <time>2014-05-17T15:12:40Z</time>
      </trkpt>
      <trkpt lat="43.25713" lon="5.95775">
        <ele>373.44534301758</ele>
        <time>2014-05-17T15:12:43Z</time>
      </trkpt>
      <trkpt lat="43.25703" lon="5.95784">
        <ele>374.36227416992</ele>
        <time>2014-05-17T15:12:47Z</time>
      </trkpt>
      <trkpt lat="43.25702" lon="5.95786">
        <ele>374.45220947266</ele>
        <time>2014-05-17T15:12:48Z</time>
      </trkpt>
      <trkpt lat="43.25695" lon="5.95791">
        <ele>374.91714477539</ele>
        <time>2014-05-17T15:12:51Z</time>
      </trkpt>
      <trkpt lat="43.25693" lon="5.95793">
        <ele>375.09600830078</ele>
        <time>2014-05-17T15:12:52Z</time>
      </trkpt>
      <trkpt lat="43.25691" lon="5.95795">
        <ele>375.30200195312</ele>
        <time>2014-05-17T15:12:53Z</time>
      </trkpt>
      <trkpt lat="43.25689" lon="5.95797">
        <ele>375.42901611328</ele>
        <time>2014-05-17T15:12:54Z</time>
      </trkpt>
      <trkpt lat="43.25685" lon="5.95801">
        <ele>375.68994140625</ele>
        <time>2014-05-17T15:12:56Z</time>
      </trkpt>
      <trkpt lat="43.25683" lon="5.95805">
        <ele>375.66937255859</ele>
        <time>2014-05-17T15:12:57Z</time>
      </trkpt>
      <trkpt lat="43.25679" lon="5.95835">
        <ele>374.62048339844</ele>
        <time>2014-05-17T15:13:02Z</time>
      </trkpt>
      <trkpt lat="43.25678" lon="5.95847">
        <ele>373.83770751953</ele>
        <time>2014-05-17T15:13:04Z</time>
      </trkpt>
      <trkpt lat="43.25675" lon="5.95857">
        <ele>373.36047363281</ele>
        <time>2014-05-17T15:13:06Z</time>
      </trkpt>
      <trkpt lat="43.25673" lon="5.95863">
        <ele>373.1911315918</ele>
        <time>2014-05-17T15:13:07Z</time>
      </trkpt>
      <trkpt lat="43.25671" lon="5.95867">
        <ele>373.17150878906</ele>
        <time>2014-05-17T15:13:08Z</time>
      </trkpt>
      <trkpt lat="43.25667" lon="5.95871">
        <ele>373.28674316406</ele>
        <time>2014-05-17T15:13:09Z</time>
      </trkpt>
      <trkpt lat="43.25663" lon="5.95874">
        <ele>374.02648925781</ele>
        <time>2014-05-17T15:13:10Z</time>
      </trkpt>
      <trkpt lat="43.25658" lon="5.95878">
        <ele>374.77108764648</ele>
        <time>2014-05-17T15:13:11Z</time>
      </trkpt>
      <trkpt lat="43.2565" lon="5.95892">
        <ele>375.88934326172</ele>
        <time>2014-05-17T15:13:14Z</time>
      </trkpt>
      <trkpt lat="43.25648" lon="5.95907">
        <ele>375.05252075195</ele>
        <time>2014-05-17T15:13:17Z</time>
      </trkpt>
      <trkpt lat="43.25649" lon="5.9591">
        <ele>374.49139404297</ele>
        <time>2014-05-17T15:13:18Z</time>
      </trkpt>
      <trkpt lat="43.25652" lon="5.95924">
        <ele>372.39309692383</ele>
        <time>2014-05-17T15:13:22Z</time>
      </trkpt>
      <trkpt lat="43.25649" lon="5.95935">
        <ele>372.12545776367</ele>
        <time>2014-05-17T15:13:24Z</time>
      </trkpt>
      <trkpt lat="43.25645" lon="5.95938">
        <ele>372.59820556641</ele>
        <time>2014-05-17T15:13:25Z</time>
      </trkpt>
      <trkpt lat="43.25628" lon="5.95949">
        <ele>374.59091186523</ele>
        <time>2014-05-17T15:13:28Z</time>
      </trkpt>
      <trkpt lat="43.25622" lon="5.95952">
        <ele>375.39813232422</ele>
        <time>2014-05-17T15:13:29Z</time>
      </trkpt>
      <trkpt lat="43.25615" lon="5.95954">
        <ele>376.36846923828</ele>
        <time>2014-05-17T15:13:30Z</time>
      </trkpt>
      <trkpt lat="43.25608" lon="5.95955">
        <ele>377.10943603516</ele>
        <time>2014-05-17T15:13:31Z</time>
      </trkpt>
      <trkpt lat="43.25603" lon="5.95956">
        <ele>377.46389770508</ele>
        <time>2014-05-17T15:13:32Z</time>
      </trkpt>
      <trkpt lat="43.25598" lon="5.95958">
        <ele>377.74502563477</ele>
        <time>2014-05-17T15:13:33Z</time>
      </trkpt>
      <trkpt lat="43.25584" lon="5.95965">
        <ele>378.44134521484</ele>
        <time>2014-05-17T15:13:36Z</time>
      </trkpt>
      <trkpt lat="43.25578" lon="5.95973">
        <ele>378.76806640625</ele>
        <time>2014-05-17T15:13:38Z</time>
      </trkpt>
      <trkpt lat="43.25563" lon="5.96001">
        <ele>375.83795166016</ele>
        <time>2014-05-17T15:13:44Z</time>
      </trkpt>
      <trkpt lat="43.25562" lon="5.96016">
        <ele>373.7848815918</ele>
        <time>2014-05-17T15:13:47Z</time>
      </trkpt>
      <trkpt lat="43.25564" lon="5.96027">
        <ele>371.87600708008</ele>
        <time>2014-05-17T15:13:49Z</time>
      </trkpt>
      <trkpt lat="43.25566" lon="5.96042">
        <ele>369.90454101562</ele>
        <time>2014-05-17T15:13:52Z</time>
      </trkpt>
      <trkpt lat="43.25567" lon="5.96049">
        <ele>369.02221679688</ele>
        <time>2014-05-17T15:13:54Z</time>
      </trkpt>
      <trkpt lat="43.25567" lon="5.96051">
        <ele>368.81622314453</ele>
        <time>2014-05-17T15:13:55Z</time>
      </trkpt>
      <trkpt lat="43.25568" lon="5.96055">
        <ele>368.30294799805</ele>
        <time>2014-05-17T15:13:57Z</time>
      </trkpt>
      <trkpt lat="43.25569" lon="5.96058">
        <ele>367.67810058594</ele>
        <time>2014-05-17T15:14:01Z</time>
      </trkpt>
      <trkpt lat="43.2557" lon="5.96062">
        <ele>367.01446533203</ele>
        <time>2014-05-17T15:14:06Z</time>
      </trkpt>
      <trkpt lat="43.25568" lon="5.96067">
        <ele>366.40972900391</ele>
        <time>2014-05-17T15:14:08Z</time>
      </trkpt>
      <trkpt lat="43.25567" lon="5.9607">
        <ele>365.94326782227</ele>
        <time>2014-05-17T15:14:09Z</time>
      </trkpt>
      <trkpt lat="43.25565" lon="5.96073">
        <ele>365.70150756836</ele>
        <time>2014-05-17T15:14:10Z</time>
      </trkpt>
      <trkpt lat="43.25563" lon="5.96076">
        <ele>365.56372070312</ele>
        <time>2014-05-17T15:14:11Z</time>
      </trkpt>
      <trkpt lat="43.25559" lon="5.96078">
        <ele>365.53469848633</ele>
        <time>2014-05-17T15:14:12Z</time>
      </trkpt>
      <trkpt lat="43.25549" lon="5.96082">
        <ele>365.67877197266</ele>
        <time>2014-05-17T15:14:15Z</time>
      </trkpt>
      <trkpt lat="43.25545" lon="5.96084">
        <ele>365.67877197266</ele>
        <time>2014-05-17T15:14:17Z</time>
      </trkpt>
      <trkpt lat="43.25544" lon="5.96084">
        <ele>365.59637451172</ele>
        <time>2014-05-17T15:14:18Z</time>
      </trkpt>
      <trkpt lat="43.25544" lon="5.96088">
        <ele>364.94580078125</ele>
        <time>2014-05-17T15:14:22Z</time>
      </trkpt>
      <trkpt lat="43.25543" lon="5.9609">
        <ele>364.70202636719</ele>
        <time>2014-05-17T15:14:23Z</time>
      </trkpt>
      <trkpt lat="43.25542" lon="5.96093">
        <ele>364.2333984375</ele>
        <time>2014-05-17T15:14:24Z</time>
      </trkpt>
      <trkpt lat="43.25541" lon="5.96096">
        <ele>363.81970214844</ele>
        <time>2014-05-17T15:14:25Z</time>
      </trkpt>
      <trkpt lat="43.25536" lon="5.96101">
        <ele>363.15191650391</ele>
        <time>2014-05-17T15:14:27Z</time>
      </trkpt>
      <trkpt lat="43.25535" lon="5.96104">
        <ele>362.79830932617</ele>
        <time>2014-05-17T15:14:28Z</time>
      </trkpt>
      <trkpt lat="43.25533" lon="5.96105">
        <ele>362.67126464844</ele>
        <time>2014-05-17T15:14:29Z</time>
      </trkpt>
      <trkpt lat="43.25531" lon="5.96109">
        <ele>362.25927734375</ele>
        <time>2014-05-17T15:14:30Z</time>
      </trkpt>
      <trkpt lat="43.25528" lon="5.96112">
        <ele>361.85693359375</ele>
        <time>2014-05-17T15:14:31Z</time>
      </trkpt>
      <trkpt lat="43.25525" lon="5.96115">
        <ele>361.77993774414</ele>
        <time>2014-05-17T15:14:32Z</time>
      </trkpt>
      <trkpt lat="43.25522" lon="5.96118">
        <ele>361.74368286133</ele>
        <time>2014-05-17T15:14:33Z</time>
      </trkpt>
      <trkpt lat="43.25518" lon="5.96121">
        <ele>361.65328979492</ele>
        <time>2014-05-17T15:14:34Z</time>
      </trkpt>
      <trkpt lat="43.25512" lon="5.96129">
        <ele>361.47772216797</ele>
        <time>2014-05-17T15:14:36Z</time>
      </trkpt>
      <trkpt lat="43.25509" lon="5.96131">
        <ele>361.56253051758</ele>
        <time>2014-05-17T15:14:37Z</time>
      </trkpt>
      <trkpt lat="43.25506" lon="5.96134">
        <ele>361.78125</ele>
        <time>2014-05-17T15:14:38Z</time>
      </trkpt>
      <trkpt lat="43.25497" lon="5.96143">
        <ele>361.97772216797</ele>
        <time>2014-05-17T15:14:41Z</time>
      </trkpt>
      <trkpt lat="43.25496" lon="5.96148">
        <ele>361.40097045898</ele>
        <time>2014-05-17T15:14:42Z</time>
      </trkpt>
      <trkpt lat="43.25494" lon="5.96152">
        <ele>360.8708190918</ele>
        <time>2014-05-17T15:14:43Z</time>
      </trkpt>
      <trkpt lat="43.25494" lon="5.96157">
        <ele>360.30383300781</ele>
        <time>2014-05-17T15:14:44Z</time>
      </trkpt>
      <trkpt lat="43.25493" lon="5.9616">
        <ele>359.8561706543</ele>
        <time>2014-05-17T15:14:45Z</time>
      </trkpt>
      <trkpt lat="43.25492" lon="5.96178">
        <ele>357.96640014648</ele>
        <time>2014-05-17T15:14:50Z</time>
      </trkpt>
      <trkpt lat="43.25487" lon="5.96196">
        <ele>357.45391845703</ele>
        <time>2014-05-17T15:14:53Z</time>
      </trkpt>
      <trkpt lat="43.25486" lon="5.96203">
        <ele>357.00634765625</ele>
        <time>2014-05-17T15:14:54Z</time>
      </trkpt>
      <trkpt lat="43.25486" lon="5.96209">
        <ele>356.33123779297</ele>
        <time>2014-05-17T15:14:55Z</time>
      </trkpt>
      <trkpt lat="43.25485" lon="5.96215">
        <ele>355.71594238281</ele>
        <time>2014-05-17T15:14:56Z</time>
      </trkpt>
      <trkpt lat="43.25486" lon="5.9622">
        <ele>354.89071655273</ele>
        <time>2014-05-17T15:14:57Z</time>
      </trkpt>
      <trkpt lat="43.25486" lon="5.96227">
        <ele>354.18585205078</ele>
        <time>2014-05-17T15:14:58Z</time>
      </trkpt>
      <trkpt lat="43.25486" lon="5.96233">
        <ele>353.36206054688</ele>
        <time>2014-05-17T15:14:59Z</time>
      </trkpt>
      <trkpt lat="43.25487" lon="5.96239">
        <ele>352.31030273438</ele>
        <time>2014-05-17T15:15:00Z</time>
      </trkpt>
      <trkpt lat="43.2549" lon="5.9625">
        <ele>349.75579833984</ele>
        <time>2014-05-17T15:15:02Z</time>
      </trkpt>
      <trkpt lat="43.25491" lon="5.96256">
        <ele>348.67828369141</ele>
        <time>2014-05-17T15:15:03Z</time>
      </trkpt>
      <trkpt lat="43.25492" lon="5.96262">
        <ele>347.38119506836</ele>
        <time>2014-05-17T15:15:04Z</time>
      </trkpt>
      <trkpt lat="43.25493" lon="5.96266">
        <ele>346.57730102539</ele>
        <time>2014-05-17T15:15:05Z</time>
      </trkpt>
      <trkpt lat="43.25494" lon="5.96268">
        <ele>345.84030151367</ele>
        <time>2014-05-17T15:15:06Z</time>
      </trkpt>
      <trkpt lat="43.25495" lon="5.96268">
        <ele>345.45602416992</ele>
        <time>2014-05-17T15:15:07Z</time>
      </trkpt>
      <trkpt lat="43.25496" lon="5.96267">
        <ele>345.30764770508</ele>
        <time>2014-05-17T15:15:08Z</time>
      </trkpt>
      <trkpt lat="43.25496" lon="5.96267">
        <ele>345.34176635742</ele>
        <time>2014-05-17T15:15:09Z</time>
      </trkpt>
      <trkpt lat="43.25496" lon="5.96267">
        <ele>345.34176635742</ele>
        <time>2014-05-17T15:15:10Z</time>
      </trkpt>
      <trkpt lat="43.25496" lon="5.96268">
        <ele>345.04702758789</ele>
        <time>2014-05-17T15:15:11Z</time>
      </trkpt>
      <trkpt lat="43.25497" lon="5.96272">
        <ele>344.29623413086</ele>
        <time>2014-05-17T15:15:14Z</time>
      </trkpt>
      <trkpt lat="43.25497" lon="5.96272">
        <ele>344.29623413086</ele>
        <time>2014-05-17T15:15:22Z</time>
      </trkpt>
      <trkpt lat="43.25498" lon="5.96274">
        <ele>343.33746337891</ele>
        <time>2014-05-17T15:15:25Z</time>
      </trkpt>
      <trkpt lat="43.25499" lon="5.96274">
        <ele>343.1067199707</ele>
        <time>2014-05-17T15:15:29Z</time>
      </trkpt>
      <trkpt lat="43.255" lon="5.96276">
        <ele>342.30444335938</ele>
        <time>2014-05-17T15:15:34Z</time>
      </trkpt>
      <trkpt lat="43.25499" lon="5.96279">
        <ele>342.23345947266</ele>
        <time>2014-05-17T15:15:37Z</time>
      </trkpt>
      <trkpt lat="43.25499" lon="5.96285">
        <ele>342.23794555664</ele>
        <time>2014-05-17T15:15:39Z</time>
      </trkpt>
      <trkpt lat="43.25498" lon="5.96299">
        <ele>341.41705322266</ele>
        <time>2014-05-17T15:15:43Z</time>
      </trkpt>
      <trkpt lat="43.25498" lon="5.96305">
        <ele>340.98187255859</ele>
        <time>2014-05-17T15:15:45Z</time>
      </trkpt>
      <trkpt lat="43.25498" lon="5.96309">
        <ele>340.95669555664</ele>
        <time>2014-05-17T15:15:46Z</time>
      </trkpt>
      <trkpt lat="43.25499" lon="5.96312">
        <ele>340.74328613281</ele>
        <time>2014-05-17T15:15:47Z</time>
      </trkpt>
      <trkpt lat="43.25499" lon="5.96318">
        <ele>340.33288574219</ele>
        <time>2014-05-17T15:15:49Z</time>
      </trkpt>
      <trkpt lat="43.25499" lon="5.96331">
        <ele>340.31149291992</ele>
        <time>2014-05-17T15:15:54Z</time>
      </trkpt>
      <trkpt lat="43.25499" lon="5.96338">
        <ele>340.47875976562</ele>
        <time>2014-05-17T15:15:57Z</time>
      </trkpt>
      <trkpt lat="43.255" lon="5.96342">
        <ele>339.98336791992</ele>
        <time>2014-05-17T15:15:59Z</time>
      </trkpt>
      <trkpt lat="43.255" lon="5.96353">
        <ele>339.91738891602</ele>
        <time>2014-05-17T15:16:04Z</time>
      </trkpt>
      <trkpt lat="43.25502" lon="5.96363">
        <ele>339.5641784668</ele>
        <time>2014-05-17T15:16:07Z</time>
      </trkpt>
      <trkpt lat="43.25505" lon="5.9638">
        <ele>339.04187011719</ele>
        <time>2014-05-17T15:16:14Z</time>
      </trkpt>
      <trkpt lat="43.25507" lon="5.96393">
        <ele>338.54135131836</ele>
        <time>2014-05-17T15:16:19Z</time>
      </trkpt>
      <trkpt lat="43.25507" lon="5.96396">
        <ele>338.43151855469</ele>
        <time>2014-05-17T15:16:20Z</time>
      </trkpt>
      <trkpt lat="43.25512" lon="5.96406">
        <ele>337.16561889648</ele>
        <time>2014-05-17T15:16:24Z</time>
      </trkpt>
      <trkpt lat="43.25518" lon="5.96425">
        <ele>335.05679321289</ele>
        <time>2014-05-17T15:16:29Z</time>
      </trkpt>
      <trkpt lat="43.25518" lon="5.96439">
        <ele>334.56585693359</ele>
        <time>2014-05-17T15:16:33Z</time>
      </trkpt>
      <trkpt lat="43.25519" lon="5.96451">
        <ele>333.9186706543</ele>
        <time>2014-05-17T15:16:38Z</time>
      </trkpt>
      <trkpt lat="43.25521" lon="5.9646">
        <ele>333.01916503906</ele>
        <time>2014-05-17T15:16:40Z</time>
      </trkpt>
      <trkpt lat="43.25524" lon="5.96476">
        <ele>331.79864501953</ele>
        <time>2014-05-17T15:16:43Z</time>
      </trkpt>
      <trkpt lat="43.25529" lon="5.96488">
        <ele>330.21124267578</ele>
        <time>2014-05-17T15:16:46Z</time>
      </trkpt>
      <trkpt lat="43.25533" lon="5.96498">
        <ele>329.22003173828</ele>
        <time>2014-05-17T15:16:49Z</time>
      </trkpt>
      <trkpt lat="43.25536" lon="5.96506">
        <ele>328.37811279297</ele>
        <time>2014-05-17T15:16:51Z</time>
      </trkpt>
      <trkpt lat="43.25536" lon="5.96508">
        <ele>328.15325927734</ele>
        <time>2014-05-17T15:16:52Z</time>
      </trkpt>
      <trkpt lat="43.25537" lon="5.9651">
        <ele>327.95068359375</ele>
        <time>2014-05-17T15:16:53Z</time>
      </trkpt>
      <trkpt lat="43.25539" lon="5.96517">
        <ele>327.38250732422</ele>
        <time>2014-05-17T15:16:56Z</time>
      </trkpt>
      <trkpt lat="43.2554" lon="5.9652">
        <ele>327.06491088867</ele>
        <time>2014-05-17T15:16:57Z</time>
      </trkpt>
      <trkpt lat="43.25545" lon="5.96523">
        <ele>326.06585693359</ele>
        <time>2014-05-17T15:16:59Z</time>
      </trkpt>
      <trkpt lat="43.25547" lon="5.96523">
        <ele>325.78604125977</ele>
        <time>2014-05-17T15:17:02Z</time>
      </trkpt>
      <trkpt lat="43.25547" lon="5.96523">
        <ele>325.71737670898</ele>
        <time>2014-05-17T15:17:10Z</time>
      </trkpt>
      <trkpt lat="43.25547" lon="5.96523">
        <ele>325.71737670898</ele>
        <time>2014-05-17T15:17:24Z</time>
      </trkpt>
      <trkpt lat="43.25547" lon="5.96523">
        <ele>325.71737670898</ele>
        <time>2014-05-17T15:17:42Z</time>
      </trkpt>
      <trkpt lat="43.25548" lon="5.96523">
        <ele>325.56460571289</ele>
        <time>2014-05-17T15:17:48Z</time>
      </trkpt>
      <trkpt lat="43.25548" lon="5.96523">
        <ele>325.56460571289</ele>
        <time>2014-05-17T15:17:53Z</time>
      </trkpt>
      <trkpt lat="43.25551" lon="5.96521">
        <ele>325.07537841797</ele>
        <time>2014-05-17T15:17:55Z</time>
      </trkpt>
      <trkpt lat="43.25557" lon="5.96518">
        <ele>324.09420776367</ele>
        <time>2014-05-17T15:17:57Z</time>
      </trkpt>
      <trkpt lat="43.2557" lon="5.9651">
        <ele>321.65362548828</ele>
        <time>2014-05-17T15:18:00Z</time>
      </trkpt>
      <trkpt lat="43.25576" lon="5.96506">
        <ele>320.59881591797</ele>
        <time>2014-05-17T15:18:01Z</time>
      </trkpt>
      <trkpt lat="43.25585" lon="5.96499">
        <ele>318.93572998047</ele>
        <time>2014-05-17T15:18:03Z</time>
      </trkpt>
      <trkpt lat="43.2559" lon="5.96494">
        <ele>318.81680297852</ele>
        <time>2014-05-17T15:18:04Z</time>
      </trkpt>
      <trkpt lat="43.25594" lon="5.96489">
        <ele>318.75747680664</ele>
        <time>2014-05-17T15:18:05Z</time>
      </trkpt>
      <trkpt lat="43.25599" lon="5.96483">
        <ele>318.76843261719</ele>
        <time>2014-05-17T15:18:06Z</time>
      </trkpt>
      <trkpt lat="43.25604" lon="5.96477">
        <ele>318.86059570312</ele>
        <time>2014-05-17T15:18:07Z</time>
      </trkpt>
      <trkpt lat="43.25608" lon="5.96472">
        <ele>319.00601196289</ele>
        <time>2014-05-17T15:18:08Z</time>
      </trkpt>
      <trkpt lat="43.25619" lon="5.96462">
        <ele>318.72521972656</ele>
        <time>2014-05-17T15:18:10Z</time>
      </trkpt>
      <trkpt lat="43.25635" lon="5.96446">
        <ele>318.1484375</ele>
        <time>2014-05-17T15:18:13Z</time>
      </trkpt>
      <trkpt lat="43.25647" lon="5.96437">
        <ele>318.26196289062</ele>
        <time>2014-05-17T15:18:15Z</time>
      </trkpt>
      <trkpt lat="43.25653" lon="5.96435">
        <ele>318.33920288086</ele>
        <time>2014-05-17T15:18:16Z</time>
      </trkpt>
      <trkpt lat="43.25658" lon="5.96435">
        <ele>318.33062744141</ele>
        <time>2014-05-17T15:18:17Z</time>
      </trkpt>
      <trkpt lat="43.25669" lon="5.96442">
        <ele>318.08169555664</ele>
        <time>2014-05-17T15:18:19Z</time>
      </trkpt>
      <trkpt lat="43.25679" lon="5.96452">
        <ele>318</ele>
        <time>2014-05-17T15:18:21Z</time>
      </trkpt>
      <trkpt lat="43.25708" lon="5.96479">
        <ele>318</ele>
        <time>2014-05-17T15:18:26Z</time>
      </trkpt>
      <trkpt lat="43.2572" lon="5.96489">
        <ele>318</ele>
        <time>2014-05-17T15:18:28Z</time>
      </trkpt>
      <trkpt lat="43.25739" lon="5.96497">
        <ele>318</ele>
        <time>2014-05-17T15:18:31Z</time>
      </trkpt>
      <trkpt lat="43.25743" lon="5.96502">
        <ele>318</ele>
        <time>2014-05-17T15:18:32Z</time>
      </trkpt>
      <trkpt lat="43.25746" lon="5.96507">
        <ele>318</ele>
        <time>2014-05-17T15:18:33Z</time>
      </trkpt>
      <trkpt lat="43.25749" lon="5.96514">
        <ele>318</ele>
        <time>2014-05-17T15:18:34Z</time>
      </trkpt>
      <trkpt lat="43.25751" lon="5.96523">
        <ele>317.83850097656</ele>
        <time>2014-05-17T15:18:35Z</time>
      </trkpt>
      <trkpt lat="43.25755" lon="5.96531">
        <ele>317.38912963867</ele>
        <time>2014-05-17T15:18:36Z</time>
      </trkpt>
      <trkpt lat="43.25758" lon="5.9654">
        <ele>316.72994995117</ele>
        <time>2014-05-17T15:18:37Z</time>
      </trkpt>
      <trkpt lat="43.25765" lon="5.96559">
        <ele>315.35534667969</ele>
        <time>2014-05-17T15:18:39Z</time>
      </trkpt>
      <trkpt lat="43.25769" lon="5.96567">
        <ele>314.98455810547</ele>
        <time>2014-05-17T15:18:40Z</time>
      </trkpt>
      <trkpt lat="43.25772" lon="5.96574">
        <ele>314.57257080078</ele>
        <time>2014-05-17T15:18:41Z</time>
      </trkpt>
      <trkpt lat="43.25776" lon="5.9658">
        <ele>314.20178222656</ele>
        <time>2014-05-17T15:18:42Z</time>
      </trkpt>
      <trkpt lat="43.25779" lon="5.96583">
        <ele>313.91360473633</ele>
        <time>2014-05-17T15:18:43Z</time>
      </trkpt>
      <trkpt lat="43.2578" lon="5.96584">
        <ele>313.74810791016</ele>
        <time>2014-05-17T15:18:44Z</time>
      </trkpt>
      <trkpt lat="43.25781" lon="5.96587">
        <ele>313.4826965332</ele>
        <time>2014-05-17T15:18:46Z</time>
      </trkpt>
      <trkpt lat="43.25787" lon="5.966">
        <ele>312.14013671875</ele>
        <time>2014-05-17T15:18:52Z</time>
      </trkpt>
      <trkpt lat="43.25788" lon="5.96604">
        <ele>311.87832641602</ele>
        <time>2014-05-17T15:18:53Z</time>
      </trkpt>
      <trkpt lat="43.2579" lon="5.96606">
        <ele>311.55081176758</ele>
        <time>2014-05-17T15:18:54Z</time>
      </trkpt>
      <trkpt lat="43.25792" lon="5.96612">
        <ele>310.90698242188</ele>
        <time>2014-05-17T15:18:56Z</time>
      </trkpt>
      <trkpt lat="43.25797" lon="5.96618">
        <ele>310.24780273438</ele>
        <time>2014-05-17T15:18:58Z</time>
      </trkpt>
      <trkpt lat="43.25826" lon="5.96653">
        <ele>306.44540405273</ele>
        <time>2014-05-17T15:19:12Z</time>
      </trkpt>
      <trkpt lat="43.25831" lon="5.96659">
        <ele>305.89263916016</ele>
        <time>2014-05-17T15:19:14Z</time>
      </trkpt>
      <trkpt lat="43.25834" lon="5.96662">
        <ele>305.6396484375</ele>
        <time>2014-05-17T15:19:15Z</time>
      </trkpt>
      <trkpt lat="43.25841" lon="5.96672">
        <ele>305.31610107422</ele>
        <time>2014-05-17T15:19:18Z</time>
      </trkpt>
      <trkpt lat="43.25852" lon="5.96684">
        <ele>305.23370361328</ele>
        <time>2014-05-17T15:19:22Z</time>
      </trkpt>
      <trkpt lat="43.25865" lon="5.96708">
        <ele>305.44421386719</ele>
        <time>2014-05-17T15:19:27Z</time>
      </trkpt>
      <trkpt lat="43.25867" lon="5.96714">
        <ele>305.51858520508</ele>
        <time>2014-05-17T15:19:28Z</time>
      </trkpt>
      <trkpt lat="43.25876" lon="5.96737">
        <ele>304.24465942383</ele>
        <time>2014-05-17T15:19:32Z</time>
      </trkpt>
      <trkpt lat="43.25878" lon="5.96744">
        <ele>303.85467529297</ele>
        <time>2014-05-17T15:19:33Z</time>
      </trkpt>
      <trkpt lat="43.2588" lon="5.9675">
        <ele>303.35241699219</ele>
        <time>2014-05-17T15:19:34Z</time>
      </trkpt>
      <trkpt lat="43.25885" lon="5.96768">
        <ele>304.86901855469</ele>
        <time>2014-05-17T15:19:37Z</time>
      </trkpt>
      <trkpt lat="43.25894" lon="5.96785">
        <ele>305.12225341797</ele>
        <time>2014-05-17T15:19:40Z</time>
      </trkpt>
      <trkpt lat="43.25908" lon="5.96805">
        <ele>303.103515625</ele>
        <time>2014-05-17T15:19:44Z</time>
      </trkpt>
      <trkpt lat="43.25915" lon="5.96816">
        <ele>300.75933837891</ele>
        <time>2014-05-17T15:19:46Z</time>
      </trkpt>
      <trkpt lat="43.25938" lon="5.96836">
        <ele>300.12796020508</ele>
        <time>2014-05-17T15:19:51Z</time>
      </trkpt>
      <trkpt lat="43.25965" lon="5.96845">
        <ele>300</ele>
        <time>2014-05-17T15:19:57Z</time>
      </trkpt>
      <trkpt lat="43.25968" lon="5.96848">
        <ele>300</ele>
        <time>2014-05-17T15:20:02Z</time>
      </trkpt>
      <trkpt lat="43.25968" lon="5.96848">
        <ele>300</ele>
        <time>2014-05-17T15:20:23Z</time>
      </trkpt>
      <trkpt lat="43.25969" lon="5.96852">
        <ele>300</ele>
        <time>2014-05-17T15:20:33Z</time>
      </trkpt>
      <trkpt lat="43.25973" lon="5.96863">
        <ele>300</ele>
        <time>2014-05-17T15:20:36Z</time>
      </trkpt>
      <trkpt lat="43.25978" lon="5.9687">
        <ele>300</ele>
        <time>2014-05-17T15:20:38Z</time>
      </trkpt>
      <trkpt lat="43.25982" lon="5.96875">
        <ele>300</ele>
        <time>2014-05-17T15:20:39Z</time>
      </trkpt>
      <trkpt lat="43.25985" lon="5.9688">
        <ele>300</ele>
        <time>2014-05-17T15:20:40Z</time>
      </trkpt>
      <trkpt lat="43.25994" lon="5.9689">
        <ele>300</ele>
        <time>2014-05-17T15:20:42Z</time>
      </trkpt>
      <trkpt lat="43.25998" lon="5.96895">
        <ele>300</ele>
        <time>2014-05-17T15:20:43Z</time>
      </trkpt>
      <trkpt lat="43.26004" lon="5.969">
        <ele>300</ele>
        <time>2014-05-17T15:20:44Z</time>
      </trkpt>
      <trkpt lat="43.26009" lon="5.96904">
        <ele>300</ele>
        <time>2014-05-17T15:20:45Z</time>
      </trkpt>
      <trkpt lat="43.26015" lon="5.96908">
        <ele>300</ele>
        <time>2014-05-17T15:20:46Z</time>
      </trkpt>
      <trkpt lat="43.26022" lon="5.96912">
        <ele>300</ele>
        <time>2014-05-17T15:20:47Z</time>
      </trkpt>
      <trkpt lat="43.26042" lon="5.96929">
        <ele>300.21496582031</ele>
        <time>2014-05-17T15:20:51Z</time>
      </trkpt>
      <trkpt lat="43.26052" lon="5.96933">
        <ele>300.5126953125</ele>
        <time>2014-05-17T15:20:53Z</time>
      </trkpt>
      <trkpt lat="43.26056" lon="5.96933">
        <ele>300.61111450195</ele>
        <time>2014-05-17T15:20:54Z</time>
      </trkpt>
      <trkpt lat="43.2606" lon="5.9693">
        <ele>300.64538574219</ele>
        <time>2014-05-17T15:20:55Z</time>
      </trkpt>
      <trkpt lat="43.26062" lon="5.96924">
        <ele>300.42059326172</ele>
        <time>2014-05-17T15:20:56Z</time>
      </trkpt>
      <trkpt lat="43.26064" lon="5.96919">
        <ele>300.11672973633</ele>
        <time>2014-05-17T15:20:57Z</time>
      </trkpt>
      <trkpt lat="43.26064" lon="5.96911">
        <ele>300</ele>
        <time>2014-05-17T15:20:58Z</time>
      </trkpt>
      <trkpt lat="43.26065" lon="5.96893">
        <ele>300</ele>
        <time>2014-05-17T15:21:00Z</time>
      </trkpt>
      <trkpt lat="43.26066" lon="5.96873">
        <ele>300</ele>
        <time>2014-05-17T15:21:02Z</time>
      </trkpt>
      <trkpt lat="43.26068" lon="5.96851">
        <ele>300</ele>
        <time>2014-05-17T15:21:04Z</time>
      </trkpt>
      <trkpt lat="43.26068" lon="5.96841">
        <ele>300</ele>
        <time>2014-05-17T15:21:05Z</time>
      </trkpt>
      <trkpt lat="43.26069" lon="5.96829">
        <ele>300</ele>
        <time>2014-05-17T15:21:06Z</time>
      </trkpt>
      <trkpt lat="43.2607" lon="5.96818">
        <ele>300</ele>
        <time>2014-05-17T15:21:07Z</time>
      </trkpt>
      <trkpt lat="43.2607" lon="5.96806">
        <ele>300</ele>
        <time>2014-05-17T15:21:08Z</time>
      </trkpt>
      <trkpt lat="43.2607" lon="5.96795">
        <ele>300</ele>
        <time>2014-05-17T15:21:09Z</time>
      </trkpt>
      <trkpt lat="43.26071" lon="5.96783">
        <ele>300</ele>
        <time>2014-05-17T15:21:10Z</time>
      </trkpt>
      <trkpt lat="43.26074" lon="5.9676">
        <ele>298.73965454102</ele>
        <time>2014-05-17T15:21:12Z</time>
      </trkpt>
      <trkpt lat="43.26076" lon="5.9675">
        <ele>298</ele>
        <time>2014-05-17T15:21:13Z</time>
      </trkpt>
      <trkpt lat="43.26087" lon="5.96709">
        <ele>297.52447509766</ele>
        <time>2014-05-17T15:21:17Z</time>
      </trkpt>
      <trkpt lat="43.26096" lon="5.96679">
        <ele>296.21719360352</ele>
        <time>2014-05-17T15:21:20Z</time>
      </trkpt>
      <trkpt lat="43.261" lon="5.9667">
        <ele>295.58038330078</ele>
        <time>2014-05-17T15:21:21Z</time>
      </trkpt>
      <trkpt lat="43.26114" lon="5.96629">
        <ele>294.25424194336</ele>
        <time>2014-05-17T15:21:25Z</time>
      </trkpt>
      <trkpt lat="43.26121" lon="5.96609">
        <ele>291.73950195312</ele>
        <time>2014-05-17T15:21:27Z</time>
      </trkpt>
      <trkpt lat="43.26124" lon="5.966">
        <ele>289.82818603516</ele>
        <time>2014-05-17T15:21:28Z</time>
      </trkpt>
      <trkpt lat="43.26132" lon="5.96584">
        <ele>285.44058227539</ele>
        <time>2014-05-17T15:21:30Z</time>
      </trkpt>
      <trkpt lat="43.26137" lon="5.96579">
        <ele>283.24407958984</ele>
        <time>2014-05-17T15:21:31Z</time>
      </trkpt>
      <trkpt lat="43.26143" lon="5.96575">
        <ele>282.47451782227</ele>
        <time>2014-05-17T15:21:32Z</time>
      </trkpt>
      <trkpt lat="43.26156" lon="5.96569">
        <ele>283.03277587891</ele>
        <time>2014-05-17T15:21:34Z</time>
      </trkpt>
      <trkpt lat="43.26163" lon="5.96566">
        <ele>283.20034790039</ele>
        <time>2014-05-17T15:21:35Z</time>
      </trkpt>
      <trkpt lat="43.26171" lon="5.96562">
        <ele>284.13009643555</ele>
        <time>2014-05-17T15:21:36Z</time>
      </trkpt>
      <trkpt lat="43.26178" lon="5.96557">
        <ele>285.56555175781</ele>
        <time>2014-05-17T15:21:37Z</time>
      </trkpt>
      <trkpt lat="43.26184" lon="5.96552">
        <ele>285.88623046875</ele>
        <time>2014-05-17T15:21:38Z</time>
      </trkpt>
      <trkpt lat="43.2619" lon="5.96536">
        <ele>282.41763305664</ele>
        <time>2014-05-17T15:21:40Z</time>
      </trkpt>
      <trkpt lat="43.26189" lon="5.96527">
        <ele>279.55380249023</ele>
        <time>2014-05-17T15:21:41Z</time>
      </trkpt>
      <trkpt lat="43.26189" lon="5.96518">
        <ele>278.36413574219</ele>
        <time>2014-05-17T15:21:42Z</time>
      </trkpt>
      <trkpt lat="43.26189" lon="5.96489">
        <ele>273.95010375977</ele>
        <time>2014-05-17T15:21:45Z</time>
      </trkpt>
      <trkpt lat="43.26191" lon="5.96479">
        <ele>271.93630981445</ele>
        <time>2014-05-17T15:21:46Z</time>
      </trkpt>
      <trkpt lat="43.26195" lon="5.96461">
        <ele>267.77896118164</ele>
        <time>2014-05-17T15:21:48Z</time>
      </trkpt>
      <trkpt lat="43.26198" lon="5.96451">
        <ele>265.31182861328</ele>
        <time>2014-05-17T15:21:49Z</time>
      </trkpt>
      <trkpt lat="43.26201" lon="5.96443">
        <ele>262.78924560547</ele>
        <time>2014-05-17T15:21:50Z</time>
      </trkpt>
      <trkpt lat="43.26205" lon="5.96434">
        <ele>260.48211669922</ele>
        <time>2014-05-17T15:21:51Z</time>
      </trkpt>
      <trkpt lat="43.2621" lon="5.96426">
        <ele>257.90719604492</ele>
        <time>2014-05-17T15:21:52Z</time>
      </trkpt>
      <trkpt lat="43.26214" lon="5.96418">
        <ele>255.45587158203</ele>
        <time>2014-05-17T15:21:53Z</time>
      </trkpt>
      <trkpt lat="43.26224" lon="5.96402">
        <ele>249.44778442383</ele>
        <time>2014-05-17T15:21:55Z</time>
      </trkpt>
      <trkpt lat="43.26234" lon="5.96387">
        <ele>243.9842376709</ele>
        <time>2014-05-17T15:21:57Z</time>
      </trkpt>
      <trkpt lat="43.26239" lon="5.96381">
        <ele>242.66026306152</ele>
        <time>2014-05-17T15:21:58Z</time>
      </trkpt>
      <trkpt lat="43.26252" lon="5.96368">
        <ele>240</ele>
        <time>2014-05-17T15:22:01Z</time>
      </trkpt>
      <trkpt lat="43.26257" lon="5.96364">
        <ele>240</ele>
        <time>2014-05-17T15:22:02Z</time>
      </trkpt>
      <trkpt lat="43.26262" lon="5.96361">
        <ele>240</ele>
        <time>2014-05-17T15:22:03Z</time>
      </trkpt>
      <trkpt lat="43.26265" lon="5.96359">
        <ele>240</ele>
        <time>2014-05-17T15:22:04Z</time>
      </trkpt>
      <trkpt lat="43.26269" lon="5.96356">
        <ele>240</ele>
        <time>2014-05-17T15:22:05Z</time>
      </trkpt>
      <trkpt lat="43.26273" lon="5.96354">
        <ele>240</ele>
        <time>2014-05-17T15:22:06Z</time>
      </trkpt>
      <trkpt lat="43.2628" lon="5.96351">
        <ele>240</ele>
        <time>2014-05-17T15:22:07Z</time>
      </trkpt>
      <trkpt lat="43.26284" lon="5.96349">
        <ele>240</ele>
        <time>2014-05-17T15:22:08Z</time>
      </trkpt>
      <trkpt lat="43.2629" lon="5.96341">
        <ele>240</ele>
        <time>2014-05-17T15:22:11Z</time>
      </trkpt>
      <trkpt lat="43.26295" lon="5.96332">
        <ele>240</ele>
        <time>2014-05-17T15:22:15Z</time>
      </trkpt>
      <trkpt lat="43.26295" lon="5.96331">
        <ele>240</ele>
        <time>2014-05-17T15:22:16Z</time>
      </trkpt>
      <trkpt lat="43.26295" lon="5.9633">
        <ele>240</ele>
        <time>2014-05-17T15:22:17Z</time>
      </trkpt>
      <trkpt lat="43.26296" lon="5.9633">
        <ele>240</ele>
        <time>2014-05-17T15:22:18Z</time>
      </trkpt>
      <trkpt lat="43.26296" lon="5.96329">
        <ele>240</ele>
        <time>2014-05-17T15:22:19Z</time>
      </trkpt>
      <trkpt lat="43.26296" lon="5.96329">
        <ele>240</ele>
        <time>2014-05-17T15:22:35Z</time>
      </trkpt>
      <trkpt lat="43.26297" lon="5.96328">
        <ele>240</ele>
        <time>2014-05-17T15:22:51Z</time>
      </trkpt>
      <trkpt lat="43.26297" lon="5.96327">
        <ele>240</ele>
        <time>2014-05-17T15:22:58Z</time>
      </trkpt>
      <trkpt lat="43.26297" lon="5.96327">
        <ele>240</ele>
        <time>2014-05-17T15:23:03Z</time>
      </trkpt>
      <trkpt lat="43.26299" lon="5.96324">
        <ele>240</ele>
        <time>2014-05-17T15:23:16Z</time>
      </trkpt>
      <trkpt lat="43.26299" lon="5.96324">
        <ele>240</ele>
        <time>2014-05-17T15:23:39Z</time>
      </trkpt>
      <trkpt lat="43.26299" lon="5.96324">
        <ele>240</ele>
        <time>2014-05-17T15:24:04Z</time>
      </trkpt>
      <trkpt lat="43.26299" lon="5.96324">
        <ele>240</ele>
        <time>2014-05-17T15:24:15Z</time>
      </trkpt>
      <trkpt lat="43.26299" lon="5.96324">
        <ele>240</ele>
        <time>2014-05-17T15:24:29Z</time>
      </trkpt>
      <trkpt lat="43.26298" lon="5.96324">
        <ele>240</ele>
        <time>2014-05-17T15:24:35Z</time>
      </trkpt>
      <trkpt lat="43.26298" lon="5.96324">
        <ele>240</ele>
        <time>2014-05-17T15:24:58Z</time>
      </trkpt>
      <trkpt lat="43.26298" lon="5.96324">
        <ele>240</ele>
        <time>2014-05-17T15:25:27Z</time>
      </trkpt>
    </trkseg>
  </trk>
</gpx>